<?xml version="1.0" encoding="UTF-8" standalone="no" ?>
<gpx xmlns="http://www.topografix.com/GPX/1/1" xmlns:xsi="http://www.w3.org/2001/XMLSchema-instance" xsi:schemaLocation="http://www.topografix.com/GPX/1/1 http://www.topografix.com/GPX/1/1/gpx.xsd" version="1.1" creator="VisuGPX - https://www.visugpx.com">
  <metadata>
    <name>Bignan</name>
  </metadata>
  <trk>
    <name><![CDATA[Bignan_1]]></name>
    <trkseg>
      <trkpt lat="47.85686" lon="-2.78681">
        <ele>169.4</ele>
        <time>2021-01-31T08:47:46Z</time>
      </trkpt>
      <trkpt lat="47.85685" lon="-2.78678">
        <ele>191</ele>
        <time>2021-01-31T08:47:51Z</time>
      </trkpt>
      <trkpt lat="47.85685" lon="-2.78676">
        <ele>191</ele>
        <time>2021-01-31T08:47:53Z</time>
      </trkpt>
      <trkpt lat="47.85685" lon="-2.78672">
        <ele>191</ele>
        <time>2021-01-31T08:47:55Z</time>
      </trkpt>
      <trkpt lat="47.85685" lon="-2.78669">
        <ele>191</ele>
        <time>2021-01-31T08:48:27Z</time>
      </trkpt>
      <trkpt lat="47.85685" lon="-2.78667">
        <ele>191</ele>
        <time>2021-01-31T08:48:29Z</time>
      </trkpt>
      <trkpt lat="47.85685" lon="-2.78663">
        <ele>191</ele>
        <time>2021-01-31T08:48:32Z</time>
      </trkpt>
      <trkpt lat="47.85685" lon="-2.7866">
        <ele>191</ele>
        <time>2021-01-31T08:48:34Z</time>
      </trkpt>
      <trkpt lat="47.85685" lon="-2.78657">
        <ele>191</ele>
        <time>2021-01-31T08:48:36Z</time>
      </trkpt>
      <trkpt lat="47.85685" lon="-2.78654">
        <ele>191</ele>
        <time>2021-01-31T08:48:38Z</time>
      </trkpt>
      <trkpt lat="47.85685" lon="-2.78651">
        <ele>191</ele>
        <time>2021-01-31T08:48:40Z</time>
      </trkpt>
      <trkpt lat="47.85685" lon="-2.78648">
        <ele>191</ele>
        <time>2021-01-31T08:48:42Z</time>
      </trkpt>
      <trkpt lat="47.85685" lon="-2.78645">
        <ele>191</ele>
        <time>2021-01-31T08:48:44Z</time>
      </trkpt>
      <trkpt lat="47.85685" lon="-2.78641">
        <ele>191</ele>
        <time>2021-01-31T08:48:46Z</time>
      </trkpt>
      <trkpt lat="47.85685" lon="-2.78638">
        <ele>191</ele>
        <time>2021-01-31T08:48:48Z</time>
      </trkpt>
      <trkpt lat="47.85685" lon="-2.78634">
        <ele>191</ele>
        <time>2021-01-31T08:48:50Z</time>
      </trkpt>
      <trkpt lat="47.85685" lon="-2.78631">
        <ele>191</ele>
        <time>2021-01-31T08:48:52Z</time>
      </trkpt>
      <trkpt lat="47.85686" lon="-2.78627">
        <ele>191</ele>
        <time>2021-01-31T08:48:54Z</time>
      </trkpt>
      <trkpt lat="47.85686" lon="-2.78623">
        <ele>191</ele>
        <time>2021-01-31T08:48:56Z</time>
      </trkpt>
      <trkpt lat="47.85687" lon="-2.7862">
        <ele>191</ele>
        <time>2021-01-31T08:48:58Z</time>
      </trkpt>
      <trkpt lat="47.85687" lon="-2.78618">
        <ele>191</ele>
        <time>2021-01-31T08:49:00Z</time>
      </trkpt>
      <trkpt lat="47.85688" lon="-2.78613">
        <ele>191</ele>
        <time>2021-01-31T08:49:02Z</time>
      </trkpt>
      <trkpt lat="47.85688" lon="-2.78609">
        <ele>191</ele>
        <time>2021-01-31T08:49:04Z</time>
      </trkpt>
      <trkpt lat="47.85689" lon="-2.78605">
        <ele>191</ele>
        <time>2021-01-31T08:49:06Z</time>
      </trkpt>
      <trkpt lat="47.85687" lon="-2.786">
        <ele>191</ele>
        <time>2021-01-31T08:49:08Z</time>
      </trkpt>
      <trkpt lat="47.85686" lon="-2.78596">
        <ele>191</ele>
        <time>2021-01-31T08:49:09Z</time>
      </trkpt>
      <trkpt lat="47.85685" lon="-2.78594">
        <ele>191</ele>
        <time>2021-01-31T08:49:10Z</time>
      </trkpt>
      <trkpt lat="47.85685" lon="-2.78591">
        <ele>191</ele>
        <time>2021-01-31T08:49:11Z</time>
      </trkpt>
      <trkpt lat="47.85684" lon="-2.78588">
        <ele>191</ele>
        <time>2021-01-31T08:49:12Z</time>
      </trkpt>
      <trkpt lat="47.85684" lon="-2.78583">
        <ele>191</ele>
        <time>2021-01-31T08:49:14Z</time>
      </trkpt>
      <trkpt lat="47.85683" lon="-2.78578">
        <ele>191</ele>
        <time>2021-01-31T08:49:16Z</time>
      </trkpt>
      <trkpt lat="47.85683" lon="-2.78573">
        <ele>191</ele>
        <time>2021-01-31T08:49:18Z</time>
      </trkpt>
      <trkpt lat="47.85684" lon="-2.78569">
        <ele>191</ele>
        <time>2021-01-31T08:49:20Z</time>
      </trkpt>
      <trkpt lat="47.85685" lon="-2.78566">
        <ele>191</ele>
        <time>2021-01-31T08:49:22Z</time>
      </trkpt>
      <trkpt lat="47.85686" lon="-2.78561">
        <ele>191</ele>
        <time>2021-01-31T08:49:24Z</time>
      </trkpt>
      <trkpt lat="47.85686" lon="-2.78557">
        <ele>191</ele>
        <time>2021-01-31T08:49:26Z</time>
      </trkpt>
      <trkpt lat="47.85686" lon="-2.78553">
        <ele>191</ele>
        <time>2021-01-31T08:49:28Z</time>
      </trkpt>
      <trkpt lat="47.85687" lon="-2.7855">
        <ele>191</ele>
        <time>2021-01-31T08:49:31Z</time>
      </trkpt>
      <trkpt lat="47.85687" lon="-2.78547">
        <ele>191</ele>
        <time>2021-01-31T08:49:33Z</time>
      </trkpt>
      <trkpt lat="47.85687" lon="-2.78543">
        <ele>191</ele>
        <time>2021-01-31T08:49:35Z</time>
      </trkpt>
      <trkpt lat="47.85688" lon="-2.78539">
        <ele>191</ele>
        <time>2021-01-31T08:49:37Z</time>
      </trkpt>
      <trkpt lat="47.85688" lon="-2.78535">
        <ele>191</ele>
        <time>2021-01-31T08:49:39Z</time>
      </trkpt>
      <trkpt lat="47.85688" lon="-2.78532">
        <ele>191</ele>
        <time>2021-01-31T08:49:41Z</time>
      </trkpt>
      <trkpt lat="47.85688" lon="-2.78529">
        <ele>191</ele>
        <time>2021-01-31T08:49:43Z</time>
      </trkpt>
      <trkpt lat="47.85689" lon="-2.78526">
        <ele>191</ele>
        <time>2021-01-31T08:49:45Z</time>
      </trkpt>
      <trkpt lat="47.85691" lon="-2.78523">
        <ele>191</ele>
        <time>2021-01-31T08:49:47Z</time>
      </trkpt>
      <trkpt lat="47.85691" lon="-2.78519">
        <ele>191</ele>
        <time>2021-01-31T08:49:49Z</time>
      </trkpt>
      <trkpt lat="47.85691" lon="-2.78516">
        <ele>191</ele>
        <time>2021-01-31T08:49:51Z</time>
      </trkpt>
      <trkpt lat="47.85691" lon="-2.78513">
        <ele>191</ele>
        <time>2021-01-31T08:49:53Z</time>
      </trkpt>
      <trkpt lat="47.8569" lon="-2.78509">
        <ele>191</ele>
        <time>2021-01-31T08:49:55Z</time>
      </trkpt>
      <trkpt lat="47.8569" lon="-2.78505">
        <ele>191</ele>
        <time>2021-01-31T08:49:57Z</time>
      </trkpt>
      <trkpt lat="47.8569" lon="-2.78501">
        <ele>191</ele>
        <time>2021-01-31T08:49:59Z</time>
      </trkpt>
      <trkpt lat="47.85691" lon="-2.78498">
        <ele>191</ele>
        <time>2021-01-31T08:50:01Z</time>
      </trkpt>
      <trkpt lat="47.85692" lon="-2.78495">
        <ele>191</ele>
        <time>2021-01-31T08:50:03Z</time>
      </trkpt>
      <trkpt lat="47.85693" lon="-2.78491">
        <ele>191</ele>
        <time>2021-01-31T08:50:05Z</time>
      </trkpt>
      <trkpt lat="47.85694" lon="-2.78484">
        <ele>191</ele>
        <time>2021-01-31T08:50:08Z</time>
      </trkpt>
      <trkpt lat="47.85694" lon="-2.78479">
        <ele>191</ele>
        <time>2021-01-31T08:50:10Z</time>
      </trkpt>
      <trkpt lat="47.85693" lon="-2.78474">
        <ele>191</ele>
        <time>2021-01-31T08:50:12Z</time>
      </trkpt>
      <trkpt lat="47.85694" lon="-2.7847">
        <ele>191</ele>
        <time>2021-01-31T08:50:14Z</time>
      </trkpt>
      <trkpt lat="47.85693" lon="-2.78465">
        <ele>191</ele>
        <time>2021-01-31T08:50:16Z</time>
      </trkpt>
      <trkpt lat="47.85693" lon="-2.7846">
        <ele>191</ele>
        <time>2021-01-31T08:50:18Z</time>
      </trkpt>
      <trkpt lat="47.85693" lon="-2.78455">
        <ele>191</ele>
        <time>2021-01-31T08:50:20Z</time>
      </trkpt>
      <trkpt lat="47.85693" lon="-2.78452">
        <ele>191</ele>
        <time>2021-01-31T08:50:22Z</time>
      </trkpt>
      <trkpt lat="47.85694" lon="-2.78449">
        <ele>191</ele>
        <time>2021-01-31T08:50:24Z</time>
      </trkpt>
      <trkpt lat="47.85694" lon="-2.78445">
        <ele>191</ele>
        <time>2021-01-31T08:50:26Z</time>
      </trkpt>
      <trkpt lat="47.85695" lon="-2.7844">
        <ele>191</ele>
        <time>2021-01-31T08:50:28Z</time>
      </trkpt>
      <trkpt lat="47.85695" lon="-2.78437">
        <ele>191</ele>
        <time>2021-01-31T08:50:29Z</time>
      </trkpt>
      <trkpt lat="47.85696" lon="-2.78432">
        <ele>191</ele>
        <time>2021-01-31T08:50:31Z</time>
      </trkpt>
      <trkpt lat="47.85697" lon="-2.78428">
        <ele>191</ele>
        <time>2021-01-31T08:50:33Z</time>
      </trkpt>
      <trkpt lat="47.85698" lon="-2.78425">
        <ele>191</ele>
        <time>2021-01-31T08:50:34Z</time>
      </trkpt>
      <trkpt lat="47.85698" lon="-2.78422">
        <ele>191</ele>
        <time>2021-01-31T08:50:35Z</time>
      </trkpt>
      <trkpt lat="47.857" lon="-2.78413">
        <ele>191</ele>
        <time>2021-01-31T08:50:38Z</time>
      </trkpt>
      <trkpt lat="47.85699" lon="-2.78408">
        <ele>191</ele>
        <time>2021-01-31T08:50:40Z</time>
      </trkpt>
      <trkpt lat="47.85698" lon="-2.78405">
        <ele>191</ele>
        <time>2021-01-31T08:50:42Z</time>
      </trkpt>
      <trkpt lat="47.85697" lon="-2.78403">
        <ele>191</ele>
        <time>2021-01-31T08:50:44Z</time>
      </trkpt>
      <trkpt lat="47.85695" lon="-2.78401">
        <ele>191</ele>
        <time>2021-01-31T08:50:47Z</time>
      </trkpt>
      <trkpt lat="47.85693" lon="-2.784">
        <ele>191</ele>
        <time>2021-01-31T08:50:49Z</time>
      </trkpt>
      <trkpt lat="47.8569" lon="-2.78397">
        <ele>191</ele>
        <time>2021-01-31T08:50:51Z</time>
      </trkpt>
      <trkpt lat="47.85688" lon="-2.78395">
        <ele>191</ele>
        <time>2021-01-31T08:50:53Z</time>
      </trkpt>
      <trkpt lat="47.85686" lon="-2.78392">
        <ele>191</ele>
        <time>2021-01-31T08:50:57Z</time>
      </trkpt>
      <trkpt lat="47.85684" lon="-2.7839">
        <ele>191</ele>
        <time>2021-01-31T08:50:59Z</time>
      </trkpt>
      <trkpt lat="47.85682" lon="-2.78388">
        <ele>191</ele>
        <time>2021-01-31T08:51:01Z</time>
      </trkpt>
      <trkpt lat="47.8568" lon="-2.78387">
        <ele>191</ele>
        <time>2021-01-31T08:51:02Z</time>
      </trkpt>
      <trkpt lat="47.85678" lon="-2.78383">
        <ele>191</ele>
        <time>2021-01-31T08:51:04Z</time>
      </trkpt>
      <trkpt lat="47.85676" lon="-2.78382">
        <ele>186</ele>
        <time>2021-01-31T08:51:06Z</time>
      </trkpt>
      <trkpt lat="47.85674" lon="-2.78379">
        <ele>186</ele>
        <time>2021-01-31T08:51:07Z</time>
      </trkpt>
      <trkpt lat="47.85671" lon="-2.78377">
        <ele>185</ele>
        <time>2021-01-31T08:51:09Z</time>
      </trkpt>
      <trkpt lat="47.85668" lon="-2.78375">
        <ele>185</ele>
        <time>2021-01-31T08:51:11Z</time>
      </trkpt>
      <trkpt lat="47.85666" lon="-2.78374">
        <ele>185</ele>
        <time>2021-01-31T08:51:12Z</time>
      </trkpt>
      <trkpt lat="47.85664" lon="-2.78374">
        <ele>185</ele>
        <time>2021-01-31T08:51:13Z</time>
      </trkpt>
      <trkpt lat="47.85661" lon="-2.78373">
        <ele>185</ele>
        <time>2021-01-31T08:51:15Z</time>
      </trkpt>
      <trkpt lat="47.85658" lon="-2.78375">
        <ele>185</ele>
        <time>2021-01-31T08:51:17Z</time>
      </trkpt>
      <trkpt lat="47.85655" lon="-2.78378">
        <ele>185</ele>
        <time>2021-01-31T08:51:19Z</time>
      </trkpt>
      <trkpt lat="47.85652" lon="-2.7838">
        <ele>185</ele>
        <time>2021-01-31T08:51:21Z</time>
      </trkpt>
      <trkpt lat="47.8565" lon="-2.78382">
        <ele>185</ele>
        <time>2021-01-31T08:51:23Z</time>
      </trkpt>
      <trkpt lat="47.85648" lon="-2.78382">
        <ele>184</ele>
        <time>2021-01-31T08:51:24Z</time>
      </trkpt>
      <trkpt lat="47.85646" lon="-2.78382">
        <ele>184</ele>
        <time>2021-01-31T08:51:25Z</time>
      </trkpt>
      <trkpt lat="47.85643" lon="-2.78382">
        <ele>184</ele>
        <time>2021-01-31T08:51:26Z</time>
      </trkpt>
      <trkpt lat="47.8564" lon="-2.78381">
        <ele>184</ele>
        <time>2021-01-31T08:51:27Z</time>
      </trkpt>
      <trkpt lat="47.85638" lon="-2.78381">
        <ele>184</ele>
        <time>2021-01-31T08:51:28Z</time>
      </trkpt>
      <trkpt lat="47.85636" lon="-2.78381">
        <ele>184</ele>
        <time>2021-01-31T08:51:29Z</time>
      </trkpt>
      <trkpt lat="47.85633" lon="-2.78379">
        <ele>183</ele>
        <time>2021-01-31T08:51:31Z</time>
      </trkpt>
      <trkpt lat="47.85631" lon="-2.78378">
        <ele>182</ele>
        <time>2021-01-31T08:51:33Z</time>
      </trkpt>
      <trkpt lat="47.85628" lon="-2.78377">
        <ele>182</ele>
        <time>2021-01-31T08:51:35Z</time>
      </trkpt>
      <trkpt lat="47.85625" lon="-2.78375">
        <ele>182</ele>
        <time>2021-01-31T08:51:37Z</time>
      </trkpt>
      <trkpt lat="47.85623" lon="-2.78373">
        <ele>181</ele>
        <time>2021-01-31T08:51:39Z</time>
      </trkpt>
      <trkpt lat="47.85623" lon="-2.78371">
        <ele>179</ele>
        <time>2021-01-31T08:51:42Z</time>
      </trkpt>
      <trkpt lat="47.85622" lon="-2.78368">
        <ele>179</ele>
        <time>2021-01-31T08:51:45Z</time>
      </trkpt>
      <trkpt lat="47.85622" lon="-2.78364">
        <ele>179</ele>
        <time>2021-01-31T08:51:47Z</time>
      </trkpt>
      <trkpt lat="47.85621" lon="-2.78361">
        <ele>179</ele>
        <time>2021-01-31T08:51:49Z</time>
      </trkpt>
      <trkpt lat="47.8562" lon="-2.78357">
        <ele>179</ele>
        <time>2021-01-31T08:51:51Z</time>
      </trkpt>
      <trkpt lat="47.85617" lon="-2.78354">
        <ele>177</ele>
        <time>2021-01-31T08:51:54Z</time>
      </trkpt>
      <trkpt lat="47.85615" lon="-2.78351">
        <ele>177</ele>
        <time>2021-01-31T08:51:56Z</time>
      </trkpt>
      <trkpt lat="47.85614" lon="-2.78349">
        <ele>177</ele>
        <time>2021-01-31T08:51:57Z</time>
      </trkpt>
      <trkpt lat="47.85612" lon="-2.78345">
        <ele>177</ele>
        <time>2021-01-31T08:51:59Z</time>
      </trkpt>
      <trkpt lat="47.85611" lon="-2.78342">
        <ele>176</ele>
        <time>2021-01-31T08:52:01Z</time>
      </trkpt>
      <trkpt lat="47.8561" lon="-2.78338">
        <ele>175</ele>
        <time>2021-01-31T08:52:03Z</time>
      </trkpt>
      <trkpt lat="47.85609" lon="-2.78335">
        <ele>174</ele>
        <time>2021-01-31T08:52:05Z</time>
      </trkpt>
      <trkpt lat="47.85608" lon="-2.78332">
        <ele>174</ele>
        <time>2021-01-31T08:52:07Z</time>
      </trkpt>
      <trkpt lat="47.85607" lon="-2.78329">
        <ele>173</ele>
        <time>2021-01-31T08:52:09Z</time>
      </trkpt>
      <trkpt lat="47.85607" lon="-2.78326">
        <ele>173</ele>
        <time>2021-01-31T08:52:11Z</time>
      </trkpt>
      <trkpt lat="47.85607" lon="-2.78323">
        <ele>173</ele>
        <time>2021-01-31T08:52:13Z</time>
      </trkpt>
      <trkpt lat="47.85606" lon="-2.7832">
        <ele>171</ele>
        <time>2021-01-31T08:52:15Z</time>
      </trkpt>
      <trkpt lat="47.85606" lon="-2.78317">
        <ele>171</ele>
        <time>2021-01-31T08:52:17Z</time>
      </trkpt>
      <trkpt lat="47.85605" lon="-2.78314">
        <ele>171</ele>
        <time>2021-01-31T08:52:19Z</time>
      </trkpt>
      <trkpt lat="47.85604" lon="-2.7831">
        <ele>170</ele>
        <time>2021-01-31T08:52:21Z</time>
      </trkpt>
      <trkpt lat="47.85602" lon="-2.78308">
        <ele>170</ele>
        <time>2021-01-31T08:52:23Z</time>
      </trkpt>
      <trkpt lat="47.85602" lon="-2.78305">
        <ele>169</ele>
        <time>2021-01-31T08:52:25Z</time>
      </trkpt>
      <trkpt lat="47.85601" lon="-2.78302">
        <ele>168</ele>
        <time>2021-01-31T08:52:27Z</time>
      </trkpt>
      <trkpt lat="47.85601" lon="-2.78298">
        <ele>167</ele>
        <time>2021-01-31T08:52:29Z</time>
      </trkpt>
      <trkpt lat="47.85599" lon="-2.78294">
        <ele>167</ele>
        <time>2021-01-31T08:52:31Z</time>
      </trkpt>
      <trkpt lat="47.85598" lon="-2.7829">
        <ele>167</ele>
        <time>2021-01-31T08:52:33Z</time>
      </trkpt>
      <trkpt lat="47.85596" lon="-2.78287">
        <ele>167</ele>
        <time>2021-01-31T08:52:34Z</time>
      </trkpt>
      <trkpt lat="47.85594" lon="-2.78285">
        <ele>167</ele>
        <time>2021-01-31T08:52:35Z</time>
      </trkpt>
      <trkpt lat="47.85593" lon="-2.78282">
        <ele>167</ele>
        <time>2021-01-31T08:52:36Z</time>
      </trkpt>
      <trkpt lat="47.85592" lon="-2.78279">
        <ele>167</ele>
        <time>2021-01-31T08:52:37Z</time>
      </trkpt>
      <trkpt lat="47.8559" lon="-2.78275">
        <ele>166</ele>
        <time>2021-01-31T08:52:39Z</time>
      </trkpt>
      <trkpt lat="47.85589" lon="-2.78271">
        <ele>165</ele>
        <time>2021-01-31T08:52:41Z</time>
      </trkpt>
      <trkpt lat="47.85589" lon="-2.78268">
        <ele>163</ele>
        <time>2021-01-31T08:52:43Z</time>
      </trkpt>
      <trkpt lat="47.85588" lon="-2.78264">
        <ele>163</ele>
        <time>2021-01-31T08:52:46Z</time>
      </trkpt>
      <trkpt lat="47.85587" lon="-2.78261">
        <ele>163</ele>
        <time>2021-01-31T08:52:49Z</time>
      </trkpt>
      <trkpt lat="47.85585" lon="-2.78258">
        <ele>162</ele>
        <time>2021-01-31T08:52:51Z</time>
      </trkpt>
      <trkpt lat="47.85584" lon="-2.78256">
        <ele>162</ele>
        <time>2021-01-31T08:52:53Z</time>
      </trkpt>
      <trkpt lat="47.85582" lon="-2.78252">
        <ele>161</ele>
        <time>2021-01-31T08:52:55Z</time>
      </trkpt>
      <trkpt lat="47.85581" lon="-2.78248">
        <ele>161</ele>
        <time>2021-01-31T08:52:57Z</time>
      </trkpt>
      <trkpt lat="47.85579" lon="-2.78242">
        <ele>160</ele>
        <time>2021-01-31T08:52:59Z</time>
      </trkpt>
      <trkpt lat="47.85578" lon="-2.78238">
        <ele>160</ele>
        <time>2021-01-31T08:53:01Z</time>
      </trkpt>
      <trkpt lat="47.85578" lon="-2.78233">
        <ele>160</ele>
        <time>2021-01-31T08:53:03Z</time>
      </trkpt>
      <trkpt lat="47.85578" lon="-2.78231">
        <ele>160</ele>
        <time>2021-01-31T08:53:04Z</time>
      </trkpt>
      <trkpt lat="47.85578" lon="-2.78228">
        <ele>160</ele>
        <time>2021-01-31T08:53:05Z</time>
      </trkpt>
      <trkpt lat="47.85577" lon="-2.78224">
        <ele>159</ele>
        <time>2021-01-31T08:53:07Z</time>
      </trkpt>
      <trkpt lat="47.85576" lon="-2.78219">
        <ele>158</ele>
        <time>2021-01-31T08:53:09Z</time>
      </trkpt>
      <trkpt lat="47.85577" lon="-2.78216">
        <ele>158</ele>
        <time>2021-01-31T08:53:11Z</time>
      </trkpt>
      <trkpt lat="47.85577" lon="-2.78212">
        <ele>157</ele>
        <time>2021-01-31T08:53:14Z</time>
      </trkpt>
      <trkpt lat="47.85576" lon="-2.78208">
        <ele>156</ele>
        <time>2021-01-31T08:53:16Z</time>
      </trkpt>
      <trkpt lat="47.85575" lon="-2.78206">
        <ele>156</ele>
        <time>2021-01-31T08:53:17Z</time>
      </trkpt>
      <trkpt lat="47.85574" lon="-2.78204">
        <ele>156</ele>
        <time>2021-01-31T08:53:18Z</time>
      </trkpt>
      <trkpt lat="47.85573" lon="-2.78199">
        <ele>155</ele>
        <time>2021-01-31T08:53:20Z</time>
      </trkpt>
      <trkpt lat="47.85572" lon="-2.78196">
        <ele>154</ele>
        <time>2021-01-31T08:53:21Z</time>
      </trkpt>
      <trkpt lat="47.8557" lon="-2.78193">
        <ele>154</ele>
        <time>2021-01-31T08:53:22Z</time>
      </trkpt>
      <trkpt lat="47.85569" lon="-2.78189">
        <ele>154</ele>
        <time>2021-01-31T08:53:24Z</time>
      </trkpt>
      <trkpt lat="47.85568" lon="-2.78185">
        <ele>154</ele>
        <time>2021-01-31T08:53:26Z</time>
      </trkpt>
      <trkpt lat="47.85568" lon="-2.78181">
        <ele>154</ele>
        <time>2021-01-31T08:53:28Z</time>
      </trkpt>
      <trkpt lat="47.85567" lon="-2.78177">
        <ele>154</ele>
        <time>2021-01-31T08:53:30Z</time>
      </trkpt>
      <trkpt lat="47.85567" lon="-2.78174">
        <ele>154</ele>
        <time>2021-01-31T08:53:32Z</time>
      </trkpt>
      <trkpt lat="47.85567" lon="-2.7817">
        <ele>153</ele>
        <time>2021-01-31T08:53:34Z</time>
      </trkpt>
      <trkpt lat="47.85566" lon="-2.78167">
        <ele>152</ele>
        <time>2021-01-31T08:53:36Z</time>
      </trkpt>
      <trkpt lat="47.85564" lon="-2.78162">
        <ele>152</ele>
        <time>2021-01-31T08:53:38Z</time>
      </trkpt>
      <trkpt lat="47.85563" lon="-2.78158">
        <ele>152</ele>
        <time>2021-01-31T08:53:40Z</time>
      </trkpt>
      <trkpt lat="47.85564" lon="-2.78155">
        <ele>152</ele>
        <time>2021-01-31T08:53:42Z</time>
      </trkpt>
      <trkpt lat="47.85565" lon="-2.78151">
        <ele>152</ele>
        <time>2021-01-31T08:53:44Z</time>
      </trkpt>
      <trkpt lat="47.85563" lon="-2.78146">
        <ele>152</ele>
        <time>2021-01-31T08:53:46Z</time>
      </trkpt>
      <trkpt lat="47.85561" lon="-2.78144">
        <ele>152</ele>
        <time>2021-01-31T08:53:47Z</time>
      </trkpt>
      <trkpt lat="47.8556" lon="-2.78142">
        <ele>152</ele>
        <time>2021-01-31T08:53:48Z</time>
      </trkpt>
      <trkpt lat="47.85558" lon="-2.7814">
        <ele>152</ele>
        <time>2021-01-31T08:53:49Z</time>
      </trkpt>
      <trkpt lat="47.85556" lon="-2.78138">
        <ele>152</ele>
        <time>2021-01-31T08:53:50Z</time>
      </trkpt>
      <trkpt lat="47.85554" lon="-2.78134">
        <ele>151</ele>
        <time>2021-01-31T08:53:52Z</time>
      </trkpt>
      <trkpt lat="47.85553" lon="-2.7813">
        <ele>151</ele>
        <time>2021-01-31T08:53:54Z</time>
      </trkpt>
      <trkpt lat="47.85552" lon="-2.78125">
        <ele>151</ele>
        <time>2021-01-31T08:53:56Z</time>
      </trkpt>
      <trkpt lat="47.85553" lon="-2.7812">
        <ele>151</ele>
        <time>2021-01-31T08:53:58Z</time>
      </trkpt>
      <trkpt lat="47.85553" lon="-2.78116">
        <ele>151</ele>
        <time>2021-01-31T08:54:00Z</time>
      </trkpt>
      <trkpt lat="47.85554" lon="-2.78112">
        <ele>150</ele>
        <time>2021-01-31T08:54:02Z</time>
      </trkpt>
      <trkpt lat="47.85555" lon="-2.78108">
        <ele>150</ele>
        <time>2021-01-31T08:54:04Z</time>
      </trkpt>
      <trkpt lat="47.85556" lon="-2.78105">
        <ele>150</ele>
        <time>2021-01-31T08:54:06Z</time>
      </trkpt>
      <trkpt lat="47.85557" lon="-2.781">
        <ele>150</ele>
        <time>2021-01-31T08:54:08Z</time>
      </trkpt>
      <trkpt lat="47.85558" lon="-2.78096">
        <ele>149</ele>
        <time>2021-01-31T08:54:10Z</time>
      </trkpt>
      <trkpt lat="47.85557" lon="-2.78092">
        <ele>149</ele>
        <time>2021-01-31T08:54:12Z</time>
      </trkpt>
      <trkpt lat="47.85558" lon="-2.78087">
        <ele>149</ele>
        <time>2021-01-31T08:54:14Z</time>
      </trkpt>
      <trkpt lat="47.85558" lon="-2.78083">
        <ele>149</ele>
        <time>2021-01-31T08:54:16Z</time>
      </trkpt>
      <trkpt lat="47.85558" lon="-2.78078">
        <ele>148</ele>
        <time>2021-01-31T08:54:18Z</time>
      </trkpt>
      <trkpt lat="47.85558" lon="-2.78074">
        <ele>148</ele>
        <time>2021-01-31T08:54:20Z</time>
      </trkpt>
      <trkpt lat="47.85557" lon="-2.78071">
        <ele>148</ele>
        <time>2021-01-31T08:54:22Z</time>
      </trkpt>
      <trkpt lat="47.85557" lon="-2.78067">
        <ele>148</ele>
        <time>2021-01-31T08:54:24Z</time>
      </trkpt>
      <trkpt lat="47.85556" lon="-2.78063">
        <ele>148</ele>
        <time>2021-01-31T08:54:26Z</time>
      </trkpt>
      <trkpt lat="47.85555" lon="-2.78058">
        <ele>148</ele>
        <time>2021-01-31T08:54:28Z</time>
      </trkpt>
      <trkpt lat="47.85556" lon="-2.78054">
        <ele>148</ele>
        <time>2021-01-31T08:54:30Z</time>
      </trkpt>
      <trkpt lat="47.85556" lon="-2.7805">
        <ele>147</ele>
        <time>2021-01-31T08:54:32Z</time>
      </trkpt>
      <trkpt lat="47.85555" lon="-2.78045">
        <ele>146</ele>
        <time>2021-01-31T08:54:34Z</time>
      </trkpt>
      <trkpt lat="47.85553" lon="-2.78042">
        <ele>146</ele>
        <time>2021-01-31T08:54:35Z</time>
      </trkpt>
      <trkpt lat="47.85553" lon="-2.78039">
        <ele>146</ele>
        <time>2021-01-31T08:54:37Z</time>
      </trkpt>
      <trkpt lat="47.85553" lon="-2.78036">
        <ele>146</ele>
        <time>2021-01-31T08:54:39Z</time>
      </trkpt>
      <trkpt lat="47.85554" lon="-2.78033">
        <ele>146</ele>
        <time>2021-01-31T08:54:41Z</time>
      </trkpt>
      <trkpt lat="47.85554" lon="-2.7803">
        <ele>146</ele>
        <time>2021-01-31T08:54:43Z</time>
      </trkpt>
      <trkpt lat="47.85556" lon="-2.78027">
        <ele>146</ele>
        <time>2021-01-31T08:54:45Z</time>
      </trkpt>
      <trkpt lat="47.85557" lon="-2.78024">
        <ele>146</ele>
        <time>2021-01-31T08:54:47Z</time>
      </trkpt>
      <trkpt lat="47.85559" lon="-2.7802">
        <ele>142</ele>
        <time>2021-01-31T08:54:49Z</time>
      </trkpt>
      <trkpt lat="47.85561" lon="-2.78017">
        <ele>142</ele>
        <time>2021-01-31T08:54:51Z</time>
      </trkpt>
      <trkpt lat="47.85562" lon="-2.78013">
        <ele>142</ele>
        <time>2021-01-31T08:54:53Z</time>
      </trkpt>
      <trkpt lat="47.85563" lon="-2.7801">
        <ele>142</ele>
        <time>2021-01-31T08:54:55Z</time>
      </trkpt>
      <trkpt lat="47.85565" lon="-2.78007">
        <ele>142</ele>
        <time>2021-01-31T08:54:57Z</time>
      </trkpt>
      <trkpt lat="47.85567" lon="-2.78004">
        <ele>142</ele>
        <time>2021-01-31T08:54:59Z</time>
      </trkpt>
      <trkpt lat="47.85569" lon="-2.78001">
        <ele>142</ele>
        <time>2021-01-31T08:55:01Z</time>
      </trkpt>
      <trkpt lat="47.85571" lon="-2.77998">
        <ele>142</ele>
        <time>2021-01-31T08:55:03Z</time>
      </trkpt>
      <trkpt lat="47.85573" lon="-2.77994">
        <ele>142</ele>
        <time>2021-01-31T08:55:05Z</time>
      </trkpt>
      <trkpt lat="47.85574" lon="-2.77991">
        <ele>142</ele>
        <time>2021-01-31T08:55:07Z</time>
      </trkpt>
      <trkpt lat="47.85576" lon="-2.77988">
        <ele>142</ele>
        <time>2021-01-31T08:55:09Z</time>
      </trkpt>
      <trkpt lat="47.85578" lon="-2.77984">
        <ele>142</ele>
        <time>2021-01-31T08:55:11Z</time>
      </trkpt>
      <trkpt lat="47.8558" lon="-2.77981">
        <ele>142</ele>
        <time>2021-01-31T08:55:13Z</time>
      </trkpt>
      <trkpt lat="47.85582" lon="-2.77978">
        <ele>142</ele>
        <time>2021-01-31T08:55:15Z</time>
      </trkpt>
      <trkpt lat="47.85583" lon="-2.77975">
        <ele>142</ele>
        <time>2021-01-31T08:55:17Z</time>
      </trkpt>
      <trkpt lat="47.85585" lon="-2.77972">
        <ele>141</ele>
        <time>2021-01-31T08:55:19Z</time>
      </trkpt>
      <trkpt lat="47.85588" lon="-2.77969">
        <ele>141</ele>
        <time>2021-01-31T08:55:21Z</time>
      </trkpt>
      <trkpt lat="47.8559" lon="-2.77966">
        <ele>141</ele>
        <time>2021-01-31T08:55:23Z</time>
      </trkpt>
      <trkpt lat="47.85592" lon="-2.77963">
        <ele>141</ele>
        <time>2021-01-31T08:55:25Z</time>
      </trkpt>
      <trkpt lat="47.85594" lon="-2.7796">
        <ele>140</ele>
        <time>2021-01-31T08:55:27Z</time>
      </trkpt>
      <trkpt lat="47.85597" lon="-2.77958">
        <ele>140</ele>
        <time>2021-01-31T08:55:29Z</time>
      </trkpt>
      <trkpt lat="47.85599" lon="-2.77955">
        <ele>140</ele>
        <time>2021-01-31T08:55:31Z</time>
      </trkpt>
      <trkpt lat="47.85601" lon="-2.77953">
        <ele>140</ele>
        <time>2021-01-31T08:55:33Z</time>
      </trkpt>
      <trkpt lat="47.85604" lon="-2.77951">
        <ele>140</ele>
        <time>2021-01-31T08:55:35Z</time>
      </trkpt>
      <trkpt lat="47.85606" lon="-2.77948">
        <ele>139</ele>
        <time>2021-01-31T08:55:37Z</time>
      </trkpt>
      <trkpt lat="47.85608" lon="-2.77945">
        <ele>139</ele>
        <time>2021-01-31T08:55:39Z</time>
      </trkpt>
      <trkpt lat="47.85611" lon="-2.77942">
        <ele>139</ele>
        <time>2021-01-31T08:55:41Z</time>
      </trkpt>
      <trkpt lat="47.85614" lon="-2.77939">
        <ele>139</ele>
        <time>2021-01-31T08:55:43Z</time>
      </trkpt>
      <trkpt lat="47.85616" lon="-2.77936">
        <ele>138</ele>
        <time>2021-01-31T08:55:45Z</time>
      </trkpt>
      <trkpt lat="47.85618" lon="-2.77932">
        <ele>138</ele>
        <time>2021-01-31T08:55:47Z</time>
      </trkpt>
      <trkpt lat="47.8562" lon="-2.7793">
        <ele>138</ele>
        <time>2021-01-31T08:55:49Z</time>
      </trkpt>
      <trkpt lat="47.85622" lon="-2.77928">
        <ele>138</ele>
        <time>2021-01-31T08:55:51Z</time>
      </trkpt>
      <trkpt lat="47.85625" lon="-2.77926">
        <ele>138</ele>
        <time>2021-01-31T08:55:53Z</time>
      </trkpt>
      <trkpt lat="47.85627" lon="-2.77923">
        <ele>138</ele>
        <time>2021-01-31T08:55:55Z</time>
      </trkpt>
      <trkpt lat="47.85629" lon="-2.7792">
        <ele>138</ele>
        <time>2021-01-31T08:55:57Z</time>
      </trkpt>
      <trkpt lat="47.85631" lon="-2.77918">
        <ele>138</ele>
        <time>2021-01-31T08:55:59Z</time>
      </trkpt>
      <trkpt lat="47.85633" lon="-2.77916">
        <ele>137</ele>
        <time>2021-01-31T08:56:01Z</time>
      </trkpt>
      <trkpt lat="47.85636" lon="-2.77914">
        <ele>137</ele>
        <time>2021-01-31T08:56:03Z</time>
      </trkpt>
      <trkpt lat="47.85638" lon="-2.77912">
        <ele>137</ele>
        <time>2021-01-31T08:56:05Z</time>
      </trkpt>
      <trkpt lat="47.85641" lon="-2.7791">
        <ele>137</ele>
        <time>2021-01-31T08:56:07Z</time>
      </trkpt>
      <trkpt lat="47.85643" lon="-2.77908">
        <ele>136</ele>
        <time>2021-01-31T08:56:09Z</time>
      </trkpt>
      <trkpt lat="47.85645" lon="-2.77906">
        <ele>136</ele>
        <time>2021-01-31T08:56:10Z</time>
      </trkpt>
      <trkpt lat="47.85648" lon="-2.77903">
        <ele>136</ele>
        <time>2021-01-31T08:56:12Z</time>
      </trkpt>
      <trkpt lat="47.85651" lon="-2.77901">
        <ele>135</ele>
        <time>2021-01-31T08:56:14Z</time>
      </trkpt>
      <trkpt lat="47.85652" lon="-2.77899">
        <ele>135</ele>
        <time>2021-01-31T08:56:15Z</time>
      </trkpt>
      <trkpt lat="47.85655" lon="-2.77897">
        <ele>135</ele>
        <time>2021-01-31T08:56:17Z</time>
      </trkpt>
      <trkpt lat="47.85658" lon="-2.77895">
        <ele>134</ele>
        <time>2021-01-31T08:56:19Z</time>
      </trkpt>
      <trkpt lat="47.85661" lon="-2.77893">
        <ele>134</ele>
        <time>2021-01-31T08:56:21Z</time>
      </trkpt>
      <trkpt lat="47.85664" lon="-2.77891">
        <ele>134</ele>
        <time>2021-01-31T08:56:23Z</time>
      </trkpt>
      <trkpt lat="47.85667" lon="-2.77888">
        <ele>134</ele>
        <time>2021-01-31T08:56:25Z</time>
      </trkpt>
      <trkpt lat="47.8567" lon="-2.77886">
        <ele>134</ele>
        <time>2021-01-31T08:56:27Z</time>
      </trkpt>
      <trkpt lat="47.85673" lon="-2.77884">
        <ele>132</ele>
        <time>2021-01-31T08:56:29Z</time>
      </trkpt>
      <trkpt lat="47.85676" lon="-2.77882">
        <ele>132</ele>
        <time>2021-01-31T08:56:31Z</time>
      </trkpt>
      <trkpt lat="47.85678" lon="-2.7788">
        <ele>131</ele>
        <time>2021-01-31T08:56:33Z</time>
      </trkpt>
      <trkpt lat="47.8568" lon="-2.77879">
        <ele>131</ele>
        <time>2021-01-31T08:56:35Z</time>
      </trkpt>
      <trkpt lat="47.85683" lon="-2.77877">
        <ele>131</ele>
        <time>2021-01-31T08:56:37Z</time>
      </trkpt>
      <trkpt lat="47.85685" lon="-2.77876">
        <ele>131</ele>
        <time>2021-01-31T08:56:39Z</time>
      </trkpt>
      <trkpt lat="47.85688" lon="-2.77874">
        <ele>131</ele>
        <time>2021-01-31T08:56:41Z</time>
      </trkpt>
      <trkpt lat="47.8569" lon="-2.77872">
        <ele>131</ele>
        <time>2021-01-31T08:56:43Z</time>
      </trkpt>
      <trkpt lat="47.85693" lon="-2.77871">
        <ele>130</ele>
        <time>2021-01-31T08:56:45Z</time>
      </trkpt>
      <trkpt lat="47.85696" lon="-2.77869">
        <ele>130</ele>
        <time>2021-01-31T08:56:47Z</time>
      </trkpt>
      <trkpt lat="47.85699" lon="-2.77867">
        <ele>130</ele>
        <time>2021-01-31T08:56:49Z</time>
      </trkpt>
      <trkpt lat="47.85702" lon="-2.77865">
        <ele>130</ele>
        <time>2021-01-31T08:56:51Z</time>
      </trkpt>
      <trkpt lat="47.85705" lon="-2.77863">
        <ele>130</ele>
        <time>2021-01-31T08:56:53Z</time>
      </trkpt>
      <trkpt lat="47.85708" lon="-2.77861">
        <ele>130</ele>
        <time>2021-01-31T08:56:55Z</time>
      </trkpt>
      <trkpt lat="47.85709" lon="-2.7786">
        <ele>130</ele>
        <time>2021-01-31T08:56:56Z</time>
      </trkpt>
      <trkpt lat="47.85713" lon="-2.77859">
        <ele>130</ele>
        <time>2021-01-31T08:56:58Z</time>
      </trkpt>
      <trkpt lat="47.85718" lon="-2.77861">
        <ele>130</ele>
        <time>2021-01-31T08:57:05Z</time>
      </trkpt>
      <trkpt lat="47.85721" lon="-2.77859">
        <ele>130</ele>
        <time>2021-01-31T08:57:07Z</time>
      </trkpt>
      <trkpt lat="47.85724" lon="-2.77859">
        <ele>129</ele>
        <time>2021-01-31T08:57:09Z</time>
      </trkpt>
      <trkpt lat="47.85726" lon="-2.77858">
        <ele>128</ele>
        <time>2021-01-31T08:57:11Z</time>
      </trkpt>
      <trkpt lat="47.85729" lon="-2.77858">
        <ele>128</ele>
        <time>2021-01-31T08:57:13Z</time>
      </trkpt>
      <trkpt lat="47.85732" lon="-2.77857">
        <ele>128</ele>
        <time>2021-01-31T08:57:15Z</time>
      </trkpt>
      <trkpt lat="47.85734" lon="-2.77855">
        <ele>128</ele>
        <time>2021-01-31T08:57:17Z</time>
      </trkpt>
      <trkpt lat="47.85736" lon="-2.77854">
        <ele>127</ele>
        <time>2021-01-31T08:57:19Z</time>
      </trkpt>
      <trkpt lat="47.8574" lon="-2.77853">
        <ele>127</ele>
        <time>2021-01-31T08:57:22Z</time>
      </trkpt>
      <trkpt lat="47.85742" lon="-2.77853">
        <ele>127</ele>
        <time>2021-01-31T08:57:23Z</time>
      </trkpt>
      <trkpt lat="47.85744" lon="-2.77852">
        <ele>127</ele>
        <time>2021-01-31T08:57:24Z</time>
      </trkpt>
      <trkpt lat="47.85747" lon="-2.77852">
        <ele>127</ele>
        <time>2021-01-31T08:57:25Z</time>
      </trkpt>
      <trkpt lat="47.85754" lon="-2.7785">
        <ele>126</ele>
        <time>2021-01-31T08:57:28Z</time>
      </trkpt>
      <trkpt lat="47.85757" lon="-2.77848">
        <ele>125</ele>
        <time>2021-01-31T08:57:30Z</time>
      </trkpt>
      <trkpt lat="47.85759" lon="-2.77845">
        <ele>125</ele>
        <time>2021-01-31T08:57:32Z</time>
      </trkpt>
      <trkpt lat="47.8576" lon="-2.77842">
        <ele>125</ele>
        <time>2021-01-31T08:57:34Z</time>
      </trkpt>
      <trkpt lat="47.85761" lon="-2.77839">
        <ele>125</ele>
        <time>2021-01-31T08:57:36Z</time>
      </trkpt>
      <trkpt lat="47.85762" lon="-2.77836">
        <ele>125</ele>
        <time>2021-01-31T08:57:38Z</time>
      </trkpt>
      <trkpt lat="47.85763" lon="-2.77833">
        <ele>124</ele>
        <time>2021-01-31T08:57:40Z</time>
      </trkpt>
      <trkpt lat="47.85764" lon="-2.7783">
        <ele>124</ele>
        <time>2021-01-31T08:57:42Z</time>
      </trkpt>
      <trkpt lat="47.85766" lon="-2.77827">
        <ele>123</ele>
        <time>2021-01-31T08:57:44Z</time>
      </trkpt>
      <trkpt lat="47.85767" lon="-2.77823">
        <ele>123</ele>
        <time>2021-01-31T08:57:46Z</time>
      </trkpt>
      <trkpt lat="47.85769" lon="-2.7782">
        <ele>123</ele>
        <time>2021-01-31T08:57:48Z</time>
      </trkpt>
      <trkpt lat="47.8577" lon="-2.77817">
        <ele>122</ele>
        <time>2021-01-31T08:57:50Z</time>
      </trkpt>
      <trkpt lat="47.85771" lon="-2.77813">
        <ele>122</ele>
        <time>2021-01-31T08:57:52Z</time>
      </trkpt>
      <trkpt lat="47.85772" lon="-2.77808">
        <ele>121</ele>
        <time>2021-01-31T08:57:54Z</time>
      </trkpt>
      <trkpt lat="47.85772" lon="-2.77804">
        <ele>121</ele>
        <time>2021-01-31T08:57:56Z</time>
      </trkpt>
      <trkpt lat="47.85773" lon="-2.778">
        <ele>121</ele>
        <time>2021-01-31T08:57:58Z</time>
      </trkpt>
      <trkpt lat="47.85774" lon="-2.77796">
        <ele>120</ele>
        <time>2021-01-31T08:58:00Z</time>
      </trkpt>
      <trkpt lat="47.85769" lon="-2.77781">
        <ele>118</ele>
        <time>2021-01-31T08:58:06Z</time>
      </trkpt>
      <trkpt lat="47.85768" lon="-2.77779">
        <ele>117</ele>
        <time>2021-01-31T08:58:07Z</time>
      </trkpt>
      <trkpt lat="47.85767" lon="-2.77776">
        <ele>117</ele>
        <time>2021-01-31T08:58:08Z</time>
      </trkpt>
      <trkpt lat="47.85765" lon="-2.77774">
        <ele>117</ele>
        <time>2021-01-31T08:58:09Z</time>
      </trkpt>
      <trkpt lat="47.85762" lon="-2.77771">
        <ele>117</ele>
        <time>2021-01-31T08:58:11Z</time>
      </trkpt>
      <trkpt lat="47.85759" lon="-2.77768">
        <ele>117</ele>
        <time>2021-01-31T08:58:13Z</time>
      </trkpt>
      <trkpt lat="47.85756" lon="-2.77766">
        <ele>117</ele>
        <time>2021-01-31T08:58:15Z</time>
      </trkpt>
      <trkpt lat="47.85753" lon="-2.77765">
        <ele>116</ele>
        <time>2021-01-31T08:58:17Z</time>
      </trkpt>
      <trkpt lat="47.85746" lon="-2.77765">
        <ele>116</ele>
        <time>2021-01-31T08:58:21Z</time>
      </trkpt>
      <trkpt lat="47.85742" lon="-2.77767">
        <ele>116</ele>
        <time>2021-01-31T08:58:24Z</time>
      </trkpt>
      <trkpt lat="47.8574" lon="-2.77769">
        <ele>115</ele>
        <time>2021-01-31T08:58:26Z</time>
      </trkpt>
      <trkpt lat="47.8573" lon="-2.77769">
        <ele>114</ele>
        <time>2021-01-31T08:58:32Z</time>
      </trkpt>
      <trkpt lat="47.85726" lon="-2.77768">
        <ele>114</ele>
        <time>2021-01-31T08:58:34Z</time>
      </trkpt>
      <trkpt lat="47.85724" lon="-2.77765">
        <ele>114</ele>
        <time>2021-01-31T08:58:36Z</time>
      </trkpt>
      <trkpt lat="47.85722" lon="-2.77762">
        <ele>114</ele>
        <time>2021-01-31T08:58:38Z</time>
      </trkpt>
      <trkpt lat="47.85719" lon="-2.77759">
        <ele>113</ele>
        <time>2021-01-31T08:58:40Z</time>
      </trkpt>
      <trkpt lat="47.85716" lon="-2.77757">
        <ele>113</ele>
        <time>2021-01-31T08:58:42Z</time>
      </trkpt>
      <trkpt lat="47.85714" lon="-2.77755">
        <ele>113</ele>
        <time>2021-01-31T08:58:43Z</time>
      </trkpt>
      <trkpt lat="47.85713" lon="-2.77754">
        <ele>113</ele>
        <time>2021-01-31T08:58:44Z</time>
      </trkpt>
      <trkpt lat="47.85711" lon="-2.77752">
        <ele>113</ele>
        <time>2021-01-31T08:58:45Z</time>
      </trkpt>
      <trkpt lat="47.85708" lon="-2.77749">
        <ele>113</ele>
        <time>2021-01-31T08:58:47Z</time>
      </trkpt>
      <trkpt lat="47.85705" lon="-2.77748">
        <ele>113</ele>
        <time>2021-01-31T08:58:49Z</time>
      </trkpt>
      <trkpt lat="47.85702" lon="-2.77746">
        <ele>113</ele>
        <time>2021-01-31T08:58:51Z</time>
      </trkpt>
      <trkpt lat="47.85699" lon="-2.77744">
        <ele>113</ele>
        <time>2021-01-31T08:58:53Z</time>
      </trkpt>
      <trkpt lat="47.85696" lon="-2.77744">
        <ele>112</ele>
        <time>2021-01-31T08:58:55Z</time>
      </trkpt>
      <trkpt lat="47.85693" lon="-2.77743">
        <ele>112</ele>
        <time>2021-01-31T08:58:57Z</time>
      </trkpt>
      <trkpt lat="47.8569" lon="-2.77742">
        <ele>112</ele>
        <time>2021-01-31T08:58:59Z</time>
      </trkpt>
      <trkpt lat="47.85687" lon="-2.77742">
        <ele>112</ele>
        <time>2021-01-31T08:59:01Z</time>
      </trkpt>
      <trkpt lat="47.85684" lon="-2.77741">
        <ele>112</ele>
        <time>2021-01-31T08:59:03Z</time>
      </trkpt>
      <trkpt lat="47.85681" lon="-2.7774">
        <ele>112</ele>
        <time>2021-01-31T08:59:05Z</time>
      </trkpt>
      <trkpt lat="47.85679" lon="-2.7774">
        <ele>112</ele>
        <time>2021-01-31T08:59:06Z</time>
      </trkpt>
      <trkpt lat="47.85675" lon="-2.7774">
        <ele>111</ele>
        <time>2021-01-31T08:59:08Z</time>
      </trkpt>
      <trkpt lat="47.85673" lon="-2.77739">
        <ele>111</ele>
        <time>2021-01-31T08:59:09Z</time>
      </trkpt>
      <trkpt lat="47.8567" lon="-2.77739">
        <ele>111</ele>
        <time>2021-01-31T08:59:11Z</time>
      </trkpt>
      <trkpt lat="47.85667" lon="-2.77736">
        <ele>111</ele>
        <time>2021-01-31T08:59:13Z</time>
      </trkpt>
      <trkpt lat="47.85665" lon="-2.77735">
        <ele>111</ele>
        <time>2021-01-31T08:59:14Z</time>
      </trkpt>
      <trkpt lat="47.85662" lon="-2.77734">
        <ele>111</ele>
        <time>2021-01-31T08:59:16Z</time>
      </trkpt>
      <trkpt lat="47.85659" lon="-2.77734">
        <ele>111</ele>
        <time>2021-01-31T08:59:18Z</time>
      </trkpt>
      <trkpt lat="47.85656" lon="-2.77735">
        <ele>111</ele>
        <time>2021-01-31T08:59:20Z</time>
      </trkpt>
      <trkpt lat="47.85653" lon="-2.77736">
        <ele>111</ele>
        <time>2021-01-31T08:59:22Z</time>
      </trkpt>
      <trkpt lat="47.8565" lon="-2.77737">
        <ele>111</ele>
        <time>2021-01-31T08:59:24Z</time>
      </trkpt>
      <trkpt lat="47.85647" lon="-2.77737">
        <ele>111</ele>
        <time>2021-01-31T08:59:26Z</time>
      </trkpt>
      <trkpt lat="47.85644" lon="-2.77737">
        <ele>111</ele>
        <time>2021-01-31T08:59:28Z</time>
      </trkpt>
      <trkpt lat="47.85641" lon="-2.77737">
        <ele>111</ele>
        <time>2021-01-31T08:59:30Z</time>
      </trkpt>
      <trkpt lat="47.85638" lon="-2.77736">
        <ele>111</ele>
        <time>2021-01-31T08:59:32Z</time>
      </trkpt>
      <trkpt lat="47.85635" lon="-2.77736">
        <ele>111</ele>
        <time>2021-01-31T08:59:34Z</time>
      </trkpt>
      <trkpt lat="47.85632" lon="-2.77736">
        <ele>111</ele>
        <time>2021-01-31T08:59:36Z</time>
      </trkpt>
      <trkpt lat="47.85629" lon="-2.77735">
        <ele>112</ele>
        <time>2021-01-31T08:59:38Z</time>
      </trkpt>
      <trkpt lat="47.85626" lon="-2.77734">
        <ele>112</ele>
        <time>2021-01-31T08:59:42Z</time>
      </trkpt>
      <trkpt lat="47.85624" lon="-2.77731">
        <ele>112</ele>
        <time>2021-01-31T08:59:44Z</time>
      </trkpt>
      <trkpt lat="47.85621" lon="-2.7773">
        <ele>112</ele>
        <time>2021-01-31T08:59:46Z</time>
      </trkpt>
      <trkpt lat="47.85618" lon="-2.7773">
        <ele>112</ele>
        <time>2021-01-31T08:59:48Z</time>
      </trkpt>
      <trkpt lat="47.85615" lon="-2.7773">
        <ele>112</ele>
        <time>2021-01-31T08:59:50Z</time>
      </trkpt>
      <trkpt lat="47.85612" lon="-2.7773">
        <ele>112</ele>
        <time>2021-01-31T08:59:52Z</time>
      </trkpt>
      <trkpt lat="47.85609" lon="-2.7773">
        <ele>113</ele>
        <time>2021-01-31T08:59:54Z</time>
      </trkpt>
      <trkpt lat="47.85606" lon="-2.7773">
        <ele>113</ele>
        <time>2021-01-31T08:59:56Z</time>
      </trkpt>
      <trkpt lat="47.85603" lon="-2.77731">
        <ele>113</ele>
        <time>2021-01-31T08:59:58Z</time>
      </trkpt>
      <trkpt lat="47.856" lon="-2.77732">
        <ele>113</ele>
        <time>2021-01-31T09:00:00Z</time>
      </trkpt>
      <trkpt lat="47.85597" lon="-2.77732">
        <ele>113</ele>
        <time>2021-01-31T09:00:02Z</time>
      </trkpt>
      <trkpt lat="47.85593" lon="-2.77732">
        <ele>113</ele>
        <time>2021-01-31T09:00:04Z</time>
      </trkpt>
      <trkpt lat="47.8559" lon="-2.77732">
        <ele>113</ele>
        <time>2021-01-31T09:00:06Z</time>
      </trkpt>
      <trkpt lat="47.85587" lon="-2.77731">
        <ele>114</ele>
        <time>2021-01-31T09:00:08Z</time>
      </trkpt>
      <trkpt lat="47.85584" lon="-2.77731">
        <ele>114</ele>
        <time>2021-01-31T09:00:10Z</time>
      </trkpt>
      <trkpt lat="47.85582" lon="-2.77731">
        <ele>114</ele>
        <time>2021-01-31T09:00:12Z</time>
      </trkpt>
      <trkpt lat="47.85578" lon="-2.77732">
        <ele>114</ele>
        <time>2021-01-31T09:00:14Z</time>
      </trkpt>
      <trkpt lat="47.85575" lon="-2.77731">
        <ele>114</ele>
        <time>2021-01-31T09:00:16Z</time>
      </trkpt>
      <trkpt lat="47.85572" lon="-2.77732">
        <ele>114</ele>
        <time>2021-01-31T09:00:18Z</time>
      </trkpt>
      <trkpt lat="47.85569" lon="-2.77732">
        <ele>114</ele>
        <time>2021-01-31T09:00:20Z</time>
      </trkpt>
      <trkpt lat="47.85566" lon="-2.77732">
        <ele>115</ele>
        <time>2021-01-31T09:00:22Z</time>
      </trkpt>
      <trkpt lat="47.85563" lon="-2.77732">
        <ele>115</ele>
        <time>2021-01-31T09:00:24Z</time>
      </trkpt>
      <trkpt lat="47.8556" lon="-2.77732">
        <ele>115</ele>
        <time>2021-01-31T09:00:26Z</time>
      </trkpt>
      <trkpt lat="47.85557" lon="-2.77731">
        <ele>115</ele>
        <time>2021-01-31T09:00:28Z</time>
      </trkpt>
      <trkpt lat="47.85555" lon="-2.77729">
        <ele>115</ele>
        <time>2021-01-31T09:00:30Z</time>
      </trkpt>
      <trkpt lat="47.85554" lon="-2.77725">
        <ele>116</ele>
        <time>2021-01-31T09:00:32Z</time>
      </trkpt>
      <trkpt lat="47.85553" lon="-2.77722">
        <ele>116</ele>
        <time>2021-01-31T09:00:34Z</time>
      </trkpt>
      <trkpt lat="47.85554" lon="-2.77718">
        <ele>116</ele>
        <time>2021-01-31T09:00:36Z</time>
      </trkpt>
      <trkpt lat="47.85554" lon="-2.77714">
        <ele>116</ele>
        <time>2021-01-31T09:00:38Z</time>
      </trkpt>
      <trkpt lat="47.85555" lon="-2.7771">
        <ele>116</ele>
        <time>2021-01-31T09:00:40Z</time>
      </trkpt>
      <trkpt lat="47.85556" lon="-2.77706">
        <ele>116</ele>
        <time>2021-01-31T09:00:42Z</time>
      </trkpt>
      <trkpt lat="47.85556" lon="-2.77702">
        <ele>117</ele>
        <time>2021-01-31T09:00:44Z</time>
      </trkpt>
      <trkpt lat="47.85557" lon="-2.77698">
        <ele>117</ele>
        <time>2021-01-31T09:00:46Z</time>
      </trkpt>
      <trkpt lat="47.85557" lon="-2.77693">
        <ele>117</ele>
        <time>2021-01-31T09:00:48Z</time>
      </trkpt>
      <trkpt lat="47.85558" lon="-2.77689">
        <ele>116</ele>
        <time>2021-01-31T09:00:50Z</time>
      </trkpt>
      <trkpt lat="47.85558" lon="-2.77685">
        <ele>116</ele>
        <time>2021-01-31T09:00:52Z</time>
      </trkpt>
      <trkpt lat="47.85559" lon="-2.77681">
        <ele>116</ele>
        <time>2021-01-31T09:00:54Z</time>
      </trkpt>
      <trkpt lat="47.8556" lon="-2.77677">
        <ele>116</ele>
        <time>2021-01-31T09:00:56Z</time>
      </trkpt>
      <trkpt lat="47.85561" lon="-2.77673">
        <ele>116</ele>
        <time>2021-01-31T09:00:58Z</time>
      </trkpt>
      <trkpt lat="47.85561" lon="-2.77669">
        <ele>116</ele>
        <time>2021-01-31T09:01:00Z</time>
      </trkpt>
      <trkpt lat="47.85562" lon="-2.77665">
        <ele>116</ele>
        <time>2021-01-31T09:01:02Z</time>
      </trkpt>
      <trkpt lat="47.85562" lon="-2.77661">
        <ele>116</ele>
        <time>2021-01-31T09:01:04Z</time>
      </trkpt>
      <trkpt lat="47.85562" lon="-2.77657">
        <ele>116</ele>
        <time>2021-01-31T09:01:06Z</time>
      </trkpt>
      <trkpt lat="47.85563" lon="-2.77653">
        <ele>116</ele>
        <time>2021-01-31T09:01:08Z</time>
      </trkpt>
      <trkpt lat="47.85563" lon="-2.77649">
        <ele>116</ele>
        <time>2021-01-31T09:01:10Z</time>
      </trkpt>
      <trkpt lat="47.85563" lon="-2.77645">
        <ele>116</ele>
        <time>2021-01-31T09:01:12Z</time>
      </trkpt>
      <trkpt lat="47.85564" lon="-2.77641">
        <ele>116</ele>
        <time>2021-01-31T09:01:14Z</time>
      </trkpt>
      <trkpt lat="47.85564" lon="-2.77637">
        <ele>116</ele>
        <time>2021-01-31T09:01:16Z</time>
      </trkpt>
      <trkpt lat="47.85565" lon="-2.77633">
        <ele>115</ele>
        <time>2021-01-31T09:01:18Z</time>
      </trkpt>
      <trkpt lat="47.85565" lon="-2.77628">
        <ele>115</ele>
        <time>2021-01-31T09:01:20Z</time>
      </trkpt>
      <trkpt lat="47.85566" lon="-2.77624">
        <ele>115</ele>
        <time>2021-01-31T09:01:22Z</time>
      </trkpt>
      <trkpt lat="47.85567" lon="-2.7762">
        <ele>115</ele>
        <time>2021-01-31T09:01:24Z</time>
      </trkpt>
      <trkpt lat="47.85568" lon="-2.77616">
        <ele>115</ele>
        <time>2021-01-31T09:01:26Z</time>
      </trkpt>
      <trkpt lat="47.85568" lon="-2.77612">
        <ele>115</ele>
        <time>2021-01-31T09:01:28Z</time>
      </trkpt>
      <trkpt lat="47.85569" lon="-2.77608">
        <ele>114</ele>
        <time>2021-01-31T09:01:30Z</time>
      </trkpt>
      <trkpt lat="47.8557" lon="-2.77604">
        <ele>114</ele>
        <time>2021-01-31T09:01:32Z</time>
      </trkpt>
      <trkpt lat="47.85571" lon="-2.77599">
        <ele>114</ele>
        <time>2021-01-31T09:01:34Z</time>
      </trkpt>
      <trkpt lat="47.85572" lon="-2.77595">
        <ele>114</ele>
        <time>2021-01-31T09:01:36Z</time>
      </trkpt>
      <trkpt lat="47.85573" lon="-2.77591">
        <ele>114</ele>
        <time>2021-01-31T09:01:38Z</time>
      </trkpt>
      <trkpt lat="47.85574" lon="-2.77586">
        <ele>114</ele>
        <time>2021-01-31T09:01:40Z</time>
      </trkpt>
      <trkpt lat="47.85575" lon="-2.77582">
        <ele>114</ele>
        <time>2021-01-31T09:01:42Z</time>
      </trkpt>
      <trkpt lat="47.85576" lon="-2.77578">
        <ele>114</ele>
        <time>2021-01-31T09:01:44Z</time>
      </trkpt>
      <trkpt lat="47.85577" lon="-2.77574">
        <ele>114</ele>
        <time>2021-01-31T09:01:46Z</time>
      </trkpt>
      <trkpt lat="47.85578" lon="-2.7757">
        <ele>113</ele>
        <time>2021-01-31T09:01:48Z</time>
      </trkpt>
      <trkpt lat="47.85579" lon="-2.77566">
        <ele>113</ele>
        <time>2021-01-31T09:01:50Z</time>
      </trkpt>
      <trkpt lat="47.85581" lon="-2.77562">
        <ele>112</ele>
        <time>2021-01-31T09:01:52Z</time>
      </trkpt>
      <trkpt lat="47.85582" lon="-2.77558">
        <ele>112</ele>
        <time>2021-01-31T09:01:54Z</time>
      </trkpt>
      <trkpt lat="47.85583" lon="-2.77554">
        <ele>112</ele>
        <time>2021-01-31T09:01:56Z</time>
      </trkpt>
      <trkpt lat="47.85585" lon="-2.7755">
        <ele>112</ele>
        <time>2021-01-31T09:01:58Z</time>
      </trkpt>
      <trkpt lat="47.85586" lon="-2.77546">
        <ele>112</ele>
        <time>2021-01-31T09:02:00Z</time>
      </trkpt>
      <trkpt lat="47.85588" lon="-2.77542">
        <ele>111</ele>
        <time>2021-01-31T09:02:02Z</time>
      </trkpt>
      <trkpt lat="47.85589" lon="-2.77538">
        <ele>111</ele>
        <time>2021-01-31T09:02:04Z</time>
      </trkpt>
      <trkpt lat="47.85591" lon="-2.77535">
        <ele>111</ele>
        <time>2021-01-31T09:02:06Z</time>
      </trkpt>
      <trkpt lat="47.85592" lon="-2.77531">
        <ele>111</ele>
        <time>2021-01-31T09:02:08Z</time>
      </trkpt>
      <trkpt lat="47.85594" lon="-2.77528">
        <ele>111</ele>
        <time>2021-01-31T09:02:10Z</time>
      </trkpt>
      <trkpt lat="47.85595" lon="-2.77525">
        <ele>111</ele>
        <time>2021-01-31T09:02:12Z</time>
      </trkpt>
      <trkpt lat="47.85597" lon="-2.77521">
        <ele>111</ele>
        <time>2021-01-31T09:02:14Z</time>
      </trkpt>
      <trkpt lat="47.85598" lon="-2.77517">
        <ele>110</ele>
        <time>2021-01-31T09:02:16Z</time>
      </trkpt>
      <trkpt lat="47.856" lon="-2.77514">
        <ele>110</ele>
        <time>2021-01-31T09:02:18Z</time>
      </trkpt>
      <trkpt lat="47.85601" lon="-2.7751">
        <ele>110</ele>
        <time>2021-01-31T09:02:20Z</time>
      </trkpt>
      <trkpt lat="47.85603" lon="-2.77507">
        <ele>110</ele>
        <time>2021-01-31T09:02:22Z</time>
      </trkpt>
      <trkpt lat="47.85604" lon="-2.77503">
        <ele>110</ele>
        <time>2021-01-31T09:02:24Z</time>
      </trkpt>
      <trkpt lat="47.85606" lon="-2.77499">
        <ele>110</ele>
        <time>2021-01-31T09:02:26Z</time>
      </trkpt>
      <trkpt lat="47.85608" lon="-2.77495">
        <ele>110</ele>
        <time>2021-01-31T09:02:28Z</time>
      </trkpt>
      <trkpt lat="47.85609" lon="-2.77492">
        <ele>109</ele>
        <time>2021-01-31T09:02:30Z</time>
      </trkpt>
      <trkpt lat="47.85611" lon="-2.77488">
        <ele>108</ele>
        <time>2021-01-31T09:02:32Z</time>
      </trkpt>
      <trkpt lat="47.85612" lon="-2.77484">
        <ele>107</ele>
        <time>2021-01-31T09:02:34Z</time>
      </trkpt>
      <trkpt lat="47.85614" lon="-2.7748">
        <ele>107</ele>
        <time>2021-01-31T09:02:36Z</time>
      </trkpt>
      <trkpt lat="47.85616" lon="-2.77477">
        <ele>106</ele>
        <time>2021-01-31T09:02:38Z</time>
      </trkpt>
      <trkpt lat="47.85617" lon="-2.77473">
        <ele>107</ele>
        <time>2021-01-31T09:02:40Z</time>
      </trkpt>
      <trkpt lat="47.85619" lon="-2.77469">
        <ele>106</ele>
        <time>2021-01-31T09:02:42Z</time>
      </trkpt>
      <trkpt lat="47.8562" lon="-2.77466">
        <ele>105</ele>
        <time>2021-01-31T09:02:44Z</time>
      </trkpt>
      <trkpt lat="47.85622" lon="-2.77462">
        <ele>105</ele>
        <time>2021-01-31T09:02:46Z</time>
      </trkpt>
      <trkpt lat="47.85623" lon="-2.77458">
        <ele>105</ele>
        <time>2021-01-31T09:02:48Z</time>
      </trkpt>
      <trkpt lat="47.85625" lon="-2.77454">
        <ele>105</ele>
        <time>2021-01-31T09:02:50Z</time>
      </trkpt>
      <trkpt lat="47.85626" lon="-2.7745">
        <ele>105</ele>
        <time>2021-01-31T09:02:52Z</time>
      </trkpt>
      <trkpt lat="47.85628" lon="-2.77446">
        <ele>105</ele>
        <time>2021-01-31T09:02:54Z</time>
      </trkpt>
      <trkpt lat="47.85629" lon="-2.77443">
        <ele>105</ele>
        <time>2021-01-31T09:02:56Z</time>
      </trkpt>
      <trkpt lat="47.85631" lon="-2.77439">
        <ele>104</ele>
        <time>2021-01-31T09:02:58Z</time>
      </trkpt>
      <trkpt lat="47.85632" lon="-2.77435">
        <ele>104</ele>
        <time>2021-01-31T09:03:00Z</time>
      </trkpt>
      <trkpt lat="47.85634" lon="-2.77432">
        <ele>104</ele>
        <time>2021-01-31T09:03:02Z</time>
      </trkpt>
      <trkpt lat="47.85636" lon="-2.77428">
        <ele>104</ele>
        <time>2021-01-31T09:03:04Z</time>
      </trkpt>
      <trkpt lat="47.85637" lon="-2.77424">
        <ele>104</ele>
        <time>2021-01-31T09:03:06Z</time>
      </trkpt>
      <trkpt lat="47.85639" lon="-2.7742">
        <ele>104</ele>
        <time>2021-01-31T09:03:08Z</time>
      </trkpt>
      <trkpt lat="47.85641" lon="-2.77416">
        <ele>103</ele>
        <time>2021-01-31T09:03:10Z</time>
      </trkpt>
      <trkpt lat="47.85643" lon="-2.77412">
        <ele>103</ele>
        <time>2021-01-31T09:03:12Z</time>
      </trkpt>
      <trkpt lat="47.85645" lon="-2.77408">
        <ele>103</ele>
        <time>2021-01-31T09:03:14Z</time>
      </trkpt>
      <trkpt lat="47.85647" lon="-2.77405">
        <ele>102</ele>
        <time>2021-01-31T09:03:16Z</time>
      </trkpt>
      <trkpt lat="47.85648" lon="-2.77401">
        <ele>102</ele>
        <time>2021-01-31T09:03:18Z</time>
      </trkpt>
      <trkpt lat="47.8565" lon="-2.77397">
        <ele>102</ele>
        <time>2021-01-31T09:03:20Z</time>
      </trkpt>
      <trkpt lat="47.85652" lon="-2.77394">
        <ele>102</ele>
        <time>2021-01-31T09:03:22Z</time>
      </trkpt>
      <trkpt lat="47.85653" lon="-2.77391">
        <ele>102</ele>
        <time>2021-01-31T09:03:24Z</time>
      </trkpt>
      <trkpt lat="47.85655" lon="-2.77388">
        <ele>102</ele>
        <time>2021-01-31T09:03:26Z</time>
      </trkpt>
      <trkpt lat="47.85657" lon="-2.77384">
        <ele>102</ele>
        <time>2021-01-31T09:03:28Z</time>
      </trkpt>
      <trkpt lat="47.85659" lon="-2.77381">
        <ele>101</ele>
        <time>2021-01-31T09:03:30Z</time>
      </trkpt>
      <trkpt lat="47.85661" lon="-2.77377">
        <ele>101</ele>
        <time>2021-01-31T09:03:32Z</time>
      </trkpt>
      <trkpt lat="47.85663" lon="-2.77375">
        <ele>101</ele>
        <time>2021-01-31T09:03:34Z</time>
      </trkpt>
      <trkpt lat="47.85665" lon="-2.77372">
        <ele>101</ele>
        <time>2021-01-31T09:03:36Z</time>
      </trkpt>
      <trkpt lat="47.85667" lon="-2.77369">
        <ele>101</ele>
        <time>2021-01-31T09:03:38Z</time>
      </trkpt>
      <trkpt lat="47.85669" lon="-2.77367">
        <ele>101</ele>
        <time>2021-01-31T09:03:40Z</time>
      </trkpt>
      <trkpt lat="47.85672" lon="-2.77365">
        <ele>100</ele>
        <time>2021-01-31T09:03:42Z</time>
      </trkpt>
      <trkpt lat="47.85675" lon="-2.77364">
        <ele>100</ele>
        <time>2021-01-31T09:03:44Z</time>
      </trkpt>
      <trkpt lat="47.85677" lon="-2.77363">
        <ele>100</ele>
        <time>2021-01-31T09:03:46Z</time>
      </trkpt>
      <trkpt lat="47.8568" lon="-2.77363">
        <ele>100</ele>
        <time>2021-01-31T09:03:48Z</time>
      </trkpt>
      <trkpt lat="47.85682" lon="-2.77362">
        <ele>99</ele>
        <time>2021-01-31T09:03:50Z</time>
      </trkpt>
      <trkpt lat="47.85685" lon="-2.77363">
        <ele>99</ele>
        <time>2021-01-31T09:03:52Z</time>
      </trkpt>
      <trkpt lat="47.85687" lon="-2.77365">
        <ele>99</ele>
        <time>2021-01-31T09:03:54Z</time>
      </trkpt>
      <trkpt lat="47.85689" lon="-2.77366">
        <ele>98</ele>
        <time>2021-01-31T09:03:56Z</time>
      </trkpt>
      <trkpt lat="47.85692" lon="-2.77367">
        <ele>98</ele>
        <time>2021-01-31T09:03:58Z</time>
      </trkpt>
      <trkpt lat="47.85695" lon="-2.77369">
        <ele>97</ele>
        <time>2021-01-31T09:04:00Z</time>
      </trkpt>
      <trkpt lat="47.85697" lon="-2.7737">
        <ele>97</ele>
        <time>2021-01-31T09:04:02Z</time>
      </trkpt>
      <trkpt lat="47.857" lon="-2.77372">
        <ele>97</ele>
        <time>2021-01-31T09:04:04Z</time>
      </trkpt>
      <trkpt lat="47.85703" lon="-2.77373">
        <ele>97</ele>
        <time>2021-01-31T09:04:06Z</time>
      </trkpt>
      <trkpt lat="47.85705" lon="-2.77374">
        <ele>97</ele>
        <time>2021-01-31T09:04:07Z</time>
      </trkpt>
      <trkpt lat="47.85706" lon="-2.77375">
        <ele>96</ele>
        <time>2021-01-31T09:04:08Z</time>
      </trkpt>
      <trkpt lat="47.85709" lon="-2.77376">
        <ele>96</ele>
        <time>2021-01-31T09:04:10Z</time>
      </trkpt>
      <trkpt lat="47.85713" lon="-2.77377">
        <ele>96</ele>
        <time>2021-01-31T09:04:12Z</time>
      </trkpt>
      <trkpt lat="47.85716" lon="-2.77377">
        <ele>96</ele>
        <time>2021-01-31T09:04:14Z</time>
      </trkpt>
      <trkpt lat="47.85719" lon="-2.77378">
        <ele>96</ele>
        <time>2021-01-31T09:04:16Z</time>
      </trkpt>
      <trkpt lat="47.85721" lon="-2.77378">
        <ele>95</ele>
        <time>2021-01-31T09:04:17Z</time>
      </trkpt>
      <trkpt lat="47.85724" lon="-2.77378">
        <ele>95</ele>
        <time>2021-01-31T09:04:19Z</time>
      </trkpt>
      <trkpt lat="47.85727" lon="-2.77378">
        <ele>95</ele>
        <time>2021-01-31T09:04:21Z</time>
      </trkpt>
      <trkpt lat="47.8573" lon="-2.77377">
        <ele>95</ele>
        <time>2021-01-31T09:04:23Z</time>
      </trkpt>
      <trkpt lat="47.85733" lon="-2.77376">
        <ele>95</ele>
        <time>2021-01-31T09:04:25Z</time>
      </trkpt>
      <trkpt lat="47.85735" lon="-2.77374">
        <ele>95</ele>
        <time>2021-01-31T09:04:27Z</time>
      </trkpt>
      <trkpt lat="47.85738" lon="-2.77373">
        <ele>95</ele>
        <time>2021-01-31T09:04:29Z</time>
      </trkpt>
      <trkpt lat="47.85741" lon="-2.77371">
        <ele>95</ele>
        <time>2021-01-31T09:04:31Z</time>
      </trkpt>
      <trkpt lat="47.85742" lon="-2.7737">
        <ele>95</ele>
        <time>2021-01-31T09:04:32Z</time>
      </trkpt>
      <trkpt lat="47.85745" lon="-2.77368">
        <ele>95</ele>
        <time>2021-01-31T09:04:34Z</time>
      </trkpt>
      <trkpt lat="47.85747" lon="-2.77366">
        <ele>95</ele>
        <time>2021-01-31T09:04:36Z</time>
      </trkpt>
      <trkpt lat="47.85749" lon="-2.77365">
        <ele>95</ele>
        <time>2021-01-31T09:04:38Z</time>
      </trkpt>
      <trkpt lat="47.85751" lon="-2.77364">
        <ele>95</ele>
        <time>2021-01-31T09:04:40Z</time>
      </trkpt>
      <trkpt lat="47.85754" lon="-2.77362">
        <ele>95</ele>
        <time>2021-01-31T09:04:42Z</time>
      </trkpt>
      <trkpt lat="47.85756" lon="-2.77358">
        <ele>95</ele>
        <time>2021-01-31T09:04:44Z</time>
      </trkpt>
      <trkpt lat="47.85758" lon="-2.77355">
        <ele>95</ele>
        <time>2021-01-31T09:04:46Z</time>
      </trkpt>
      <trkpt lat="47.85759" lon="-2.77354">
        <ele>95</ele>
        <time>2021-01-31T09:04:47Z</time>
      </trkpt>
      <trkpt lat="47.85761" lon="-2.77352">
        <ele>95</ele>
        <time>2021-01-31T09:04:48Z</time>
      </trkpt>
      <trkpt lat="47.85762" lon="-2.7735">
        <ele>95</ele>
        <time>2021-01-31T09:04:49Z</time>
      </trkpt>
      <trkpt lat="47.85765" lon="-2.77346">
        <ele>95</ele>
        <time>2021-01-31T09:04:51Z</time>
      </trkpt>
      <trkpt lat="47.85766" lon="-2.77344">
        <ele>95</ele>
        <time>2021-01-31T09:04:52Z</time>
      </trkpt>
      <trkpt lat="47.85767" lon="-2.77342">
        <ele>95</ele>
        <time>2021-01-31T09:04:53Z</time>
      </trkpt>
      <trkpt lat="47.85768" lon="-2.7734">
        <ele>95</ele>
        <time>2021-01-31T09:04:54Z</time>
      </trkpt>
      <trkpt lat="47.8577" lon="-2.77335">
        <ele>96</ele>
        <time>2021-01-31T09:04:56Z</time>
      </trkpt>
      <trkpt lat="47.85772" lon="-2.77333">
        <ele>96</ele>
        <time>2021-01-31T09:04:57Z</time>
      </trkpt>
      <trkpt lat="47.85773" lon="-2.77328">
        <ele>96</ele>
        <time>2021-01-31T09:04:59Z</time>
      </trkpt>
      <trkpt lat="47.85774" lon="-2.77324">
        <ele>96</ele>
        <time>2021-01-31T09:05:01Z</time>
      </trkpt>
      <trkpt lat="47.85775" lon="-2.77319">
        <ele>97</ele>
        <time>2021-01-31T09:05:03Z</time>
      </trkpt>
      <trkpt lat="47.85776" lon="-2.77315">
        <ele>98</ele>
        <time>2021-01-31T09:05:05Z</time>
      </trkpt>
      <trkpt lat="47.85776" lon="-2.7731">
        <ele>98</ele>
        <time>2021-01-31T09:05:07Z</time>
      </trkpt>
      <trkpt lat="47.85776" lon="-2.77305">
        <ele>98</ele>
        <time>2021-01-31T09:05:09Z</time>
      </trkpt>
      <trkpt lat="47.85775" lon="-2.77301">
        <ele>98</ele>
        <time>2021-01-31T09:05:11Z</time>
      </trkpt>
      <trkpt lat="47.85775" lon="-2.77297">
        <ele>98</ele>
        <time>2021-01-31T09:05:13Z</time>
      </trkpt>
      <trkpt lat="47.85774" lon="-2.77293">
        <ele>99</ele>
        <time>2021-01-31T09:05:15Z</time>
      </trkpt>
      <trkpt lat="47.85774" lon="-2.7729">
        <ele>100</ele>
        <time>2021-01-31T09:05:17Z</time>
      </trkpt>
      <trkpt lat="47.85775" lon="-2.77285">
        <ele>99</ele>
        <time>2021-01-31T09:05:19Z</time>
      </trkpt>
      <trkpt lat="47.85774" lon="-2.77281">
        <ele>100</ele>
        <time>2021-01-31T09:05:21Z</time>
      </trkpt>
      <trkpt lat="47.85773" lon="-2.77278">
        <ele>100</ele>
        <time>2021-01-31T09:05:23Z</time>
      </trkpt>
      <trkpt lat="47.85772" lon="-2.77275">
        <ele>100</ele>
        <time>2021-01-31T09:05:25Z</time>
      </trkpt>
      <trkpt lat="47.85774" lon="-2.77272">
        <ele>101</ele>
        <time>2021-01-31T09:05:28Z</time>
      </trkpt>
      <trkpt lat="47.85777" lon="-2.7727">
        <ele>101</ele>
        <time>2021-01-31T09:05:30Z</time>
      </trkpt>
      <trkpt lat="47.85778" lon="-2.77268">
        <ele>101</ele>
        <time>2021-01-31T09:05:31Z</time>
      </trkpt>
      <trkpt lat="47.8578" lon="-2.77267">
        <ele>102</ele>
        <time>2021-01-31T09:05:33Z</time>
      </trkpt>
      <trkpt lat="47.85782" lon="-2.77265">
        <ele>103</ele>
        <time>2021-01-31T09:05:35Z</time>
      </trkpt>
      <trkpt lat="47.85784" lon="-2.77264">
        <ele>103</ele>
        <time>2021-01-31T09:05:37Z</time>
      </trkpt>
      <trkpt lat="47.85786" lon="-2.77263">
        <ele>103</ele>
        <time>2021-01-31T09:05:39Z</time>
      </trkpt>
      <trkpt lat="47.85788" lon="-2.77263">
        <ele>103</ele>
        <time>2021-01-31T09:05:41Z</time>
      </trkpt>
      <trkpt lat="47.8579" lon="-2.77265">
        <ele>105</ele>
        <time>2021-01-31T09:05:44Z</time>
      </trkpt>
      <trkpt lat="47.85791" lon="-2.77267">
        <ele>105</ele>
        <time>2021-01-31T09:05:46Z</time>
      </trkpt>
      <trkpt lat="47.85794" lon="-2.77268">
        <ele>106</ele>
        <time>2021-01-31T09:05:48Z</time>
      </trkpt>
      <trkpt lat="47.85796" lon="-2.77269">
        <ele>106</ele>
        <time>2021-01-31T09:05:50Z</time>
      </trkpt>
      <trkpt lat="47.85799" lon="-2.77268">
        <ele>107</ele>
        <time>2021-01-31T09:05:53Z</time>
      </trkpt>
      <trkpt lat="47.858" lon="-2.77265">
        <ele>107</ele>
        <time>2021-01-31T09:05:55Z</time>
      </trkpt>
      <trkpt lat="47.85801" lon="-2.77262">
        <ele>107</ele>
        <time>2021-01-31T09:05:57Z</time>
      </trkpt>
      <trkpt lat="47.85802" lon="-2.77259">
        <ele>107</ele>
        <time>2021-01-31T09:05:59Z</time>
      </trkpt>
      <trkpt lat="47.85803" lon="-2.77257">
        <ele>108</ele>
        <time>2021-01-31T09:06:01Z</time>
      </trkpt>
      <trkpt lat="47.85805" lon="-2.77255">
        <ele>109</ele>
        <time>2021-01-31T09:06:03Z</time>
      </trkpt>
      <trkpt lat="47.85807" lon="-2.77252">
        <ele>109</ele>
        <time>2021-01-31T09:06:05Z</time>
      </trkpt>
      <trkpt lat="47.85808" lon="-2.77249">
        <ele>109</ele>
        <time>2021-01-31T09:06:07Z</time>
      </trkpt>
      <trkpt lat="47.8581" lon="-2.77247">
        <ele>110</ele>
        <time>2021-01-31T09:06:10Z</time>
      </trkpt>
      <trkpt lat="47.85812" lon="-2.77244">
        <ele>111</ele>
        <time>2021-01-31T09:06:16Z</time>
      </trkpt>
      <trkpt lat="47.85814" lon="-2.77242">
        <ele>112</ele>
        <time>2021-01-31T09:06:18Z</time>
      </trkpt>
      <trkpt lat="47.85815" lon="-2.7724">
        <ele>113</ele>
        <time>2021-01-31T09:06:20Z</time>
      </trkpt>
      <trkpt lat="47.8582" lon="-2.77227">
        <ele>115</ele>
        <time>2021-01-31T09:06:28Z</time>
      </trkpt>
      <trkpt lat="47.85823" lon="-2.77217">
        <ele>115</ele>
        <time>2021-01-31T09:06:32Z</time>
      </trkpt>
      <trkpt lat="47.85824" lon="-2.77214">
        <ele>115</ele>
        <time>2021-01-31T09:06:33Z</time>
      </trkpt>
      <trkpt lat="47.85823" lon="-2.77209">
        <ele>115</ele>
        <time>2021-01-31T09:06:35Z</time>
      </trkpt>
      <trkpt lat="47.85822" lon="-2.77206">
        <ele>115</ele>
        <time>2021-01-31T09:06:37Z</time>
      </trkpt>
      <trkpt lat="47.8582" lon="-2.77203">
        <ele>116</ele>
        <time>2021-01-31T09:06:39Z</time>
      </trkpt>
      <trkpt lat="47.8582" lon="-2.772">
        <ele>116</ele>
        <time>2021-01-31T09:06:41Z</time>
      </trkpt>
      <trkpt lat="47.85819" lon="-2.77197">
        <ele>116</ele>
        <time>2021-01-31T09:06:44Z</time>
      </trkpt>
      <trkpt lat="47.85819" lon="-2.77193">
        <ele>116</ele>
        <time>2021-01-31T09:06:47Z</time>
      </trkpt>
      <trkpt lat="47.85819" lon="-2.7719">
        <ele>116</ele>
        <time>2021-01-31T09:06:50Z</time>
      </trkpt>
      <trkpt lat="47.85819" lon="-2.77185">
        <ele>117</ele>
        <time>2021-01-31T09:06:53Z</time>
      </trkpt>
      <trkpt lat="47.8582" lon="-2.77182">
        <ele>118</ele>
        <time>2021-01-31T09:06:55Z</time>
      </trkpt>
      <trkpt lat="47.8582" lon="-2.77178">
        <ele>118</ele>
        <time>2021-01-31T09:06:57Z</time>
      </trkpt>
      <trkpt lat="47.8582" lon="-2.77175">
        <ele>118</ele>
        <time>2021-01-31T09:06:58Z</time>
      </trkpt>
      <trkpt lat="47.8582" lon="-2.77171">
        <ele>119</ele>
        <time>2021-01-31T09:07:00Z</time>
      </trkpt>
      <trkpt lat="47.85819" lon="-2.77168">
        <ele>120</ele>
        <time>2021-01-31T09:07:03Z</time>
      </trkpt>
      <trkpt lat="47.85819" lon="-2.77165">
        <ele>120</ele>
        <time>2021-01-31T09:07:05Z</time>
      </trkpt>
      <trkpt lat="47.85819" lon="-2.77161">
        <ele>120</ele>
        <time>2021-01-31T09:07:07Z</time>
      </trkpt>
      <trkpt lat="47.8582" lon="-2.77157">
        <ele>121</ele>
        <time>2021-01-31T09:07:09Z</time>
      </trkpt>
      <trkpt lat="47.8582" lon="-2.77154">
        <ele>122</ele>
        <time>2021-01-31T09:07:11Z</time>
      </trkpt>
      <trkpt lat="47.85822" lon="-2.7715">
        <ele>123</ele>
        <time>2021-01-31T09:07:13Z</time>
      </trkpt>
      <trkpt lat="47.85823" lon="-2.77147">
        <ele>123</ele>
        <time>2021-01-31T09:07:15Z</time>
      </trkpt>
      <trkpt lat="47.85822" lon="-2.77143">
        <ele>124</ele>
        <time>2021-01-31T09:07:17Z</time>
      </trkpt>
      <trkpt lat="47.85823" lon="-2.77137">
        <ele>124</ele>
        <time>2021-01-31T09:07:19Z</time>
      </trkpt>
      <trkpt lat="47.85824" lon="-2.77134">
        <ele>124</ele>
        <time>2021-01-31T09:07:20Z</time>
      </trkpt>
      <trkpt lat="47.85823" lon="-2.77131">
        <ele>124</ele>
        <time>2021-01-31T09:07:22Z</time>
      </trkpt>
      <trkpt lat="47.85823" lon="-2.77128">
        <ele>125</ele>
        <time>2021-01-31T09:07:24Z</time>
      </trkpt>
      <trkpt lat="47.85824" lon="-2.77125">
        <ele>125</ele>
        <time>2021-01-31T09:07:26Z</time>
      </trkpt>
      <trkpt lat="47.85825" lon="-2.77122">
        <ele>126</ele>
        <time>2021-01-31T09:07:28Z</time>
      </trkpt>
      <trkpt lat="47.85826" lon="-2.77118">
        <ele>126</ele>
        <time>2021-01-31T09:07:30Z</time>
      </trkpt>
      <trkpt lat="47.85827" lon="-2.77115">
        <ele>127</ele>
        <time>2021-01-31T09:07:32Z</time>
      </trkpt>
      <trkpt lat="47.85827" lon="-2.77113">
        <ele>127</ele>
        <time>2021-01-31T09:07:34Z</time>
      </trkpt>
      <trkpt lat="47.85831" lon="-2.77104">
        <ele>128</ele>
        <time>2021-01-31T09:07:41Z</time>
      </trkpt>
      <trkpt lat="47.85832" lon="-2.77101">
        <ele>128</ele>
        <time>2021-01-31T09:07:42Z</time>
      </trkpt>
      <trkpt lat="47.85833" lon="-2.77099">
        <ele>129</ele>
        <time>2021-01-31T09:07:43Z</time>
      </trkpt>
      <trkpt lat="47.85834" lon="-2.77094">
        <ele>129</ele>
        <time>2021-01-31T09:07:45Z</time>
      </trkpt>
      <trkpt lat="47.85836" lon="-2.77091">
        <ele>129</ele>
        <time>2021-01-31T09:07:47Z</time>
      </trkpt>
      <trkpt lat="47.85837" lon="-2.77087">
        <ele>130</ele>
        <time>2021-01-31T09:07:49Z</time>
      </trkpt>
      <trkpt lat="47.85838" lon="-2.77085">
        <ele>130</ele>
        <time>2021-01-31T09:07:50Z</time>
      </trkpt>
      <trkpt lat="47.85839" lon="-2.77081">
        <ele>130</ele>
        <time>2021-01-31T09:07:52Z</time>
      </trkpt>
      <trkpt lat="47.85841" lon="-2.77076">
        <ele>131</ele>
        <time>2021-01-31T09:07:54Z</time>
      </trkpt>
      <trkpt lat="47.85842" lon="-2.77073">
        <ele>131</ele>
        <time>2021-01-31T09:07:55Z</time>
      </trkpt>
      <trkpt lat="47.85842" lon="-2.77069">
        <ele>132</ele>
        <time>2021-01-31T09:07:57Z</time>
      </trkpt>
      <trkpt lat="47.85843" lon="-2.77066">
        <ele>132</ele>
        <time>2021-01-31T09:08:00Z</time>
      </trkpt>
      <trkpt lat="47.85843" lon="-2.77062">
        <ele>132</ele>
        <time>2021-01-31T09:08:02Z</time>
      </trkpt>
      <trkpt lat="47.85844" lon="-2.77058">
        <ele>132</ele>
        <time>2021-01-31T09:08:04Z</time>
      </trkpt>
      <trkpt lat="47.85844" lon="-2.77053">
        <ele>131</ele>
        <time>2021-01-31T09:08:06Z</time>
      </trkpt>
      <trkpt lat="47.85844" lon="-2.77049">
        <ele>131</ele>
        <time>2021-01-31T09:08:08Z</time>
      </trkpt>
      <trkpt lat="47.85843" lon="-2.77045">
        <ele>131</ele>
        <time>2021-01-31T09:08:10Z</time>
      </trkpt>
      <trkpt lat="47.85844" lon="-2.77041">
        <ele>131</ele>
        <time>2021-01-31T09:08:12Z</time>
      </trkpt>
      <trkpt lat="47.85844" lon="-2.77038">
        <ele>131</ele>
        <time>2021-01-31T09:08:14Z</time>
      </trkpt>
      <trkpt lat="47.85845" lon="-2.77034">
        <ele>131</ele>
        <time>2021-01-31T09:08:16Z</time>
      </trkpt>
      <trkpt lat="47.85845" lon="-2.7703">
        <ele>131</ele>
        <time>2021-01-31T09:08:18Z</time>
      </trkpt>
      <trkpt lat="47.85845" lon="-2.77025">
        <ele>130</ele>
        <time>2021-01-31T09:08:20Z</time>
      </trkpt>
      <trkpt lat="47.85846" lon="-2.77021">
        <ele>131</ele>
        <time>2021-01-31T09:08:22Z</time>
      </trkpt>
      <trkpt lat="47.85847" lon="-2.77017">
        <ele>131</ele>
        <time>2021-01-31T09:08:24Z</time>
      </trkpt>
      <trkpt lat="47.85848" lon="-2.77012">
        <ele>131</ele>
        <time>2021-01-31T09:08:26Z</time>
      </trkpt>
      <trkpt lat="47.85849" lon="-2.77009">
        <ele>131</ele>
        <time>2021-01-31T09:08:28Z</time>
      </trkpt>
      <trkpt lat="47.8585" lon="-2.77005">
        <ele>131</ele>
        <time>2021-01-31T09:08:30Z</time>
      </trkpt>
      <trkpt lat="47.85851" lon="-2.77001">
        <ele>131</ele>
        <time>2021-01-31T09:08:32Z</time>
      </trkpt>
      <trkpt lat="47.85852" lon="-2.76997">
        <ele>131</ele>
        <time>2021-01-31T09:08:34Z</time>
      </trkpt>
      <trkpt lat="47.85853" lon="-2.76993">
        <ele>131</ele>
        <time>2021-01-31T09:08:36Z</time>
      </trkpt>
      <trkpt lat="47.85854" lon="-2.76989">
        <ele>130</ele>
        <time>2021-01-31T09:08:38Z</time>
      </trkpt>
      <trkpt lat="47.85855" lon="-2.76985">
        <ele>130</ele>
        <time>2021-01-31T09:08:40Z</time>
      </trkpt>
      <trkpt lat="47.85857" lon="-2.76982">
        <ele>130</ele>
        <time>2021-01-31T09:08:42Z</time>
      </trkpt>
      <trkpt lat="47.85858" lon="-2.76979">
        <ele>130</ele>
        <time>2021-01-31T09:08:44Z</time>
      </trkpt>
      <trkpt lat="47.8586" lon="-2.76976">
        <ele>131</ele>
        <time>2021-01-31T09:08:46Z</time>
      </trkpt>
      <trkpt lat="47.85861" lon="-2.76972">
        <ele>131</ele>
        <time>2021-01-31T09:08:48Z</time>
      </trkpt>
      <trkpt lat="47.85862" lon="-2.7697">
        <ele>131</ele>
        <time>2021-01-31T09:08:50Z</time>
      </trkpt>
      <trkpt lat="47.85864" lon="-2.76966">
        <ele>131</ele>
        <time>2021-01-31T09:08:52Z</time>
      </trkpt>
      <trkpt lat="47.85865" lon="-2.76963">
        <ele>131</ele>
        <time>2021-01-31T09:08:54Z</time>
      </trkpt>
      <trkpt lat="47.85868" lon="-2.7696">
        <ele>130</ele>
        <time>2021-01-31T09:08:56Z</time>
      </trkpt>
      <trkpt lat="47.8587" lon="-2.76958">
        <ele>130</ele>
        <time>2021-01-31T09:08:58Z</time>
      </trkpt>
      <trkpt lat="47.85873" lon="-2.76956">
        <ele>130</ele>
        <time>2021-01-31T09:09:00Z</time>
      </trkpt>
      <trkpt lat="47.85875" lon="-2.76955">
        <ele>130</ele>
        <time>2021-01-31T09:09:02Z</time>
      </trkpt>
      <trkpt lat="47.85877" lon="-2.76953">
        <ele>130</ele>
        <time>2021-01-31T09:09:04Z</time>
      </trkpt>
      <trkpt lat="47.85879" lon="-2.76953">
        <ele>131</ele>
        <time>2021-01-31T09:09:06Z</time>
      </trkpt>
      <trkpt lat="47.85882" lon="-2.76952">
        <ele>131</ele>
        <time>2021-01-31T09:09:09Z</time>
      </trkpt>
      <trkpt lat="47.85884" lon="-2.76953">
        <ele>131</ele>
        <time>2021-01-31T09:09:11Z</time>
      </trkpt>
      <trkpt lat="47.85886" lon="-2.76954">
        <ele>132</ele>
        <time>2021-01-31T09:09:13Z</time>
      </trkpt>
      <trkpt lat="47.85888" lon="-2.76956">
        <ele>132</ele>
        <time>2021-01-31T09:09:15Z</time>
      </trkpt>
      <trkpt lat="47.85891" lon="-2.76958">
        <ele>132</ele>
        <time>2021-01-31T09:09:18Z</time>
      </trkpt>
      <trkpt lat="47.85892" lon="-2.76961">
        <ele>132</ele>
        <time>2021-01-31T09:09:20Z</time>
      </trkpt>
      <trkpt lat="47.85893" lon="-2.76964">
        <ele>132</ele>
        <time>2021-01-31T09:09:22Z</time>
      </trkpt>
      <trkpt lat="47.85893" lon="-2.76967">
        <ele>133</ele>
        <time>2021-01-31T09:09:24Z</time>
      </trkpt>
      <trkpt lat="47.85894" lon="-2.76971">
        <ele>133</ele>
        <time>2021-01-31T09:09:26Z</time>
      </trkpt>
      <trkpt lat="47.85894" lon="-2.76974">
        <ele>133</ele>
        <time>2021-01-31T09:09:28Z</time>
      </trkpt>
      <trkpt lat="47.85894" lon="-2.76978">
        <ele>133</ele>
        <time>2021-01-31T09:09:30Z</time>
      </trkpt>
      <trkpt lat="47.85895" lon="-2.76982">
        <ele>134</ele>
        <time>2021-01-31T09:09:32Z</time>
      </trkpt>
      <trkpt lat="47.85896" lon="-2.76986">
        <ele>134</ele>
        <time>2021-01-31T09:09:34Z</time>
      </trkpt>
      <trkpt lat="47.85896" lon="-2.76989">
        <ele>134</ele>
        <time>2021-01-31T09:09:36Z</time>
      </trkpt>
      <trkpt lat="47.85897" lon="-2.76993">
        <ele>134</ele>
        <time>2021-01-31T09:09:38Z</time>
      </trkpt>
      <trkpt lat="47.85898" lon="-2.76996">
        <ele>134</ele>
        <time>2021-01-31T09:09:40Z</time>
      </trkpt>
      <trkpt lat="47.85898" lon="-2.77">
        <ele>134</ele>
        <time>2021-01-31T09:09:42Z</time>
      </trkpt>
      <trkpt lat="47.85899" lon="-2.77003">
        <ele>135</ele>
        <time>2021-01-31T09:09:44Z</time>
      </trkpt>
      <trkpt lat="47.85899" lon="-2.77006">
        <ele>135</ele>
        <time>2021-01-31T09:09:46Z</time>
      </trkpt>
      <trkpt lat="47.85898" lon="-2.7701">
        <ele>135</ele>
        <time>2021-01-31T09:09:48Z</time>
      </trkpt>
      <trkpt lat="47.85899" lon="-2.77013">
        <ele>135</ele>
        <time>2021-01-31T09:09:50Z</time>
      </trkpt>
      <trkpt lat="47.859" lon="-2.77017">
        <ele>135</ele>
        <time>2021-01-31T09:09:52Z</time>
      </trkpt>
      <trkpt lat="47.859" lon="-2.7702">
        <ele>135</ele>
        <time>2021-01-31T09:09:54Z</time>
      </trkpt>
      <trkpt lat="47.859" lon="-2.77024">
        <ele>135</ele>
        <time>2021-01-31T09:09:56Z</time>
      </trkpt>
      <trkpt lat="47.85901" lon="-2.77027">
        <ele>136</ele>
        <time>2021-01-31T09:09:58Z</time>
      </trkpt>
      <trkpt lat="47.85901" lon="-2.77031">
        <ele>136</ele>
        <time>2021-01-31T09:10:00Z</time>
      </trkpt>
      <trkpt lat="47.85902" lon="-2.77034">
        <ele>136</ele>
        <time>2021-01-31T09:10:02Z</time>
      </trkpt>
      <trkpt lat="47.85902" lon="-2.77038">
        <ele>136</ele>
        <time>2021-01-31T09:10:04Z</time>
      </trkpt>
      <trkpt lat="47.85901" lon="-2.77042">
        <ele>136</ele>
        <time>2021-01-31T09:10:06Z</time>
      </trkpt>
      <trkpt lat="47.85902" lon="-2.77046">
        <ele>136</ele>
        <time>2021-01-31T09:10:08Z</time>
      </trkpt>
      <trkpt lat="47.85902" lon="-2.7705">
        <ele>136</ele>
        <time>2021-01-31T09:10:11Z</time>
      </trkpt>
      <trkpt lat="47.85901" lon="-2.77054">
        <ele>136</ele>
        <time>2021-01-31T09:10:13Z</time>
      </trkpt>
      <trkpt lat="47.85901" lon="-2.77058">
        <ele>136</ele>
        <time>2021-01-31T09:10:15Z</time>
      </trkpt>
      <trkpt lat="47.85902" lon="-2.77061">
        <ele>136</ele>
        <time>2021-01-31T09:10:17Z</time>
      </trkpt>
      <trkpt lat="47.85901" lon="-2.77064">
        <ele>136</ele>
        <time>2021-01-31T09:10:19Z</time>
      </trkpt>
      <trkpt lat="47.85901" lon="-2.77069">
        <ele>136</ele>
        <time>2021-01-31T09:10:21Z</time>
      </trkpt>
      <trkpt lat="47.85901" lon="-2.77072">
        <ele>136</ele>
        <time>2021-01-31T09:10:23Z</time>
      </trkpt>
      <trkpt lat="47.85901" lon="-2.77076">
        <ele>136</ele>
        <time>2021-01-31T09:10:25Z</time>
      </trkpt>
      <trkpt lat="47.85902" lon="-2.77081">
        <ele>136</ele>
        <time>2021-01-31T09:10:27Z</time>
      </trkpt>
      <trkpt lat="47.85903" lon="-2.77085">
        <ele>137</ele>
        <time>2021-01-31T09:10:29Z</time>
      </trkpt>
      <trkpt lat="47.85904" lon="-2.77089">
        <ele>137</ele>
        <time>2021-01-31T09:10:31Z</time>
      </trkpt>
      <trkpt lat="47.85905" lon="-2.77094">
        <ele>137</ele>
        <time>2021-01-31T09:10:33Z</time>
      </trkpt>
      <trkpt lat="47.85906" lon="-2.77098">
        <ele>137</ele>
        <time>2021-01-31T09:10:35Z</time>
      </trkpt>
      <trkpt lat="47.85908" lon="-2.77102">
        <ele>137</ele>
        <time>2021-01-31T09:10:37Z</time>
      </trkpt>
      <trkpt lat="47.85909" lon="-2.77106">
        <ele>137</ele>
        <time>2021-01-31T09:10:39Z</time>
      </trkpt>
      <trkpt lat="47.85911" lon="-2.77111">
        <ele>137</ele>
        <time>2021-01-31T09:10:41Z</time>
      </trkpt>
      <trkpt lat="47.85912" lon="-2.77114">
        <ele>137</ele>
        <time>2021-01-31T09:10:43Z</time>
      </trkpt>
      <trkpt lat="47.85914" lon="-2.77118">
        <ele>137</ele>
        <time>2021-01-31T09:10:45Z</time>
      </trkpt>
      <trkpt lat="47.85915" lon="-2.77121">
        <ele>137</ele>
        <time>2021-01-31T09:10:47Z</time>
      </trkpt>
      <trkpt lat="47.85917" lon="-2.77124">
        <ele>137</ele>
        <time>2021-01-31T09:10:49Z</time>
      </trkpt>
      <trkpt lat="47.8592" lon="-2.77126">
        <ele>137</ele>
        <time>2021-01-31T09:10:51Z</time>
      </trkpt>
      <trkpt lat="47.85922" lon="-2.77126">
        <ele>137</ele>
        <time>2021-01-31T09:10:53Z</time>
      </trkpt>
      <trkpt lat="47.85925" lon="-2.77127">
        <ele>137</ele>
        <time>2021-01-31T09:10:56Z</time>
      </trkpt>
      <trkpt lat="47.85926" lon="-2.77126">
        <ele>137</ele>
        <time>2021-01-31T09:10:58Z</time>
      </trkpt>
      <trkpt lat="47.85928" lon="-2.77125">
        <ele>137</ele>
        <time>2021-01-31T09:11:19Z</time>
      </trkpt>
      <trkpt lat="47.8593" lon="-2.77126">
        <ele>137</ele>
        <time>2021-01-31T09:11:24Z</time>
      </trkpt>
      <trkpt lat="47.85931" lon="-2.77124">
        <ele>136</ele>
        <time>2021-01-31T09:11:56Z</time>
      </trkpt>
      <trkpt lat="47.85933" lon="-2.77123">
        <ele>135</ele>
        <time>2021-01-31T09:13:01Z</time>
      </trkpt>
      <trkpt lat="47.85936" lon="-2.77122">
        <ele>135</ele>
        <time>2021-01-31T09:13:03Z</time>
      </trkpt>
      <trkpt lat="47.85938" lon="-2.77123">
        <ele>135</ele>
        <time>2021-01-31T09:13:05Z</time>
      </trkpt>
      <trkpt lat="47.85941" lon="-2.77122">
        <ele>135</ele>
        <time>2021-01-31T09:13:07Z</time>
      </trkpt>
      <trkpt lat="47.85943" lon="-2.77123">
        <ele>136</ele>
        <time>2021-01-31T09:13:09Z</time>
      </trkpt>
      <trkpt lat="47.85945" lon="-2.77123">
        <ele>136</ele>
        <time>2021-01-31T09:13:11Z</time>
      </trkpt>
      <trkpt lat="47.85948" lon="-2.77124">
        <ele>136</ele>
        <time>2021-01-31T09:13:13Z</time>
      </trkpt>
      <trkpt lat="47.8595" lon="-2.77125">
        <ele>136</ele>
        <time>2021-01-31T09:13:14Z</time>
      </trkpt>
      <trkpt lat="47.85951" lon="-2.77127">
        <ele>136</ele>
        <time>2021-01-31T09:13:15Z</time>
      </trkpt>
      <trkpt lat="47.85953" lon="-2.77128">
        <ele>136</ele>
        <time>2021-01-31T09:13:16Z</time>
      </trkpt>
      <trkpt lat="47.85955" lon="-2.77131">
        <ele>136</ele>
        <time>2021-01-31T09:13:18Z</time>
      </trkpt>
      <trkpt lat="47.85957" lon="-2.77134">
        <ele>137</ele>
        <time>2021-01-31T09:13:20Z</time>
      </trkpt>
      <trkpt lat="47.85959" lon="-2.77137">
        <ele>137</ele>
        <time>2021-01-31T09:13:22Z</time>
      </trkpt>
      <trkpt lat="47.85959" lon="-2.77142">
        <ele>137</ele>
        <time>2021-01-31T09:13:24Z</time>
      </trkpt>
      <trkpt lat="47.8596" lon="-2.77146">
        <ele>137</ele>
        <time>2021-01-31T09:13:26Z</time>
      </trkpt>
      <trkpt lat="47.85961" lon="-2.77149">
        <ele>137</ele>
        <time>2021-01-31T09:13:28Z</time>
      </trkpt>
      <trkpt lat="47.85962" lon="-2.77153">
        <ele>138</ele>
        <time>2021-01-31T09:13:30Z</time>
      </trkpt>
      <trkpt lat="47.85962" lon="-2.77156">
        <ele>138</ele>
        <time>2021-01-31T09:13:32Z</time>
      </trkpt>
      <trkpt lat="47.85963" lon="-2.77159">
        <ele>138</ele>
        <time>2021-01-31T09:13:33Z</time>
      </trkpt>
      <trkpt lat="47.85963" lon="-2.77163">
        <ele>138</ele>
        <time>2021-01-31T09:13:35Z</time>
      </trkpt>
      <trkpt lat="47.85964" lon="-2.77166">
        <ele>138</ele>
        <time>2021-01-31T09:13:37Z</time>
      </trkpt>
      <trkpt lat="47.85965" lon="-2.7717">
        <ele>138</ele>
        <time>2021-01-31T09:13:39Z</time>
      </trkpt>
      <trkpt lat="47.85966" lon="-2.77174">
        <ele>138</ele>
        <time>2021-01-31T09:13:41Z</time>
      </trkpt>
      <trkpt lat="47.85967" lon="-2.77177">
        <ele>142</ele>
        <time>2021-01-31T09:13:43Z</time>
      </trkpt>
      <trkpt lat="47.85968" lon="-2.77181">
        <ele>141</ele>
        <time>2021-01-31T09:13:45Z</time>
      </trkpt>
      <trkpt lat="47.85969" lon="-2.77184">
        <ele>141</ele>
        <time>2021-01-31T09:13:47Z</time>
      </trkpt>
      <trkpt lat="47.85969" lon="-2.77188">
        <ele>141</ele>
        <time>2021-01-31T09:13:49Z</time>
      </trkpt>
      <trkpt lat="47.8597" lon="-2.77192">
        <ele>141</ele>
        <time>2021-01-31T09:13:51Z</time>
      </trkpt>
      <trkpt lat="47.85971" lon="-2.77197">
        <ele>141</ele>
        <time>2021-01-31T09:13:53Z</time>
      </trkpt>
      <trkpt lat="47.85971" lon="-2.77201">
        <ele>141</ele>
        <time>2021-01-31T09:13:55Z</time>
      </trkpt>
      <trkpt lat="47.85973" lon="-2.77205">
        <ele>141</ele>
        <time>2021-01-31T09:13:57Z</time>
      </trkpt>
      <trkpt lat="47.85974" lon="-2.77208">
        <ele>141</ele>
        <time>2021-01-31T09:13:58Z</time>
      </trkpt>
      <trkpt lat="47.85975" lon="-2.77211">
        <ele>141</ele>
        <time>2021-01-31T09:13:59Z</time>
      </trkpt>
      <trkpt lat="47.85975" lon="-2.77214">
        <ele>141</ele>
        <time>2021-01-31T09:14:01Z</time>
      </trkpt>
      <trkpt lat="47.85976" lon="-2.77218">
        <ele>141</ele>
        <time>2021-01-31T09:14:03Z</time>
      </trkpt>
      <trkpt lat="47.85976" lon="-2.77222">
        <ele>141</ele>
        <time>2021-01-31T09:14:05Z</time>
      </trkpt>
      <trkpt lat="47.85977" lon="-2.77225">
        <ele>137</ele>
        <time>2021-01-31T09:14:07Z</time>
      </trkpt>
      <trkpt lat="47.85977" lon="-2.77228">
        <ele>137</ele>
        <time>2021-01-31T09:14:08Z</time>
      </trkpt>
      <trkpt lat="47.85978" lon="-2.77231">
        <ele>137</ele>
        <time>2021-01-31T09:14:09Z</time>
      </trkpt>
      <trkpt lat="47.85978" lon="-2.77234">
        <ele>137</ele>
        <time>2021-01-31T09:14:10Z</time>
      </trkpt>
      <trkpt lat="47.85979" lon="-2.7724">
        <ele>137</ele>
        <time>2021-01-31T09:14:13Z</time>
      </trkpt>
      <trkpt lat="47.85984" lon="-2.77252">
        <ele>137</ele>
        <time>2021-01-31T09:14:18Z</time>
      </trkpt>
      <trkpt lat="47.85991" lon="-2.77262">
        <ele>137</ele>
        <time>2021-01-31T09:14:23Z</time>
      </trkpt>
      <trkpt lat="47.85996" lon="-2.77275">
        <ele>137</ele>
        <time>2021-01-31T09:14:29Z</time>
      </trkpt>
      <trkpt lat="47.86002" lon="-2.77287">
        <ele>137</ele>
        <time>2021-01-31T09:14:37Z</time>
      </trkpt>
      <trkpt lat="47.8601" lon="-2.77293">
        <ele>137</ele>
        <time>2021-01-31T09:14:43Z</time>
      </trkpt>
      <trkpt lat="47.86019" lon="-2.77297">
        <ele>137</ele>
        <time>2021-01-31T09:14:49Z</time>
      </trkpt>
      <trkpt lat="47.86028" lon="-2.77303">
        <ele>137</ele>
        <time>2021-01-31T09:14:55Z</time>
      </trkpt>
      <trkpt lat="47.86037" lon="-2.77308">
        <ele>141</ele>
        <time>2021-01-31T09:15:03Z</time>
      </trkpt>
      <trkpt lat="47.86042" lon="-2.77311">
        <ele>142</ele>
        <time>2021-01-31T09:15:08Z</time>
      </trkpt>
      <trkpt lat="47.86044" lon="-2.77313">
        <ele>143</ele>
        <time>2021-01-31T09:15:11Z</time>
      </trkpt>
      <trkpt lat="47.86053" lon="-2.77318">
        <ele>144</ele>
        <time>2021-01-31T09:15:19Z</time>
      </trkpt>
      <trkpt lat="47.86062" lon="-2.77324">
        <ele>144</ele>
        <time>2021-01-31T09:15:28Z</time>
      </trkpt>
      <trkpt lat="47.86072" lon="-2.77323">
        <ele>145</ele>
        <time>2021-01-31T09:15:33Z</time>
      </trkpt>
      <trkpt lat="47.86082" lon="-2.77321">
        <ele>146</ele>
        <time>2021-01-31T09:15:38Z</time>
      </trkpt>
      <trkpt lat="47.86087" lon="-2.77323">
        <ele>147</ele>
        <time>2021-01-31T09:15:43Z</time>
      </trkpt>
      <trkpt lat="47.8609" lon="-2.77324">
        <ele>148</ele>
        <time>2021-01-31T09:15:45Z</time>
      </trkpt>
      <trkpt lat="47.86093" lon="-2.77325">
        <ele>148</ele>
        <time>2021-01-31T09:15:47Z</time>
      </trkpt>
      <trkpt lat="47.86096" lon="-2.77325">
        <ele>149</ele>
        <time>2021-01-31T09:15:49Z</time>
      </trkpt>
      <trkpt lat="47.86099" lon="-2.77325">
        <ele>149</ele>
        <time>2021-01-31T09:15:51Z</time>
      </trkpt>
      <trkpt lat="47.86102" lon="-2.77326">
        <ele>149</ele>
        <time>2021-01-31T09:15:53Z</time>
      </trkpt>
      <trkpt lat="47.86111" lon="-2.77328">
        <ele>150</ele>
        <time>2021-01-31T09:16:00Z</time>
      </trkpt>
      <trkpt lat="47.86119" lon="-2.77332">
        <ele>151</ele>
        <time>2021-01-31T09:16:06Z</time>
      </trkpt>
      <trkpt lat="47.86122" lon="-2.77333">
        <ele>151</ele>
        <time>2021-01-31T09:16:08Z</time>
      </trkpt>
      <trkpt lat="47.86128" lon="-2.77337">
        <ele>152</ele>
        <time>2021-01-31T09:16:12Z</time>
      </trkpt>
      <trkpt lat="47.86134" lon="-2.77342">
        <ele>153</ele>
        <time>2021-01-31T09:16:18Z</time>
      </trkpt>
      <trkpt lat="47.86137" lon="-2.77344">
        <ele>154</ele>
        <time>2021-01-31T09:16:20Z</time>
      </trkpt>
      <trkpt lat="47.86138" lon="-2.77344">
        <ele>154</ele>
        <time>2021-01-31T09:16:21Z</time>
      </trkpt>
      <trkpt lat="47.86141" lon="-2.77345">
        <ele>155</ele>
        <time>2021-01-31T09:16:23Z</time>
      </trkpt>
      <trkpt lat="47.86149" lon="-2.77352">
        <ele>156</ele>
        <time>2021-01-31T09:16:30Z</time>
      </trkpt>
      <trkpt lat="47.8616" lon="-2.77352">
        <ele>157</ele>
        <time>2021-01-31T09:16:35Z</time>
      </trkpt>
      <trkpt lat="47.86163" lon="-2.77351">
        <ele>157</ele>
        <time>2021-01-31T09:16:37Z</time>
      </trkpt>
      <trkpt lat="47.86165" lon="-2.7735">
        <ele>157</ele>
        <time>2021-01-31T09:16:38Z</time>
      </trkpt>
      <trkpt lat="47.86167" lon="-2.77349">
        <ele>157</ele>
        <time>2021-01-31T09:16:39Z</time>
      </trkpt>
      <trkpt lat="47.86169" lon="-2.77347">
        <ele>157</ele>
        <time>2021-01-31T09:16:41Z</time>
      </trkpt>
      <trkpt lat="47.86174" lon="-2.77344">
        <ele>157</ele>
        <time>2021-01-31T09:16:44Z</time>
      </trkpt>
      <trkpt lat="47.86176" lon="-2.77342">
        <ele>157</ele>
        <time>2021-01-31T09:16:45Z</time>
      </trkpt>
      <trkpt lat="47.86178" lon="-2.77341">
        <ele>157</ele>
        <time>2021-01-31T09:16:46Z</time>
      </trkpt>
      <trkpt lat="47.8618" lon="-2.7734">
        <ele>157</ele>
        <time>2021-01-31T09:16:47Z</time>
      </trkpt>
      <trkpt lat="47.86182" lon="-2.77338">
        <ele>157</ele>
        <time>2021-01-31T09:16:48Z</time>
      </trkpt>
      <trkpt lat="47.86184" lon="-2.77336">
        <ele>159</ele>
        <time>2021-01-31T09:16:50Z</time>
      </trkpt>
      <trkpt lat="47.86186" lon="-2.77334">
        <ele>159</ele>
        <time>2021-01-31T09:16:52Z</time>
      </trkpt>
      <trkpt lat="47.86189" lon="-2.77331">
        <ele>159</ele>
        <time>2021-01-31T09:16:54Z</time>
      </trkpt>
      <trkpt lat="47.86191" lon="-2.77329">
        <ele>159</ele>
        <time>2021-01-31T09:16:55Z</time>
      </trkpt>
      <trkpt lat="47.86193" lon="-2.77327">
        <ele>159</ele>
        <time>2021-01-31T09:16:56Z</time>
      </trkpt>
      <trkpt lat="47.86194" lon="-2.77326">
        <ele>159</ele>
        <time>2021-01-31T09:16:57Z</time>
      </trkpt>
      <trkpt lat="47.86196" lon="-2.77324">
        <ele>159</ele>
        <time>2021-01-31T09:16:58Z</time>
      </trkpt>
      <trkpt lat="47.86199" lon="-2.77322">
        <ele>160</ele>
        <time>2021-01-31T09:17:00Z</time>
      </trkpt>
      <trkpt lat="47.86202" lon="-2.7732">
        <ele>160</ele>
        <time>2021-01-31T09:17:02Z</time>
      </trkpt>
      <trkpt lat="47.86205" lon="-2.77318">
        <ele>160</ele>
        <time>2021-01-31T09:17:04Z</time>
      </trkpt>
      <trkpt lat="47.86208" lon="-2.77317">
        <ele>160</ele>
        <time>2021-01-31T09:17:06Z</time>
      </trkpt>
      <trkpt lat="47.8621" lon="-2.77316">
        <ele>160</ele>
        <time>2021-01-31T09:17:08Z</time>
      </trkpt>
      <trkpt lat="47.86212" lon="-2.77316">
        <ele>161</ele>
        <time>2021-01-31T09:17:10Z</time>
      </trkpt>
      <trkpt lat="47.86214" lon="-2.77316">
        <ele>161</ele>
        <time>2021-01-31T09:17:12Z</time>
      </trkpt>
      <trkpt lat="47.86216" lon="-2.77317">
        <ele>161</ele>
        <time>2021-01-31T09:17:14Z</time>
      </trkpt>
      <trkpt lat="47.86218" lon="-2.77318">
        <ele>161</ele>
        <time>2021-01-31T09:17:16Z</time>
      </trkpt>
      <trkpt lat="47.8622" lon="-2.7732">
        <ele>161</ele>
        <time>2021-01-31T09:17:18Z</time>
      </trkpt>
      <trkpt lat="47.86222" lon="-2.77321">
        <ele>162</ele>
        <time>2021-01-31T09:17:20Z</time>
      </trkpt>
      <trkpt lat="47.86224" lon="-2.77322">
        <ele>162</ele>
        <time>2021-01-31T09:17:22Z</time>
      </trkpt>
      <trkpt lat="47.86227" lon="-2.77323">
        <ele>162</ele>
        <time>2021-01-31T09:17:24Z</time>
      </trkpt>
      <trkpt lat="47.86229" lon="-2.77323">
        <ele>162</ele>
        <time>2021-01-31T09:17:26Z</time>
      </trkpt>
      <trkpt lat="47.86232" lon="-2.77322">
        <ele>162</ele>
        <time>2021-01-31T09:17:27Z</time>
      </trkpt>
      <trkpt lat="47.86233" lon="-2.77321">
        <ele>162</ele>
        <time>2021-01-31T09:17:28Z</time>
      </trkpt>
      <trkpt lat="47.86235" lon="-2.77319">
        <ele>162</ele>
        <time>2021-01-31T09:17:29Z</time>
      </trkpt>
      <trkpt lat="47.86237" lon="-2.77318">
        <ele>162</ele>
        <time>2021-01-31T09:17:30Z</time>
      </trkpt>
      <trkpt lat="47.86239" lon="-2.77314">
        <ele>162</ele>
        <time>2021-01-31T09:17:32Z</time>
      </trkpt>
      <trkpt lat="47.8624" lon="-2.77312">
        <ele>162</ele>
        <time>2021-01-31T09:17:33Z</time>
      </trkpt>
      <trkpt lat="47.86241" lon="-2.77309">
        <ele>162</ele>
        <time>2021-01-31T09:17:34Z</time>
      </trkpt>
      <trkpt lat="47.86242" lon="-2.77307">
        <ele>162</ele>
        <time>2021-01-31T09:17:35Z</time>
      </trkpt>
      <trkpt lat="47.86243" lon="-2.77305">
        <ele>162</ele>
        <time>2021-01-31T09:17:36Z</time>
      </trkpt>
      <trkpt lat="47.86244" lon="-2.77303">
        <ele>162</ele>
        <time>2021-01-31T09:17:37Z</time>
      </trkpt>
      <trkpt lat="47.86246" lon="-2.77298">
        <ele>162</ele>
        <time>2021-01-31T09:17:39Z</time>
      </trkpt>
      <trkpt lat="47.86248" lon="-2.77295">
        <ele>162</ele>
        <time>2021-01-31T09:17:41Z</time>
      </trkpt>
      <trkpt lat="47.8625" lon="-2.77291">
        <ele>162</ele>
        <time>2021-01-31T09:17:43Z</time>
      </trkpt>
      <trkpt lat="47.86251" lon="-2.77287">
        <ele>162</ele>
        <time>2021-01-31T09:17:45Z</time>
      </trkpt>
      <trkpt lat="47.86252" lon="-2.77283">
        <ele>161</ele>
        <time>2021-01-31T09:17:47Z</time>
      </trkpt>
      <trkpt lat="47.86254" lon="-2.77279">
        <ele>161</ele>
        <time>2021-01-31T09:17:49Z</time>
      </trkpt>
      <trkpt lat="47.86256" lon="-2.77274">
        <ele>161</ele>
        <time>2021-01-31T09:17:51Z</time>
      </trkpt>
      <trkpt lat="47.86257" lon="-2.77272">
        <ele>161</ele>
        <time>2021-01-31T09:17:52Z</time>
      </trkpt>
      <trkpt lat="47.86259" lon="-2.77268">
        <ele>160</ele>
        <time>2021-01-31T09:17:54Z</time>
      </trkpt>
      <trkpt lat="47.8626" lon="-2.77265">
        <ele>159</ele>
        <time>2021-01-31T09:17:56Z</time>
      </trkpt>
      <trkpt lat="47.8626" lon="-2.77262">
        <ele>159</ele>
        <time>2021-01-31T09:17:58Z</time>
      </trkpt>
      <trkpt lat="47.86259" lon="-2.77258">
        <ele>159</ele>
        <time>2021-01-31T09:18:00Z</time>
      </trkpt>
      <trkpt lat="47.86258" lon="-2.77255">
        <ele>159</ele>
        <time>2021-01-31T09:18:02Z</time>
      </trkpt>
      <trkpt lat="47.86258" lon="-2.77252">
        <ele>159</ele>
        <time>2021-01-31T09:18:04Z</time>
      </trkpt>
      <trkpt lat="47.86258" lon="-2.77248">
        <ele>159</ele>
        <time>2021-01-31T09:18:06Z</time>
      </trkpt>
      <trkpt lat="47.86259" lon="-2.77244">
        <ele>159</ele>
        <time>2021-01-31T09:18:08Z</time>
      </trkpt>
      <trkpt lat="47.86259" lon="-2.7724">
        <ele>158</ele>
        <time>2021-01-31T09:18:10Z</time>
      </trkpt>
      <trkpt lat="47.86259" lon="-2.77236">
        <ele>158</ele>
        <time>2021-01-31T09:18:12Z</time>
      </trkpt>
      <trkpt lat="47.86257" lon="-2.77231">
        <ele>158</ele>
        <time>2021-01-31T09:18:14Z</time>
      </trkpt>
      <trkpt lat="47.86256" lon="-2.77227">
        <ele>157</ele>
        <time>2021-01-31T09:18:16Z</time>
      </trkpt>
      <trkpt lat="47.86256" lon="-2.77222">
        <ele>157</ele>
        <time>2021-01-31T09:18:18Z</time>
      </trkpt>
      <trkpt lat="47.86255" lon="-2.77217">
        <ele>157</ele>
        <time>2021-01-31T09:18:20Z</time>
      </trkpt>
      <trkpt lat="47.86254" lon="-2.77213">
        <ele>156</ele>
        <time>2021-01-31T09:18:22Z</time>
      </trkpt>
      <trkpt lat="47.86252" lon="-2.7721">
        <ele>156</ele>
        <time>2021-01-31T09:18:24Z</time>
      </trkpt>
      <trkpt lat="47.8625" lon="-2.77208">
        <ele>156</ele>
        <time>2021-01-31T09:18:26Z</time>
      </trkpt>
      <trkpt lat="47.86248" lon="-2.77206">
        <ele>156</ele>
        <time>2021-01-31T09:18:28Z</time>
      </trkpt>
      <trkpt lat="47.86245" lon="-2.77204">
        <ele>156</ele>
        <time>2021-01-31T09:18:30Z</time>
      </trkpt>
      <trkpt lat="47.86242" lon="-2.77203">
        <ele>156</ele>
        <time>2021-01-31T09:18:32Z</time>
      </trkpt>
      <trkpt lat="47.86239" lon="-2.77203">
        <ele>156</ele>
        <time>2021-01-31T09:18:34Z</time>
      </trkpt>
      <trkpt lat="47.86235" lon="-2.77202">
        <ele>157</ele>
        <time>2021-01-31T09:18:36Z</time>
      </trkpt>
      <trkpt lat="47.86233" lon="-2.772">
        <ele>157</ele>
        <time>2021-01-31T09:18:38Z</time>
      </trkpt>
      <trkpt lat="47.86231" lon="-2.77197">
        <ele>157</ele>
        <time>2021-01-31T09:18:40Z</time>
      </trkpt>
      <trkpt lat="47.86229" lon="-2.77194">
        <ele>157</ele>
        <time>2021-01-31T09:18:42Z</time>
      </trkpt>
      <trkpt lat="47.86226" lon="-2.77193">
        <ele>157</ele>
        <time>2021-01-31T09:18:44Z</time>
      </trkpt>
      <trkpt lat="47.86224" lon="-2.77193">
        <ele>157</ele>
        <time>2021-01-31T09:18:46Z</time>
      </trkpt>
      <trkpt lat="47.86222" lon="-2.77192">
        <ele>157</ele>
        <time>2021-01-31T09:18:48Z</time>
      </trkpt>
      <trkpt lat="47.86219" lon="-2.7719">
        <ele>157</ele>
        <time>2021-01-31T09:18:50Z</time>
      </trkpt>
      <trkpt lat="47.86216" lon="-2.77189">
        <ele>157</ele>
        <time>2021-01-31T09:18:52Z</time>
      </trkpt>
      <trkpt lat="47.86213" lon="-2.77188">
        <ele>157</ele>
        <time>2021-01-31T09:18:54Z</time>
      </trkpt>
      <trkpt lat="47.86211" lon="-2.77188">
        <ele>158</ele>
        <time>2021-01-31T09:18:56Z</time>
      </trkpt>
      <trkpt lat="47.86208" lon="-2.77186">
        <ele>158</ele>
        <time>2021-01-31T09:18:58Z</time>
      </trkpt>
      <trkpt lat="47.86206" lon="-2.77185">
        <ele>159</ele>
        <time>2021-01-31T09:19:00Z</time>
      </trkpt>
      <trkpt lat="47.86202" lon="-2.77184">
        <ele>159</ele>
        <time>2021-01-31T09:19:02Z</time>
      </trkpt>
      <trkpt lat="47.86199" lon="-2.77183">
        <ele>159</ele>
        <time>2021-01-31T09:19:04Z</time>
      </trkpt>
      <trkpt lat="47.86196" lon="-2.77181">
        <ele>159</ele>
        <time>2021-01-31T09:19:05Z</time>
      </trkpt>
      <trkpt lat="47.86195" lon="-2.7718">
        <ele>159</ele>
        <time>2021-01-31T09:19:06Z</time>
      </trkpt>
      <trkpt lat="47.86191" lon="-2.77177">
        <ele>159</ele>
        <time>2021-01-31T09:19:08Z</time>
      </trkpt>
      <trkpt lat="47.8619" lon="-2.77176">
        <ele>159</ele>
        <time>2021-01-31T09:19:10Z</time>
      </trkpt>
      <trkpt lat="47.86188" lon="-2.77174">
        <ele>160</ele>
        <time>2021-01-31T09:19:12Z</time>
      </trkpt>
      <trkpt lat="47.86185" lon="-2.77172">
        <ele>160</ele>
        <time>2021-01-31T09:19:14Z</time>
      </trkpt>
      <trkpt lat="47.86183" lon="-2.77169">
        <ele>160</ele>
        <time>2021-01-31T09:19:16Z</time>
      </trkpt>
      <trkpt lat="47.86181" lon="-2.77166">
        <ele>161</ele>
        <time>2021-01-31T09:19:18Z</time>
      </trkpt>
      <trkpt lat="47.86179" lon="-2.77165">
        <ele>161</ele>
        <time>2021-01-31T09:19:19Z</time>
      </trkpt>
      <trkpt lat="47.86176" lon="-2.77163">
        <ele>161</ele>
        <time>2021-01-31T09:19:21Z</time>
      </trkpt>
      <trkpt lat="47.86175" lon="-2.7716">
        <ele>162</ele>
        <time>2021-01-31T09:19:23Z</time>
      </trkpt>
      <trkpt lat="47.86173" lon="-2.77159">
        <ele>162</ele>
        <time>2021-01-31T09:19:25Z</time>
      </trkpt>
      <trkpt lat="47.86171" lon="-2.77156">
        <ele>162</ele>
        <time>2021-01-31T09:19:28Z</time>
      </trkpt>
      <trkpt lat="47.86169" lon="-2.77152">
        <ele>162</ele>
        <time>2021-01-31T09:19:30Z</time>
      </trkpt>
      <trkpt lat="47.86167" lon="-2.7715">
        <ele>162</ele>
        <time>2021-01-31T09:19:32Z</time>
      </trkpt>
      <trkpt lat="47.86164" lon="-2.77148">
        <ele>162</ele>
        <time>2021-01-31T09:19:34Z</time>
      </trkpt>
      <trkpt lat="47.86162" lon="-2.77147">
        <ele>162</ele>
        <time>2021-01-31T09:19:36Z</time>
      </trkpt>
      <trkpt lat="47.8616" lon="-2.77146">
        <ele>162</ele>
        <time>2021-01-31T09:19:38Z</time>
      </trkpt>
      <trkpt lat="47.86157" lon="-2.77145">
        <ele>163</ele>
        <time>2021-01-31T09:19:40Z</time>
      </trkpt>
      <trkpt lat="47.86155" lon="-2.77145">
        <ele>163</ele>
        <time>2021-01-31T09:19:42Z</time>
      </trkpt>
      <trkpt lat="47.86154" lon="-2.77147">
        <ele>163</ele>
        <time>2021-01-31T09:19:51Z</time>
      </trkpt>
      <trkpt lat="47.86153" lon="-2.77145">
        <ele>163</ele>
        <time>2021-01-31T09:20:02Z</time>
      </trkpt>
      <trkpt lat="47.86151" lon="-2.77142">
        <ele>163</ele>
        <time>2021-01-31T09:20:05Z</time>
      </trkpt>
      <trkpt lat="47.8615" lon="-2.7714">
        <ele>163</ele>
        <time>2021-01-31T09:20:07Z</time>
      </trkpt>
      <trkpt lat="47.86148" lon="-2.77138">
        <ele>163</ele>
        <time>2021-01-31T09:20:09Z</time>
      </trkpt>
      <trkpt lat="47.86146" lon="-2.77136">
        <ele>163</ele>
        <time>2021-01-31T09:20:12Z</time>
      </trkpt>
      <trkpt lat="47.86144" lon="-2.77133">
        <ele>163</ele>
        <time>2021-01-31T09:20:14Z</time>
      </trkpt>
      <trkpt lat="47.86142" lon="-2.77129">
        <ele>163</ele>
        <time>2021-01-31T09:20:16Z</time>
      </trkpt>
      <trkpt lat="47.8614" lon="-2.77125">
        <ele>163</ele>
        <time>2021-01-31T09:20:18Z</time>
      </trkpt>
      <trkpt lat="47.86138" lon="-2.77123">
        <ele>163</ele>
        <time>2021-01-31T09:20:19Z</time>
      </trkpt>
      <trkpt lat="47.86136" lon="-2.77122">
        <ele>163</ele>
        <time>2021-01-31T09:20:20Z</time>
      </trkpt>
      <trkpt lat="47.86135" lon="-2.77119">
        <ele>163</ele>
        <time>2021-01-31T09:20:22Z</time>
      </trkpt>
      <trkpt lat="47.86133" lon="-2.77115">
        <ele>162</ele>
        <time>2021-01-31T09:20:24Z</time>
      </trkpt>
      <trkpt lat="47.86131" lon="-2.77112">
        <ele>162</ele>
        <time>2021-01-31T09:20:26Z</time>
      </trkpt>
      <trkpt lat="47.86129" lon="-2.77108">
        <ele>162</ele>
        <time>2021-01-31T09:20:28Z</time>
      </trkpt>
      <trkpt lat="47.86128" lon="-2.77106">
        <ele>162</ele>
        <time>2021-01-31T09:20:30Z</time>
      </trkpt>
      <trkpt lat="47.86126" lon="-2.77102">
        <ele>162</ele>
        <time>2021-01-31T09:20:32Z</time>
      </trkpt>
      <trkpt lat="47.86125" lon="-2.771">
        <ele>162</ele>
        <time>2021-01-31T09:20:33Z</time>
      </trkpt>
      <trkpt lat="47.86123" lon="-2.77097">
        <ele>162</ele>
        <time>2021-01-31T09:20:35Z</time>
      </trkpt>
      <trkpt lat="47.86122" lon="-2.77094">
        <ele>162</ele>
        <time>2021-01-31T09:20:37Z</time>
      </trkpt>
      <trkpt lat="47.8612" lon="-2.7709">
        <ele>161</ele>
        <time>2021-01-31T09:20:39Z</time>
      </trkpt>
      <trkpt lat="47.86118" lon="-2.77087">
        <ele>161</ele>
        <time>2021-01-31T09:20:41Z</time>
      </trkpt>
      <trkpt lat="47.86115" lon="-2.77084">
        <ele>161</ele>
        <time>2021-01-31T09:20:43Z</time>
      </trkpt>
      <trkpt lat="47.86112" lon="-2.77079">
        <ele>160</ele>
        <time>2021-01-31T09:20:46Z</time>
      </trkpt>
      <trkpt lat="47.8611" lon="-2.77076">
        <ele>160</ele>
        <time>2021-01-31T09:20:48Z</time>
      </trkpt>
      <trkpt lat="47.86108" lon="-2.77072">
        <ele>160</ele>
        <time>2021-01-31T09:20:50Z</time>
      </trkpt>
      <trkpt lat="47.86102" lon="-2.77063">
        <ele>160</ele>
        <time>2021-01-31T09:20:57Z</time>
      </trkpt>
      <trkpt lat="47.86095" lon="-2.77057">
        <ele>160</ele>
        <time>2021-01-31T09:21:02Z</time>
      </trkpt>
      <trkpt lat="47.86094" lon="-2.77054">
        <ele>160</ele>
        <time>2021-01-31T09:21:04Z</time>
      </trkpt>
      <trkpt lat="47.86091" lon="-2.77052">
        <ele>159</ele>
        <time>2021-01-31T09:21:06Z</time>
      </trkpt>
      <trkpt lat="47.8609" lon="-2.7705">
        <ele>159</ele>
        <time>2021-01-31T09:21:07Z</time>
      </trkpt>
      <trkpt lat="47.86087" lon="-2.77048">
        <ele>159</ele>
        <time>2021-01-31T09:21:09Z</time>
      </trkpt>
      <trkpt lat="47.86084" lon="-2.77046">
        <ele>159</ele>
        <time>2021-01-31T09:21:11Z</time>
      </trkpt>
      <trkpt lat="47.86082" lon="-2.77043">
        <ele>159</ele>
        <time>2021-01-31T09:21:13Z</time>
      </trkpt>
      <trkpt lat="47.86074" lon="-2.77037">
        <ele>158</ele>
        <time>2021-01-31T09:21:17Z</time>
      </trkpt>
      <trkpt lat="47.86069" lon="-2.77034">
        <ele>157</ele>
        <time>2021-01-31T09:21:20Z</time>
      </trkpt>
      <trkpt lat="47.86066" lon="-2.77032">
        <ele>157</ele>
        <time>2021-01-31T09:21:22Z</time>
      </trkpt>
      <trkpt lat="47.86063" lon="-2.7703">
        <ele>155</ele>
        <time>2021-01-31T09:21:25Z</time>
      </trkpt>
      <trkpt lat="47.8606" lon="-2.77029">
        <ele>156</ele>
        <time>2021-01-31T09:21:27Z</time>
      </trkpt>
      <trkpt lat="47.86057" lon="-2.77026">
        <ele>155</ele>
        <time>2021-01-31T09:21:29Z</time>
      </trkpt>
      <trkpt lat="47.86056" lon="-2.77025">
        <ele>155</ele>
        <time>2021-01-31T09:21:30Z</time>
      </trkpt>
      <trkpt lat="47.86051" lon="-2.77021">
        <ele>155</ele>
        <time>2021-01-31T09:21:33Z</time>
      </trkpt>
      <trkpt lat="47.86049" lon="-2.77019">
        <ele>155</ele>
        <time>2021-01-31T09:21:35Z</time>
      </trkpt>
      <trkpt lat="47.86048" lon="-2.77018">
        <ele>154</ele>
        <time>2021-01-31T09:21:37Z</time>
      </trkpt>
      <trkpt lat="47.86045" lon="-2.77015">
        <ele>153</ele>
        <time>2021-01-31T09:21:40Z</time>
      </trkpt>
      <trkpt lat="47.86043" lon="-2.77013">
        <ele>153</ele>
        <time>2021-01-31T09:21:42Z</time>
      </trkpt>
      <trkpt lat="47.8604" lon="-2.77012">
        <ele>153</ele>
        <time>2021-01-31T09:21:44Z</time>
      </trkpt>
      <trkpt lat="47.86038" lon="-2.77011">
        <ele>153</ele>
        <time>2021-01-31T09:21:45Z</time>
      </trkpt>
      <trkpt lat="47.86031" lon="-2.77004">
        <ele>152</ele>
        <time>2021-01-31T09:21:49Z</time>
      </trkpt>
      <trkpt lat="47.8603" lon="-2.77002">
        <ele>152</ele>
        <time>2021-01-31T09:21:50Z</time>
      </trkpt>
      <trkpt lat="47.86026" lon="-2.77">
        <ele>152</ele>
        <time>2021-01-31T09:21:52Z</time>
      </trkpt>
      <trkpt lat="47.86022" lon="-2.76997">
        <ele>152</ele>
        <time>2021-01-31T09:21:54Z</time>
      </trkpt>
      <trkpt lat="47.8602" lon="-2.76995">
        <ele>151</ele>
        <time>2021-01-31T09:21:55Z</time>
      </trkpt>
      <trkpt lat="47.86019" lon="-2.76992">
        <ele>151</ele>
        <time>2021-01-31T09:21:56Z</time>
      </trkpt>
      <trkpt lat="47.86017" lon="-2.7699">
        <ele>151</ele>
        <time>2021-01-31T09:21:57Z</time>
      </trkpt>
      <trkpt lat="47.86016" lon="-2.76988">
        <ele>151</ele>
        <time>2021-01-31T09:21:58Z</time>
      </trkpt>
      <trkpt lat="47.86015" lon="-2.76986">
        <ele>151</ele>
        <time>2021-01-31T09:21:59Z</time>
      </trkpt>
      <trkpt lat="47.86015" lon="-2.76981">
        <ele>150</ele>
        <time>2021-01-31T09:22:01Z</time>
      </trkpt>
      <trkpt lat="47.86014" lon="-2.76977">
        <ele>149</ele>
        <time>2021-01-31T09:22:03Z</time>
      </trkpt>
      <trkpt lat="47.86015" lon="-2.76974">
        <ele>150</ele>
        <time>2021-01-31T09:22:05Z</time>
      </trkpt>
      <trkpt lat="47.86017" lon="-2.7697">
        <ele>150</ele>
        <time>2021-01-31T09:22:07Z</time>
      </trkpt>
      <trkpt lat="47.86018" lon="-2.76967">
        <ele>150</ele>
        <time>2021-01-31T09:22:09Z</time>
      </trkpt>
      <trkpt lat="47.8602" lon="-2.76964">
        <ele>150</ele>
        <time>2021-01-31T09:22:11Z</time>
      </trkpt>
      <trkpt lat="47.86021" lon="-2.76961">
        <ele>150</ele>
        <time>2021-01-31T09:22:13Z</time>
      </trkpt>
      <trkpt lat="47.86023" lon="-2.76959">
        <ele>150</ele>
        <time>2021-01-31T09:22:14Z</time>
      </trkpt>
      <trkpt lat="47.86024" lon="-2.76957">
        <ele>150</ele>
        <time>2021-01-31T09:22:15Z</time>
      </trkpt>
      <trkpt lat="47.86027" lon="-2.76954">
        <ele>150</ele>
        <time>2021-01-31T09:22:17Z</time>
      </trkpt>
      <trkpt lat="47.86029" lon="-2.76951">
        <ele>150</ele>
        <time>2021-01-31T09:22:19Z</time>
      </trkpt>
      <trkpt lat="47.8603" lon="-2.76946">
        <ele>150</ele>
        <time>2021-01-31T09:22:21Z</time>
      </trkpt>
      <trkpt lat="47.86031" lon="-2.76944">
        <ele>150</ele>
        <time>2021-01-31T09:22:22Z</time>
      </trkpt>
      <trkpt lat="47.86031" lon="-2.76939">
        <ele>150</ele>
        <time>2021-01-31T09:22:24Z</time>
      </trkpt>
      <trkpt lat="47.86031" lon="-2.76935">
        <ele>150</ele>
        <time>2021-01-31T09:22:26Z</time>
      </trkpt>
      <trkpt lat="47.86031" lon="-2.7693">
        <ele>150</ele>
        <time>2021-01-31T09:22:28Z</time>
      </trkpt>
      <trkpt lat="47.8603" lon="-2.76926">
        <ele>149</ele>
        <time>2021-01-31T09:22:30Z</time>
      </trkpt>
      <trkpt lat="47.8603" lon="-2.76922">
        <ele>149</ele>
        <time>2021-01-31T09:22:31Z</time>
      </trkpt>
      <trkpt lat="47.8603" lon="-2.76919">
        <ele>149</ele>
        <time>2021-01-31T09:22:32Z</time>
      </trkpt>
      <trkpt lat="47.8603" lon="-2.76915">
        <ele>148</ele>
        <time>2021-01-31T09:22:34Z</time>
      </trkpt>
      <trkpt lat="47.86031" lon="-2.76911">
        <ele>148</ele>
        <time>2021-01-31T09:22:36Z</time>
      </trkpt>
      <trkpt lat="47.86033" lon="-2.76909">
        <ele>148</ele>
        <time>2021-01-31T09:22:39Z</time>
      </trkpt>
      <trkpt lat="47.86035" lon="-2.76908">
        <ele>148</ele>
        <time>2021-01-31T09:22:41Z</time>
      </trkpt>
      <trkpt lat="47.86037" lon="-2.76906">
        <ele>148</ele>
        <time>2021-01-31T09:22:44Z</time>
      </trkpt>
      <trkpt lat="47.8604" lon="-2.76905">
        <ele>148</ele>
        <time>2021-01-31T09:22:46Z</time>
      </trkpt>
      <trkpt lat="47.86042" lon="-2.76903">
        <ele>148</ele>
        <time>2021-01-31T09:22:48Z</time>
      </trkpt>
      <trkpt lat="47.86043" lon="-2.76901">
        <ele>148</ele>
        <time>2021-01-31T09:22:50Z</time>
      </trkpt>
      <trkpt lat="47.86046" lon="-2.76899">
        <ele>148</ele>
        <time>2021-01-31T09:22:52Z</time>
      </trkpt>
      <trkpt lat="47.86049" lon="-2.76897">
        <ele>149</ele>
        <time>2021-01-31T09:22:54Z</time>
      </trkpt>
      <trkpt lat="47.86051" lon="-2.76895">
        <ele>149</ele>
        <time>2021-01-31T09:22:56Z</time>
      </trkpt>
      <trkpt lat="47.86054" lon="-2.76893">
        <ele>149</ele>
        <time>2021-01-31T09:22:58Z</time>
      </trkpt>
      <trkpt lat="47.86056" lon="-2.76891">
        <ele>149</ele>
        <time>2021-01-31T09:22:59Z</time>
      </trkpt>
      <trkpt lat="47.86058" lon="-2.7689">
        <ele>150</ele>
        <time>2021-01-31T09:23:00Z</time>
      </trkpt>
      <trkpt lat="47.86061" lon="-2.76888">
        <ele>150</ele>
        <time>2021-01-31T09:23:02Z</time>
      </trkpt>
      <trkpt lat="47.86063" lon="-2.76886">
        <ele>150</ele>
        <time>2021-01-31T09:23:04Z</time>
      </trkpt>
      <trkpt lat="47.86066" lon="-2.76884">
        <ele>150</ele>
        <time>2021-01-31T09:23:06Z</time>
      </trkpt>
      <trkpt lat="47.86068" lon="-2.76883">
        <ele>150</ele>
        <time>2021-01-31T09:23:08Z</time>
      </trkpt>
      <trkpt lat="47.86071" lon="-2.7688">
        <ele>151</ele>
        <time>2021-01-31T09:23:10Z</time>
      </trkpt>
      <trkpt lat="47.86073" lon="-2.76879">
        <ele>151</ele>
        <time>2021-01-31T09:23:12Z</time>
      </trkpt>
      <trkpt lat="47.86076" lon="-2.76878">
        <ele>151</ele>
        <time>2021-01-31T09:23:14Z</time>
      </trkpt>
      <trkpt lat="47.86078" lon="-2.76876">
        <ele>151</ele>
        <time>2021-01-31T09:23:17Z</time>
      </trkpt>
      <trkpt lat="47.86081" lon="-2.76875">
        <ele>151</ele>
        <time>2021-01-31T09:23:19Z</time>
      </trkpt>
      <trkpt lat="47.86084" lon="-2.76873">
        <ele>151</ele>
        <time>2021-01-31T09:23:21Z</time>
      </trkpt>
      <trkpt lat="47.86087" lon="-2.7687">
        <ele>151</ele>
        <time>2021-01-31T09:23:23Z</time>
      </trkpt>
      <trkpt lat="47.86089" lon="-2.76869">
        <ele>151</ele>
        <time>2021-01-31T09:23:24Z</time>
      </trkpt>
      <trkpt lat="47.86092" lon="-2.76868">
        <ele>151</ele>
        <time>2021-01-31T09:23:26Z</time>
      </trkpt>
      <trkpt lat="47.86095" lon="-2.76867">
        <ele>151</ele>
        <time>2021-01-31T09:23:28Z</time>
      </trkpt>
      <trkpt lat="47.86098" lon="-2.76865">
        <ele>151</ele>
        <time>2021-01-31T09:23:30Z</time>
      </trkpt>
      <trkpt lat="47.861" lon="-2.76864">
        <ele>151</ele>
        <time>2021-01-31T09:23:32Z</time>
      </trkpt>
      <trkpt lat="47.86102" lon="-2.76862">
        <ele>151</ele>
        <time>2021-01-31T09:23:34Z</time>
      </trkpt>
      <trkpt lat="47.86105" lon="-2.76859">
        <ele>151</ele>
        <time>2021-01-31T09:23:36Z</time>
      </trkpt>
      <trkpt lat="47.86107" lon="-2.76857">
        <ele>151</ele>
        <time>2021-01-31T09:23:38Z</time>
      </trkpt>
      <trkpt lat="47.8611" lon="-2.76856">
        <ele>151</ele>
        <time>2021-01-31T09:23:40Z</time>
      </trkpt>
      <trkpt lat="47.86113" lon="-2.76855">
        <ele>151</ele>
        <time>2021-01-31T09:23:42Z</time>
      </trkpt>
      <trkpt lat="47.86116" lon="-2.76853">
        <ele>151</ele>
        <time>2021-01-31T09:23:44Z</time>
      </trkpt>
      <trkpt lat="47.86119" lon="-2.76851">
        <ele>151</ele>
        <time>2021-01-31T09:23:46Z</time>
      </trkpt>
      <trkpt lat="47.86121" lon="-2.7685">
        <ele>151</ele>
        <time>2021-01-31T09:23:48Z</time>
      </trkpt>
      <trkpt lat="47.86124" lon="-2.76847">
        <ele>151</ele>
        <time>2021-01-31T09:23:50Z</time>
      </trkpt>
      <trkpt lat="47.86126" lon="-2.76845">
        <ele>151</ele>
        <time>2021-01-31T09:23:52Z</time>
      </trkpt>
      <trkpt lat="47.86128" lon="-2.76843">
        <ele>151</ele>
        <time>2021-01-31T09:23:54Z</time>
      </trkpt>
      <trkpt lat="47.8613" lon="-2.76841">
        <ele>151</ele>
        <time>2021-01-31T09:23:55Z</time>
      </trkpt>
      <trkpt lat="47.86131" lon="-2.7684">
        <ele>151</ele>
        <time>2021-01-31T09:23:56Z</time>
      </trkpt>
      <trkpt lat="47.86134" lon="-2.76838">
        <ele>151</ele>
        <time>2021-01-31T09:23:58Z</time>
      </trkpt>
      <trkpt lat="47.86137" lon="-2.76836">
        <ele>151</ele>
        <time>2021-01-31T09:24:00Z</time>
      </trkpt>
      <trkpt lat="47.86143" lon="-2.76832">
        <ele>151</ele>
        <time>2021-01-31T09:24:05Z</time>
      </trkpt>
      <trkpt lat="47.86147" lon="-2.76829">
        <ele>151</ele>
        <time>2021-01-31T09:24:08Z</time>
      </trkpt>
      <trkpt lat="47.8615" lon="-2.76827">
        <ele>151</ele>
        <time>2021-01-31T09:24:11Z</time>
      </trkpt>
      <trkpt lat="47.86152" lon="-2.76824">
        <ele>151</ele>
        <time>2021-01-31T09:24:13Z</time>
      </trkpt>
      <trkpt lat="47.86159" lon="-2.76819">
        <ele>151</ele>
        <time>2021-01-31T09:24:17Z</time>
      </trkpt>
      <trkpt lat="47.86165" lon="-2.76814">
        <ele>151</ele>
        <time>2021-01-31T09:24:21Z</time>
      </trkpt>
      <trkpt lat="47.86168" lon="-2.76813">
        <ele>151</ele>
        <time>2021-01-31T09:24:23Z</time>
      </trkpt>
      <trkpt lat="47.86169" lon="-2.76814">
        <ele>151</ele>
        <time>2021-01-31T09:24:25Z</time>
      </trkpt>
      <trkpt lat="47.86171" lon="-2.76817">
        <ele>151</ele>
        <time>2021-01-31T09:24:29Z</time>
      </trkpt>
      <trkpt lat="47.86177" lon="-2.76817">
        <ele>151</ele>
        <time>2021-01-31T09:24:33Z</time>
      </trkpt>
      <trkpt lat="47.8618" lon="-2.76817">
        <ele>151</ele>
        <time>2021-01-31T09:24:35Z</time>
      </trkpt>
      <trkpt lat="47.86183" lon="-2.76817">
        <ele>151</ele>
        <time>2021-01-31T09:24:37Z</time>
      </trkpt>
      <trkpt lat="47.86186" lon="-2.76816">
        <ele>151</ele>
        <time>2021-01-31T09:24:39Z</time>
      </trkpt>
      <trkpt lat="47.8619" lon="-2.76815">
        <ele>151</ele>
        <time>2021-01-31T09:24:41Z</time>
      </trkpt>
      <trkpt lat="47.86192" lon="-2.76814">
        <ele>151</ele>
        <time>2021-01-31T09:24:42Z</time>
      </trkpt>
      <trkpt lat="47.86202" lon="-2.76812">
        <ele>151</ele>
        <time>2021-01-31T09:24:49Z</time>
      </trkpt>
      <trkpt lat="47.86211" lon="-2.7681">
        <ele>151</ele>
        <time>2021-01-31T09:24:55Z</time>
      </trkpt>
      <trkpt lat="47.86221" lon="-2.76814">
        <ele>151</ele>
        <time>2021-01-31T09:25:04Z</time>
      </trkpt>
      <trkpt lat="47.8623" lon="-2.76817">
        <ele>151</ele>
        <time>2021-01-31T09:25:10Z</time>
      </trkpt>
      <trkpt lat="47.8624" lon="-2.76818">
        <ele>151</ele>
        <time>2021-01-31T09:25:18Z</time>
      </trkpt>
      <trkpt lat="47.86248" lon="-2.76825">
        <ele>151</ele>
        <time>2021-01-31T09:25:24Z</time>
      </trkpt>
      <trkpt lat="47.86258" lon="-2.76825">
        <ele>151</ele>
        <time>2021-01-31T09:25:28Z</time>
      </trkpt>
      <trkpt lat="47.86266" lon="-2.76818">
        <ele>151</ele>
        <time>2021-01-31T09:25:33Z</time>
      </trkpt>
      <trkpt lat="47.8627" lon="-2.76811">
        <ele>151</ele>
        <time>2021-01-31T09:25:37Z</time>
      </trkpt>
      <trkpt lat="47.86271" lon="-2.76803">
        <ele>151</ele>
        <time>2021-01-31T09:25:40Z</time>
      </trkpt>
      <trkpt lat="47.86267" lon="-2.76789">
        <ele>150</ele>
        <time>2021-01-31T09:25:46Z</time>
      </trkpt>
      <trkpt lat="47.86263" lon="-2.76777">
        <ele>149</ele>
        <time>2021-01-31T09:25:52Z</time>
      </trkpt>
      <trkpt lat="47.86262" lon="-2.76774">
        <ele>149</ele>
        <time>2021-01-31T09:25:53Z</time>
      </trkpt>
      <trkpt lat="47.8626" lon="-2.76771">
        <ele>149</ele>
        <time>2021-01-31T09:25:54Z</time>
      </trkpt>
      <trkpt lat="47.86259" lon="-2.76768">
        <ele>149</ele>
        <time>2021-01-31T09:25:56Z</time>
      </trkpt>
      <trkpt lat="47.86257" lon="-2.76765">
        <ele>148</ele>
        <time>2021-01-31T09:25:58Z</time>
      </trkpt>
      <trkpt lat="47.86256" lon="-2.76761">
        <ele>148</ele>
        <time>2021-01-31T09:26:00Z</time>
      </trkpt>
      <trkpt lat="47.86255" lon="-2.76758">
        <ele>148</ele>
        <time>2021-01-31T09:26:02Z</time>
      </trkpt>
      <trkpt lat="47.86253" lon="-2.76755">
        <ele>147</ele>
        <time>2021-01-31T09:26:04Z</time>
      </trkpt>
      <trkpt lat="47.86252" lon="-2.76752">
        <ele>147</ele>
        <time>2021-01-31T09:26:06Z</time>
      </trkpt>
      <trkpt lat="47.86249" lon="-2.7675">
        <ele>147</ele>
        <time>2021-01-31T09:26:08Z</time>
      </trkpt>
      <trkpt lat="47.86247" lon="-2.76746">
        <ele>147</ele>
        <time>2021-01-31T09:26:10Z</time>
      </trkpt>
      <trkpt lat="47.86245" lon="-2.76741">
        <ele>147</ele>
        <time>2021-01-31T09:26:12Z</time>
      </trkpt>
      <trkpt lat="47.86245" lon="-2.76739">
        <ele>147</ele>
        <time>2021-01-31T09:26:13Z</time>
      </trkpt>
      <trkpt lat="47.86244" lon="-2.76734">
        <ele>147</ele>
        <time>2021-01-31T09:26:15Z</time>
      </trkpt>
      <trkpt lat="47.86243" lon="-2.76731">
        <ele>147</ele>
        <time>2021-01-31T09:26:17Z</time>
      </trkpt>
      <trkpt lat="47.86244" lon="-2.76727">
        <ele>147</ele>
        <time>2021-01-31T09:26:19Z</time>
      </trkpt>
      <trkpt lat="47.86246" lon="-2.76726">
        <ele>146</ele>
        <time>2021-01-31T09:26:21Z</time>
      </trkpt>
      <trkpt lat="47.86256" lon="-2.76721">
        <ele>146</ele>
        <time>2021-01-31T09:26:30Z</time>
      </trkpt>
      <trkpt lat="47.86262" lon="-2.7671">
        <ele>145</ele>
        <time>2021-01-31T09:26:34Z</time>
      </trkpt>
      <trkpt lat="47.86262" lon="-2.76699">
        <ele>144</ele>
        <time>2021-01-31T09:26:38Z</time>
      </trkpt>
      <trkpt lat="47.86264" lon="-2.76695">
        <ele>144</ele>
        <time>2021-01-31T09:26:40Z</time>
      </trkpt>
      <trkpt lat="47.86264" lon="-2.76691">
        <ele>143</ele>
        <time>2021-01-31T09:26:42Z</time>
      </trkpt>
      <trkpt lat="47.86264" lon="-2.76688">
        <ele>143</ele>
        <time>2021-01-31T09:26:44Z</time>
      </trkpt>
      <trkpt lat="47.86263" lon="-2.76684">
        <ele>143</ele>
        <time>2021-01-31T09:26:46Z</time>
      </trkpt>
      <trkpt lat="47.86261" lon="-2.7668">
        <ele>142</ele>
        <time>2021-01-31T09:26:48Z</time>
      </trkpt>
      <trkpt lat="47.8626" lon="-2.76677">
        <ele>142</ele>
        <time>2021-01-31T09:26:50Z</time>
      </trkpt>
      <trkpt lat="47.8626" lon="-2.76674">
        <ele>141</ele>
        <time>2021-01-31T09:26:53Z</time>
      </trkpt>
      <trkpt lat="47.86261" lon="-2.76671">
        <ele>140</ele>
        <time>2021-01-31T09:26:55Z</time>
      </trkpt>
      <trkpt lat="47.86263" lon="-2.76669">
        <ele>140</ele>
        <time>2021-01-31T09:26:57Z</time>
      </trkpt>
      <trkpt lat="47.86266" lon="-2.76667">
        <ele>140</ele>
        <time>2021-01-31T09:27:00Z</time>
      </trkpt>
      <trkpt lat="47.86271" lon="-2.76655">
        <ele>139</ele>
        <time>2021-01-31T09:27:06Z</time>
      </trkpt>
      <trkpt lat="47.86274" lon="-2.7665">
        <ele>135</ele>
        <time>2021-01-31T09:27:09Z</time>
      </trkpt>
      <trkpt lat="47.86278" lon="-2.76647">
        <ele>135</ele>
        <time>2021-01-31T09:27:11Z</time>
      </trkpt>
      <trkpt lat="47.8628" lon="-2.76645">
        <ele>134</ele>
        <time>2021-01-31T09:27:13Z</time>
      </trkpt>
      <trkpt lat="47.86282" lon="-2.76645">
        <ele>134</ele>
        <time>2021-01-31T09:27:15Z</time>
      </trkpt>
      <trkpt lat="47.86284" lon="-2.76644">
        <ele>134</ele>
        <time>2021-01-31T09:27:17Z</time>
      </trkpt>
      <trkpt lat="47.8629" lon="-2.76642">
        <ele>134</ele>
        <time>2021-01-31T09:27:21Z</time>
      </trkpt>
      <trkpt lat="47.86299" lon="-2.76641">
        <ele>135</ele>
        <time>2021-01-31T09:27:28Z</time>
      </trkpt>
      <trkpt lat="47.86304" lon="-2.76639">
        <ele>135</ele>
        <time>2021-01-31T09:27:31Z</time>
      </trkpt>
      <trkpt lat="47.86306" lon="-2.7664">
        <ele>135</ele>
        <time>2021-01-31T09:27:33Z</time>
      </trkpt>
      <trkpt lat="47.86316" lon="-2.76638">
        <ele>139</ele>
        <time>2021-01-31T09:27:39Z</time>
      </trkpt>
      <trkpt lat="47.86317" lon="-2.76637">
        <ele>139</ele>
        <time>2021-01-31T09:27:40Z</time>
      </trkpt>
      <trkpt lat="47.8632" lon="-2.76636">
        <ele>139</ele>
        <time>2021-01-31T09:27:42Z</time>
      </trkpt>
      <trkpt lat="47.86324" lon="-2.76634">
        <ele>139</ele>
        <time>2021-01-31T09:27:44Z</time>
      </trkpt>
      <trkpt lat="47.86326" lon="-2.76634">
        <ele>139</ele>
        <time>2021-01-31T09:27:45Z</time>
      </trkpt>
      <trkpt lat="47.86328" lon="-2.76633">
        <ele>139</ele>
        <time>2021-01-31T09:27:46Z</time>
      </trkpt>
      <trkpt lat="47.8633" lon="-2.76633">
        <ele>139</ele>
        <time>2021-01-31T09:27:48Z</time>
      </trkpt>
      <trkpt lat="47.86333" lon="-2.76634">
        <ele>139</ele>
        <time>2021-01-31T09:27:50Z</time>
      </trkpt>
      <trkpt lat="47.86337" lon="-2.76635">
        <ele>139</ele>
        <time>2021-01-31T09:27:53Z</time>
      </trkpt>
      <trkpt lat="47.8634" lon="-2.76634">
        <ele>139</ele>
        <time>2021-01-31T09:27:55Z</time>
      </trkpt>
      <trkpt lat="47.86343" lon="-2.76632">
        <ele>140</ele>
        <time>2021-01-31T09:27:57Z</time>
      </trkpt>
      <trkpt lat="47.86348" lon="-2.76629">
        <ele>140</ele>
        <time>2021-01-31T09:28:00Z</time>
      </trkpt>
      <trkpt lat="47.86354" lon="-2.76628">
        <ele>140</ele>
        <time>2021-01-31T09:28:04Z</time>
      </trkpt>
      <trkpt lat="47.86356" lon="-2.76629">
        <ele>140</ele>
        <time>2021-01-31T09:28:06Z</time>
      </trkpt>
      <trkpt lat="47.86358" lon="-2.7663">
        <ele>140</ele>
        <time>2021-01-31T09:28:08Z</time>
      </trkpt>
      <trkpt lat="47.86361" lon="-2.7663">
        <ele>140</ele>
        <time>2021-01-31T09:28:10Z</time>
      </trkpt>
      <trkpt lat="47.86371" lon="-2.76634">
        <ele>141</ele>
        <time>2021-01-31T09:28:18Z</time>
      </trkpt>
      <trkpt lat="47.86381" lon="-2.76636">
        <ele>142</ele>
        <time>2021-01-31T09:28:26Z</time>
      </trkpt>
      <trkpt lat="47.86391" lon="-2.76638">
        <ele>142</ele>
        <time>2021-01-31T09:28:31Z</time>
      </trkpt>
      <trkpt lat="47.864" lon="-2.76639">
        <ele>143</ele>
        <time>2021-01-31T09:28:36Z</time>
      </trkpt>
      <trkpt lat="47.86403" lon="-2.7664">
        <ele>143</ele>
        <time>2021-01-31T09:28:38Z</time>
      </trkpt>
      <trkpt lat="47.86406" lon="-2.76641">
        <ele>143</ele>
        <time>2021-01-31T09:28:40Z</time>
      </trkpt>
      <trkpt lat="47.86409" lon="-2.76641">
        <ele>144</ele>
        <time>2021-01-31T09:28:42Z</time>
      </trkpt>
      <trkpt lat="47.86413" lon="-2.7664">
        <ele>144</ele>
        <time>2021-01-31T09:28:44Z</time>
      </trkpt>
      <trkpt lat="47.86416" lon="-2.76642">
        <ele>145</ele>
        <time>2021-01-31T09:28:46Z</time>
      </trkpt>
      <trkpt lat="47.86419" lon="-2.76642">
        <ele>145</ele>
        <time>2021-01-31T09:28:48Z</time>
      </trkpt>
      <trkpt lat="47.86421" lon="-2.76643">
        <ele>146</ele>
        <time>2021-01-31T09:28:50Z</time>
      </trkpt>
      <trkpt lat="47.86425" lon="-2.76643">
        <ele>146</ele>
        <time>2021-01-31T09:28:52Z</time>
      </trkpt>
      <trkpt lat="47.86427" lon="-2.76643">
        <ele>146</ele>
        <time>2021-01-31T09:28:53Z</time>
      </trkpt>
      <trkpt lat="47.86429" lon="-2.76645">
        <ele>146</ele>
        <time>2021-01-31T09:28:55Z</time>
      </trkpt>
      <trkpt lat="47.86432" lon="-2.76646">
        <ele>146</ele>
        <time>2021-01-31T09:28:57Z</time>
      </trkpt>
      <trkpt lat="47.86439" lon="-2.76653">
        <ele>147</ele>
        <time>2021-01-31T09:29:04Z</time>
      </trkpt>
      <trkpt lat="47.86449" lon="-2.76658">
        <ele>147</ele>
        <time>2021-01-31T09:29:12Z</time>
      </trkpt>
      <trkpt lat="47.86451" lon="-2.7666">
        <ele>147</ele>
        <time>2021-01-31T09:29:14Z</time>
      </trkpt>
      <trkpt lat="47.86454" lon="-2.7666">
        <ele>147</ele>
        <time>2021-01-31T09:29:16Z</time>
      </trkpt>
      <trkpt lat="47.86457" lon="-2.7666">
        <ele>147</ele>
        <time>2021-01-31T09:29:18Z</time>
      </trkpt>
      <trkpt lat="47.8646" lon="-2.7666">
        <ele>148</ele>
        <time>2021-01-31T09:29:20Z</time>
      </trkpt>
      <trkpt lat="47.86463" lon="-2.76661">
        <ele>148</ele>
        <time>2021-01-31T09:29:22Z</time>
      </trkpt>
      <trkpt lat="47.86466" lon="-2.76662">
        <ele>148</ele>
        <time>2021-01-31T09:29:24Z</time>
      </trkpt>
      <trkpt lat="47.86475" lon="-2.76666">
        <ele>148</ele>
        <time>2021-01-31T09:29:30Z</time>
      </trkpt>
      <trkpt lat="47.86484" lon="-2.76668">
        <ele>148</ele>
        <time>2021-01-31T09:29:36Z</time>
      </trkpt>
      <trkpt lat="47.86494" lon="-2.76671">
        <ele>148</ele>
        <time>2021-01-31T09:29:42Z</time>
      </trkpt>
      <trkpt lat="47.86504" lon="-2.76674">
        <ele>148</ele>
        <time>2021-01-31T09:29:48Z</time>
      </trkpt>
      <trkpt lat="47.86514" lon="-2.76678">
        <ele>148</ele>
        <time>2021-01-31T09:29:52Z</time>
      </trkpt>
      <trkpt lat="47.86524" lon="-2.76673">
        <ele>148</ele>
        <time>2021-01-31T09:29:56Z</time>
      </trkpt>
      <trkpt lat="47.86529" lon="-2.76662">
        <ele>146</ele>
        <time>2021-01-31T09:29:59Z</time>
      </trkpt>
      <trkpt lat="47.8653" lon="-2.76659">
        <ele>146</ele>
        <time>2021-01-31T09:30:00Z</time>
      </trkpt>
      <trkpt lat="47.86532" lon="-2.76656">
        <ele>146</ele>
        <time>2021-01-31T09:30:01Z</time>
      </trkpt>
      <trkpt lat="47.86534" lon="-2.76652">
        <ele>146</ele>
        <time>2021-01-31T09:30:03Z</time>
      </trkpt>
      <trkpt lat="47.86535" lon="-2.7665">
        <ele>145</ele>
        <time>2021-01-31T09:30:04Z</time>
      </trkpt>
      <trkpt lat="47.86537" lon="-2.76648">
        <ele>145</ele>
        <time>2021-01-31T09:30:05Z</time>
      </trkpt>
      <trkpt lat="47.86539" lon="-2.76646">
        <ele>145</ele>
        <time>2021-01-31T09:30:06Z</time>
      </trkpt>
      <trkpt lat="47.8654" lon="-2.76644">
        <ele>144</ele>
        <time>2021-01-31T09:30:07Z</time>
      </trkpt>
      <trkpt lat="47.86542" lon="-2.7664">
        <ele>144</ele>
        <time>2021-01-31T09:30:09Z</time>
      </trkpt>
      <trkpt lat="47.86543" lon="-2.76636">
        <ele>144</ele>
        <time>2021-01-31T09:30:13Z</time>
      </trkpt>
      <trkpt lat="47.86544" lon="-2.76633">
        <ele>144</ele>
        <time>2021-01-31T09:30:14Z</time>
      </trkpt>
      <trkpt lat="47.86545" lon="-2.76631">
        <ele>144</ele>
        <time>2021-01-31T09:30:15Z</time>
      </trkpt>
      <trkpt lat="47.86547" lon="-2.76626">
        <ele>144</ele>
        <time>2021-01-31T09:30:17Z</time>
      </trkpt>
      <trkpt lat="47.86547" lon="-2.76621">
        <ele>142</ele>
        <time>2021-01-31T09:30:19Z</time>
      </trkpt>
      <trkpt lat="47.86549" lon="-2.76616">
        <ele>142</ele>
        <time>2021-01-31T09:30:21Z</time>
      </trkpt>
      <trkpt lat="47.8655" lon="-2.76614">
        <ele>142</ele>
        <time>2021-01-31T09:30:22Z</time>
      </trkpt>
      <trkpt lat="47.86551" lon="-2.76612">
        <ele>141</ele>
        <time>2021-01-31T09:30:23Z</time>
      </trkpt>
      <trkpt lat="47.86552" lon="-2.76607">
        <ele>141</ele>
        <time>2021-01-31T09:30:25Z</time>
      </trkpt>
      <trkpt lat="47.86553" lon="-2.76604">
        <ele>141</ele>
        <time>2021-01-31T09:30:26Z</time>
      </trkpt>
      <trkpt lat="47.86554" lon="-2.76599">
        <ele>141</ele>
        <time>2021-01-31T09:30:28Z</time>
      </trkpt>
      <trkpt lat="47.86555" lon="-2.76595">
        <ele>141</ele>
        <time>2021-01-31T09:30:30Z</time>
      </trkpt>
      <trkpt lat="47.86556" lon="-2.7659">
        <ele>141</ele>
        <time>2021-01-31T09:30:32Z</time>
      </trkpt>
      <trkpt lat="47.86556" lon="-2.76585">
        <ele>141</ele>
        <time>2021-01-31T09:30:34Z</time>
      </trkpt>
      <trkpt lat="47.86556" lon="-2.76582">
        <ele>140</ele>
        <time>2021-01-31T09:30:36Z</time>
      </trkpt>
      <trkpt lat="47.86558" lon="-2.76579">
        <ele>140</ele>
        <time>2021-01-31T09:30:38Z</time>
      </trkpt>
      <trkpt lat="47.86559" lon="-2.76577">
        <ele>140</ele>
        <time>2021-01-31T09:30:40Z</time>
      </trkpt>
      <trkpt lat="47.86561" lon="-2.76575">
        <ele>139</ele>
        <time>2021-01-31T09:30:44Z</time>
      </trkpt>
      <trkpt lat="47.86563" lon="-2.76578">
        <ele>135</ele>
        <time>2021-01-31T09:30:48Z</time>
      </trkpt>
      <trkpt lat="47.86565" lon="-2.7658">
        <ele>135</ele>
        <time>2021-01-31T09:30:51Z</time>
      </trkpt>
      <trkpt lat="47.86566" lon="-2.76582">
        <ele>135</ele>
        <time>2021-01-31T09:30:53Z</time>
      </trkpt>
      <trkpt lat="47.86567" lon="-2.76584">
        <ele>135</ele>
        <time>2021-01-31T09:30:55Z</time>
      </trkpt>
      <trkpt lat="47.86568" lon="-2.76587">
        <ele>135</ele>
        <time>2021-01-31T09:30:57Z</time>
      </trkpt>
      <trkpt lat="47.8657" lon="-2.7659">
        <ele>134</ele>
        <time>2021-01-31T09:30:59Z</time>
      </trkpt>
      <trkpt lat="47.86572" lon="-2.76592">
        <ele>134</ele>
        <time>2021-01-31T09:31:01Z</time>
      </trkpt>
      <trkpt lat="47.86574" lon="-2.76596">
        <ele>134</ele>
        <time>2021-01-31T09:31:03Z</time>
      </trkpt>
      <trkpt lat="47.86575" lon="-2.76599">
        <ele>133</ele>
        <time>2021-01-31T09:31:05Z</time>
      </trkpt>
      <trkpt lat="47.86576" lon="-2.76602">
        <ele>133</ele>
        <time>2021-01-31T09:31:07Z</time>
      </trkpt>
      <trkpt lat="47.86578" lon="-2.76606">
        <ele>133</ele>
        <time>2021-01-31T09:31:09Z</time>
      </trkpt>
      <trkpt lat="47.86579" lon="-2.76609">
        <ele>133</ele>
        <time>2021-01-31T09:31:11Z</time>
      </trkpt>
      <trkpt lat="47.86581" lon="-2.76611">
        <ele>133</ele>
        <time>2021-01-31T09:31:13Z</time>
      </trkpt>
      <trkpt lat="47.86582" lon="-2.76615">
        <ele>133</ele>
        <time>2021-01-31T09:31:15Z</time>
      </trkpt>
      <trkpt lat="47.86584" lon="-2.76619">
        <ele>133</ele>
        <time>2021-01-31T09:31:17Z</time>
      </trkpt>
      <trkpt lat="47.86586" lon="-2.76622">
        <ele>132</ele>
        <time>2021-01-31T09:31:19Z</time>
      </trkpt>
      <trkpt lat="47.86591" lon="-2.76632">
        <ele>131</ele>
        <time>2021-01-31T09:31:25Z</time>
      </trkpt>
      <trkpt lat="47.86593" lon="-2.76645">
        <ele>131</ele>
        <time>2021-01-31T09:31:29Z</time>
      </trkpt>
      <trkpt lat="47.86597" lon="-2.7666">
        <ele>130</ele>
        <time>2021-01-31T09:31:34Z</time>
      </trkpt>
      <trkpt lat="47.86599" lon="-2.76662">
        <ele>130</ele>
        <time>2021-01-31T09:31:35Z</time>
      </trkpt>
      <trkpt lat="47.86602" lon="-2.76677">
        <ele>130</ele>
        <time>2021-01-31T09:31:41Z</time>
      </trkpt>
      <trkpt lat="47.86603" lon="-2.76687">
        <ele>129</ele>
        <time>2021-01-31T09:31:46Z</time>
      </trkpt>
      <trkpt lat="47.86603" lon="-2.76693">
        <ele>129</ele>
        <time>2021-01-31T09:31:49Z</time>
      </trkpt>
      <trkpt lat="47.86603" lon="-2.76708">
        <ele>128</ele>
        <time>2021-01-31T09:31:56Z</time>
      </trkpt>
      <trkpt lat="47.86603" lon="-2.76722">
        <ele>127</ele>
        <time>2021-01-31T09:32:02Z</time>
      </trkpt>
      <trkpt lat="47.86603" lon="-2.76737">
        <ele>127</ele>
        <time>2021-01-31T09:32:08Z</time>
      </trkpt>
      <trkpt lat="47.86606" lon="-2.76751">
        <ele>126</ele>
        <time>2021-01-31T09:32:14Z</time>
      </trkpt>
      <trkpt lat="47.86608" lon="-2.7676">
        <ele>125</ele>
        <time>2021-01-31T09:32:18Z</time>
      </trkpt>
      <trkpt lat="47.86607" lon="-2.76765">
        <ele>125</ele>
        <time>2021-01-31T09:32:20Z</time>
      </trkpt>
      <trkpt lat="47.86607" lon="-2.76769">
        <ele>125</ele>
        <time>2021-01-31T09:32:22Z</time>
      </trkpt>
      <trkpt lat="47.86607" lon="-2.76773">
        <ele>125</ele>
        <time>2021-01-31T09:32:24Z</time>
      </trkpt>
      <trkpt lat="47.86608" lon="-2.76778">
        <ele>125</ele>
        <time>2021-01-31T09:32:26Z</time>
      </trkpt>
      <trkpt lat="47.86608" lon="-2.76781">
        <ele>125</ele>
        <time>2021-01-31T09:32:28Z</time>
      </trkpt>
      <trkpt lat="47.86609" lon="-2.76785">
        <ele>125</ele>
        <time>2021-01-31T09:32:31Z</time>
      </trkpt>
      <trkpt lat="47.86611" lon="-2.76787">
        <ele>125</ele>
        <time>2021-01-31T09:32:34Z</time>
      </trkpt>
      <trkpt lat="47.86614" lon="-2.76786">
        <ele>125</ele>
        <time>2021-01-31T09:32:36Z</time>
      </trkpt>
      <trkpt lat="47.86617" lon="-2.76782">
        <ele>125</ele>
        <time>2021-01-31T09:32:38Z</time>
      </trkpt>
      <trkpt lat="47.8662" lon="-2.76778">
        <ele>124</ele>
        <time>2021-01-31T09:32:40Z</time>
      </trkpt>
      <trkpt lat="47.86629" lon="-2.76773">
        <ele>123</ele>
        <time>2021-01-31T09:32:45Z</time>
      </trkpt>
      <trkpt lat="47.86632" lon="-2.7677">
        <ele>123</ele>
        <time>2021-01-31T09:32:48Z</time>
      </trkpt>
      <trkpt lat="47.86633" lon="-2.76766">
        <ele>123</ele>
        <time>2021-01-31T09:32:50Z</time>
      </trkpt>
      <trkpt lat="47.86634" lon="-2.76763">
        <ele>123</ele>
        <time>2021-01-31T09:32:52Z</time>
      </trkpt>
      <trkpt lat="47.86636" lon="-2.76761">
        <ele>123</ele>
        <time>2021-01-31T09:32:54Z</time>
      </trkpt>
      <trkpt lat="47.86638" lon="-2.76759">
        <ele>123</ele>
        <time>2021-01-31T09:32:56Z</time>
      </trkpt>
      <trkpt lat="47.8664" lon="-2.76757">
        <ele>123</ele>
        <time>2021-01-31T09:32:58Z</time>
      </trkpt>
      <trkpt lat="47.86641" lon="-2.76755">
        <ele>123</ele>
        <time>2021-01-31T09:33:00Z</time>
      </trkpt>
      <trkpt lat="47.86642" lon="-2.7675">
        <ele>123</ele>
        <time>2021-01-31T09:33:02Z</time>
      </trkpt>
      <trkpt lat="47.86642" lon="-2.76746">
        <ele>123</ele>
        <time>2021-01-31T09:33:04Z</time>
      </trkpt>
      <trkpt lat="47.86641" lon="-2.76743">
        <ele>123</ele>
        <time>2021-01-31T09:33:06Z</time>
      </trkpt>
      <trkpt lat="47.86642" lon="-2.76739">
        <ele>122</ele>
        <time>2021-01-31T09:33:08Z</time>
      </trkpt>
      <trkpt lat="47.86644" lon="-2.76737">
        <ele>122</ele>
        <time>2021-01-31T09:33:11Z</time>
      </trkpt>
      <trkpt lat="47.86646" lon="-2.76734">
        <ele>122</ele>
        <time>2021-01-31T09:33:13Z</time>
      </trkpt>
      <trkpt lat="47.86648" lon="-2.76733">
        <ele>122</ele>
        <time>2021-01-31T09:33:14Z</time>
      </trkpt>
      <trkpt lat="47.8665" lon="-2.76731">
        <ele>122</ele>
        <time>2021-01-31T09:33:16Z</time>
      </trkpt>
      <trkpt lat="47.86653" lon="-2.76727">
        <ele>122</ele>
        <time>2021-01-31T09:33:18Z</time>
      </trkpt>
      <trkpt lat="47.86653" lon="-2.76724">
        <ele>122</ele>
        <time>2021-01-31T09:33:19Z</time>
      </trkpt>
      <trkpt lat="47.86656" lon="-2.76718">
        <ele>121</ele>
        <time>2021-01-31T09:33:22Z</time>
      </trkpt>
      <trkpt lat="47.86661" lon="-2.76711">
        <ele>120</ele>
        <time>2021-01-31T09:33:25Z</time>
      </trkpt>
      <trkpt lat="47.86663" lon="-2.76708">
        <ele>120</ele>
        <time>2021-01-31T09:33:27Z</time>
      </trkpt>
      <trkpt lat="47.86666" lon="-2.76706">
        <ele>120</ele>
        <time>2021-01-31T09:33:29Z</time>
      </trkpt>
      <trkpt lat="47.86669" lon="-2.76704">
        <ele>120</ele>
        <time>2021-01-31T09:33:31Z</time>
      </trkpt>
      <trkpt lat="47.86671" lon="-2.76703">
        <ele>120</ele>
        <time>2021-01-31T09:33:32Z</time>
      </trkpt>
      <trkpt lat="47.86674" lon="-2.767">
        <ele>120</ele>
        <time>2021-01-31T09:33:34Z</time>
      </trkpt>
      <trkpt lat="47.86677" lon="-2.76698">
        <ele>121</ele>
        <time>2021-01-31T09:33:36Z</time>
      </trkpt>
      <trkpt lat="47.86679" lon="-2.76697">
        <ele>121</ele>
        <time>2021-01-31T09:33:37Z</time>
      </trkpt>
      <trkpt lat="47.86681" lon="-2.76697">
        <ele>121</ele>
        <time>2021-01-31T09:33:39Z</time>
      </trkpt>
      <trkpt lat="47.86684" lon="-2.76697">
        <ele>121</ele>
        <time>2021-01-31T09:33:41Z</time>
      </trkpt>
      <trkpt lat="47.86687" lon="-2.76697">
        <ele>121</ele>
        <time>2021-01-31T09:33:43Z</time>
      </trkpt>
      <trkpt lat="47.86689" lon="-2.76697">
        <ele>122</ele>
        <time>2021-01-31T09:33:45Z</time>
      </trkpt>
      <trkpt lat="47.86691" lon="-2.76697">
        <ele>122</ele>
        <time>2021-01-31T09:33:47Z</time>
      </trkpt>
      <trkpt lat="47.86693" lon="-2.76698">
        <ele>122</ele>
        <time>2021-01-31T09:33:49Z</time>
      </trkpt>
      <trkpt lat="47.86696" lon="-2.767">
        <ele>122</ele>
        <time>2021-01-31T09:33:51Z</time>
      </trkpt>
      <trkpt lat="47.86698" lon="-2.767">
        <ele>122</ele>
        <time>2021-01-31T09:33:53Z</time>
      </trkpt>
      <trkpt lat="47.86701" lon="-2.76699">
        <ele>122</ele>
        <time>2021-01-31T09:33:55Z</time>
      </trkpt>
      <trkpt lat="47.86703" lon="-2.76699">
        <ele>123</ele>
        <time>2021-01-31T09:33:58Z</time>
      </trkpt>
      <trkpt lat="47.86706" lon="-2.76701">
        <ele>123</ele>
        <time>2021-01-31T09:33:59Z</time>
      </trkpt>
      <trkpt lat="47.86708" lon="-2.76702">
        <ele>124</ele>
        <time>2021-01-31T09:34:01Z</time>
      </trkpt>
      <trkpt lat="47.86711" lon="-2.76701">
        <ele>124</ele>
        <time>2021-01-31T09:34:03Z</time>
      </trkpt>
      <trkpt lat="47.86713" lon="-2.76703">
        <ele>125</ele>
        <time>2021-01-31T09:34:05Z</time>
      </trkpt>
      <trkpt lat="47.86715" lon="-2.76704">
        <ele>125</ele>
        <time>2021-01-31T09:34:07Z</time>
      </trkpt>
      <trkpt lat="47.86717" lon="-2.76707">
        <ele>126</ele>
        <time>2021-01-31T09:34:12Z</time>
      </trkpt>
      <trkpt lat="47.86719" lon="-2.76708">
        <ele>126</ele>
        <time>2021-01-31T09:34:14Z</time>
      </trkpt>
      <trkpt lat="47.86722" lon="-2.76708">
        <ele>127</ele>
        <time>2021-01-31T09:34:16Z</time>
      </trkpt>
      <trkpt lat="47.86728" lon="-2.76707">
        <ele>127</ele>
        <time>2021-01-31T09:34:19Z</time>
      </trkpt>
      <trkpt lat="47.8673" lon="-2.76707">
        <ele>127</ele>
        <time>2021-01-31T09:34:20Z</time>
      </trkpt>
      <trkpt lat="47.86733" lon="-2.76707">
        <ele>126</ele>
        <time>2021-01-31T09:34:22Z</time>
      </trkpt>
      <trkpt lat="47.86736" lon="-2.76709">
        <ele>126</ele>
        <time>2021-01-31T09:34:24Z</time>
      </trkpt>
      <trkpt lat="47.86738" lon="-2.76708">
        <ele>126</ele>
        <time>2021-01-31T09:34:26Z</time>
      </trkpt>
      <trkpt lat="47.86742" lon="-2.76709">
        <ele>125</ele>
        <time>2021-01-31T09:34:28Z</time>
      </trkpt>
      <trkpt lat="47.86745" lon="-2.76709">
        <ele>125</ele>
        <time>2021-01-31T09:34:30Z</time>
      </trkpt>
      <trkpt lat="47.86748" lon="-2.7671">
        <ele>125</ele>
        <time>2021-01-31T09:34:32Z</time>
      </trkpt>
      <trkpt lat="47.86751" lon="-2.76709">
        <ele>125</ele>
        <time>2021-01-31T09:34:33Z</time>
      </trkpt>
      <trkpt lat="47.86761" lon="-2.76711">
        <ele>124</ele>
        <time>2021-01-31T09:34:38Z</time>
      </trkpt>
      <trkpt lat="47.86768" lon="-2.76715">
        <ele>124</ele>
        <time>2021-01-31T09:34:43Z</time>
      </trkpt>
      <trkpt lat="47.86772" lon="-2.76715">
        <ele>124</ele>
        <time>2021-01-31T09:34:46Z</time>
      </trkpt>
      <trkpt lat="47.86774" lon="-2.76716">
        <ele>124</ele>
        <time>2021-01-31T09:34:47Z</time>
      </trkpt>
      <trkpt lat="47.86777" lon="-2.76716">
        <ele>124</ele>
        <time>2021-01-31T09:34:49Z</time>
      </trkpt>
      <trkpt lat="47.86779" lon="-2.76717">
        <ele>124</ele>
        <time>2021-01-31T09:34:52Z</time>
      </trkpt>
      <trkpt lat="47.86781" lon="-2.76718">
        <ele>124</ele>
        <time>2021-01-31T09:34:53Z</time>
      </trkpt>
      <trkpt lat="47.86784" lon="-2.76718">
        <ele>123</ele>
        <time>2021-01-31T09:34:55Z</time>
      </trkpt>
      <trkpt lat="47.86787" lon="-2.76717">
        <ele>123</ele>
        <time>2021-01-31T09:34:57Z</time>
      </trkpt>
      <trkpt lat="47.86789" lon="-2.76717">
        <ele>123</ele>
        <time>2021-01-31T09:34:59Z</time>
      </trkpt>
      <trkpt lat="47.86797" lon="-2.76725">
        <ele>123</ele>
        <time>2021-01-31T09:35:05Z</time>
      </trkpt>
      <trkpt lat="47.86807" lon="-2.7673">
        <ele>123</ele>
        <time>2021-01-31T09:35:10Z</time>
      </trkpt>
      <trkpt lat="47.86816" lon="-2.76732">
        <ele>123</ele>
        <time>2021-01-31T09:35:16Z</time>
      </trkpt>
      <trkpt lat="47.86824" lon="-2.76741">
        <ele>122</ele>
        <time>2021-01-31T09:35:23Z</time>
      </trkpt>
      <trkpt lat="47.86831" lon="-2.76747">
        <ele>123</ele>
        <time>2021-01-31T09:35:28Z</time>
      </trkpt>
      <trkpt lat="47.86837" lon="-2.76747">
        <ele>123</ele>
        <time>2021-01-31T09:35:31Z</time>
      </trkpt>
      <trkpt lat="47.86841" lon="-2.76748">
        <ele>123</ele>
        <time>2021-01-31T09:35:34Z</time>
      </trkpt>
      <trkpt lat="47.86845" lon="-2.76749">
        <ele>123</ele>
        <time>2021-01-31T09:35:35Z</time>
      </trkpt>
      <trkpt lat="47.86847" lon="-2.76749">
        <ele>123</ele>
        <time>2021-01-31T09:35:36Z</time>
      </trkpt>
      <trkpt lat="47.8685" lon="-2.76749">
        <ele>122</ele>
        <time>2021-01-31T09:35:38Z</time>
      </trkpt>
      <trkpt lat="47.86853" lon="-2.76749">
        <ele>121</ele>
        <time>2021-01-31T09:35:40Z</time>
      </trkpt>
      <trkpt lat="47.86856" lon="-2.76749">
        <ele>122</ele>
        <time>2021-01-31T09:35:42Z</time>
      </trkpt>
      <trkpt lat="47.8686" lon="-2.76748">
        <ele>122</ele>
        <time>2021-01-31T09:35:44Z</time>
      </trkpt>
      <trkpt lat="47.86862" lon="-2.76749">
        <ele>121</ele>
        <time>2021-01-31T09:35:46Z</time>
      </trkpt>
      <trkpt lat="47.86865" lon="-2.76748">
        <ele>121</ele>
        <time>2021-01-31T09:35:49Z</time>
      </trkpt>
      <trkpt lat="47.86868" lon="-2.76748">
        <ele>121</ele>
        <time>2021-01-31T09:35:50Z</time>
      </trkpt>
      <trkpt lat="47.86872" lon="-2.76747">
        <ele>121</ele>
        <time>2021-01-31T09:35:52Z</time>
      </trkpt>
      <trkpt lat="47.86874" lon="-2.76747">
        <ele>121</ele>
        <time>2021-01-31T09:35:53Z</time>
      </trkpt>
      <trkpt lat="47.86877" lon="-2.76747">
        <ele>122</ele>
        <time>2021-01-31T09:35:55Z</time>
      </trkpt>
      <trkpt lat="47.8688" lon="-2.76746">
        <ele>123</ele>
        <time>2021-01-31T09:35:58Z</time>
      </trkpt>
      <trkpt lat="47.86883" lon="-2.76745">
        <ele>123</ele>
        <time>2021-01-31T09:35:59Z</time>
      </trkpt>
      <trkpt lat="47.86886" lon="-2.76745">
        <ele>123</ele>
        <time>2021-01-31T09:36:01Z</time>
      </trkpt>
      <trkpt lat="47.86889" lon="-2.76744">
        <ele>123</ele>
        <time>2021-01-31T09:36:04Z</time>
      </trkpt>
      <trkpt lat="47.86891" lon="-2.76743">
        <ele>123</ele>
        <time>2021-01-31T09:36:05Z</time>
      </trkpt>
      <trkpt lat="47.86894" lon="-2.76742">
        <ele>123</ele>
        <time>2021-01-31T09:36:07Z</time>
      </trkpt>
      <trkpt lat="47.86896" lon="-2.7674">
        <ele>123</ele>
        <time>2021-01-31T09:36:09Z</time>
      </trkpt>
      <trkpt lat="47.86898" lon="-2.76739">
        <ele>124</ele>
        <time>2021-01-31T09:36:11Z</time>
      </trkpt>
      <trkpt lat="47.869" lon="-2.76737">
        <ele>124</ele>
        <time>2021-01-31T09:36:15Z</time>
      </trkpt>
      <trkpt lat="47.86901" lon="-2.76733">
        <ele>124</ele>
        <time>2021-01-31T09:36:16Z</time>
      </trkpt>
      <trkpt lat="47.86903" lon="-2.7673">
        <ele>124</ele>
        <time>2021-01-31T09:36:18Z</time>
      </trkpt>
      <trkpt lat="47.86905" lon="-2.76727">
        <ele>124</ele>
        <time>2021-01-31T09:36:20Z</time>
      </trkpt>
      <trkpt lat="47.86906" lon="-2.76724">
        <ele>124</ele>
        <time>2021-01-31T09:36:22Z</time>
      </trkpt>
      <trkpt lat="47.86906" lon="-2.7672">
        <ele>124</ele>
        <time>2021-01-31T09:36:24Z</time>
      </trkpt>
      <trkpt lat="47.86908" lon="-2.76716">
        <ele>124</ele>
        <time>2021-01-31T09:36:26Z</time>
      </trkpt>
      <trkpt lat="47.8691" lon="-2.76712">
        <ele>124</ele>
        <time>2021-01-31T09:36:28Z</time>
      </trkpt>
      <trkpt lat="47.86912" lon="-2.76709">
        <ele>124</ele>
        <time>2021-01-31T09:36:30Z</time>
      </trkpt>
      <trkpt lat="47.86914" lon="-2.76704">
        <ele>124</ele>
        <time>2021-01-31T09:36:32Z</time>
      </trkpt>
      <trkpt lat="47.86915" lon="-2.76702">
        <ele>124</ele>
        <time>2021-01-31T09:36:33Z</time>
      </trkpt>
      <trkpt lat="47.86917" lon="-2.76698">
        <ele>124</ele>
        <time>2021-01-31T09:36:36Z</time>
      </trkpt>
      <trkpt lat="47.86918" lon="-2.76694">
        <ele>124</ele>
        <time>2021-01-31T09:36:37Z</time>
      </trkpt>
      <trkpt lat="47.86919" lon="-2.76689">
        <ele>124</ele>
        <time>2021-01-31T09:36:39Z</time>
      </trkpt>
      <trkpt lat="47.86921" lon="-2.76684">
        <ele>124</ele>
        <time>2021-01-31T09:36:42Z</time>
      </trkpt>
      <trkpt lat="47.86922" lon="-2.76679">
        <ele>125</ele>
        <time>2021-01-31T09:36:43Z</time>
      </trkpt>
      <trkpt lat="47.86923" lon="-2.76675">
        <ele>125</ele>
        <time>2021-01-31T09:36:45Z</time>
      </trkpt>
      <trkpt lat="47.86924" lon="-2.7667">
        <ele>125</ele>
        <time>2021-01-31T09:36:47Z</time>
      </trkpt>
      <trkpt lat="47.86926" lon="-2.76666">
        <ele>125</ele>
        <time>2021-01-31T09:36:49Z</time>
      </trkpt>
      <trkpt lat="47.86927" lon="-2.76661">
        <ele>125</ele>
        <time>2021-01-31T09:36:51Z</time>
      </trkpt>
      <trkpt lat="47.86928" lon="-2.76657">
        <ele>125</ele>
        <time>2021-01-31T09:36:53Z</time>
      </trkpt>
      <trkpt lat="47.8693" lon="-2.76652">
        <ele>126</ele>
        <time>2021-01-31T09:36:56Z</time>
      </trkpt>
      <trkpt lat="47.86931" lon="-2.76648">
        <ele>126</ele>
        <time>2021-01-31T09:36:57Z</time>
      </trkpt>
      <trkpt lat="47.86932" lon="-2.76644">
        <ele>126</ele>
        <time>2021-01-31T09:36:59Z</time>
      </trkpt>
      <trkpt lat="47.86934" lon="-2.76639">
        <ele>126</ele>
        <time>2021-01-31T09:37:01Z</time>
      </trkpt>
      <trkpt lat="47.86935" lon="-2.76635">
        <ele>126</ele>
        <time>2021-01-31T09:37:03Z</time>
      </trkpt>
      <trkpt lat="47.86936" lon="-2.76631">
        <ele>126</ele>
        <time>2021-01-31T09:37:05Z</time>
      </trkpt>
      <trkpt lat="47.86937" lon="-2.76627">
        <ele>127</ele>
        <time>2021-01-31T09:37:08Z</time>
      </trkpt>
      <trkpt lat="47.86939" lon="-2.76623">
        <ele>127</ele>
        <time>2021-01-31T09:37:09Z</time>
      </trkpt>
      <trkpt lat="47.8694" lon="-2.7662">
        <ele>127</ele>
        <time>2021-01-31T09:37:11Z</time>
      </trkpt>
      <trkpt lat="47.86942" lon="-2.76616">
        <ele>128</ele>
        <time>2021-01-31T09:37:14Z</time>
      </trkpt>
      <trkpt lat="47.86943" lon="-2.76613">
        <ele>128</ele>
        <time>2021-01-31T09:37:15Z</time>
      </trkpt>
      <trkpt lat="47.86944" lon="-2.7661">
        <ele>127</ele>
        <time>2021-01-31T09:37:17Z</time>
      </trkpt>
      <trkpt lat="47.86946" lon="-2.76608">
        <ele>128</ele>
        <time>2021-01-31T09:37:20Z</time>
      </trkpt>
      <trkpt lat="47.86947" lon="-2.76606">
        <ele>127</ele>
        <time>2021-01-31T09:37:23Z</time>
      </trkpt>
      <trkpt lat="47.8695" lon="-2.76604">
        <ele>127</ele>
        <time>2021-01-31T09:37:24Z</time>
      </trkpt>
      <trkpt lat="47.86952" lon="-2.766">
        <ele>127</ele>
        <time>2021-01-31T09:37:26Z</time>
      </trkpt>
      <trkpt lat="47.86954" lon="-2.76597">
        <ele>127</ele>
        <time>2021-01-31T09:37:28Z</time>
      </trkpt>
      <trkpt lat="47.86956" lon="-2.76593">
        <ele>127</ele>
        <time>2021-01-31T09:37:30Z</time>
      </trkpt>
      <trkpt lat="47.86958" lon="-2.7659">
        <ele>127</ele>
        <time>2021-01-31T09:37:32Z</time>
      </trkpt>
      <trkpt lat="47.86961" lon="-2.76586">
        <ele>128</ele>
        <time>2021-01-31T09:37:34Z</time>
      </trkpt>
      <trkpt lat="47.86963" lon="-2.76583">
        <ele>128</ele>
        <time>2021-01-31T09:37:36Z</time>
      </trkpt>
      <trkpt lat="47.86965" lon="-2.76579">
        <ele>128</ele>
        <time>2021-01-31T09:37:38Z</time>
      </trkpt>
      <trkpt lat="47.86967" lon="-2.76576">
        <ele>128</ele>
        <time>2021-01-31T09:37:40Z</time>
      </trkpt>
      <trkpt lat="47.86969" lon="-2.76573">
        <ele>128</ele>
        <time>2021-01-31T09:37:42Z</time>
      </trkpt>
      <trkpt lat="47.86971" lon="-2.7657">
        <ele>129</ele>
        <time>2021-01-31T09:37:44Z</time>
      </trkpt>
      <trkpt lat="47.86974" lon="-2.76568">
        <ele>129</ele>
        <time>2021-01-31T09:37:46Z</time>
      </trkpt>
      <trkpt lat="47.86976" lon="-2.76566">
        <ele>129</ele>
        <time>2021-01-31T09:37:48Z</time>
      </trkpt>
      <trkpt lat="47.86979" lon="-2.76565">
        <ele>129</ele>
        <time>2021-01-31T09:37:50Z</time>
      </trkpt>
      <trkpt lat="47.86981" lon="-2.76564">
        <ele>129</ele>
        <time>2021-01-31T09:37:52Z</time>
      </trkpt>
      <trkpt lat="47.86984" lon="-2.76563">
        <ele>129</ele>
        <time>2021-01-31T09:37:55Z</time>
      </trkpt>
      <trkpt lat="47.86987" lon="-2.76563">
        <ele>129</ele>
        <time>2021-01-31T09:37:56Z</time>
      </trkpt>
      <trkpt lat="47.8699" lon="-2.76563">
        <ele>129</ele>
        <time>2021-01-31T09:37:58Z</time>
      </trkpt>
      <trkpt lat="47.86992" lon="-2.76564">
        <ele>130</ele>
        <time>2021-01-31T09:38:00Z</time>
      </trkpt>
      <trkpt lat="47.86995" lon="-2.76565">
        <ele>131</ele>
        <time>2021-01-31T09:38:02Z</time>
      </trkpt>
      <trkpt lat="47.86998" lon="-2.76566">
        <ele>130</ele>
        <time>2021-01-31T09:38:05Z</time>
      </trkpt>
      <trkpt lat="47.87" lon="-2.76568">
        <ele>130</ele>
        <time>2021-01-31T09:38:07Z</time>
      </trkpt>
      <trkpt lat="47.87002" lon="-2.76571">
        <ele>130</ele>
        <time>2021-01-31T09:38:09Z</time>
      </trkpt>
      <trkpt lat="47.87005" lon="-2.76573">
        <ele>130</ele>
        <time>2021-01-31T09:38:11Z</time>
      </trkpt>
      <trkpt lat="47.87008" lon="-2.76576">
        <ele>131</ele>
        <time>2021-01-31T09:38:13Z</time>
      </trkpt>
      <trkpt lat="47.87011" lon="-2.76578">
        <ele>131</ele>
        <time>2021-01-31T09:38:15Z</time>
      </trkpt>
      <trkpt lat="47.87013" lon="-2.7658">
        <ele>131</ele>
        <time>2021-01-31T09:38:17Z</time>
      </trkpt>
      <trkpt lat="47.87016" lon="-2.76582">
        <ele>132</ele>
        <time>2021-01-31T09:38:19Z</time>
      </trkpt>
      <trkpt lat="47.87019" lon="-2.76584">
        <ele>132</ele>
        <time>2021-01-31T09:38:21Z</time>
      </trkpt>
      <trkpt lat="47.87021" lon="-2.76585">
        <ele>132</ele>
        <time>2021-01-31T09:38:23Z</time>
      </trkpt>
      <trkpt lat="47.87024" lon="-2.76588">
        <ele>132</ele>
        <time>2021-01-31T09:38:25Z</time>
      </trkpt>
      <trkpt lat="47.87027" lon="-2.7659">
        <ele>132</ele>
        <time>2021-01-31T09:38:27Z</time>
      </trkpt>
      <trkpt lat="47.8703" lon="-2.76591">
        <ele>132</ele>
        <time>2021-01-31T09:38:29Z</time>
      </trkpt>
      <trkpt lat="47.87033" lon="-2.76593">
        <ele>132</ele>
        <time>2021-01-31T09:38:31Z</time>
      </trkpt>
      <trkpt lat="47.87035" lon="-2.76595">
        <ele>132</ele>
        <time>2021-01-31T09:38:33Z</time>
      </trkpt>
      <trkpt lat="47.87038" lon="-2.76597">
        <ele>132</ele>
        <time>2021-01-31T09:38:36Z</time>
      </trkpt>
      <trkpt lat="47.87041" lon="-2.76599">
        <ele>132</ele>
        <time>2021-01-31T09:38:37Z</time>
      </trkpt>
      <trkpt lat="47.87044" lon="-2.76601">
        <ele>132</ele>
        <time>2021-01-31T09:38:40Z</time>
      </trkpt>
      <trkpt lat="47.87046" lon="-2.76602">
        <ele>132</ele>
        <time>2021-01-31T09:38:41Z</time>
      </trkpt>
      <trkpt lat="47.87049" lon="-2.76602">
        <ele>132</ele>
        <time>2021-01-31T09:38:43Z</time>
      </trkpt>
      <trkpt lat="47.87051" lon="-2.76601">
        <ele>132</ele>
        <time>2021-01-31T09:38:45Z</time>
      </trkpt>
      <trkpt lat="47.87053" lon="-2.76602">
        <ele>131</ele>
        <time>2021-01-31T09:39:41Z</time>
      </trkpt>
      <trkpt lat="47.87053" lon="-2.76599">
        <ele>130</ele>
        <time>2021-01-31T09:40:24Z</time>
      </trkpt>
      <trkpt lat="47.87052" lon="-2.76596">
        <ele>130</ele>
        <time>2021-01-31T09:40:35Z</time>
      </trkpt>
      <trkpt lat="47.87054" lon="-2.76591">
        <ele>130</ele>
        <time>2021-01-31T09:40:37Z</time>
      </trkpt>
      <trkpt lat="47.87055" lon="-2.76587">
        <ele>130</ele>
        <time>2021-01-31T09:40:39Z</time>
      </trkpt>
      <trkpt lat="47.87055" lon="-2.76583">
        <ele>130</ele>
        <time>2021-01-31T09:40:41Z</time>
      </trkpt>
      <trkpt lat="47.87056" lon="-2.7658">
        <ele>130</ele>
        <time>2021-01-31T09:40:43Z</time>
      </trkpt>
      <trkpt lat="47.87056" lon="-2.76575">
        <ele>130</ele>
        <time>2021-01-31T09:40:45Z</time>
      </trkpt>
      <trkpt lat="47.87057" lon="-2.76571">
        <ele>130</ele>
        <time>2021-01-31T09:40:47Z</time>
      </trkpt>
      <trkpt lat="47.87058" lon="-2.76568">
        <ele>130</ele>
        <time>2021-01-31T09:40:49Z</time>
      </trkpt>
      <trkpt lat="47.87058" lon="-2.76563">
        <ele>130</ele>
        <time>2021-01-31T09:40:51Z</time>
      </trkpt>
      <trkpt lat="47.87059" lon="-2.76558">
        <ele>130</ele>
        <time>2021-01-31T09:40:53Z</time>
      </trkpt>
      <trkpt lat="47.87061" lon="-2.76553">
        <ele>130</ele>
        <time>2021-01-31T09:40:55Z</time>
      </trkpt>
      <trkpt lat="47.87062" lon="-2.7655">
        <ele>130</ele>
        <time>2021-01-31T09:40:56Z</time>
      </trkpt>
      <trkpt lat="47.87062" lon="-2.76545">
        <ele>130</ele>
        <time>2021-01-31T09:40:58Z</time>
      </trkpt>
      <trkpt lat="47.87062" lon="-2.7654">
        <ele>130</ele>
        <time>2021-01-31T09:41:00Z</time>
      </trkpt>
      <trkpt lat="47.87063" lon="-2.76535">
        <ele>134</ele>
        <time>2021-01-31T09:41:02Z</time>
      </trkpt>
      <trkpt lat="47.87064" lon="-2.76532">
        <ele>134</ele>
        <time>2021-01-31T09:41:03Z</time>
      </trkpt>
      <trkpt lat="47.87065" lon="-2.7653">
        <ele>134</ele>
        <time>2021-01-31T09:41:04Z</time>
      </trkpt>
      <trkpt lat="47.87065" lon="-2.76525">
        <ele>134</ele>
        <time>2021-01-31T09:41:06Z</time>
      </trkpt>
      <trkpt lat="47.87065" lon="-2.76521">
        <ele>134</ele>
        <time>2021-01-31T09:41:08Z</time>
      </trkpt>
      <trkpt lat="47.87066" lon="-2.76516">
        <ele>135</ele>
        <time>2021-01-31T09:41:10Z</time>
      </trkpt>
      <trkpt lat="47.87067" lon="-2.76511">
        <ele>134</ele>
        <time>2021-01-31T09:41:12Z</time>
      </trkpt>
      <trkpt lat="47.87068" lon="-2.76506">
        <ele>134</ele>
        <time>2021-01-31T09:41:14Z</time>
      </trkpt>
      <trkpt lat="47.87069" lon="-2.76503">
        <ele>134</ele>
        <time>2021-01-31T09:41:15Z</time>
      </trkpt>
      <trkpt lat="47.8707" lon="-2.765">
        <ele>134</ele>
        <time>2021-01-31T09:41:16Z</time>
      </trkpt>
      <trkpt lat="47.8707" lon="-2.76497">
        <ele>134</ele>
        <time>2021-01-31T09:41:17Z</time>
      </trkpt>
      <trkpt lat="47.87071" lon="-2.76494">
        <ele>134</ele>
        <time>2021-01-31T09:41:18Z</time>
      </trkpt>
      <trkpt lat="47.87071" lon="-2.76491">
        <ele>134</ele>
        <time>2021-01-31T09:41:19Z</time>
      </trkpt>
      <trkpt lat="47.87072" lon="-2.76487">
        <ele>134</ele>
        <time>2021-01-31T09:41:22Z</time>
      </trkpt>
      <trkpt lat="47.87073" lon="-2.76482">
        <ele>134</ele>
        <time>2021-01-31T09:41:23Z</time>
      </trkpt>
      <trkpt lat="47.87074" lon="-2.76479">
        <ele>134</ele>
        <time>2021-01-31T09:41:24Z</time>
      </trkpt>
      <trkpt lat="47.87075" lon="-2.76474">
        <ele>134</ele>
        <time>2021-01-31T09:41:27Z</time>
      </trkpt>
      <trkpt lat="47.87076" lon="-2.7647">
        <ele>134</ele>
        <time>2021-01-31T09:41:28Z</time>
      </trkpt>
      <trkpt lat="47.87076" lon="-2.76466">
        <ele>134</ele>
        <time>2021-01-31T09:41:30Z</time>
      </trkpt>
      <trkpt lat="47.87076" lon="-2.76462">
        <ele>130</ele>
        <time>2021-01-31T09:41:33Z</time>
      </trkpt>
      <trkpt lat="47.87075" lon="-2.76458">
        <ele>130</ele>
        <time>2021-01-31T09:41:34Z</time>
      </trkpt>
      <trkpt lat="47.87075" lon="-2.76455">
        <ele>130</ele>
        <time>2021-01-31T09:41:36Z</time>
      </trkpt>
      <trkpt lat="47.87075" lon="-2.76451">
        <ele>130</ele>
        <time>2021-01-31T09:41:38Z</time>
      </trkpt>
      <trkpt lat="47.87078" lon="-2.76447">
        <ele>129</ele>
        <time>2021-01-31T09:41:40Z</time>
      </trkpt>
      <trkpt lat="47.87079" lon="-2.76444">
        <ele>129</ele>
        <time>2021-01-31T09:41:42Z</time>
      </trkpt>
      <trkpt lat="47.87079" lon="-2.76439">
        <ele>129</ele>
        <time>2021-01-31T09:41:44Z</time>
      </trkpt>
      <trkpt lat="47.87081" lon="-2.76435">
        <ele>129</ele>
        <time>2021-01-31T09:41:46Z</time>
      </trkpt>
      <trkpt lat="47.87082" lon="-2.76431">
        <ele>129</ele>
        <time>2021-01-31T09:41:48Z</time>
      </trkpt>
      <trkpt lat="47.87083" lon="-2.76428">
        <ele>127</ele>
        <time>2021-01-31T09:41:50Z</time>
      </trkpt>
      <trkpt lat="47.87084" lon="-2.76424">
        <ele>127</ele>
        <time>2021-01-31T09:41:53Z</time>
      </trkpt>
      <trkpt lat="47.87086" lon="-2.7642">
        <ele>127</ele>
        <time>2021-01-31T09:41:54Z</time>
      </trkpt>
      <trkpt lat="47.87087" lon="-2.76416">
        <ele>127</ele>
        <time>2021-01-31T09:41:56Z</time>
      </trkpt>
      <trkpt lat="47.87089" lon="-2.76412">
        <ele>126</ele>
        <time>2021-01-31T09:41:59Z</time>
      </trkpt>
      <trkpt lat="47.8709" lon="-2.76407">
        <ele>125</ele>
        <time>2021-01-31T09:42:00Z</time>
      </trkpt>
      <trkpt lat="47.87092" lon="-2.76404">
        <ele>125</ele>
        <time>2021-01-31T09:42:02Z</time>
      </trkpt>
      <trkpt lat="47.87094" lon="-2.76402">
        <ele>125</ele>
        <time>2021-01-31T09:42:04Z</time>
      </trkpt>
      <trkpt lat="47.87095" lon="-2.76398">
        <ele>125</ele>
        <time>2021-01-31T09:42:05Z</time>
      </trkpt>
      <trkpt lat="47.87097" lon="-2.76394">
        <ele>125</ele>
        <time>2021-01-31T09:42:07Z</time>
      </trkpt>
      <trkpt lat="47.87098" lon="-2.76392">
        <ele>125</ele>
        <time>2021-01-31T09:42:08Z</time>
      </trkpt>
      <trkpt lat="47.871" lon="-2.76388">
        <ele>124</ele>
        <time>2021-01-31T09:42:10Z</time>
      </trkpt>
      <trkpt lat="47.87101" lon="-2.76384">
        <ele>124</ele>
        <time>2021-01-31T09:42:12Z</time>
      </trkpt>
      <trkpt lat="47.87103" lon="-2.76382">
        <ele>124</ele>
        <time>2021-01-31T09:42:13Z</time>
      </trkpt>
      <trkpt lat="47.87104" lon="-2.76378">
        <ele>124</ele>
        <time>2021-01-31T09:42:16Z</time>
      </trkpt>
      <trkpt lat="47.87106" lon="-2.76374">
        <ele>124</ele>
        <time>2021-01-31T09:42:17Z</time>
      </trkpt>
      <trkpt lat="47.87107" lon="-2.76371">
        <ele>124</ele>
        <time>2021-01-31T09:42:18Z</time>
      </trkpt>
      <trkpt lat="47.87108" lon="-2.76369">
        <ele>124</ele>
        <time>2021-01-31T09:42:19Z</time>
      </trkpt>
      <trkpt lat="47.87109" lon="-2.76366">
        <ele>124</ele>
        <time>2021-01-31T09:42:20Z</time>
      </trkpt>
      <trkpt lat="47.87111" lon="-2.76361">
        <ele>124</ele>
        <time>2021-01-31T09:42:22Z</time>
      </trkpt>
      <trkpt lat="47.87111" lon="-2.76358">
        <ele>124</ele>
        <time>2021-01-31T09:42:24Z</time>
      </trkpt>
      <trkpt lat="47.87112" lon="-2.76354">
        <ele>124</ele>
        <time>2021-01-31T09:42:25Z</time>
      </trkpt>
      <trkpt lat="47.87113" lon="-2.76348">
        <ele>124</ele>
        <time>2021-01-31T09:42:27Z</time>
      </trkpt>
      <trkpt lat="47.87113" lon="-2.76343">
        <ele>123</ele>
        <time>2021-01-31T09:42:29Z</time>
      </trkpt>
      <trkpt lat="47.87113" lon="-2.7634">
        <ele>123</ele>
        <time>2021-01-31T09:42:30Z</time>
      </trkpt>
      <trkpt lat="47.87114" lon="-2.76336">
        <ele>123</ele>
        <time>2021-01-31T09:42:32Z</time>
      </trkpt>
      <trkpt lat="47.87115" lon="-2.76333">
        <ele>123</ele>
        <time>2021-01-31T09:42:35Z</time>
      </trkpt>
      <trkpt lat="47.87115" lon="-2.76329">
        <ele>123</ele>
        <time>2021-01-31T09:42:36Z</time>
      </trkpt>
      <trkpt lat="47.87115" lon="-2.76325">
        <ele>123</ele>
        <time>2021-01-31T09:42:38Z</time>
      </trkpt>
      <trkpt lat="47.87115" lon="-2.76321">
        <ele>123</ele>
        <time>2021-01-31T09:42:40Z</time>
      </trkpt>
      <trkpt lat="47.87115" lon="-2.76318">
        <ele>123</ele>
        <time>2021-01-31T09:42:43Z</time>
      </trkpt>
      <trkpt lat="47.87115" lon="-2.76315">
        <ele>123</ele>
        <time>2021-01-31T09:42:46Z</time>
      </trkpt>
      <trkpt lat="47.87115" lon="-2.76312">
        <ele>123</ele>
        <time>2021-01-31T09:42:48Z</time>
      </trkpt>
      <trkpt lat="47.87115" lon="-2.76308">
        <ele>123</ele>
        <time>2021-01-31T09:42:50Z</time>
      </trkpt>
      <trkpt lat="47.87116" lon="-2.76303">
        <ele>123</ele>
        <time>2021-01-31T09:42:52Z</time>
      </trkpt>
      <trkpt lat="47.87116" lon="-2.76299">
        <ele>123</ele>
        <time>2021-01-31T09:42:54Z</time>
      </trkpt>
      <trkpt lat="47.87116" lon="-2.76294">
        <ele>122</ele>
        <time>2021-01-31T09:42:56Z</time>
      </trkpt>
      <trkpt lat="47.87116" lon="-2.7629">
        <ele>122</ele>
        <time>2021-01-31T09:42:58Z</time>
      </trkpt>
      <trkpt lat="47.87117" lon="-2.76285">
        <ele>122</ele>
        <time>2021-01-31T09:43:00Z</time>
      </trkpt>
      <trkpt lat="47.87117" lon="-2.76281">
        <ele>122</ele>
        <time>2021-01-31T09:43:02Z</time>
      </trkpt>
      <trkpt lat="47.87118" lon="-2.76278">
        <ele>122</ele>
        <time>2021-01-31T09:43:04Z</time>
      </trkpt>
      <trkpt lat="47.87118" lon="-2.76275">
        <ele>122</ele>
        <time>2021-01-31T09:43:06Z</time>
      </trkpt>
      <trkpt lat="47.87119" lon="-2.76271">
        <ele>121</ele>
        <time>2021-01-31T09:43:08Z</time>
      </trkpt>
      <trkpt lat="47.87119" lon="-2.76267">
        <ele>121</ele>
        <time>2021-01-31T09:43:10Z</time>
      </trkpt>
      <trkpt lat="47.87119" lon="-2.76263">
        <ele>120</ele>
        <time>2021-01-31T09:43:12Z</time>
      </trkpt>
      <trkpt lat="47.87118" lon="-2.76258">
        <ele>120</ele>
        <time>2021-01-31T09:43:14Z</time>
      </trkpt>
      <trkpt lat="47.87118" lon="-2.76254">
        <ele>120</ele>
        <time>2021-01-31T09:43:16Z</time>
      </trkpt>
      <trkpt lat="47.87117" lon="-2.76249">
        <ele>119</ele>
        <time>2021-01-31T09:43:18Z</time>
      </trkpt>
      <trkpt lat="47.87117" lon="-2.76245">
        <ele>119</ele>
        <time>2021-01-31T09:43:21Z</time>
      </trkpt>
      <trkpt lat="47.87116" lon="-2.76241">
        <ele>119</ele>
        <time>2021-01-31T09:43:22Z</time>
      </trkpt>
      <trkpt lat="47.87115" lon="-2.76237">
        <ele>119</ele>
        <time>2021-01-31T09:43:24Z</time>
      </trkpt>
      <trkpt lat="47.87114" lon="-2.76232">
        <ele>118</ele>
        <time>2021-01-31T09:43:26Z</time>
      </trkpt>
      <trkpt lat="47.87113" lon="-2.76229">
        <ele>118</ele>
        <time>2021-01-31T09:43:28Z</time>
      </trkpt>
      <trkpt lat="47.87112" lon="-2.76225">
        <ele>118</ele>
        <time>2021-01-31T09:43:30Z</time>
      </trkpt>
      <trkpt lat="47.87111" lon="-2.76221">
        <ele>117</ele>
        <time>2021-01-31T09:43:32Z</time>
      </trkpt>
      <trkpt lat="47.87109" lon="-2.76216">
        <ele>117</ele>
        <time>2021-01-31T09:43:34Z</time>
      </trkpt>
      <trkpt lat="47.87108" lon="-2.76212">
        <ele>117</ele>
        <time>2021-01-31T09:43:36Z</time>
      </trkpt>
      <trkpt lat="47.87106" lon="-2.76208">
        <ele>116</ele>
        <time>2021-01-31T09:43:39Z</time>
      </trkpt>
      <trkpt lat="47.87105" lon="-2.76204">
        <ele>116</ele>
        <time>2021-01-31T09:43:40Z</time>
      </trkpt>
      <trkpt lat="47.87104" lon="-2.762">
        <ele>116</ele>
        <time>2021-01-31T09:43:42Z</time>
      </trkpt>
      <trkpt lat="47.87103" lon="-2.76196">
        <ele>116</ele>
        <time>2021-01-31T09:43:44Z</time>
      </trkpt>
      <trkpt lat="47.87102" lon="-2.76191">
        <ele>115</ele>
        <time>2021-01-31T09:43:46Z</time>
      </trkpt>
      <trkpt lat="47.87101" lon="-2.76187">
        <ele>114</ele>
        <time>2021-01-31T09:43:48Z</time>
      </trkpt>
      <trkpt lat="47.87099" lon="-2.76183">
        <ele>114</ele>
        <time>2021-01-31T09:43:50Z</time>
      </trkpt>
      <trkpt lat="47.87098" lon="-2.76179">
        <ele>114</ele>
        <time>2021-01-31T09:43:52Z</time>
      </trkpt>
      <trkpt lat="47.87096" lon="-2.76175">
        <ele>113</ele>
        <time>2021-01-31T09:43:54Z</time>
      </trkpt>
      <trkpt lat="47.87095" lon="-2.76172">
        <ele>113</ele>
        <time>2021-01-31T09:43:57Z</time>
      </trkpt>
      <trkpt lat="47.87094" lon="-2.76167">
        <ele>113</ele>
        <time>2021-01-31T09:43:58Z</time>
      </trkpt>
      <trkpt lat="47.87092" lon="-2.76163">
        <ele>112</ele>
        <time>2021-01-31T09:44:00Z</time>
      </trkpt>
      <trkpt lat="47.87091" lon="-2.76159">
        <ele>112</ele>
        <time>2021-01-31T09:44:02Z</time>
      </trkpt>
      <trkpt lat="47.87089" lon="-2.76155">
        <ele>112</ele>
        <time>2021-01-31T09:44:04Z</time>
      </trkpt>
      <trkpt lat="47.87087" lon="-2.76151">
        <ele>111</ele>
        <time>2021-01-31T09:44:06Z</time>
      </trkpt>
      <trkpt lat="47.87086" lon="-2.76148">
        <ele>111</ele>
        <time>2021-01-31T09:44:08Z</time>
      </trkpt>
      <trkpt lat="47.87084" lon="-2.76144">
        <ele>111</ele>
        <time>2021-01-31T09:44:10Z</time>
      </trkpt>
      <trkpt lat="47.87082" lon="-2.7614">
        <ele>110</ele>
        <time>2021-01-31T09:44:12Z</time>
      </trkpt>
      <trkpt lat="47.87081" lon="-2.76137">
        <ele>110</ele>
        <time>2021-01-31T09:44:14Z</time>
      </trkpt>
      <trkpt lat="47.87079" lon="-2.76133">
        <ele>110</ele>
        <time>2021-01-31T09:44:17Z</time>
      </trkpt>
      <trkpt lat="47.87078" lon="-2.76129">
        <ele>110</ele>
        <time>2021-01-31T09:44:18Z</time>
      </trkpt>
      <trkpt lat="47.87077" lon="-2.76125">
        <ele>109</ele>
        <time>2021-01-31T09:44:20Z</time>
      </trkpt>
      <trkpt lat="47.87077" lon="-2.7612">
        <ele>109</ele>
        <time>2021-01-31T09:44:22Z</time>
      </trkpt>
      <trkpt lat="47.87077" lon="-2.76116">
        <ele>109</ele>
        <time>2021-01-31T09:44:24Z</time>
      </trkpt>
      <trkpt lat="47.87078" lon="-2.76112">
        <ele>109</ele>
        <time>2021-01-31T09:44:26Z</time>
      </trkpt>
      <trkpt lat="47.87079" lon="-2.76107">
        <ele>108</ele>
        <time>2021-01-31T09:44:29Z</time>
      </trkpt>
      <trkpt lat="47.8708" lon="-2.76103">
        <ele>108</ele>
        <time>2021-01-31T09:44:30Z</time>
      </trkpt>
      <trkpt lat="47.87082" lon="-2.76099">
        <ele>108</ele>
        <time>2021-01-31T09:44:32Z</time>
      </trkpt>
      <trkpt lat="47.87083" lon="-2.76095">
        <ele>108</ele>
        <time>2021-01-31T09:44:34Z</time>
      </trkpt>
      <trkpt lat="47.87085" lon="-2.76091">
        <ele>108</ele>
        <time>2021-01-31T09:44:36Z</time>
      </trkpt>
      <trkpt lat="47.87086" lon="-2.76087">
        <ele>108</ele>
        <time>2021-01-31T09:44:38Z</time>
      </trkpt>
      <trkpt lat="47.87088" lon="-2.76084">
        <ele>108</ele>
        <time>2021-01-31T09:44:40Z</time>
      </trkpt>
      <trkpt lat="47.8709" lon="-2.7608">
        <ele>108</ele>
        <time>2021-01-31T09:44:42Z</time>
      </trkpt>
      <trkpt lat="47.87091" lon="-2.76076">
        <ele>108</ele>
        <time>2021-01-31T09:44:44Z</time>
      </trkpt>
      <trkpt lat="47.87093" lon="-2.76073">
        <ele>107</ele>
        <time>2021-01-31T09:44:46Z</time>
      </trkpt>
      <trkpt lat="47.87095" lon="-2.7607">
        <ele>107</ele>
        <time>2021-01-31T09:44:48Z</time>
      </trkpt>
      <trkpt lat="47.87098" lon="-2.76067">
        <ele>107</ele>
        <time>2021-01-31T09:44:50Z</time>
      </trkpt>
      <trkpt lat="47.871" lon="-2.76064">
        <ele>108</ele>
        <time>2021-01-31T09:44:52Z</time>
      </trkpt>
      <trkpt lat="47.87103" lon="-2.7606">
        <ele>107</ele>
        <time>2021-01-31T09:44:55Z</time>
      </trkpt>
      <trkpt lat="47.87105" lon="-2.76057">
        <ele>107</ele>
        <time>2021-01-31T09:44:56Z</time>
      </trkpt>
      <trkpt lat="47.87108" lon="-2.76054">
        <ele>107</ele>
        <time>2021-01-31T09:44:58Z</time>
      </trkpt>
      <trkpt lat="47.8711" lon="-2.76052">
        <ele>107</ele>
        <time>2021-01-31T09:45:00Z</time>
      </trkpt>
      <trkpt lat="47.87112" lon="-2.76049">
        <ele>107</ele>
        <time>2021-01-31T09:45:02Z</time>
      </trkpt>
      <trkpt lat="47.87115" lon="-2.76046">
        <ele>107</ele>
        <time>2021-01-31T09:45:04Z</time>
      </trkpt>
      <trkpt lat="47.87117" lon="-2.76044">
        <ele>107</ele>
        <time>2021-01-31T09:45:06Z</time>
      </trkpt>
      <trkpt lat="47.8712" lon="-2.76041">
        <ele>107</ele>
        <time>2021-01-31T09:45:08Z</time>
      </trkpt>
      <trkpt lat="47.87122" lon="-2.76039">
        <ele>107</ele>
        <time>2021-01-31T09:45:11Z</time>
      </trkpt>
      <trkpt lat="47.87125" lon="-2.76036">
        <ele>106</ele>
        <time>2021-01-31T09:45:12Z</time>
      </trkpt>
      <trkpt lat="47.87128" lon="-2.76033">
        <ele>106</ele>
        <time>2021-01-31T09:45:14Z</time>
      </trkpt>
      <trkpt lat="47.8713" lon="-2.76031">
        <ele>106</ele>
        <time>2021-01-31T09:45:16Z</time>
      </trkpt>
      <trkpt lat="47.87133" lon="-2.76029">
        <ele>106</ele>
        <time>2021-01-31T09:45:19Z</time>
      </trkpt>
      <trkpt lat="47.87136" lon="-2.76027">
        <ele>106</ele>
        <time>2021-01-31T09:45:20Z</time>
      </trkpt>
      <trkpt lat="47.87139" lon="-2.76025">
        <ele>106</ele>
        <time>2021-01-31T09:45:23Z</time>
      </trkpt>
      <trkpt lat="47.87141" lon="-2.76023">
        <ele>106</ele>
        <time>2021-01-31T09:45:24Z</time>
      </trkpt>
      <trkpt lat="47.87144" lon="-2.76022">
        <ele>106</ele>
        <time>2021-01-31T09:45:26Z</time>
      </trkpt>
      <trkpt lat="47.87147" lon="-2.7602">
        <ele>106</ele>
        <time>2021-01-31T09:45:29Z</time>
      </trkpt>
      <trkpt lat="47.8715" lon="-2.76018">
        <ele>105</ele>
        <time>2021-01-31T09:45:30Z</time>
      </trkpt>
      <trkpt lat="47.87153" lon="-2.76017">
        <ele>105</ele>
        <time>2021-01-31T09:45:32Z</time>
      </trkpt>
      <trkpt lat="47.87156" lon="-2.76015">
        <ele>105</ele>
        <time>2021-01-31T09:45:34Z</time>
      </trkpt>
      <trkpt lat="47.87161" lon="-2.76013">
        <ele>105</ele>
        <time>2021-01-31T09:45:37Z</time>
      </trkpt>
      <trkpt lat="47.87163" lon="-2.76012">
        <ele>105</ele>
        <time>2021-01-31T09:45:38Z</time>
      </trkpt>
      <trkpt lat="47.87166" lon="-2.76011">
        <ele>104</ele>
        <time>2021-01-31T09:45:40Z</time>
      </trkpt>
      <trkpt lat="47.87169" lon="-2.7601">
        <ele>104</ele>
        <time>2021-01-31T09:45:42Z</time>
      </trkpt>
      <trkpt lat="47.87172" lon="-2.76009">
        <ele>104</ele>
        <time>2021-01-31T09:45:44Z</time>
      </trkpt>
      <trkpt lat="47.87176" lon="-2.76008">
        <ele>104</ele>
        <time>2021-01-31T09:45:47Z</time>
      </trkpt>
      <trkpt lat="47.87179" lon="-2.76008">
        <ele>104</ele>
        <time>2021-01-31T09:45:48Z</time>
      </trkpt>
      <trkpt lat="47.87182" lon="-2.76007">
        <ele>104</ele>
        <time>2021-01-31T09:45:50Z</time>
      </trkpt>
      <trkpt lat="47.87185" lon="-2.76006">
        <ele>103</ele>
        <time>2021-01-31T09:45:52Z</time>
      </trkpt>
      <trkpt lat="47.87188" lon="-2.76005">
        <ele>103</ele>
        <time>2021-01-31T09:45:54Z</time>
      </trkpt>
      <trkpt lat="47.87191" lon="-2.76005">
        <ele>103</ele>
        <time>2021-01-31T09:45:56Z</time>
      </trkpt>
      <trkpt lat="47.87194" lon="-2.76004">
        <ele>103</ele>
        <time>2021-01-31T09:45:58Z</time>
      </trkpt>
      <trkpt lat="47.87197" lon="-2.76005">
        <ele>102</ele>
        <time>2021-01-31T09:46:00Z</time>
      </trkpt>
      <trkpt lat="47.872" lon="-2.76005">
        <ele>102</ele>
        <time>2021-01-31T09:46:02Z</time>
      </trkpt>
      <trkpt lat="47.87203" lon="-2.76005">
        <ele>102</ele>
        <time>2021-01-31T09:46:04Z</time>
      </trkpt>
      <trkpt lat="47.87206" lon="-2.76005">
        <ele>102</ele>
        <time>2021-01-31T09:46:07Z</time>
      </trkpt>
      <trkpt lat="47.87208" lon="-2.76005">
        <ele>101</ele>
        <time>2021-01-31T09:46:08Z</time>
      </trkpt>
      <trkpt lat="47.87212" lon="-2.76006">
        <ele>101</ele>
        <time>2021-01-31T09:46:10Z</time>
      </trkpt>
      <trkpt lat="47.87215" lon="-2.76006">
        <ele>101</ele>
        <time>2021-01-31T09:46:12Z</time>
      </trkpt>
      <trkpt lat="47.87217" lon="-2.76007">
        <ele>101</ele>
        <time>2021-01-31T09:46:13Z</time>
      </trkpt>
      <trkpt lat="47.87218" lon="-2.76007">
        <ele>101</ele>
        <time>2021-01-31T09:46:14Z</time>
      </trkpt>
      <trkpt lat="47.87222" lon="-2.76008">
        <ele>100</ele>
        <time>2021-01-31T09:46:16Z</time>
      </trkpt>
      <trkpt lat="47.87225" lon="-2.76008">
        <ele>100</ele>
        <time>2021-01-31T09:46:18Z</time>
      </trkpt>
      <trkpt lat="47.87227" lon="-2.76009">
        <ele>99</ele>
        <time>2021-01-31T09:46:21Z</time>
      </trkpt>
      <trkpt lat="47.8723" lon="-2.7601">
        <ele>99</ele>
        <time>2021-01-31T09:46:22Z</time>
      </trkpt>
      <trkpt lat="47.87232" lon="-2.76011">
        <ele>99</ele>
        <time>2021-01-31T09:46:24Z</time>
      </trkpt>
      <trkpt lat="47.87235" lon="-2.76011">
        <ele>99</ele>
        <time>2021-01-31T09:46:27Z</time>
      </trkpt>
      <trkpt lat="47.87238" lon="-2.76012">
        <ele>99</ele>
        <time>2021-01-31T09:46:28Z</time>
      </trkpt>
      <trkpt lat="47.8724" lon="-2.76013">
        <ele>99</ele>
        <time>2021-01-31T09:46:30Z</time>
      </trkpt>
      <trkpt lat="47.87243" lon="-2.76015">
        <ele>99</ele>
        <time>2021-01-31T09:46:33Z</time>
      </trkpt>
      <trkpt lat="47.87247" lon="-2.76016">
        <ele>99</ele>
        <time>2021-01-31T09:46:34Z</time>
      </trkpt>
      <trkpt lat="47.87249" lon="-2.76017">
        <ele>99</ele>
        <time>2021-01-31T09:46:36Z</time>
      </trkpt>
      <trkpt lat="47.87252" lon="-2.76018">
        <ele>99</ele>
        <time>2021-01-31T09:46:39Z</time>
      </trkpt>
      <trkpt lat="47.87255" lon="-2.76019">
        <ele>99</ele>
        <time>2021-01-31T09:46:40Z</time>
      </trkpt>
      <trkpt lat="47.87258" lon="-2.76021">
        <ele>99</ele>
        <time>2021-01-31T09:46:42Z</time>
      </trkpt>
      <trkpt lat="47.8726" lon="-2.76023">
        <ele>99</ele>
        <time>2021-01-31T09:46:45Z</time>
      </trkpt>
      <trkpt lat="47.87263" lon="-2.76024">
        <ele>99</ele>
        <time>2021-01-31T09:46:47Z</time>
      </trkpt>
      <trkpt lat="47.87266" lon="-2.76025">
        <ele>98</ele>
        <time>2021-01-31T09:46:49Z</time>
      </trkpt>
      <trkpt lat="47.87269" lon="-2.76026">
        <ele>98</ele>
        <time>2021-01-31T09:46:51Z</time>
      </trkpt>
      <trkpt lat="47.87272" lon="-2.76028">
        <ele>98</ele>
        <time>2021-01-31T09:46:53Z</time>
      </trkpt>
      <trkpt lat="47.87274" lon="-2.76029">
        <ele>98</ele>
        <time>2021-01-31T09:46:55Z</time>
      </trkpt>
      <trkpt lat="47.87277" lon="-2.76031">
        <ele>98</ele>
        <time>2021-01-31T09:46:57Z</time>
      </trkpt>
      <trkpt lat="47.8728" lon="-2.76032">
        <ele>98</ele>
        <time>2021-01-31T09:46:59Z</time>
      </trkpt>
      <trkpt lat="47.87283" lon="-2.76035">
        <ele>98</ele>
        <time>2021-01-31T09:47:02Z</time>
      </trkpt>
      <trkpt lat="47.87286" lon="-2.76037">
        <ele>98</ele>
        <time>2021-01-31T09:47:03Z</time>
      </trkpt>
      <trkpt lat="47.87289" lon="-2.76038">
        <ele>98</ele>
        <time>2021-01-31T09:47:05Z</time>
      </trkpt>
      <trkpt lat="47.87291" lon="-2.76041">
        <ele>98</ele>
        <time>2021-01-31T09:47:07Z</time>
      </trkpt>
      <trkpt lat="47.87293" lon="-2.76042">
        <ele>98</ele>
        <time>2021-01-31T09:47:09Z</time>
      </trkpt>
      <trkpt lat="47.87296" lon="-2.76044">
        <ele>98</ele>
        <time>2021-01-31T09:47:11Z</time>
      </trkpt>
      <trkpt lat="47.87299" lon="-2.76046">
        <ele>98</ele>
        <time>2021-01-31T09:47:13Z</time>
      </trkpt>
      <trkpt lat="47.87301" lon="-2.76049">
        <ele>98</ele>
        <time>2021-01-31T09:47:15Z</time>
      </trkpt>
      <trkpt lat="47.87303" lon="-2.76051">
        <ele>98</ele>
        <time>2021-01-31T09:47:16Z</time>
      </trkpt>
      <trkpt lat="47.87304" lon="-2.76053">
        <ele>98</ele>
        <time>2021-01-31T09:47:17Z</time>
      </trkpt>
      <trkpt lat="47.87307" lon="-2.76055">
        <ele>98</ele>
        <time>2021-01-31T09:47:20Z</time>
      </trkpt>
      <trkpt lat="47.8731" lon="-2.76057">
        <ele>98</ele>
        <time>2021-01-31T09:47:21Z</time>
      </trkpt>
      <trkpt lat="47.87313" lon="-2.76059">
        <ele>98</ele>
        <time>2021-01-31T09:47:23Z</time>
      </trkpt>
      <trkpt lat="47.87316" lon="-2.76061">
        <ele>98</ele>
        <time>2021-01-31T09:47:25Z</time>
      </trkpt>
      <trkpt lat="47.87317" lon="-2.76062">
        <ele>97</ele>
        <time>2021-01-31T09:47:27Z</time>
      </trkpt>
      <trkpt lat="47.87319" lon="-2.76064">
        <ele>97</ele>
        <time>2021-01-31T09:47:29Z</time>
      </trkpt>
      <trkpt lat="47.87321" lon="-2.76066">
        <ele>97</ele>
        <time>2021-01-31T09:47:31Z</time>
      </trkpt>
      <trkpt lat="47.87324" lon="-2.76068">
        <ele>97</ele>
        <time>2021-01-31T09:47:34Z</time>
      </trkpt>
      <trkpt lat="47.87327" lon="-2.7607">
        <ele>97</ele>
        <time>2021-01-31T09:47:35Z</time>
      </trkpt>
      <trkpt lat="47.8733" lon="-2.76072">
        <ele>97</ele>
        <time>2021-01-31T09:47:37Z</time>
      </trkpt>
      <trkpt lat="47.87332" lon="-2.76073">
        <ele>97</ele>
        <time>2021-01-31T09:47:39Z</time>
      </trkpt>
      <trkpt lat="47.87334" lon="-2.76073">
        <ele>97</ele>
        <time>2021-01-31T09:47:41Z</time>
      </trkpt>
      <trkpt lat="47.87336" lon="-2.76074">
        <ele>96</ele>
        <time>2021-01-31T09:47:44Z</time>
      </trkpt>
      <trkpt lat="47.87339" lon="-2.76074">
        <ele>96</ele>
        <time>2021-01-31T09:47:46Z</time>
      </trkpt>
      <trkpt lat="47.87342" lon="-2.76074">
        <ele>96</ele>
        <time>2021-01-31T09:47:48Z</time>
      </trkpt>
      <trkpt lat="47.87343" lon="-2.76075">
        <ele>96</ele>
        <time>2021-01-31T09:47:50Z</time>
      </trkpt>
      <trkpt lat="47.87346" lon="-2.76077">
        <ele>96</ele>
        <time>2021-01-31T09:47:52Z</time>
      </trkpt>
      <trkpt lat="47.87349" lon="-2.76078">
        <ele>95</ele>
        <time>2021-01-31T09:47:54Z</time>
      </trkpt>
      <trkpt lat="47.87351" lon="-2.76078">
        <ele>94</ele>
        <time>2021-01-31T09:47:56Z</time>
      </trkpt>
      <trkpt lat="47.87354" lon="-2.76079">
        <ele>94</ele>
        <time>2021-01-31T09:47:58Z</time>
      </trkpt>
      <trkpt lat="47.87356" lon="-2.76081">
        <ele>94</ele>
        <time>2021-01-31T09:48:00Z</time>
      </trkpt>
      <trkpt lat="47.87359" lon="-2.76083">
        <ele>94</ele>
        <time>2021-01-31T09:48:02Z</time>
      </trkpt>
      <trkpt lat="47.87361" lon="-2.76086">
        <ele>94</ele>
        <time>2021-01-31T09:48:04Z</time>
      </trkpt>
      <trkpt lat="47.87364" lon="-2.76089">
        <ele>94</ele>
        <time>2021-01-31T09:48:06Z</time>
      </trkpt>
      <trkpt lat="47.87366" lon="-2.76092">
        <ele>94</ele>
        <time>2021-01-31T09:48:08Z</time>
      </trkpt>
      <trkpt lat="47.87368" lon="-2.76091">
        <ele>94</ele>
        <time>2021-01-31T09:48:10Z</time>
      </trkpt>
      <trkpt lat="47.8737" lon="-2.76091">
        <ele>95</ele>
        <time>2021-01-31T09:48:13Z</time>
      </trkpt>
      <trkpt lat="47.87372" lon="-2.76095">
        <ele>96</ele>
        <time>2021-01-31T09:48:14Z</time>
      </trkpt>
      <trkpt lat="47.87374" lon="-2.76097">
        <ele>97</ele>
        <time>2021-01-31T09:48:16Z</time>
      </trkpt>
      <trkpt lat="47.87375" lon="-2.761">
        <ele>98</ele>
        <time>2021-01-31T09:48:19Z</time>
      </trkpt>
      <trkpt lat="47.87377" lon="-2.76102">
        <ele>98</ele>
        <time>2021-01-31T09:48:20Z</time>
      </trkpt>
      <trkpt lat="47.87379" lon="-2.76102">
        <ele>98</ele>
        <time>2021-01-31T09:48:22Z</time>
      </trkpt>
      <trkpt lat="47.87382" lon="-2.761">
        <ele>98</ele>
        <time>2021-01-31T09:48:24Z</time>
      </trkpt>
      <trkpt lat="47.87384" lon="-2.76098">
        <ele>98</ele>
        <time>2021-01-31T09:48:27Z</time>
      </trkpt>
      <trkpt lat="47.87386" lon="-2.76099">
        <ele>98</ele>
        <time>2021-01-31T09:48:29Z</time>
      </trkpt>
      <trkpt lat="47.87389" lon="-2.761">
        <ele>98</ele>
        <time>2021-01-31T09:48:31Z</time>
      </trkpt>
      <trkpt lat="47.87392" lon="-2.761">
        <ele>98</ele>
        <time>2021-01-31T09:48:34Z</time>
      </trkpt>
      <trkpt lat="47.87394" lon="-2.76099">
        <ele>98</ele>
        <time>2021-01-31T09:48:35Z</time>
      </trkpt>
      <trkpt lat="47.87397" lon="-2.76097">
        <ele>97</ele>
        <time>2021-01-31T09:48:38Z</time>
      </trkpt>
      <trkpt lat="47.87398" lon="-2.76098">
        <ele>97</ele>
        <time>2021-01-31T09:48:39Z</time>
      </trkpt>
      <trkpt lat="47.874" lon="-2.761">
        <ele>98</ele>
        <time>2021-01-31T09:48:41Z</time>
      </trkpt>
      <trkpt lat="47.87402" lon="-2.76101">
        <ele>98</ele>
        <time>2021-01-31T09:48:42Z</time>
      </trkpt>
      <trkpt lat="47.87404" lon="-2.76101">
        <ele>97</ele>
        <time>2021-01-31T09:48:43Z</time>
      </trkpt>
      <trkpt lat="47.87405" lon="-2.76102">
        <ele>97</ele>
        <time>2021-01-31T09:48:44Z</time>
      </trkpt>
      <trkpt lat="47.87408" lon="-2.76103">
        <ele>98</ele>
        <time>2021-01-31T09:48:46Z</time>
      </trkpt>
      <trkpt lat="47.87411" lon="-2.76104">
        <ele>98</ele>
        <time>2021-01-31T09:48:48Z</time>
      </trkpt>
      <trkpt lat="47.87414" lon="-2.76104">
        <ele>98</ele>
        <time>2021-01-31T09:48:50Z</time>
      </trkpt>
      <trkpt lat="47.87417" lon="-2.76105">
        <ele>98</ele>
        <time>2021-01-31T09:48:53Z</time>
      </trkpt>
      <trkpt lat="47.87419" lon="-2.76105">
        <ele>98</ele>
        <time>2021-01-31T09:48:54Z</time>
      </trkpt>
      <trkpt lat="47.87424" lon="-2.76103">
        <ele>98</ele>
        <time>2021-01-31T09:48:57Z</time>
      </trkpt>
      <trkpt lat="47.87426" lon="-2.76103">
        <ele>98</ele>
        <time>2021-01-31T09:48:58Z</time>
      </trkpt>
      <trkpt lat="47.87428" lon="-2.76101">
        <ele>98</ele>
        <time>2021-01-31T09:48:59Z</time>
      </trkpt>
      <trkpt lat="47.87431" lon="-2.76099">
        <ele>98</ele>
        <time>2021-01-31T09:49:01Z</time>
      </trkpt>
      <trkpt lat="47.87433" lon="-2.76098">
        <ele>98</ele>
        <time>2021-01-31T09:49:02Z</time>
      </trkpt>
      <trkpt lat="47.87435" lon="-2.76095">
        <ele>98</ele>
        <time>2021-01-31T09:49:03Z</time>
      </trkpt>
      <trkpt lat="47.87437" lon="-2.76094">
        <ele>98</ele>
        <time>2021-01-31T09:49:04Z</time>
      </trkpt>
      <trkpt lat="47.87441" lon="-2.7609">
        <ele>97</ele>
        <time>2021-01-31T09:49:06Z</time>
      </trkpt>
      <trkpt lat="47.87443" lon="-2.76087">
        <ele>97</ele>
        <time>2021-01-31T09:49:08Z</time>
      </trkpt>
      <trkpt lat="47.87445" lon="-2.76083">
        <ele>96</ele>
        <time>2021-01-31T09:49:10Z</time>
      </trkpt>
      <trkpt lat="47.87447" lon="-2.76079">
        <ele>95</ele>
        <time>2021-01-31T09:49:12Z</time>
      </trkpt>
      <trkpt lat="47.87449" lon="-2.76076">
        <ele>95</ele>
        <time>2021-01-31T09:49:14Z</time>
      </trkpt>
      <trkpt lat="47.87451" lon="-2.76074">
        <ele>94</ele>
        <time>2021-01-31T09:49:17Z</time>
      </trkpt>
      <trkpt lat="47.87453" lon="-2.76076">
        <ele>94</ele>
        <time>2021-01-31T09:49:24Z</time>
      </trkpt>
      <trkpt lat="47.87454" lon="-2.76078">
        <ele>94</ele>
        <time>2021-01-31T09:49:26Z</time>
      </trkpt>
      <trkpt lat="47.87456" lon="-2.7608">
        <ele>94</ele>
        <time>2021-01-31T09:49:30Z</time>
      </trkpt>
      <trkpt lat="47.87458" lon="-2.76082">
        <ele>94</ele>
        <time>2021-01-31T09:49:32Z</time>
      </trkpt>
      <trkpt lat="47.8746" lon="-2.76082">
        <ele>94</ele>
        <time>2021-01-31T09:49:35Z</time>
      </trkpt>
      <trkpt lat="47.87462" lon="-2.76082">
        <ele>94</ele>
        <time>2021-01-31T09:49:48Z</time>
      </trkpt>
      <trkpt lat="47.87462" lon="-2.76079">
        <ele>94</ele>
        <time>2021-01-31T09:49:53Z</time>
      </trkpt>
      <trkpt lat="47.87462" lon="-2.76072">
        <ele>95</ele>
        <time>2021-01-31T09:50:02Z</time>
      </trkpt>
      <trkpt lat="47.8746" lon="-2.76071">
        <ele>95</ele>
        <time>2021-01-31T09:50:05Z</time>
      </trkpt>
      <trkpt lat="47.87458" lon="-2.7607">
        <ele>95</ele>
        <time>2021-01-31T09:50:10Z</time>
      </trkpt>
      <trkpt lat="47.87457" lon="-2.76068">
        <ele>95</ele>
        <time>2021-01-31T09:50:12Z</time>
      </trkpt>
      <trkpt lat="47.87455" lon="-2.76065">
        <ele>95</ele>
        <time>2021-01-31T09:50:14Z</time>
      </trkpt>
      <trkpt lat="47.87453" lon="-2.76063">
        <ele>95</ele>
        <time>2021-01-31T09:50:17Z</time>
      </trkpt>
      <trkpt lat="47.8745" lon="-2.7606">
        <ele>95</ele>
        <time>2021-01-31T09:50:18Z</time>
      </trkpt>
      <trkpt lat="47.87448" lon="-2.76058">
        <ele>95</ele>
        <time>2021-01-31T09:50:20Z</time>
      </trkpt>
      <trkpt lat="47.87446" lon="-2.76055">
        <ele>95</ele>
        <time>2021-01-31T09:50:22Z</time>
      </trkpt>
      <trkpt lat="47.87444" lon="-2.76053">
        <ele>95</ele>
        <time>2021-01-31T09:50:25Z</time>
      </trkpt>
      <trkpt lat="47.87441" lon="-2.7605">
        <ele>95</ele>
        <time>2021-01-31T09:50:26Z</time>
      </trkpt>
      <trkpt lat="47.87439" lon="-2.76048">
        <ele>95</ele>
        <time>2021-01-31T09:50:28Z</time>
      </trkpt>
      <trkpt lat="47.87437" lon="-2.76045">
        <ele>95</ele>
        <time>2021-01-31T09:50:30Z</time>
      </trkpt>
      <trkpt lat="47.87434" lon="-2.76043">
        <ele>95</ele>
        <time>2021-01-31T09:50:32Z</time>
      </trkpt>
      <trkpt lat="47.87432" lon="-2.76041">
        <ele>95</ele>
        <time>2021-01-31T09:50:35Z</time>
      </trkpt>
      <trkpt lat="47.8743" lon="-2.76038">
        <ele>95</ele>
        <time>2021-01-31T09:50:37Z</time>
      </trkpt>
      <trkpt lat="47.87428" lon="-2.76035">
        <ele>95</ele>
        <time>2021-01-31T09:50:38Z</time>
      </trkpt>
      <trkpt lat="47.87425" lon="-2.76033">
        <ele>94</ele>
        <time>2021-01-31T09:50:40Z</time>
      </trkpt>
      <trkpt lat="47.87423" lon="-2.7603">
        <ele>94</ele>
        <time>2021-01-31T09:50:43Z</time>
      </trkpt>
      <trkpt lat="47.8742" lon="-2.76028">
        <ele>94</ele>
        <time>2021-01-31T09:50:44Z</time>
      </trkpt>
      <trkpt lat="47.87418" lon="-2.76025">
        <ele>94</ele>
        <time>2021-01-31T09:50:46Z</time>
      </trkpt>
      <trkpt lat="47.87415" lon="-2.76022">
        <ele>94</ele>
        <time>2021-01-31T09:50:49Z</time>
      </trkpt>
      <trkpt lat="47.87413" lon="-2.76019">
        <ele>94</ele>
        <time>2021-01-31T09:50:50Z</time>
      </trkpt>
      <trkpt lat="47.87411" lon="-2.76016">
        <ele>94</ele>
        <time>2021-01-31T09:50:52Z</time>
      </trkpt>
      <trkpt lat="47.87408" lon="-2.76013">
        <ele>94</ele>
        <time>2021-01-31T09:50:55Z</time>
      </trkpt>
      <trkpt lat="47.87406" lon="-2.7601">
        <ele>94</ele>
        <time>2021-01-31T09:50:56Z</time>
      </trkpt>
      <trkpt lat="47.87403" lon="-2.76007">
        <ele>94</ele>
        <time>2021-01-31T09:50:58Z</time>
      </trkpt>
      <trkpt lat="47.87401" lon="-2.76004">
        <ele>94</ele>
        <time>2021-01-31T09:51:00Z</time>
      </trkpt>
      <trkpt lat="47.87398" lon="-2.76001">
        <ele>94</ele>
        <time>2021-01-31T09:51:02Z</time>
      </trkpt>
      <trkpt lat="47.87395" lon="-2.75999">
        <ele>94</ele>
        <time>2021-01-31T09:51:04Z</time>
      </trkpt>
      <trkpt lat="47.87393" lon="-2.75996">
        <ele>94</ele>
        <time>2021-01-31T09:51:06Z</time>
      </trkpt>
      <trkpt lat="47.8739" lon="-2.75993">
        <ele>94</ele>
        <time>2021-01-31T09:51:08Z</time>
      </trkpt>
      <trkpt lat="47.87388" lon="-2.7599">
        <ele>94</ele>
        <time>2021-01-31T09:51:10Z</time>
      </trkpt>
      <trkpt lat="47.87385" lon="-2.75987">
        <ele>94</ele>
        <time>2021-01-31T09:51:12Z</time>
      </trkpt>
      <trkpt lat="47.87383" lon="-2.75984">
        <ele>94</ele>
        <time>2021-01-31T09:51:14Z</time>
      </trkpt>
      <trkpt lat="47.8738" lon="-2.75981">
        <ele>94</ele>
        <time>2021-01-31T09:51:16Z</time>
      </trkpt>
      <trkpt lat="47.87378" lon="-2.75979">
        <ele>94</ele>
        <time>2021-01-31T09:51:18Z</time>
      </trkpt>
      <trkpt lat="47.87375" lon="-2.75976">
        <ele>94</ele>
        <time>2021-01-31T09:51:20Z</time>
      </trkpt>
      <trkpt lat="47.87373" lon="-2.75973">
        <ele>94</ele>
        <time>2021-01-31T09:51:22Z</time>
      </trkpt>
      <trkpt lat="47.8737" lon="-2.7597">
        <ele>94</ele>
        <time>2021-01-31T09:51:24Z</time>
      </trkpt>
      <trkpt lat="47.87367" lon="-2.75967">
        <ele>94</ele>
        <time>2021-01-31T09:51:26Z</time>
      </trkpt>
      <trkpt lat="47.87366" lon="-2.75966">
        <ele>94</ele>
        <time>2021-01-31T09:51:27Z</time>
      </trkpt>
      <trkpt lat="47.87363" lon="-2.75963">
        <ele>94</ele>
        <time>2021-01-31T09:51:29Z</time>
      </trkpt>
      <trkpt lat="47.87361" lon="-2.7596">
        <ele>94</ele>
        <time>2021-01-31T09:51:32Z</time>
      </trkpt>
      <trkpt lat="47.87358" lon="-2.75956">
        <ele>94</ele>
        <time>2021-01-31T09:51:33Z</time>
      </trkpt>
      <trkpt lat="47.87356" lon="-2.75953">
        <ele>94</ele>
        <time>2021-01-31T09:51:35Z</time>
      </trkpt>
      <trkpt lat="47.87354" lon="-2.7595">
        <ele>94</ele>
        <time>2021-01-31T09:51:38Z</time>
      </trkpt>
      <trkpt lat="47.87351" lon="-2.75947">
        <ele>94</ele>
        <time>2021-01-31T09:51:39Z</time>
      </trkpt>
      <trkpt lat="47.87348" lon="-2.75945">
        <ele>93</ele>
        <time>2021-01-31T09:51:41Z</time>
      </trkpt>
      <trkpt lat="47.87346" lon="-2.75942">
        <ele>93</ele>
        <time>2021-01-31T09:51:43Z</time>
      </trkpt>
      <trkpt lat="47.87343" lon="-2.75939">
        <ele>93</ele>
        <time>2021-01-31T09:51:45Z</time>
      </trkpt>
      <trkpt lat="47.87341" lon="-2.75936">
        <ele>93</ele>
        <time>2021-01-31T09:51:48Z</time>
      </trkpt>
      <trkpt lat="47.87338" lon="-2.75933">
        <ele>93</ele>
        <time>2021-01-31T09:51:49Z</time>
      </trkpt>
      <trkpt lat="47.87336" lon="-2.75931">
        <ele>93</ele>
        <time>2021-01-31T09:51:51Z</time>
      </trkpt>
      <trkpt lat="47.87334" lon="-2.75928">
        <ele>93</ele>
        <time>2021-01-31T09:51:54Z</time>
      </trkpt>
      <trkpt lat="47.87332" lon="-2.75925">
        <ele>93</ele>
        <time>2021-01-31T09:51:55Z</time>
      </trkpt>
      <trkpt lat="47.87331" lon="-2.75922">
        <ele>93</ele>
        <time>2021-01-31T09:51:57Z</time>
      </trkpt>
      <trkpt lat="47.8733" lon="-2.75918">
        <ele>93</ele>
        <time>2021-01-31T09:51:59Z</time>
      </trkpt>
      <trkpt lat="47.87329" lon="-2.75915">
        <ele>92</ele>
        <time>2021-01-31T09:52:01Z</time>
      </trkpt>
      <trkpt lat="47.87328" lon="-2.75912">
        <ele>92</ele>
        <time>2021-01-31T09:52:03Z</time>
      </trkpt>
      <trkpt lat="47.87325" lon="-2.75909">
        <ele>92</ele>
        <time>2021-01-31T09:52:05Z</time>
      </trkpt>
      <trkpt lat="47.87323" lon="-2.75906">
        <ele>92</ele>
        <time>2021-01-31T09:52:07Z</time>
      </trkpt>
      <trkpt lat="47.87321" lon="-2.75904">
        <ele>92</ele>
        <time>2021-01-31T09:52:09Z</time>
      </trkpt>
      <trkpt lat="47.87319" lon="-2.75902">
        <ele>92</ele>
        <time>2021-01-31T09:52:12Z</time>
      </trkpt>
      <trkpt lat="47.87317" lon="-2.759">
        <ele>92</ele>
        <time>2021-01-31T09:52:14Z</time>
      </trkpt>
      <trkpt lat="47.87315" lon="-2.75899">
        <ele>92</ele>
        <time>2021-01-31T09:52:17Z</time>
      </trkpt>
      <trkpt lat="47.87314" lon="-2.75896">
        <ele>91</ele>
        <time>2021-01-31T09:52:19Z</time>
      </trkpt>
      <trkpt lat="47.87312" lon="-2.75893">
        <ele>91</ele>
        <time>2021-01-31T09:52:21Z</time>
      </trkpt>
      <trkpt lat="47.87311" lon="-2.75891">
        <ele>91</ele>
        <time>2021-01-31T09:52:24Z</time>
      </trkpt>
      <trkpt lat="47.8731" lon="-2.75888">
        <ele>91</ele>
        <time>2021-01-31T09:52:27Z</time>
      </trkpt>
      <trkpt lat="47.87309" lon="-2.75884">
        <ele>91</ele>
        <time>2021-01-31T09:52:29Z</time>
      </trkpt>
      <trkpt lat="47.87307" lon="-2.75876">
        <ele>91</ele>
        <time>2021-01-31T09:52:32Z</time>
      </trkpt>
      <trkpt lat="47.87306" lon="-2.75873">
        <ele>91</ele>
        <time>2021-01-31T09:52:33Z</time>
      </trkpt>
      <trkpt lat="47.87305" lon="-2.7587">
        <ele>91</ele>
        <time>2021-01-31T09:52:35Z</time>
      </trkpt>
      <trkpt lat="47.87307" lon="-2.75867">
        <ele>91</ele>
        <time>2021-01-31T09:52:37Z</time>
      </trkpt>
      <trkpt lat="47.87309" lon="-2.75864">
        <ele>90</ele>
        <time>2021-01-31T09:52:39Z</time>
      </trkpt>
      <trkpt lat="47.87311" lon="-2.75861">
        <ele>90</ele>
        <time>2021-01-31T09:52:41Z</time>
      </trkpt>
      <trkpt lat="47.87313" lon="-2.75857">
        <ele>90</ele>
        <time>2021-01-31T09:52:43Z</time>
      </trkpt>
      <trkpt lat="47.87315" lon="-2.75854">
        <ele>90</ele>
        <time>2021-01-31T09:52:46Z</time>
      </trkpt>
      <trkpt lat="47.87316" lon="-2.75849">
        <ele>90</ele>
        <time>2021-01-31T09:52:47Z</time>
      </trkpt>
      <trkpt lat="47.87315" lon="-2.75845">
        <ele>90</ele>
        <time>2021-01-31T09:52:49Z</time>
      </trkpt>
      <trkpt lat="47.87315" lon="-2.75841">
        <ele>90</ele>
        <time>2021-01-31T09:52:51Z</time>
      </trkpt>
      <trkpt lat="47.87315" lon="-2.75837">
        <ele>90</ele>
        <time>2021-01-31T09:52:53Z</time>
      </trkpt>
      <trkpt lat="47.87317" lon="-2.75834">
        <ele>89</ele>
        <time>2021-01-31T09:52:55Z</time>
      </trkpt>
      <trkpt lat="47.87318" lon="-2.7583">
        <ele>89</ele>
        <time>2021-01-31T09:52:57Z</time>
      </trkpt>
      <trkpt lat="47.8732" lon="-2.75827">
        <ele>89</ele>
        <time>2021-01-31T09:52:59Z</time>
      </trkpt>
      <trkpt lat="47.87322" lon="-2.75825">
        <ele>90</ele>
        <time>2021-01-31T09:53:02Z</time>
      </trkpt>
      <trkpt lat="47.87323" lon="-2.75822">
        <ele>90</ele>
        <time>2021-01-31T09:53:03Z</time>
      </trkpt>
      <trkpt lat="47.87324" lon="-2.75818">
        <ele>90</ele>
        <time>2021-01-31T09:53:05Z</time>
      </trkpt>
      <trkpt lat="47.87325" lon="-2.75813">
        <ele>90</ele>
        <time>2021-01-31T09:53:07Z</time>
      </trkpt>
      <trkpt lat="47.87325" lon="-2.75811">
        <ele>90</ele>
        <time>2021-01-31T09:53:09Z</time>
      </trkpt>
      <trkpt lat="47.87323" lon="-2.75808">
        <ele>90</ele>
        <time>2021-01-31T09:53:11Z</time>
      </trkpt>
      <trkpt lat="47.87322" lon="-2.75806">
        <ele>90</ele>
        <time>2021-01-31T09:53:13Z</time>
      </trkpt>
      <trkpt lat="47.8732" lon="-2.75803">
        <ele>90</ele>
        <time>2021-01-31T09:53:14Z</time>
      </trkpt>
      <trkpt lat="47.87316" lon="-2.75798">
        <ele>90</ele>
        <time>2021-01-31T09:53:17Z</time>
      </trkpt>
      <trkpt lat="47.87314" lon="-2.75795">
        <ele>90</ele>
        <time>2021-01-31T09:53:19Z</time>
      </trkpt>
      <trkpt lat="47.87312" lon="-2.75794">
        <ele>90</ele>
        <time>2021-01-31T09:53:20Z</time>
      </trkpt>
      <trkpt lat="47.8731" lon="-2.75792">
        <ele>90</ele>
        <time>2021-01-31T09:53:22Z</time>
      </trkpt>
      <trkpt lat="47.87308" lon="-2.7579">
        <ele>90</ele>
        <time>2021-01-31T09:53:24Z</time>
      </trkpt>
      <trkpt lat="47.87307" lon="-2.75787">
        <ele>90</ele>
        <time>2021-01-31T09:53:26Z</time>
      </trkpt>
      <trkpt lat="47.87305" lon="-2.75784">
        <ele>90</ele>
        <time>2021-01-31T09:53:28Z</time>
      </trkpt>
      <trkpt lat="47.87303" lon="-2.75781">
        <ele>90</ele>
        <time>2021-01-31T09:53:30Z</time>
      </trkpt>
      <trkpt lat="47.873" lon="-2.75777">
        <ele>90</ele>
        <time>2021-01-31T09:53:32Z</time>
      </trkpt>
      <trkpt lat="47.87298" lon="-2.75772">
        <ele>90</ele>
        <time>2021-01-31T09:53:35Z</time>
      </trkpt>
      <trkpt lat="47.87297" lon="-2.75767">
        <ele>90</ele>
        <time>2021-01-31T09:53:36Z</time>
      </trkpt>
      <trkpt lat="47.87294" lon="-2.75763">
        <ele>89</ele>
        <time>2021-01-31T09:53:38Z</time>
      </trkpt>
      <trkpt lat="47.87292" lon="-2.75759">
        <ele>89</ele>
        <time>2021-01-31T09:53:40Z</time>
      </trkpt>
      <trkpt lat="47.87291" lon="-2.75754">
        <ele>89</ele>
        <time>2021-01-31T09:53:42Z</time>
      </trkpt>
      <trkpt lat="47.8729" lon="-2.75752">
        <ele>89</ele>
        <time>2021-01-31T09:53:43Z</time>
      </trkpt>
      <trkpt lat="47.87289" lon="-2.75749">
        <ele>89</ele>
        <time>2021-01-31T09:53:44Z</time>
      </trkpt>
      <trkpt lat="47.87288" lon="-2.75745">
        <ele>89</ele>
        <time>2021-01-31T09:53:46Z</time>
      </trkpt>
      <trkpt lat="47.87287" lon="-2.7574">
        <ele>90</ele>
        <time>2021-01-31T09:53:48Z</time>
      </trkpt>
      <trkpt lat="47.87285" lon="-2.75736">
        <ele>90</ele>
        <time>2021-01-31T09:53:51Z</time>
      </trkpt>
      <trkpt lat="47.87284" lon="-2.75731">
        <ele>90</ele>
        <time>2021-01-31T09:53:52Z</time>
      </trkpt>
      <trkpt lat="47.87283" lon="-2.75727">
        <ele>90</ele>
        <time>2021-01-31T09:53:54Z</time>
      </trkpt>
      <trkpt lat="47.87283" lon="-2.75723">
        <ele>90</ele>
        <time>2021-01-31T09:53:57Z</time>
      </trkpt>
      <trkpt lat="47.87283" lon="-2.75719">
        <ele>90</ele>
        <time>2021-01-31T09:53:58Z</time>
      </trkpt>
      <trkpt lat="47.87282" lon="-2.75715">
        <ele>90</ele>
        <time>2021-01-31T09:54:01Z</time>
      </trkpt>
      <trkpt lat="47.8728" lon="-2.7571">
        <ele>90</ele>
        <time>2021-01-31T09:54:02Z</time>
      </trkpt>
      <trkpt lat="47.87279" lon="-2.75706">
        <ele>90</ele>
        <time>2021-01-31T09:54:04Z</time>
      </trkpt>
      <trkpt lat="47.87279" lon="-2.75703">
        <ele>90</ele>
        <time>2021-01-31T09:54:06Z</time>
      </trkpt>
      <trkpt lat="47.87278" lon="-2.75699">
        <ele>90</ele>
        <time>2021-01-31T09:54:08Z</time>
      </trkpt>
      <trkpt lat="47.87277" lon="-2.75695">
        <ele>90</ele>
        <time>2021-01-31T09:54:10Z</time>
      </trkpt>
      <trkpt lat="47.87275" lon="-2.75692">
        <ele>90</ele>
        <time>2021-01-31T09:54:12Z</time>
      </trkpt>
      <trkpt lat="47.87273" lon="-2.75689">
        <ele>90</ele>
        <time>2021-01-31T09:54:14Z</time>
      </trkpt>
      <trkpt lat="47.87272" lon="-2.75685">
        <ele>90</ele>
        <time>2021-01-31T09:54:16Z</time>
      </trkpt>
      <trkpt lat="47.8727" lon="-2.75682">
        <ele>90</ele>
        <time>2021-01-31T09:54:18Z</time>
      </trkpt>
      <trkpt lat="47.87269" lon="-2.75679">
        <ele>90</ele>
        <time>2021-01-31T09:54:19Z</time>
      </trkpt>
      <trkpt lat="47.87267" lon="-2.75676">
        <ele>90</ele>
        <time>2021-01-31T09:54:21Z</time>
      </trkpt>
      <trkpt lat="47.87265" lon="-2.75675">
        <ele>90</ele>
        <time>2021-01-31T09:54:22Z</time>
      </trkpt>
      <trkpt lat="47.87261" lon="-2.75673">
        <ele>90</ele>
        <time>2021-01-31T09:54:24Z</time>
      </trkpt>
      <trkpt lat="47.87259" lon="-2.75671">
        <ele>90</ele>
        <time>2021-01-31T09:54:25Z</time>
      </trkpt>
      <trkpt lat="47.87258" lon="-2.75669">
        <ele>90</ele>
        <time>2021-01-31T09:54:27Z</time>
      </trkpt>
      <trkpt lat="47.87255" lon="-2.75667">
        <ele>90</ele>
        <time>2021-01-31T09:54:28Z</time>
      </trkpt>
      <trkpt lat="47.87254" lon="-2.75665">
        <ele>90</ele>
        <time>2021-01-31T09:54:29Z</time>
      </trkpt>
      <trkpt lat="47.87251" lon="-2.75662">
        <ele>90</ele>
        <time>2021-01-31T09:54:32Z</time>
      </trkpt>
      <trkpt lat="47.87248" lon="-2.7566">
        <ele>90</ele>
        <time>2021-01-31T09:54:33Z</time>
      </trkpt>
      <trkpt lat="47.87245" lon="-2.75658">
        <ele>90</ele>
        <time>2021-01-31T09:54:35Z</time>
      </trkpt>
      <trkpt lat="47.87242" lon="-2.75656">
        <ele>90</ele>
        <time>2021-01-31T09:54:37Z</time>
      </trkpt>
      <trkpt lat="47.87238" lon="-2.75656">
        <ele>89</ele>
        <time>2021-01-31T09:54:39Z</time>
      </trkpt>
      <trkpt lat="47.87236" lon="-2.75654">
        <ele>89</ele>
        <time>2021-01-31T09:54:42Z</time>
      </trkpt>
      <trkpt lat="47.87234" lon="-2.75653">
        <ele>89</ele>
        <time>2021-01-31T09:54:43Z</time>
      </trkpt>
      <trkpt lat="47.87232" lon="-2.75652">
        <ele>89</ele>
        <time>2021-01-31T09:54:45Z</time>
      </trkpt>
      <trkpt lat="47.8723" lon="-2.75651">
        <ele>89</ele>
        <time>2021-01-31T09:54:47Z</time>
      </trkpt>
      <trkpt lat="47.87229" lon="-2.75649">
        <ele>89</ele>
        <time>2021-01-31T09:54:49Z</time>
      </trkpt>
      <trkpt lat="47.87227" lon="-2.75646">
        <ele>89</ele>
        <time>2021-01-31T09:54:51Z</time>
      </trkpt>
      <trkpt lat="47.87226" lon="-2.75644">
        <ele>90</ele>
        <time>2021-01-31T09:54:52Z</time>
      </trkpt>
      <trkpt lat="47.87224" lon="-2.75639">
        <ele>90</ele>
        <time>2021-01-31T09:54:54Z</time>
      </trkpt>
      <trkpt lat="47.87222" lon="-2.75635">
        <ele>90</ele>
        <time>2021-01-31T09:54:56Z</time>
      </trkpt>
      <trkpt lat="47.87221" lon="-2.75632">
        <ele>90</ele>
        <time>2021-01-31T09:54:57Z</time>
      </trkpt>
      <trkpt lat="47.87219" lon="-2.75628">
        <ele>89</ele>
        <time>2021-01-31T09:54:59Z</time>
      </trkpt>
      <trkpt lat="47.87218" lon="-2.75625">
        <ele>90</ele>
        <time>2021-01-31T09:55:01Z</time>
      </trkpt>
      <trkpt lat="47.87217" lon="-2.75622">
        <ele>90</ele>
        <time>2021-01-31T09:55:03Z</time>
      </trkpt>
      <trkpt lat="47.87216" lon="-2.75619">
        <ele>90</ele>
        <time>2021-01-31T09:55:05Z</time>
      </trkpt>
      <trkpt lat="47.87214" lon="-2.75615">
        <ele>90</ele>
        <time>2021-01-31T09:55:07Z</time>
      </trkpt>
      <trkpt lat="47.87213" lon="-2.75613">
        <ele>90</ele>
        <time>2021-01-31T09:55:08Z</time>
      </trkpt>
      <trkpt lat="47.87211" lon="-2.75609">
        <ele>90</ele>
        <time>2021-01-31T09:55:11Z</time>
      </trkpt>
      <trkpt lat="47.87209" lon="-2.75605">
        <ele>90</ele>
        <time>2021-01-31T09:55:12Z</time>
      </trkpt>
      <trkpt lat="47.87209" lon="-2.75602">
        <ele>90</ele>
        <time>2021-01-31T09:55:13Z</time>
      </trkpt>
      <trkpt lat="47.87207" lon="-2.75597">
        <ele>90</ele>
        <time>2021-01-31T09:55:15Z</time>
      </trkpt>
      <trkpt lat="47.87206" lon="-2.75595">
        <ele>90</ele>
        <time>2021-01-31T09:55:16Z</time>
      </trkpt>
      <trkpt lat="47.87205" lon="-2.75592">
        <ele>90</ele>
        <time>2021-01-31T09:55:17Z</time>
      </trkpt>
      <trkpt lat="47.87203" lon="-2.75587">
        <ele>90</ele>
        <time>2021-01-31T09:55:19Z</time>
      </trkpt>
      <trkpt lat="47.87202" lon="-2.75583">
        <ele>90</ele>
        <time>2021-01-31T09:55:21Z</time>
      </trkpt>
      <trkpt lat="47.872" lon="-2.75578">
        <ele>90</ele>
        <time>2021-01-31T09:55:23Z</time>
      </trkpt>
      <trkpt lat="47.87199" lon="-2.75575">
        <ele>90</ele>
        <time>2021-01-31T09:55:26Z</time>
      </trkpt>
      <trkpt lat="47.87197" lon="-2.75571">
        <ele>90</ele>
        <time>2021-01-31T09:55:27Z</time>
      </trkpt>
      <trkpt lat="47.87196" lon="-2.75568">
        <ele>90</ele>
        <time>2021-01-31T09:55:29Z</time>
      </trkpt>
      <trkpt lat="47.87194" lon="-2.75564">
        <ele>90</ele>
        <time>2021-01-31T09:55:32Z</time>
      </trkpt>
      <trkpt lat="47.87193" lon="-2.7556">
        <ele>90</ele>
        <time>2021-01-31T09:55:33Z</time>
      </trkpt>
      <trkpt lat="47.87191" lon="-2.75556">
        <ele>90</ele>
        <time>2021-01-31T09:55:35Z</time>
      </trkpt>
      <trkpt lat="47.8719" lon="-2.75553">
        <ele>89</ele>
        <time>2021-01-31T09:55:37Z</time>
      </trkpt>
      <trkpt lat="47.87188" lon="-2.7555">
        <ele>89</ele>
        <time>2021-01-31T09:55:39Z</time>
      </trkpt>
      <trkpt lat="47.87189" lon="-2.75547">
        <ele>89</ele>
        <time>2021-01-31T09:55:43Z</time>
      </trkpt>
      <trkpt lat="47.87191" lon="-2.75545">
        <ele>89</ele>
        <time>2021-01-31T09:55:45Z</time>
      </trkpt>
      <trkpt lat="47.87192" lon="-2.75542">
        <ele>89</ele>
        <time>2021-01-31T09:55:49Z</time>
      </trkpt>
      <trkpt lat="47.87192" lon="-2.75539">
        <ele>89</ele>
        <time>2021-01-31T09:55:50Z</time>
      </trkpt>
      <trkpt lat="47.87193" lon="-2.75536">
        <ele>90</ele>
        <time>2021-01-31T09:55:53Z</time>
      </trkpt>
      <trkpt lat="47.87194" lon="-2.75533">
        <ele>90</ele>
        <time>2021-01-31T09:55:54Z</time>
      </trkpt>
      <trkpt lat="47.87195" lon="-2.7553">
        <ele>90</ele>
        <time>2021-01-31T09:55:57Z</time>
      </trkpt>
      <trkpt lat="47.87196" lon="-2.75528">
        <ele>90</ele>
        <time>2021-01-31T09:55:59Z</time>
      </trkpt>
      <trkpt lat="47.87197" lon="-2.75524">
        <ele>90</ele>
        <time>2021-01-31T09:56:01Z</time>
      </trkpt>
      <trkpt lat="47.87199" lon="-2.7552">
        <ele>90</ele>
        <time>2021-01-31T09:56:04Z</time>
      </trkpt>
      <trkpt lat="47.87201" lon="-2.75517">
        <ele>90</ele>
        <time>2021-01-31T09:56:05Z</time>
      </trkpt>
      <trkpt lat="47.87202" lon="-2.75514">
        <ele>91</ele>
        <time>2021-01-31T09:56:07Z</time>
      </trkpt>
      <trkpt lat="47.87202" lon="-2.7551">
        <ele>91</ele>
        <time>2021-01-31T09:56:10Z</time>
      </trkpt>
      <trkpt lat="47.87203" lon="-2.75507">
        <ele>91</ele>
        <time>2021-01-31T09:56:12Z</time>
      </trkpt>
      <trkpt lat="47.87206" lon="-2.75501">
        <ele>91</ele>
        <time>2021-01-31T09:56:16Z</time>
      </trkpt>
      <trkpt lat="47.87208" lon="-2.75493">
        <ele>92</ele>
        <time>2021-01-31T09:56:21Z</time>
      </trkpt>
      <trkpt lat="47.8721" lon="-2.75489">
        <ele>93</ele>
        <time>2021-01-31T09:56:23Z</time>
      </trkpt>
      <trkpt lat="47.87215" lon="-2.75479">
        <ele>93</ele>
        <time>2021-01-31T09:56:28Z</time>
      </trkpt>
      <trkpt lat="47.87217" lon="-2.75476">
        <ele>93</ele>
        <time>2021-01-31T09:56:31Z</time>
      </trkpt>
      <trkpt lat="47.87223" lon="-2.75465">
        <ele>93</ele>
        <time>2021-01-31T09:56:36Z</time>
      </trkpt>
      <trkpt lat="47.87225" lon="-2.75461">
        <ele>93</ele>
        <time>2021-01-31T09:56:37Z</time>
      </trkpt>
      <trkpt lat="47.87228" lon="-2.75454">
        <ele>93</ele>
        <time>2021-01-31T09:56:41Z</time>
      </trkpt>
      <trkpt lat="47.8723" lon="-2.7545">
        <ele>93</ele>
        <time>2021-01-31T09:56:43Z</time>
      </trkpt>
      <trkpt lat="47.87231" lon="-2.75446">
        <ele>94</ele>
        <time>2021-01-31T09:56:45Z</time>
      </trkpt>
      <trkpt lat="47.87233" lon="-2.75443">
        <ele>94</ele>
        <time>2021-01-31T09:56:47Z</time>
      </trkpt>
      <trkpt lat="47.87235" lon="-2.7544">
        <ele>94</ele>
        <time>2021-01-31T09:56:49Z</time>
      </trkpt>
      <trkpt lat="47.87236" lon="-2.75438">
        <ele>94</ele>
        <time>2021-01-31T09:56:50Z</time>
      </trkpt>
      <trkpt lat="47.87239" lon="-2.75434">
        <ele>94</ele>
        <time>2021-01-31T09:56:52Z</time>
      </trkpt>
      <trkpt lat="47.87241" lon="-2.7543">
        <ele>94</ele>
        <time>2021-01-31T09:56:55Z</time>
      </trkpt>
      <trkpt lat="47.87243" lon="-2.75426">
        <ele>94</ele>
        <time>2021-01-31T09:56:57Z</time>
      </trkpt>
      <trkpt lat="47.87244" lon="-2.75423">
        <ele>94</ele>
        <time>2021-01-31T09:56:58Z</time>
      </trkpt>
      <trkpt lat="47.87247" lon="-2.7542">
        <ele>94</ele>
        <time>2021-01-31T09:57:00Z</time>
      </trkpt>
      <trkpt lat="47.87249" lon="-2.75417">
        <ele>94</ele>
        <time>2021-01-31T09:57:02Z</time>
      </trkpt>
      <trkpt lat="47.87251" lon="-2.75414">
        <ele>96</ele>
        <time>2021-01-31T09:57:04Z</time>
      </trkpt>
      <trkpt lat="47.87253" lon="-2.75411">
        <ele>96</ele>
        <time>2021-01-31T09:57:06Z</time>
      </trkpt>
      <trkpt lat="47.87254" lon="-2.75407">
        <ele>96</ele>
        <time>2021-01-31T09:57:08Z</time>
      </trkpt>
      <trkpt lat="47.87256" lon="-2.75403">
        <ele>96</ele>
        <time>2021-01-31T09:57:10Z</time>
      </trkpt>
      <trkpt lat="47.87258" lon="-2.754">
        <ele>96</ele>
        <time>2021-01-31T09:57:12Z</time>
      </trkpt>
      <trkpt lat="47.87264" lon="-2.75389">
        <ele>97</ele>
        <time>2021-01-31T09:57:18Z</time>
      </trkpt>
      <trkpt lat="47.87269" lon="-2.75378">
        <ele>98</ele>
        <time>2021-01-31T09:57:24Z</time>
      </trkpt>
      <trkpt lat="47.87276" lon="-2.75365">
        <ele>98</ele>
        <time>2021-01-31T09:57:31Z</time>
      </trkpt>
      <trkpt lat="47.87283" lon="-2.75355">
        <ele>98</ele>
        <time>2021-01-31T09:57:36Z</time>
      </trkpt>
      <trkpt lat="47.87286" lon="-2.75351">
        <ele>99</ele>
        <time>2021-01-31T09:57:38Z</time>
      </trkpt>
      <trkpt lat="47.87289" lon="-2.75347">
        <ele>99</ele>
        <time>2021-01-31T09:57:40Z</time>
      </trkpt>
      <trkpt lat="47.87291" lon="-2.75345">
        <ele>99</ele>
        <time>2021-01-31T09:57:41Z</time>
      </trkpt>
      <trkpt lat="47.87293" lon="-2.75343">
        <ele>99</ele>
        <time>2021-01-31T09:57:43Z</time>
      </trkpt>
      <trkpt lat="47.87297" lon="-2.7534">
        <ele>100</ele>
        <time>2021-01-31T09:57:44Z</time>
      </trkpt>
      <trkpt lat="47.87299" lon="-2.75337">
        <ele>100</ele>
        <time>2021-01-31T09:57:46Z</time>
      </trkpt>
      <trkpt lat="47.87301" lon="-2.75335">
        <ele>101</ele>
        <time>2021-01-31T09:57:48Z</time>
      </trkpt>
      <trkpt lat="47.87303" lon="-2.75333">
        <ele>101</ele>
        <time>2021-01-31T09:57:50Z</time>
      </trkpt>
      <trkpt lat="47.87307" lon="-2.75329">
        <ele>101</ele>
        <time>2021-01-31T09:57:53Z</time>
      </trkpt>
      <trkpt lat="47.8731" lon="-2.75327">
        <ele>101</ele>
        <time>2021-01-31T09:57:55Z</time>
      </trkpt>
      <trkpt lat="47.87312" lon="-2.75326">
        <ele>102</ele>
        <time>2021-01-31T09:57:57Z</time>
      </trkpt>
      <trkpt lat="47.87314" lon="-2.75323">
        <ele>102</ele>
        <time>2021-01-31T09:57:59Z</time>
      </trkpt>
      <trkpt lat="47.87316" lon="-2.75322">
        <ele>102</ele>
        <time>2021-01-31T09:58:01Z</time>
      </trkpt>
      <trkpt lat="47.87319" lon="-2.7532">
        <ele>102</ele>
        <time>2021-01-31T09:58:03Z</time>
      </trkpt>
      <trkpt lat="47.87322" lon="-2.75318">
        <ele>102</ele>
        <time>2021-01-31T09:58:06Z</time>
      </trkpt>
      <trkpt lat="47.87325" lon="-2.75316">
        <ele>102</ele>
        <time>2021-01-31T09:58:07Z</time>
      </trkpt>
      <trkpt lat="47.87328" lon="-2.75314">
        <ele>102</ele>
        <time>2021-01-31T09:58:09Z</time>
      </trkpt>
      <trkpt lat="47.8733" lon="-2.75313">
        <ele>102</ele>
        <time>2021-01-31T09:58:11Z</time>
      </trkpt>
      <trkpt lat="47.87334" lon="-2.7531">
        <ele>102</ele>
        <time>2021-01-31T09:58:14Z</time>
      </trkpt>
      <trkpt lat="47.87339" lon="-2.75307">
        <ele>102</ele>
        <time>2021-01-31T09:58:17Z</time>
      </trkpt>
      <trkpt lat="47.87341" lon="-2.75307">
        <ele>102</ele>
        <time>2021-01-31T09:58:18Z</time>
      </trkpt>
      <trkpt lat="47.87344" lon="-2.75305">
        <ele>103</ele>
        <time>2021-01-31T09:58:20Z</time>
      </trkpt>
      <trkpt lat="47.87346" lon="-2.75304">
        <ele>103</ele>
        <time>2021-01-31T09:58:21Z</time>
      </trkpt>
      <trkpt lat="47.87349" lon="-2.75303">
        <ele>103</ele>
        <time>2021-01-31T09:58:23Z</time>
      </trkpt>
      <trkpt lat="47.87351" lon="-2.75301">
        <ele>103</ele>
        <time>2021-01-31T09:58:25Z</time>
      </trkpt>
      <trkpt lat="47.87354" lon="-2.75299">
        <ele>103</ele>
        <time>2021-01-31T09:58:27Z</time>
      </trkpt>
      <trkpt lat="47.87356" lon="-2.75298">
        <ele>103</ele>
        <time>2021-01-31T09:58:29Z</time>
      </trkpt>
      <trkpt lat="47.8736" lon="-2.75296">
        <ele>104</ele>
        <time>2021-01-31T09:58:31Z</time>
      </trkpt>
      <trkpt lat="47.87362" lon="-2.75294">
        <ele>104</ele>
        <time>2021-01-31T09:58:33Z</time>
      </trkpt>
      <trkpt lat="47.87365" lon="-2.75293">
        <ele>104</ele>
        <time>2021-01-31T09:58:35Z</time>
      </trkpt>
      <trkpt lat="47.87367" lon="-2.75291">
        <ele>105</ele>
        <time>2021-01-31T09:58:38Z</time>
      </trkpt>
      <trkpt lat="47.87369" lon="-2.7529">
        <ele>105</ele>
        <time>2021-01-31T09:58:39Z</time>
      </trkpt>
      <trkpt lat="47.87372" lon="-2.75289">
        <ele>105</ele>
        <time>2021-01-31T09:58:41Z</time>
      </trkpt>
      <trkpt lat="47.87374" lon="-2.75287">
        <ele>105</ele>
        <time>2021-01-31T09:58:42Z</time>
      </trkpt>
      <trkpt lat="47.87375" lon="-2.75286">
        <ele>105</ele>
        <time>2021-01-31T09:58:43Z</time>
      </trkpt>
      <trkpt lat="47.87378" lon="-2.75283">
        <ele>105</ele>
        <time>2021-01-31T09:58:46Z</time>
      </trkpt>
      <trkpt lat="47.87381" lon="-2.75281">
        <ele>105</ele>
        <time>2021-01-31T09:58:47Z</time>
      </trkpt>
      <trkpt lat="47.87384" lon="-2.75279">
        <ele>105</ele>
        <time>2021-01-31T09:58:49Z</time>
      </trkpt>
      <trkpt lat="47.87387" lon="-2.75276">
        <ele>105</ele>
        <time>2021-01-31T09:58:51Z</time>
      </trkpt>
      <trkpt lat="47.87388" lon="-2.75275">
        <ele>105</ele>
        <time>2021-01-31T09:58:52Z</time>
      </trkpt>
      <trkpt lat="47.87391" lon="-2.75274">
        <ele>105</ele>
        <time>2021-01-31T09:58:54Z</time>
      </trkpt>
      <trkpt lat="47.87393" lon="-2.75272">
        <ele>105</ele>
        <time>2021-01-31T09:58:56Z</time>
      </trkpt>
      <trkpt lat="47.87396" lon="-2.7527">
        <ele>105</ele>
        <time>2021-01-31T09:58:59Z</time>
      </trkpt>
      <trkpt lat="47.87399" lon="-2.75268">
        <ele>105</ele>
        <time>2021-01-31T09:59:00Z</time>
      </trkpt>
      <trkpt lat="47.87401" lon="-2.75266">
        <ele>105</ele>
        <time>2021-01-31T09:59:03Z</time>
      </trkpt>
      <trkpt lat="47.87404" lon="-2.75263">
        <ele>105</ele>
        <time>2021-01-31T09:59:04Z</time>
      </trkpt>
      <trkpt lat="47.87408" lon="-2.75261">
        <ele>105</ele>
        <time>2021-01-31T09:59:06Z</time>
      </trkpt>
      <trkpt lat="47.87411" lon="-2.75258">
        <ele>105</ele>
        <time>2021-01-31T09:59:08Z</time>
      </trkpt>
      <trkpt lat="47.87412" lon="-2.75256">
        <ele>105</ele>
        <time>2021-01-31T09:59:09Z</time>
      </trkpt>
      <trkpt lat="47.87414" lon="-2.75252">
        <ele>105</ele>
        <time>2021-01-31T09:59:11Z</time>
      </trkpt>
      <trkpt lat="47.87415" lon="-2.75247">
        <ele>105</ele>
        <time>2021-01-31T09:59:13Z</time>
      </trkpt>
      <trkpt lat="47.87417" lon="-2.75243">
        <ele>105</ele>
        <time>2021-01-31T09:59:15Z</time>
      </trkpt>
      <trkpt lat="47.87419" lon="-2.75239">
        <ele>105</ele>
        <time>2021-01-31T09:59:17Z</time>
      </trkpt>
      <trkpt lat="47.87423" lon="-2.75234">
        <ele>105</ele>
        <time>2021-01-31T09:59:20Z</time>
      </trkpt>
      <trkpt lat="47.87426" lon="-2.75231">
        <ele>106</ele>
        <time>2021-01-31T09:59:22Z</time>
      </trkpt>
      <trkpt lat="47.87428" lon="-2.7523">
        <ele>106</ele>
        <time>2021-01-31T09:59:24Z</time>
      </trkpt>
      <trkpt lat="47.87431" lon="-2.75228">
        <ele>106</ele>
        <time>2021-01-31T09:59:27Z</time>
      </trkpt>
      <trkpt lat="47.87433" lon="-2.75227">
        <ele>106</ele>
        <time>2021-01-31T09:59:28Z</time>
      </trkpt>
      <trkpt lat="47.87435" lon="-2.75226">
        <ele>106</ele>
        <time>2021-01-31T09:59:31Z</time>
      </trkpt>
      <trkpt lat="47.87437" lon="-2.75225">
        <ele>106</ele>
        <time>2021-01-31T09:59:33Z</time>
      </trkpt>
      <trkpt lat="47.87439" lon="-2.75222">
        <ele>107</ele>
        <time>2021-01-31T09:59:36Z</time>
      </trkpt>
      <trkpt lat="47.87442" lon="-2.75221">
        <ele>106</ele>
        <time>2021-01-31T09:59:37Z</time>
      </trkpt>
      <trkpt lat="47.87444" lon="-2.7522">
        <ele>106</ele>
        <time>2021-01-31T09:59:39Z</time>
      </trkpt>
      <trkpt lat="47.87446" lon="-2.75219">
        <ele>106</ele>
        <time>2021-01-31T09:59:41Z</time>
      </trkpt>
      <trkpt lat="47.87449" lon="-2.75218">
        <ele>106</ele>
        <time>2021-01-31T09:59:44Z</time>
      </trkpt>
      <trkpt lat="47.87453" lon="-2.75217">
        <ele>106</ele>
        <time>2021-01-31T09:59:45Z</time>
      </trkpt>
      <trkpt lat="47.87455" lon="-2.75216">
        <ele>106</ele>
        <time>2021-01-31T09:59:46Z</time>
      </trkpt>
      <trkpt lat="47.87456" lon="-2.75215">
        <ele>106</ele>
        <time>2021-01-31T09:59:47Z</time>
      </trkpt>
      <trkpt lat="47.87461" lon="-2.75213">
        <ele>107</ele>
        <time>2021-01-31T09:59:50Z</time>
      </trkpt>
      <trkpt lat="47.87464" lon="-2.75211">
        <ele>107</ele>
        <time>2021-01-31T09:59:53Z</time>
      </trkpt>
      <trkpt lat="47.87466" lon="-2.75209">
        <ele>107</ele>
        <time>2021-01-31T09:59:54Z</time>
      </trkpt>
      <trkpt lat="47.87469" lon="-2.75208">
        <ele>107</ele>
        <time>2021-01-31T09:59:56Z</time>
      </trkpt>
      <trkpt lat="47.87474" lon="-2.75205">
        <ele>108</ele>
        <time>2021-01-31T09:59:59Z</time>
      </trkpt>
      <trkpt lat="47.87476" lon="-2.75202">
        <ele>108</ele>
        <time>2021-01-31T10:00:01Z</time>
      </trkpt>
      <trkpt lat="47.87479" lon="-2.752">
        <ele>108</ele>
        <time>2021-01-31T10:00:03Z</time>
      </trkpt>
      <trkpt lat="47.87483" lon="-2.75194">
        <ele>108</ele>
        <time>2021-01-31T10:00:06Z</time>
      </trkpt>
      <trkpt lat="47.87484" lon="-2.7519">
        <ele>108</ele>
        <time>2021-01-31T10:00:08Z</time>
      </trkpt>
      <trkpt lat="47.87484" lon="-2.75186">
        <ele>108</ele>
        <time>2021-01-31T10:00:10Z</time>
      </trkpt>
      <trkpt lat="47.87485" lon="-2.75182">
        <ele>108</ele>
        <time>2021-01-31T10:00:12Z</time>
      </trkpt>
      <trkpt lat="47.87485" lon="-2.75177">
        <ele>109</ele>
        <time>2021-01-31T10:00:14Z</time>
      </trkpt>
      <trkpt lat="47.87486" lon="-2.75174">
        <ele>109</ele>
        <time>2021-01-31T10:00:15Z</time>
      </trkpt>
      <trkpt lat="47.87487" lon="-2.75169">
        <ele>108</ele>
        <time>2021-01-31T10:00:17Z</time>
      </trkpt>
      <trkpt lat="47.87487" lon="-2.75166">
        <ele>108</ele>
        <time>2021-01-31T10:00:18Z</time>
      </trkpt>
      <trkpt lat="47.87487" lon="-2.75163">
        <ele>108</ele>
        <time>2021-01-31T10:00:19Z</time>
      </trkpt>
      <trkpt lat="47.87487" lon="-2.7516">
        <ele>108</ele>
        <time>2021-01-31T10:00:20Z</time>
      </trkpt>
      <trkpt lat="47.87488" lon="-2.75156">
        <ele>108</ele>
        <time>2021-01-31T10:00:22Z</time>
      </trkpt>
      <trkpt lat="47.8749" lon="-2.75154">
        <ele>108</ele>
        <time>2021-01-31T10:00:24Z</time>
      </trkpt>
      <trkpt lat="47.87493" lon="-2.75154">
        <ele>108</ele>
        <time>2021-01-31T10:00:27Z</time>
      </trkpt>
      <trkpt lat="47.87496" lon="-2.75153">
        <ele>108</ele>
        <time>2021-01-31T10:00:29Z</time>
      </trkpt>
      <trkpt lat="47.87498" lon="-2.75152">
        <ele>108</ele>
        <time>2021-01-31T10:00:31Z</time>
      </trkpt>
      <trkpt lat="47.87501" lon="-2.75152">
        <ele>108</ele>
        <time>2021-01-31T10:00:33Z</time>
      </trkpt>
      <trkpt lat="47.87503" lon="-2.75151">
        <ele>108</ele>
        <time>2021-01-31T10:00:35Z</time>
      </trkpt>
      <trkpt lat="47.87506" lon="-2.7515">
        <ele>108</ele>
        <time>2021-01-31T10:00:36Z</time>
      </trkpt>
      <trkpt lat="47.87507" lon="-2.7515">
        <ele>109</ele>
        <time>2021-01-31T10:00:38Z</time>
      </trkpt>
      <trkpt lat="47.8751" lon="-2.75149">
        <ele>109</ele>
        <time>2021-01-31T10:00:39Z</time>
      </trkpt>
      <trkpt lat="47.87513" lon="-2.75148">
        <ele>109</ele>
        <time>2021-01-31T10:00:41Z</time>
      </trkpt>
      <trkpt lat="47.87515" lon="-2.75147">
        <ele>109</ele>
        <time>2021-01-31T10:00:42Z</time>
      </trkpt>
      <trkpt lat="47.87518" lon="-2.75147">
        <ele>109</ele>
        <time>2021-01-31T10:00:44Z</time>
      </trkpt>
      <trkpt lat="47.87521" lon="-2.75147">
        <ele>109</ele>
        <time>2021-01-31T10:00:46Z</time>
      </trkpt>
      <trkpt lat="47.87525" lon="-2.75147">
        <ele>109</ele>
        <time>2021-01-31T10:00:48Z</time>
      </trkpt>
      <trkpt lat="47.87527" lon="-2.75146">
        <ele>109</ele>
        <time>2021-01-31T10:00:50Z</time>
      </trkpt>
      <trkpt lat="47.8753" lon="-2.75145">
        <ele>109</ele>
        <time>2021-01-31T10:00:52Z</time>
      </trkpt>
      <trkpt lat="47.87534" lon="-2.75145">
        <ele>109</ele>
        <time>2021-01-31T10:00:55Z</time>
      </trkpt>
      <trkpt lat="47.87537" lon="-2.75144">
        <ele>109</ele>
        <time>2021-01-31T10:00:56Z</time>
      </trkpt>
      <trkpt lat="47.87539" lon="-2.75144">
        <ele>109</ele>
        <time>2021-01-31T10:00:59Z</time>
      </trkpt>
      <trkpt lat="47.87541" lon="-2.75143">
        <ele>109</ele>
        <time>2021-01-31T10:01:00Z</time>
      </trkpt>
      <trkpt lat="47.87544" lon="-2.75144">
        <ele>109</ele>
        <time>2021-01-31T10:01:02Z</time>
      </trkpt>
      <trkpt lat="47.8755" lon="-2.75144">
        <ele>109</ele>
        <time>2021-01-31T10:01:05Z</time>
      </trkpt>
      <trkpt lat="47.87553" lon="-2.75144">
        <ele>109</ele>
        <time>2021-01-31T10:01:07Z</time>
      </trkpt>
      <trkpt lat="47.87556" lon="-2.75144">
        <ele>109</ele>
        <time>2021-01-31T10:01:09Z</time>
      </trkpt>
      <trkpt lat="47.8756" lon="-2.75144">
        <ele>109</ele>
        <time>2021-01-31T10:01:11Z</time>
      </trkpt>
      <trkpt lat="47.87562" lon="-2.75145">
        <ele>109</ele>
        <time>2021-01-31T10:01:14Z</time>
      </trkpt>
      <trkpt lat="47.87565" lon="-2.75145">
        <ele>109</ele>
        <time>2021-01-31T10:01:15Z</time>
      </trkpt>
      <trkpt lat="47.87569" lon="-2.75146">
        <ele>109</ele>
        <time>2021-01-31T10:01:17Z</time>
      </trkpt>
      <trkpt lat="47.87573" lon="-2.75147">
        <ele>109</ele>
        <time>2021-01-31T10:01:19Z</time>
      </trkpt>
      <trkpt lat="47.87575" lon="-2.75147">
        <ele>109</ele>
        <time>2021-01-31T10:01:20Z</time>
      </trkpt>
      <trkpt lat="47.87577" lon="-2.75147">
        <ele>109</ele>
        <time>2021-01-31T10:01:21Z</time>
      </trkpt>
      <trkpt lat="47.8758" lon="-2.75148">
        <ele>109</ele>
        <time>2021-01-31T10:01:23Z</time>
      </trkpt>
      <trkpt lat="47.87583" lon="-2.75149">
        <ele>109</ele>
        <time>2021-01-31T10:01:26Z</time>
      </trkpt>
      <trkpt lat="47.87587" lon="-2.75149">
        <ele>109</ele>
        <time>2021-01-31T10:01:27Z</time>
      </trkpt>
      <trkpt lat="47.87589" lon="-2.75149">
        <ele>109</ele>
        <time>2021-01-31T10:01:29Z</time>
      </trkpt>
      <trkpt lat="47.87592" lon="-2.75148">
        <ele>109</ele>
        <time>2021-01-31T10:01:32Z</time>
      </trkpt>
      <trkpt lat="47.87594" lon="-2.75148">
        <ele>109</ele>
        <time>2021-01-31T10:01:33Z</time>
      </trkpt>
      <trkpt lat="47.87597" lon="-2.75148">
        <ele>109</ele>
        <time>2021-01-31T10:01:35Z</time>
      </trkpt>
      <trkpt lat="47.87599" lon="-2.75148">
        <ele>109</ele>
        <time>2021-01-31T10:01:37Z</time>
      </trkpt>
      <trkpt lat="47.87602" lon="-2.75148">
        <ele>109</ele>
        <time>2021-01-31T10:01:39Z</time>
      </trkpt>
      <trkpt lat="47.87605" lon="-2.75147">
        <ele>109</ele>
        <time>2021-01-31T10:01:41Z</time>
      </trkpt>
      <trkpt lat="47.87607" lon="-2.75146">
        <ele>109</ele>
        <time>2021-01-31T10:01:43Z</time>
      </trkpt>
      <trkpt lat="47.87609" lon="-2.75146">
        <ele>109</ele>
        <time>2021-01-31T10:01:45Z</time>
      </trkpt>
      <trkpt lat="47.87612" lon="-2.75144">
        <ele>109</ele>
        <time>2021-01-31T10:01:47Z</time>
      </trkpt>
      <trkpt lat="47.87615" lon="-2.75144">
        <ele>109</ele>
        <time>2021-01-31T10:01:49Z</time>
      </trkpt>
      <trkpt lat="47.87617" lon="-2.75143">
        <ele>109</ele>
        <time>2021-01-31T10:01:51Z</time>
      </trkpt>
      <trkpt lat="47.87621" lon="-2.75142">
        <ele>109</ele>
        <time>2021-01-31T10:01:54Z</time>
      </trkpt>
      <trkpt lat="47.87624" lon="-2.75141">
        <ele>109</ele>
        <time>2021-01-31T10:01:55Z</time>
      </trkpt>
      <trkpt lat="47.87627" lon="-2.75139">
        <ele>109</ele>
        <time>2021-01-31T10:01:57Z</time>
      </trkpt>
      <trkpt lat="47.8763" lon="-2.75138">
        <ele>109</ele>
        <time>2021-01-31T10:01:59Z</time>
      </trkpt>
      <trkpt lat="47.87633" lon="-2.75137">
        <ele>109</ele>
        <time>2021-01-31T10:02:01Z</time>
      </trkpt>
      <trkpt lat="47.87635" lon="-2.75136">
        <ele>109</ele>
        <time>2021-01-31T10:02:03Z</time>
      </trkpt>
      <trkpt lat="47.87638" lon="-2.75135">
        <ele>109</ele>
        <time>2021-01-31T10:02:05Z</time>
      </trkpt>
      <trkpt lat="47.87641" lon="-2.75133">
        <ele>109</ele>
        <time>2021-01-31T10:02:07Z</time>
      </trkpt>
      <trkpt lat="47.87644" lon="-2.75131">
        <ele>109</ele>
        <time>2021-01-31T10:02:09Z</time>
      </trkpt>
      <trkpt lat="47.87647" lon="-2.7513">
        <ele>109</ele>
        <time>2021-01-31T10:02:11Z</time>
      </trkpt>
      <trkpt lat="47.8765" lon="-2.7513">
        <ele>109</ele>
        <time>2021-01-31T10:02:14Z</time>
      </trkpt>
      <trkpt lat="47.87653" lon="-2.75129">
        <ele>109</ele>
        <time>2021-01-31T10:02:15Z</time>
      </trkpt>
      <trkpt lat="47.87655" lon="-2.75129">
        <ele>109</ele>
        <time>2021-01-31T10:02:17Z</time>
      </trkpt>
      <trkpt lat="47.87656" lon="-2.75126">
        <ele>109</ele>
        <time>2021-01-31T10:02:19Z</time>
      </trkpt>
      <trkpt lat="47.87657" lon="-2.75124">
        <ele>109</ele>
        <time>2021-01-31T10:02:31Z</time>
      </trkpt>
      <trkpt lat="47.87658" lon="-2.75121">
        <ele>109</ele>
        <time>2021-01-31T10:02:34Z</time>
      </trkpt>
      <trkpt lat="47.87659" lon="-2.75119">
        <ele>109</ele>
        <time>2021-01-31T10:02:37Z</time>
      </trkpt>
      <trkpt lat="47.8766" lon="-2.75116">
        <ele>109</ele>
        <time>2021-01-31T10:02:38Z</time>
      </trkpt>
      <trkpt lat="47.87659" lon="-2.75114">
        <ele>108</ele>
        <time>2021-01-31T10:03:14Z</time>
      </trkpt>
      <trkpt lat="47.8766" lon="-2.75113">
        <ele>108</ele>
        <time>2021-01-31T10:04:44Z</time>
      </trkpt>
      <trkpt lat="47.87659" lon="-2.75116">
        <ele>108</ele>
        <time>2021-01-31T10:05:03Z</time>
      </trkpt>
      <trkpt lat="47.87657" lon="-2.75118">
        <ele>108</ele>
        <time>2021-01-31T10:05:05Z</time>
      </trkpt>
      <trkpt lat="47.87655" lon="-2.75121">
        <ele>108</ele>
        <time>2021-01-31T10:05:07Z</time>
      </trkpt>
      <trkpt lat="47.87653" lon="-2.75124">
        <ele>108</ele>
        <time>2021-01-31T10:05:09Z</time>
      </trkpt>
      <trkpt lat="47.8765" lon="-2.75126">
        <ele>108</ele>
        <time>2021-01-31T10:05:12Z</time>
      </trkpt>
      <trkpt lat="47.87648" lon="-2.75127">
        <ele>108</ele>
        <time>2021-01-31T10:05:13Z</time>
      </trkpt>
      <trkpt lat="47.87646" lon="-2.75128">
        <ele>108</ele>
        <time>2021-01-31T10:05:15Z</time>
      </trkpt>
      <trkpt lat="47.87644" lon="-2.75128">
        <ele>108</ele>
        <time>2021-01-31T10:05:17Z</time>
      </trkpt>
      <trkpt lat="47.87642" lon="-2.75128">
        <ele>108</ele>
        <time>2021-01-31T10:05:19Z</time>
      </trkpt>
      <trkpt lat="47.87639" lon="-2.75129">
        <ele>108</ele>
        <time>2021-01-31T10:05:23Z</time>
      </trkpt>
      <trkpt lat="47.87638" lon="-2.7513">
        <ele>108</ele>
        <time>2021-01-31T10:05:24Z</time>
      </trkpt>
      <trkpt lat="47.87635" lon="-2.75131">
        <ele>108</ele>
        <time>2021-01-31T10:05:26Z</time>
      </trkpt>
      <trkpt lat="47.87632" lon="-2.75133">
        <ele>108</ele>
        <time>2021-01-31T10:05:28Z</time>
      </trkpt>
      <trkpt lat="47.8763" lon="-2.75133">
        <ele>108</ele>
        <time>2021-01-31T10:05:30Z</time>
      </trkpt>
      <trkpt lat="47.87627" lon="-2.75135">
        <ele>108</ele>
        <time>2021-01-31T10:05:32Z</time>
      </trkpt>
      <trkpt lat="47.87624" lon="-2.75135">
        <ele>108</ele>
        <time>2021-01-31T10:05:34Z</time>
      </trkpt>
      <trkpt lat="47.87621" lon="-2.75137">
        <ele>108</ele>
        <time>2021-01-31T10:05:36Z</time>
      </trkpt>
      <trkpt lat="47.87619" lon="-2.75137">
        <ele>108</ele>
        <time>2021-01-31T10:05:38Z</time>
      </trkpt>
      <trkpt lat="47.87617" lon="-2.75138">
        <ele>108</ele>
        <time>2021-01-31T10:05:40Z</time>
      </trkpt>
      <trkpt lat="47.87614" lon="-2.75138">
        <ele>108</ele>
        <time>2021-01-31T10:05:42Z</time>
      </trkpt>
      <trkpt lat="47.87611" lon="-2.75139">
        <ele>108</ele>
        <time>2021-01-31T10:05:44Z</time>
      </trkpt>
      <trkpt lat="47.87609" lon="-2.75139">
        <ele>108</ele>
        <time>2021-01-31T10:05:46Z</time>
      </trkpt>
      <trkpt lat="47.87606" lon="-2.7514">
        <ele>108</ele>
        <time>2021-01-31T10:05:48Z</time>
      </trkpt>
      <trkpt lat="47.87603" lon="-2.75141">
        <ele>108</ele>
        <time>2021-01-31T10:05:50Z</time>
      </trkpt>
      <trkpt lat="47.87601" lon="-2.75141">
        <ele>108</ele>
        <time>2021-01-31T10:05:52Z</time>
      </trkpt>
      <trkpt lat="47.87598" lon="-2.75141">
        <ele>108</ele>
        <time>2021-01-31T10:05:54Z</time>
      </trkpt>
      <trkpt lat="47.87596" lon="-2.75141">
        <ele>108</ele>
        <time>2021-01-31T10:05:56Z</time>
      </trkpt>
      <trkpt lat="47.87593" lon="-2.75142">
        <ele>108</ele>
        <time>2021-01-31T10:05:58Z</time>
      </trkpt>
      <trkpt lat="47.8759" lon="-2.75142">
        <ele>108</ele>
        <time>2021-01-31T10:06:00Z</time>
      </trkpt>
      <trkpt lat="47.87587" lon="-2.75141">
        <ele>108</ele>
        <time>2021-01-31T10:06:02Z</time>
      </trkpt>
      <trkpt lat="47.87584" lon="-2.75141">
        <ele>108</ele>
        <time>2021-01-31T10:06:04Z</time>
      </trkpt>
      <trkpt lat="47.87582" lon="-2.75141">
        <ele>108</ele>
        <time>2021-01-31T10:06:07Z</time>
      </trkpt>
      <trkpt lat="47.87579" lon="-2.7514">
        <ele>108</ele>
        <time>2021-01-31T10:06:08Z</time>
      </trkpt>
      <trkpt lat="47.87576" lon="-2.75139">
        <ele>108</ele>
        <time>2021-01-31T10:06:10Z</time>
      </trkpt>
      <trkpt lat="47.87574" lon="-2.75138">
        <ele>108</ele>
        <time>2021-01-31T10:06:12Z</time>
      </trkpt>
      <trkpt lat="47.87571" lon="-2.75138">
        <ele>107</ele>
        <time>2021-01-31T10:06:14Z</time>
      </trkpt>
      <trkpt lat="47.87568" lon="-2.75139">
        <ele>107</ele>
        <time>2021-01-31T10:06:16Z</time>
      </trkpt>
      <trkpt lat="47.87565" lon="-2.75138">
        <ele>107</ele>
        <time>2021-01-31T10:06:18Z</time>
      </trkpt>
      <trkpt lat="47.87562" lon="-2.75138">
        <ele>107</ele>
        <time>2021-01-31T10:06:20Z</time>
      </trkpt>
      <trkpt lat="47.87559" lon="-2.75138">
        <ele>107</ele>
        <time>2021-01-31T10:06:23Z</time>
      </trkpt>
      <trkpt lat="47.87556" lon="-2.75138">
        <ele>107</ele>
        <time>2021-01-31T10:06:24Z</time>
      </trkpt>
      <trkpt lat="47.87552" lon="-2.75138">
        <ele>107</ele>
        <time>2021-01-31T10:06:26Z</time>
      </trkpt>
      <trkpt lat="47.8755" lon="-2.75139">
        <ele>107</ele>
        <time>2021-01-31T10:06:27Z</time>
      </trkpt>
      <trkpt lat="47.87547" lon="-2.75139">
        <ele>107</ele>
        <time>2021-01-31T10:06:29Z</time>
      </trkpt>
      <trkpt lat="47.87544" lon="-2.75139">
        <ele>107</ele>
        <time>2021-01-31T10:06:31Z</time>
      </trkpt>
      <trkpt lat="47.87541" lon="-2.7514">
        <ele>107</ele>
        <time>2021-01-31T10:06:33Z</time>
      </trkpt>
      <trkpt lat="47.87538" lon="-2.75141">
        <ele>107</ele>
        <time>2021-01-31T10:06:35Z</time>
      </trkpt>
      <trkpt lat="47.87535" lon="-2.75141">
        <ele>107</ele>
        <time>2021-01-31T10:06:36Z</time>
      </trkpt>
      <trkpt lat="47.87534" lon="-2.75141">
        <ele>107</ele>
        <time>2021-01-31T10:06:37Z</time>
      </trkpt>
      <trkpt lat="47.8753" lon="-2.75141">
        <ele>107</ele>
        <time>2021-01-31T10:06:39Z</time>
      </trkpt>
      <trkpt lat="47.87527" lon="-2.75141">
        <ele>106</ele>
        <time>2021-01-31T10:06:42Z</time>
      </trkpt>
      <trkpt lat="47.87524" lon="-2.75141">
        <ele>106</ele>
        <time>2021-01-31T10:06:43Z</time>
      </trkpt>
      <trkpt lat="47.8752" lon="-2.75141">
        <ele>106</ele>
        <time>2021-01-31T10:06:45Z</time>
      </trkpt>
      <trkpt lat="47.87517" lon="-2.75142">
        <ele>106</ele>
        <time>2021-01-31T10:06:47Z</time>
      </trkpt>
      <trkpt lat="47.87514" lon="-2.75142">
        <ele>106</ele>
        <time>2021-01-31T10:06:49Z</time>
      </trkpt>
      <trkpt lat="47.87512" lon="-2.75143">
        <ele>106</ele>
        <time>2021-01-31T10:06:50Z</time>
      </trkpt>
      <trkpt lat="47.87508" lon="-2.75145">
        <ele>106</ele>
        <time>2021-01-31T10:06:52Z</time>
      </trkpt>
      <trkpt lat="47.87506" lon="-2.75145">
        <ele>106</ele>
        <time>2021-01-31T10:06:53Z</time>
      </trkpt>
      <trkpt lat="47.87504" lon="-2.75145">
        <ele>106</ele>
        <time>2021-01-31T10:06:55Z</time>
      </trkpt>
      <trkpt lat="47.87501" lon="-2.75146">
        <ele>106</ele>
        <time>2021-01-31T10:06:56Z</time>
      </trkpt>
      <trkpt lat="47.87498" lon="-2.75146">
        <ele>106</ele>
        <time>2021-01-31T10:06:58Z</time>
      </trkpt>
      <trkpt lat="47.87495" lon="-2.75146">
        <ele>106</ele>
        <time>2021-01-31T10:07:00Z</time>
      </trkpt>
      <trkpt lat="47.87492" lon="-2.75147">
        <ele>106</ele>
        <time>2021-01-31T10:07:02Z</time>
      </trkpt>
      <trkpt lat="47.8749" lon="-2.7515">
        <ele>106</ele>
        <time>2021-01-31T10:07:04Z</time>
      </trkpt>
      <trkpt lat="47.8749" lon="-2.75154">
        <ele>106</ele>
        <time>2021-01-31T10:07:06Z</time>
      </trkpt>
      <trkpt lat="47.8749" lon="-2.75158">
        <ele>106</ele>
        <time>2021-01-31T10:07:09Z</time>
      </trkpt>
      <trkpt lat="47.8749" lon="-2.75162">
        <ele>106</ele>
        <time>2021-01-31T10:07:10Z</time>
      </trkpt>
      <trkpt lat="47.87489" lon="-2.75166">
        <ele>106</ele>
        <time>2021-01-31T10:07:12Z</time>
      </trkpt>
      <trkpt lat="47.87489" lon="-2.75169">
        <ele>106</ele>
        <time>2021-01-31T10:07:14Z</time>
      </trkpt>
      <trkpt lat="47.87488" lon="-2.75174">
        <ele>106</ele>
        <time>2021-01-31T10:07:16Z</time>
      </trkpt>
      <trkpt lat="47.87488" lon="-2.75178">
        <ele>106</ele>
        <time>2021-01-31T10:07:18Z</time>
      </trkpt>
      <trkpt lat="47.87486" lon="-2.75183">
        <ele>106</ele>
        <time>2021-01-31T10:07:20Z</time>
      </trkpt>
      <trkpt lat="47.87484" lon="-2.75186">
        <ele>106</ele>
        <time>2021-01-31T10:07:22Z</time>
      </trkpt>
      <trkpt lat="47.87483" lon="-2.75188">
        <ele>106</ele>
        <time>2021-01-31T10:07:25Z</time>
      </trkpt>
      <trkpt lat="47.87481" lon="-2.7519">
        <ele>106</ele>
        <time>2021-01-31T10:07:26Z</time>
      </trkpt>
      <trkpt lat="47.87478" lon="-2.75193">
        <ele>106</ele>
        <time>2021-01-31T10:07:28Z</time>
      </trkpt>
      <trkpt lat="47.87475" lon="-2.75195">
        <ele>106</ele>
        <time>2021-01-31T10:07:31Z</time>
      </trkpt>
      <trkpt lat="47.87473" lon="-2.75197">
        <ele>106</ele>
        <time>2021-01-31T10:07:32Z</time>
      </trkpt>
      <trkpt lat="47.8747" lon="-2.75199">
        <ele>105</ele>
        <time>2021-01-31T10:07:34Z</time>
      </trkpt>
      <trkpt lat="47.87467" lon="-2.75201">
        <ele>105</ele>
        <time>2021-01-31T10:07:36Z</time>
      </trkpt>
      <trkpt lat="47.87466" lon="-2.75202">
        <ele>105</ele>
        <time>2021-01-31T10:07:37Z</time>
      </trkpt>
      <trkpt lat="47.87464" lon="-2.75203">
        <ele>105</ele>
        <time>2021-01-31T10:07:38Z</time>
      </trkpt>
      <trkpt lat="47.87462" lon="-2.75204">
        <ele>105</ele>
        <time>2021-01-31T10:07:39Z</time>
      </trkpt>
      <trkpt lat="47.8746" lon="-2.75205">
        <ele>105</ele>
        <time>2021-01-31T10:07:40Z</time>
      </trkpt>
      <trkpt lat="47.87457" lon="-2.75207">
        <ele>105</ele>
        <time>2021-01-31T10:07:42Z</time>
      </trkpt>
      <trkpt lat="47.87455" lon="-2.75208">
        <ele>105</ele>
        <time>2021-01-31T10:07:44Z</time>
      </trkpt>
      <trkpt lat="47.87453" lon="-2.75209">
        <ele>105</ele>
        <time>2021-01-31T10:07:47Z</time>
      </trkpt>
      <trkpt lat="47.8745" lon="-2.7521">
        <ele>105</ele>
        <time>2021-01-31T10:07:48Z</time>
      </trkpt>
      <trkpt lat="47.87448" lon="-2.75211">
        <ele>105</ele>
        <time>2021-01-31T10:07:52Z</time>
      </trkpt>
      <trkpt lat="47.87445" lon="-2.75213">
        <ele>105</ele>
        <time>2021-01-31T10:07:55Z</time>
      </trkpt>
      <trkpt lat="47.87442" lon="-2.75213">
        <ele>105</ele>
        <time>2021-01-31T10:07:56Z</time>
      </trkpt>
      <trkpt lat="47.87439" lon="-2.75215">
        <ele>105</ele>
        <time>2021-01-31T10:07:58Z</time>
      </trkpt>
      <trkpt lat="47.87437" lon="-2.75219">
        <ele>105</ele>
        <time>2021-01-31T10:08:00Z</time>
      </trkpt>
      <trkpt lat="47.87435" lon="-2.75222">
        <ele>105</ele>
        <time>2021-01-31T10:08:03Z</time>
      </trkpt>
      <trkpt lat="47.87432" lon="-2.75224">
        <ele>105</ele>
        <time>2021-01-31T10:08:04Z</time>
      </trkpt>
      <trkpt lat="47.87429" lon="-2.75227">
        <ele>105</ele>
        <time>2021-01-31T10:08:06Z</time>
      </trkpt>
      <trkpt lat="47.87427" lon="-2.75231">
        <ele>105</ele>
        <time>2021-01-31T10:08:08Z</time>
      </trkpt>
      <trkpt lat="47.87425" lon="-2.75233">
        <ele>105</ele>
        <time>2021-01-31T10:08:09Z</time>
      </trkpt>
      <trkpt lat="47.87423" lon="-2.75235">
        <ele>105</ele>
        <time>2021-01-31T10:08:10Z</time>
      </trkpt>
      <trkpt lat="47.87422" lon="-2.75237">
        <ele>105</ele>
        <time>2021-01-31T10:08:11Z</time>
      </trkpt>
      <trkpt lat="47.87419" lon="-2.75241">
        <ele>105</ele>
        <time>2021-01-31T10:08:14Z</time>
      </trkpt>
      <trkpt lat="47.87417" lon="-2.75243">
        <ele>105</ele>
        <time>2021-01-31T10:08:15Z</time>
      </trkpt>
      <trkpt lat="47.87414" lon="-2.75246">
        <ele>105</ele>
        <time>2021-01-31T10:08:17Z</time>
      </trkpt>
      <trkpt lat="47.87413" lon="-2.75247">
        <ele>105</ele>
        <time>2021-01-31T10:08:18Z</time>
      </trkpt>
      <trkpt lat="47.8741" lon="-2.7525">
        <ele>104</ele>
        <time>2021-01-31T10:08:20Z</time>
      </trkpt>
      <trkpt lat="47.87408" lon="-2.75252">
        <ele>104</ele>
        <time>2021-01-31T10:08:22Z</time>
      </trkpt>
      <trkpt lat="47.87406" lon="-2.75255">
        <ele>104</ele>
        <time>2021-01-31T10:08:25Z</time>
      </trkpt>
      <trkpt lat="47.87404" lon="-2.75257">
        <ele>104</ele>
        <time>2021-01-31T10:08:26Z</time>
      </trkpt>
      <trkpt lat="47.87401" lon="-2.75259">
        <ele>104</ele>
        <time>2021-01-31T10:08:27Z</time>
      </trkpt>
      <trkpt lat="47.87399" lon="-2.7526">
        <ele>104</ele>
        <time>2021-01-31T10:08:28Z</time>
      </trkpt>
      <trkpt lat="47.87397" lon="-2.75261">
        <ele>104</ele>
        <time>2021-01-31T10:08:29Z</time>
      </trkpt>
      <trkpt lat="47.87395" lon="-2.75263">
        <ele>104</ele>
        <time>2021-01-31T10:08:31Z</time>
      </trkpt>
      <trkpt lat="47.87393" lon="-2.75265">
        <ele>104</ele>
        <time>2021-01-31T10:08:33Z</time>
      </trkpt>
      <trkpt lat="47.8739" lon="-2.75267">
        <ele>104</ele>
        <time>2021-01-31T10:08:35Z</time>
      </trkpt>
      <trkpt lat="47.87386" lon="-2.75271">
        <ele>104</ele>
        <time>2021-01-31T10:08:38Z</time>
      </trkpt>
      <trkpt lat="47.87384" lon="-2.75272">
        <ele>104</ele>
        <time>2021-01-31T10:08:39Z</time>
      </trkpt>
      <trkpt lat="47.87383" lon="-2.75274">
        <ele>103</ele>
        <time>2021-01-31T10:08:41Z</time>
      </trkpt>
      <trkpt lat="47.8738" lon="-2.75275">
        <ele>103</ele>
        <time>2021-01-31T10:08:42Z</time>
      </trkpt>
      <trkpt lat="47.87377" lon="-2.75278">
        <ele>103</ele>
        <time>2021-01-31T10:08:44Z</time>
      </trkpt>
      <trkpt lat="47.87374" lon="-2.7528">
        <ele>103</ele>
        <time>2021-01-31T10:08:46Z</time>
      </trkpt>
      <trkpt lat="47.87371" lon="-2.75282">
        <ele>103</ele>
        <time>2021-01-31T10:08:48Z</time>
      </trkpt>
      <trkpt lat="47.87368" lon="-2.75285">
        <ele>103</ele>
        <time>2021-01-31T10:08:50Z</time>
      </trkpt>
      <trkpt lat="47.87366" lon="-2.75286">
        <ele>103</ele>
        <time>2021-01-31T10:08:52Z</time>
      </trkpt>
      <trkpt lat="47.87363" lon="-2.75288">
        <ele>103</ele>
        <time>2021-01-31T10:08:54Z</time>
      </trkpt>
      <trkpt lat="47.87361" lon="-2.75289">
        <ele>103</ele>
        <time>2021-01-31T10:08:55Z</time>
      </trkpt>
      <trkpt lat="47.87358" lon="-2.75291">
        <ele>103</ele>
        <time>2021-01-31T10:08:57Z</time>
      </trkpt>
      <trkpt lat="47.87357" lon="-2.75292">
        <ele>103</ele>
        <time>2021-01-31T10:08:58Z</time>
      </trkpt>
      <trkpt lat="47.87351" lon="-2.75295">
        <ele>102</ele>
        <time>2021-01-31T10:09:01Z</time>
      </trkpt>
      <trkpt lat="47.87349" lon="-2.75297">
        <ele>102</ele>
        <time>2021-01-31T10:09:03Z</time>
      </trkpt>
      <trkpt lat="47.87346" lon="-2.75299">
        <ele>102</ele>
        <time>2021-01-31T10:09:05Z</time>
      </trkpt>
      <trkpt lat="47.87343" lon="-2.75301">
        <ele>101</ele>
        <time>2021-01-31T10:09:07Z</time>
      </trkpt>
      <trkpt lat="47.87341" lon="-2.75302">
        <ele>101</ele>
        <time>2021-01-31T10:09:09Z</time>
      </trkpt>
      <trkpt lat="47.87338" lon="-2.75305">
        <ele>101</ele>
        <time>2021-01-31T10:09:11Z</time>
      </trkpt>
      <trkpt lat="47.87335" lon="-2.75307">
        <ele>101</ele>
        <time>2021-01-31T10:09:13Z</time>
      </trkpt>
      <trkpt lat="47.87332" lon="-2.75309">
        <ele>101</ele>
        <time>2021-01-31T10:09:16Z</time>
      </trkpt>
      <trkpt lat="47.87329" lon="-2.75311">
        <ele>101</ele>
        <time>2021-01-31T10:09:17Z</time>
      </trkpt>
      <trkpt lat="47.87326" lon="-2.75313">
        <ele>101</ele>
        <time>2021-01-31T10:09:19Z</time>
      </trkpt>
      <trkpt lat="47.87325" lon="-2.75314">
        <ele>101</ele>
        <time>2021-01-31T10:09:20Z</time>
      </trkpt>
      <trkpt lat="47.87323" lon="-2.75315">
        <ele>101</ele>
        <time>2021-01-31T10:09:21Z</time>
      </trkpt>
      <trkpt lat="47.8732" lon="-2.75317">
        <ele>101</ele>
        <time>2021-01-31T10:09:23Z</time>
      </trkpt>
      <trkpt lat="47.87319" lon="-2.75319">
        <ele>101</ele>
        <time>2021-01-31T10:09:24Z</time>
      </trkpt>
      <trkpt lat="47.87317" lon="-2.7532">
        <ele>101</ele>
        <time>2021-01-31T10:09:26Z</time>
      </trkpt>
      <trkpt lat="47.87314" lon="-2.75322">
        <ele>100</ele>
        <time>2021-01-31T10:09:27Z</time>
      </trkpt>
      <trkpt lat="47.87311" lon="-2.75325">
        <ele>100</ele>
        <time>2021-01-31T10:09:29Z</time>
      </trkpt>
      <trkpt lat="47.87309" lon="-2.75327">
        <ele>100</ele>
        <time>2021-01-31T10:09:30Z</time>
      </trkpt>
      <trkpt lat="47.87306" lon="-2.75329">
        <ele>100</ele>
        <time>2021-01-31T10:09:32Z</time>
      </trkpt>
      <trkpt lat="47.87304" lon="-2.7533">
        <ele>99</ele>
        <time>2021-01-31T10:09:35Z</time>
      </trkpt>
      <trkpt lat="47.87301" lon="-2.75333">
        <ele>99</ele>
        <time>2021-01-31T10:09:36Z</time>
      </trkpt>
      <trkpt lat="47.87299" lon="-2.75337">
        <ele>98</ele>
        <time>2021-01-31T10:09:38Z</time>
      </trkpt>
      <trkpt lat="47.87297" lon="-2.7534">
        <ele>98</ele>
        <time>2021-01-31T10:09:40Z</time>
      </trkpt>
      <trkpt lat="47.87295" lon="-2.75342">
        <ele>98</ele>
        <time>2021-01-31T10:09:42Z</time>
      </trkpt>
      <trkpt lat="47.87294" lon="-2.75345">
        <ele>98</ele>
        <time>2021-01-31T10:09:44Z</time>
      </trkpt>
      <trkpt lat="47.87291" lon="-2.75349">
        <ele>97</ele>
        <time>2021-01-31T10:09:47Z</time>
      </trkpt>
      <trkpt lat="47.87288" lon="-2.75351">
        <ele>97</ele>
        <time>2021-01-31T10:09:48Z</time>
      </trkpt>
      <trkpt lat="47.87286" lon="-2.75355">
        <ele>97</ele>
        <time>2021-01-31T10:09:50Z</time>
      </trkpt>
      <trkpt lat="47.87283" lon="-2.75358">
        <ele>96</ele>
        <time>2021-01-31T10:09:52Z</time>
      </trkpt>
      <trkpt lat="47.87282" lon="-2.7536">
        <ele>96</ele>
        <time>2021-01-31T10:09:53Z</time>
      </trkpt>
      <trkpt lat="47.87281" lon="-2.75362">
        <ele>96</ele>
        <time>2021-01-31T10:09:54Z</time>
      </trkpt>
      <trkpt lat="47.87279" lon="-2.75365">
        <ele>96</ele>
        <time>2021-01-31T10:09:56Z</time>
      </trkpt>
      <trkpt lat="47.87276" lon="-2.75368">
        <ele>96</ele>
        <time>2021-01-31T10:09:58Z</time>
      </trkpt>
      <trkpt lat="47.87275" lon="-2.7537">
        <ele>96</ele>
        <time>2021-01-31T10:10:00Z</time>
      </trkpt>
      <trkpt lat="47.87273" lon="-2.75373">
        <ele>96</ele>
        <time>2021-01-31T10:10:01Z</time>
      </trkpt>
      <trkpt lat="47.87271" lon="-2.75376">
        <ele>96</ele>
        <time>2021-01-31T10:10:03Z</time>
      </trkpt>
      <trkpt lat="47.8727" lon="-2.7538">
        <ele>96</ele>
        <time>2021-01-31T10:10:06Z</time>
      </trkpt>
      <trkpt lat="47.87268" lon="-2.75383">
        <ele>96</ele>
        <time>2021-01-31T10:10:08Z</time>
      </trkpt>
      <trkpt lat="47.87266" lon="-2.75387">
        <ele>95</ele>
        <time>2021-01-31T10:10:10Z</time>
      </trkpt>
      <trkpt lat="47.87265" lon="-2.7539">
        <ele>95</ele>
        <time>2021-01-31T10:10:12Z</time>
      </trkpt>
      <trkpt lat="47.87263" lon="-2.75394">
        <ele>94</ele>
        <time>2021-01-31T10:10:14Z</time>
      </trkpt>
      <trkpt lat="47.87261" lon="-2.75397">
        <ele>94</ele>
        <time>2021-01-31T10:10:16Z</time>
      </trkpt>
      <trkpt lat="47.87258" lon="-2.75401">
        <ele>93</ele>
        <time>2021-01-31T10:10:18Z</time>
      </trkpt>
      <trkpt lat="47.87256" lon="-2.75404">
        <ele>93</ele>
        <time>2021-01-31T10:10:20Z</time>
      </trkpt>
      <trkpt lat="47.87255" lon="-2.75406">
        <ele>93</ele>
        <time>2021-01-31T10:10:21Z</time>
      </trkpt>
      <trkpt lat="47.87253" lon="-2.7541">
        <ele>93</ele>
        <time>2021-01-31T10:10:23Z</time>
      </trkpt>
      <trkpt lat="47.87252" lon="-2.75411">
        <ele>93</ele>
        <time>2021-01-31T10:10:24Z</time>
      </trkpt>
      <trkpt lat="47.8725" lon="-2.75415">
        <ele>93</ele>
        <time>2021-01-31T10:10:26Z</time>
      </trkpt>
      <trkpt lat="47.87249" lon="-2.75418">
        <ele>93</ele>
        <time>2021-01-31T10:10:28Z</time>
      </trkpt>
      <trkpt lat="47.87246" lon="-2.75424">
        <ele>92</ele>
        <time>2021-01-31T10:10:31Z</time>
      </trkpt>
      <trkpt lat="47.87244" lon="-2.75426">
        <ele>92</ele>
        <time>2021-01-31T10:10:33Z</time>
      </trkpt>
      <trkpt lat="47.87242" lon="-2.75431">
        <ele>92</ele>
        <time>2021-01-31T10:10:35Z</time>
      </trkpt>
      <trkpt lat="47.8724" lon="-2.75434">
        <ele>92</ele>
        <time>2021-01-31T10:10:37Z</time>
      </trkpt>
      <trkpt lat="47.87239" lon="-2.75436">
        <ele>92</ele>
        <time>2021-01-31T10:10:38Z</time>
      </trkpt>
      <trkpt lat="47.87238" lon="-2.75439">
        <ele>92</ele>
        <time>2021-01-31T10:10:39Z</time>
      </trkpt>
      <trkpt lat="47.87237" lon="-2.75442">
        <ele>92</ele>
        <time>2021-01-31T10:10:41Z</time>
      </trkpt>
      <trkpt lat="47.87235" lon="-2.75446">
        <ele>92</ele>
        <time>2021-01-31T10:10:43Z</time>
      </trkpt>
      <trkpt lat="47.87234" lon="-2.7545">
        <ele>92</ele>
        <time>2021-01-31T10:10:45Z</time>
      </trkpt>
      <trkpt lat="47.87233" lon="-2.75452">
        <ele>92</ele>
        <time>2021-01-31T10:10:46Z</time>
      </trkpt>
      <trkpt lat="47.87231" lon="-2.75455">
        <ele>91</ele>
        <time>2021-01-31T10:10:49Z</time>
      </trkpt>
      <trkpt lat="47.87229" lon="-2.75457">
        <ele>91</ele>
        <time>2021-01-31T10:10:50Z</time>
      </trkpt>
      <trkpt lat="47.87227" lon="-2.75461">
        <ele>91</ele>
        <time>2021-01-31T10:10:52Z</time>
      </trkpt>
      <trkpt lat="47.87225" lon="-2.75464">
        <ele>91</ele>
        <time>2021-01-31T10:10:54Z</time>
      </trkpt>
      <trkpt lat="47.87224" lon="-2.75466">
        <ele>91</ele>
        <time>2021-01-31T10:10:55Z</time>
      </trkpt>
      <trkpt lat="47.87222" lon="-2.7547">
        <ele>90</ele>
        <time>2021-01-31T10:10:57Z</time>
      </trkpt>
      <trkpt lat="47.8722" lon="-2.75474">
        <ele>90</ele>
        <time>2021-01-31T10:10:59Z</time>
      </trkpt>
      <trkpt lat="47.8722" lon="-2.75477">
        <ele>90</ele>
        <time>2021-01-31T10:11:01Z</time>
      </trkpt>
      <trkpt lat="47.87219" lon="-2.7548">
        <ele>90</ele>
        <time>2021-01-31T10:11:03Z</time>
      </trkpt>
      <trkpt lat="47.87218" lon="-2.75484">
        <ele>90</ele>
        <time>2021-01-31T10:11:06Z</time>
      </trkpt>
      <trkpt lat="47.87216" lon="-2.75487">
        <ele>90</ele>
        <time>2021-01-31T10:11:07Z</time>
      </trkpt>
      <trkpt lat="47.87214" lon="-2.75493">
        <ele>89</ele>
        <time>2021-01-31T10:11:09Z</time>
      </trkpt>
      <trkpt lat="47.87212" lon="-2.75496">
        <ele>88</ele>
        <time>2021-01-31T10:11:12Z</time>
      </trkpt>
      <trkpt lat="47.87211" lon="-2.75499">
        <ele>88</ele>
        <time>2021-01-31T10:11:13Z</time>
      </trkpt>
      <trkpt lat="47.8721" lon="-2.75502">
        <ele>88</ele>
        <time>2021-01-31T10:11:15Z</time>
      </trkpt>
      <trkpt lat="47.87209" lon="-2.75505">
        <ele>88</ele>
        <time>2021-01-31T10:11:16Z</time>
      </trkpt>
      <trkpt lat="47.87207" lon="-2.75508">
        <ele>88</ele>
        <time>2021-01-31T10:11:18Z</time>
      </trkpt>
      <trkpt lat="47.87205" lon="-2.75512">
        <ele>88</ele>
        <time>2021-01-31T10:11:20Z</time>
      </trkpt>
      <trkpt lat="47.87203" lon="-2.75516">
        <ele>88</ele>
        <time>2021-01-31T10:11:22Z</time>
      </trkpt>
      <trkpt lat="47.87201" lon="-2.75519">
        <ele>88</ele>
        <time>2021-01-31T10:11:24Z</time>
      </trkpt>
      <trkpt lat="47.87199" lon="-2.75523">
        <ele>88</ele>
        <time>2021-01-31T10:11:26Z</time>
      </trkpt>
      <trkpt lat="47.87197" lon="-2.75527">
        <ele>88</ele>
        <time>2021-01-31T10:11:28Z</time>
      </trkpt>
      <trkpt lat="47.87196" lon="-2.75531">
        <ele>87</ele>
        <time>2021-01-31T10:11:30Z</time>
      </trkpt>
      <trkpt lat="47.87194" lon="-2.75534">
        <ele>87</ele>
        <time>2021-01-31T10:11:32Z</time>
      </trkpt>
      <trkpt lat="47.87192" lon="-2.75537">
        <ele>87</ele>
        <time>2021-01-31T10:11:35Z</time>
      </trkpt>
      <trkpt lat="47.8719" lon="-2.75538">
        <ele>87</ele>
        <time>2021-01-31T10:11:36Z</time>
      </trkpt>
      <trkpt lat="47.87188" lon="-2.75542">
        <ele>87</ele>
        <time>2021-01-31T10:11:38Z</time>
      </trkpt>
      <trkpt lat="47.87188" lon="-2.75548">
        <ele>87</ele>
        <time>2021-01-31T10:11:40Z</time>
      </trkpt>
      <trkpt lat="47.87189" lon="-2.7555">
        <ele>87</ele>
        <time>2021-01-31T10:11:41Z</time>
      </trkpt>
      <trkpt lat="47.8719" lon="-2.75554">
        <ele>87</ele>
        <time>2021-01-31T10:11:42Z</time>
      </trkpt>
      <trkpt lat="47.8719" lon="-2.75557">
        <ele>87</ele>
        <time>2021-01-31T10:11:43Z</time>
      </trkpt>
      <trkpt lat="47.87191" lon="-2.75559">
        <ele>87</ele>
        <time>2021-01-31T10:11:45Z</time>
      </trkpt>
      <trkpt lat="47.87193" lon="-2.75564">
        <ele>87</ele>
        <time>2021-01-31T10:11:46Z</time>
      </trkpt>
      <trkpt lat="47.87194" lon="-2.75569">
        <ele>87</ele>
        <time>2021-01-31T10:11:48Z</time>
      </trkpt>
      <trkpt lat="47.87195" lon="-2.75573">
        <ele>87</ele>
        <time>2021-01-31T10:11:51Z</time>
      </trkpt>
      <trkpt lat="47.87196" lon="-2.75577">
        <ele>87</ele>
        <time>2021-01-31T10:11:52Z</time>
      </trkpt>
      <trkpt lat="47.87198" lon="-2.75581">
        <ele>87</ele>
        <time>2021-01-31T10:11:54Z</time>
      </trkpt>
      <trkpt lat="47.87199" lon="-2.75585">
        <ele>87</ele>
        <time>2021-01-31T10:11:57Z</time>
      </trkpt>
      <trkpt lat="47.87201" lon="-2.75589">
        <ele>87</ele>
        <time>2021-01-31T10:11:58Z</time>
      </trkpt>
      <trkpt lat="47.87202" lon="-2.75593">
        <ele>87</ele>
        <time>2021-01-31T10:12:00Z</time>
      </trkpt>
      <trkpt lat="47.87203" lon="-2.75597">
        <ele>87</ele>
        <time>2021-01-31T10:12:02Z</time>
      </trkpt>
      <trkpt lat="47.87203" lon="-2.756">
        <ele>87</ele>
        <time>2021-01-31T10:12:04Z</time>
      </trkpt>
      <trkpt lat="47.87204" lon="-2.75604">
        <ele>87</ele>
        <time>2021-01-31T10:12:07Z</time>
      </trkpt>
      <trkpt lat="47.87204" lon="-2.75608">
        <ele>87</ele>
        <time>2021-01-31T10:12:11Z</time>
      </trkpt>
      <trkpt lat="47.87205" lon="-2.75612">
        <ele>87</ele>
        <time>2021-01-31T10:12:12Z</time>
      </trkpt>
      <trkpt lat="47.87205" lon="-2.75615">
        <ele>87</ele>
        <time>2021-01-31T10:12:14Z</time>
      </trkpt>
      <trkpt lat="47.87205" lon="-2.75618">
        <ele>87</ele>
        <time>2021-01-31T10:12:16Z</time>
      </trkpt>
      <trkpt lat="47.87205" lon="-2.75622">
        <ele>88</ele>
        <time>2021-01-31T10:12:18Z</time>
      </trkpt>
      <trkpt lat="47.87206" lon="-2.75625">
        <ele>88</ele>
        <time>2021-01-31T10:12:19Z</time>
      </trkpt>
      <trkpt lat="47.87207" lon="-2.75628">
        <ele>88</ele>
        <time>2021-01-31T10:12:20Z</time>
      </trkpt>
      <trkpt lat="47.87208" lon="-2.7563">
        <ele>88</ele>
        <time>2021-01-31T10:12:21Z</time>
      </trkpt>
      <trkpt lat="47.87209" lon="-2.75633">
        <ele>88</ele>
        <time>2021-01-31T10:12:22Z</time>
      </trkpt>
      <trkpt lat="47.8721" lon="-2.75636">
        <ele>87</ele>
        <time>2021-01-31T10:12:23Z</time>
      </trkpt>
      <trkpt lat="47.87211" lon="-2.75638">
        <ele>87</ele>
        <time>2021-01-31T10:12:24Z</time>
      </trkpt>
      <trkpt lat="47.87213" lon="-2.75643">
        <ele>87</ele>
        <time>2021-01-31T10:12:26Z</time>
      </trkpt>
      <trkpt lat="47.87215" lon="-2.75647">
        <ele>87</ele>
        <time>2021-01-31T10:12:28Z</time>
      </trkpt>
      <trkpt lat="47.87217" lon="-2.75651">
        <ele>87</ele>
        <time>2021-01-31T10:12:30Z</time>
      </trkpt>
      <trkpt lat="47.8722" lon="-2.75655">
        <ele>87</ele>
        <time>2021-01-31T10:12:32Z</time>
      </trkpt>
      <trkpt lat="47.87223" lon="-2.75657">
        <ele>87</ele>
        <time>2021-01-31T10:12:34Z</time>
      </trkpt>
      <trkpt lat="47.87226" lon="-2.75658">
        <ele>86</ele>
        <time>2021-01-31T10:12:36Z</time>
      </trkpt>
      <trkpt lat="47.87229" lon="-2.75659">
        <ele>86</ele>
        <time>2021-01-31T10:12:38Z</time>
      </trkpt>
      <trkpt lat="47.87231" lon="-2.75659">
        <ele>86</ele>
        <time>2021-01-31T10:12:40Z</time>
      </trkpt>
      <trkpt lat="47.87233" lon="-2.7566">
        <ele>86</ele>
        <time>2021-01-31T10:12:42Z</time>
      </trkpt>
      <trkpt lat="47.87236" lon="-2.75662">
        <ele>86</ele>
        <time>2021-01-31T10:12:44Z</time>
      </trkpt>
      <trkpt lat="47.87239" lon="-2.75663">
        <ele>86</ele>
        <time>2021-01-31T10:12:46Z</time>
      </trkpt>
      <trkpt lat="47.8724" lon="-2.75664">
        <ele>85</ele>
        <time>2021-01-31T10:12:47Z</time>
      </trkpt>
      <trkpt lat="47.87243" lon="-2.75666">
        <ele>85</ele>
        <time>2021-01-31T10:12:49Z</time>
      </trkpt>
      <trkpt lat="47.87245" lon="-2.75667">
        <ele>85</ele>
        <time>2021-01-31T10:12:50Z</time>
      </trkpt>
      <trkpt lat="47.87249" lon="-2.7567">
        <ele>86</ele>
        <time>2021-01-31T10:12:52Z</time>
      </trkpt>
      <trkpt lat="47.87251" lon="-2.75671">
        <ele>86</ele>
        <time>2021-01-31T10:12:53Z</time>
      </trkpt>
      <trkpt lat="47.87253" lon="-2.75673">
        <ele>86</ele>
        <time>2021-01-31T10:12:54Z</time>
      </trkpt>
      <trkpt lat="47.87255" lon="-2.75675">
        <ele>86</ele>
        <time>2021-01-31T10:12:56Z</time>
      </trkpt>
      <trkpt lat="47.87258" lon="-2.75676">
        <ele>86</ele>
        <time>2021-01-31T10:12:58Z</time>
      </trkpt>
      <trkpt lat="47.87259" lon="-2.75678">
        <ele>86</ele>
        <time>2021-01-31T10:13:01Z</time>
      </trkpt>
      <trkpt lat="47.87262" lon="-2.75681">
        <ele>86</ele>
        <time>2021-01-31T10:13:02Z</time>
      </trkpt>
      <trkpt lat="47.87264" lon="-2.75684">
        <ele>86</ele>
        <time>2021-01-31T10:13:04Z</time>
      </trkpt>
      <trkpt lat="47.87265" lon="-2.75686">
        <ele>86</ele>
        <time>2021-01-31T10:13:07Z</time>
      </trkpt>
      <trkpt lat="47.87267" lon="-2.7569">
        <ele>86</ele>
        <time>2021-01-31T10:13:08Z</time>
      </trkpt>
      <trkpt lat="47.87268" lon="-2.75694">
        <ele>86</ele>
        <time>2021-01-31T10:13:11Z</time>
      </trkpt>
      <trkpt lat="47.87268" lon="-2.75698">
        <ele>86</ele>
        <time>2021-01-31T10:13:13Z</time>
      </trkpt>
      <trkpt lat="47.87269" lon="-2.75702">
        <ele>84.7</ele>
        <time>2021-01-31T10:13:16Z</time>
      </trkpt>
      <trkpt lat="47.87271" lon="-2.75708">
        <ele>86</ele>
        <time>2021-01-31T10:13:18Z</time>
      </trkpt>
      <trkpt lat="47.87271" lon="-2.75713">
        <ele>86</ele>
        <time>2021-01-31T10:13:20Z</time>
      </trkpt>
      <trkpt lat="47.87271" lon="-2.75715">
        <ele>86</ele>
        <time>2021-01-31T10:13:21Z</time>
      </trkpt>
      <trkpt lat="47.87272" lon="-2.75718">
        <ele>86</ele>
        <time>2021-01-31T10:13:22Z</time>
      </trkpt>
      <trkpt lat="47.87272" lon="-2.75721">
        <ele>86</ele>
        <time>2021-01-31T10:13:24Z</time>
      </trkpt>
      <trkpt lat="47.87274" lon="-2.75726">
        <ele>86</ele>
        <time>2021-01-31T10:13:25Z</time>
      </trkpt>
      <trkpt lat="47.87275" lon="-2.75729">
        <ele>86</ele>
        <time>2021-01-31T10:13:26Z</time>
      </trkpt>
      <trkpt lat="47.87276" lon="-2.75731">
        <ele>86</ele>
        <time>2021-01-31T10:13:27Z</time>
      </trkpt>
      <trkpt lat="47.87276" lon="-2.75734">
        <ele>86</ele>
        <time>2021-01-31T10:13:29Z</time>
      </trkpt>
      <trkpt lat="47.87277" lon="-2.75738">
        <ele>86</ele>
        <time>2021-01-31T10:13:30Z</time>
      </trkpt>
      <trkpt lat="47.87278" lon="-2.75742">
        <ele>86</ele>
        <time>2021-01-31T10:13:32Z</time>
      </trkpt>
      <trkpt lat="47.8728" lon="-2.75746">
        <ele>86</ele>
        <time>2021-01-31T10:13:34Z</time>
      </trkpt>
      <trkpt lat="47.87281" lon="-2.75748">
        <ele>86</ele>
        <time>2021-01-31T10:13:36Z</time>
      </trkpt>
      <trkpt lat="47.87282" lon="-2.75752">
        <ele>86</ele>
        <time>2021-01-31T10:13:38Z</time>
      </trkpt>
      <trkpt lat="47.87284" lon="-2.75755">
        <ele>86</ele>
        <time>2021-01-31T10:13:41Z</time>
      </trkpt>
      <trkpt lat="47.87285" lon="-2.7576">
        <ele>86</ele>
        <time>2021-01-31T10:13:42Z</time>
      </trkpt>
      <trkpt lat="47.87287" lon="-2.75763">
        <ele>86</ele>
        <time>2021-01-31T10:13:44Z</time>
      </trkpt>
      <trkpt lat="47.87289" lon="-2.75767">
        <ele>86</ele>
        <time>2021-01-31T10:13:46Z</time>
      </trkpt>
      <trkpt lat="47.8729" lon="-2.75771">
        <ele>87</ele>
        <time>2021-01-31T10:13:49Z</time>
      </trkpt>
      <trkpt lat="47.87292" lon="-2.75774">
        <ele>87</ele>
        <time>2021-01-31T10:13:51Z</time>
      </trkpt>
      <trkpt lat="47.87295" lon="-2.75777">
        <ele>87</ele>
        <time>2021-01-31T10:13:54Z</time>
      </trkpt>
      <trkpt lat="47.87297" lon="-2.75781">
        <ele>87</ele>
        <time>2021-01-31T10:13:55Z</time>
      </trkpt>
      <trkpt lat="47.87299" lon="-2.75785">
        <ele>87</ele>
        <time>2021-01-31T10:13:57Z</time>
      </trkpt>
      <trkpt lat="47.87301" lon="-2.75787">
        <ele>87</ele>
        <time>2021-01-31T10:13:58Z</time>
      </trkpt>
      <trkpt lat="47.87302" lon="-2.75789">
        <ele>87</ele>
        <time>2021-01-31T10:13:59Z</time>
      </trkpt>
      <trkpt lat="47.87305" lon="-2.75793">
        <ele>87</ele>
        <time>2021-01-31T10:14:01Z</time>
      </trkpt>
      <trkpt lat="47.87307" lon="-2.75796">
        <ele>87</ele>
        <time>2021-01-31T10:14:03Z</time>
      </trkpt>
      <trkpt lat="47.87309" lon="-2.75799">
        <ele>88</ele>
        <time>2021-01-31T10:14:05Z</time>
      </trkpt>
      <trkpt lat="47.8731" lon="-2.75803">
        <ele>88</ele>
        <time>2021-01-31T10:14:07Z</time>
      </trkpt>
      <trkpt lat="47.87311" lon="-2.75806">
        <ele>88</ele>
        <time>2021-01-31T10:14:09Z</time>
      </trkpt>
      <trkpt lat="47.87311" lon="-2.75809">
        <ele>88</ele>
        <time>2021-01-31T10:14:11Z</time>
      </trkpt>
      <trkpt lat="47.87311" lon="-2.75812">
        <ele>87</ele>
        <time>2021-01-31T10:14:14Z</time>
      </trkpt>
      <trkpt lat="47.87311" lon="-2.75816">
        <ele>87</ele>
        <time>2021-01-31T10:14:17Z</time>
      </trkpt>
      <trkpt lat="47.8731" lon="-2.75819">
        <ele>87</ele>
        <time>2021-01-31T10:14:19Z</time>
      </trkpt>
      <trkpt lat="47.87309" lon="-2.75823">
        <ele>86</ele>
        <time>2021-01-31T10:14:21Z</time>
      </trkpt>
      <trkpt lat="47.87307" lon="-2.75826">
        <ele>86</ele>
        <time>2021-01-31T10:14:23Z</time>
      </trkpt>
      <trkpt lat="47.87307" lon="-2.7583">
        <ele>86</ele>
        <time>2021-01-31T10:14:25Z</time>
      </trkpt>
      <trkpt lat="47.87308" lon="-2.75838">
        <ele>86</ele>
        <time>2021-01-31T10:14:28Z</time>
      </trkpt>
      <trkpt lat="47.87309" lon="-2.75841">
        <ele>86</ele>
        <time>2021-01-31T10:14:29Z</time>
      </trkpt>
      <trkpt lat="47.8731" lon="-2.75845">
        <ele>86</ele>
        <time>2021-01-31T10:14:31Z</time>
      </trkpt>
      <trkpt lat="47.8731" lon="-2.75848">
        <ele>86</ele>
        <time>2021-01-31T10:14:34Z</time>
      </trkpt>
      <trkpt lat="47.87309" lon="-2.7585">
        <ele>86</ele>
        <time>2021-01-31T10:14:35Z</time>
      </trkpt>
      <trkpt lat="47.87308" lon="-2.75854">
        <ele>86</ele>
        <time>2021-01-31T10:14:37Z</time>
      </trkpt>
      <trkpt lat="47.87307" lon="-2.75856">
        <ele>86</ele>
        <time>2021-01-31T10:14:39Z</time>
      </trkpt>
      <trkpt lat="47.87305" lon="-2.75859">
        <ele>87</ele>
        <time>2021-01-31T10:14:42Z</time>
      </trkpt>
      <trkpt lat="47.87305" lon="-2.75863">
        <ele>87</ele>
        <time>2021-01-31T10:14:43Z</time>
      </trkpt>
      <trkpt lat="47.87304" lon="-2.75868">
        <ele>87</ele>
        <time>2021-01-31T10:14:45Z</time>
      </trkpt>
      <trkpt lat="47.87305" lon="-2.75872">
        <ele>87</ele>
        <time>2021-01-31T10:14:48Z</time>
      </trkpt>
      <trkpt lat="47.87306" lon="-2.75876">
        <ele>87</ele>
        <time>2021-01-31T10:14:49Z</time>
      </trkpt>
      <trkpt lat="47.87306" lon="-2.7588">
        <ele>87</ele>
        <time>2021-01-31T10:14:51Z</time>
      </trkpt>
      <trkpt lat="47.87307" lon="-2.75885">
        <ele>87</ele>
        <time>2021-01-31T10:14:53Z</time>
      </trkpt>
      <trkpt lat="47.87308" lon="-2.75889">
        <ele>88</ele>
        <time>2021-01-31T10:14:55Z</time>
      </trkpt>
      <trkpt lat="47.8731" lon="-2.75892">
        <ele>88</ele>
        <time>2021-01-31T10:14:57Z</time>
      </trkpt>
      <trkpt lat="47.87312" lon="-2.75896">
        <ele>88</ele>
        <time>2021-01-31T10:14:59Z</time>
      </trkpt>
      <trkpt lat="47.87315" lon="-2.759">
        <ele>88</ele>
        <time>2021-01-31T10:15:01Z</time>
      </trkpt>
      <trkpt lat="47.87318" lon="-2.75903">
        <ele>88</ele>
        <time>2021-01-31T10:15:03Z</time>
      </trkpt>
      <trkpt lat="47.8732" lon="-2.75906">
        <ele>88</ele>
        <time>2021-01-31T10:15:05Z</time>
      </trkpt>
      <trkpt lat="47.87323" lon="-2.7591">
        <ele>88</ele>
        <time>2021-01-31T10:15:07Z</time>
      </trkpt>
      <trkpt lat="47.87325" lon="-2.75913">
        <ele>89</ele>
        <time>2021-01-31T10:15:09Z</time>
      </trkpt>
      <trkpt lat="47.87327" lon="-2.75917">
        <ele>89</ele>
        <time>2021-01-31T10:15:12Z</time>
      </trkpt>
      <trkpt lat="47.87328" lon="-2.7592">
        <ele>89</ele>
        <time>2021-01-31T10:15:13Z</time>
      </trkpt>
      <trkpt lat="47.87329" lon="-2.75924">
        <ele>89</ele>
        <time>2021-01-31T10:15:15Z</time>
      </trkpt>
      <trkpt lat="47.87331" lon="-2.75928">
        <ele>89</ele>
        <time>2021-01-31T10:15:17Z</time>
      </trkpt>
      <trkpt lat="47.87333" lon="-2.75932">
        <ele>89</ele>
        <time>2021-01-31T10:15:20Z</time>
      </trkpt>
      <trkpt lat="47.87335" lon="-2.75935">
        <ele>89</ele>
        <time>2021-01-31T10:15:21Z</time>
      </trkpt>
      <trkpt lat="47.87338" lon="-2.75938">
        <ele>89</ele>
        <time>2021-01-31T10:15:23Z</time>
      </trkpt>
      <trkpt lat="47.87341" lon="-2.75941">
        <ele>89</ele>
        <time>2021-01-31T10:15:26Z</time>
      </trkpt>
      <trkpt lat="47.87344" lon="-2.75944">
        <ele>89</ele>
        <time>2021-01-31T10:15:27Z</time>
      </trkpt>
      <trkpt lat="47.87346" lon="-2.75947">
        <ele>89</ele>
        <time>2021-01-31T10:15:29Z</time>
      </trkpt>
      <trkpt lat="47.87349" lon="-2.75949">
        <ele>89</ele>
        <time>2021-01-31T10:15:31Z</time>
      </trkpt>
      <trkpt lat="47.87351" lon="-2.75952">
        <ele>89</ele>
        <time>2021-01-31T10:15:34Z</time>
      </trkpt>
      <trkpt lat="47.87354" lon="-2.75955">
        <ele>89</ele>
        <time>2021-01-31T10:15:35Z</time>
      </trkpt>
      <trkpt lat="47.87356" lon="-2.75958">
        <ele>89</ele>
        <time>2021-01-31T10:15:37Z</time>
      </trkpt>
      <trkpt lat="47.87358" lon="-2.75961">
        <ele>90</ele>
        <time>2021-01-31T10:15:39Z</time>
      </trkpt>
      <trkpt lat="47.87361" lon="-2.75964">
        <ele>90</ele>
        <time>2021-01-31T10:15:41Z</time>
      </trkpt>
      <trkpt lat="47.87363" lon="-2.75966">
        <ele>90</ele>
        <time>2021-01-31T10:15:43Z</time>
      </trkpt>
      <trkpt lat="47.87366" lon="-2.75969">
        <ele>90</ele>
        <time>2021-01-31T10:15:45Z</time>
      </trkpt>
      <trkpt lat="47.87368" lon="-2.75972">
        <ele>90</ele>
        <time>2021-01-31T10:15:47Z</time>
      </trkpt>
      <trkpt lat="47.8737" lon="-2.75975">
        <ele>90</ele>
        <time>2021-01-31T10:15:50Z</time>
      </trkpt>
      <trkpt lat="47.87373" lon="-2.75978">
        <ele>90</ele>
        <time>2021-01-31T10:15:51Z</time>
      </trkpt>
      <trkpt lat="47.87375" lon="-2.75981">
        <ele>90</ele>
        <time>2021-01-31T10:15:53Z</time>
      </trkpt>
      <trkpt lat="47.87378" lon="-2.75984">
        <ele>90</ele>
        <time>2021-01-31T10:15:56Z</time>
      </trkpt>
      <trkpt lat="47.8738" lon="-2.75987">
        <ele>90</ele>
        <time>2021-01-31T10:15:57Z</time>
      </trkpt>
      <trkpt lat="47.87382" lon="-2.75989">
        <ele>90</ele>
        <time>2021-01-31T10:15:59Z</time>
      </trkpt>
      <trkpt lat="47.87384" lon="-2.75992">
        <ele>91</ele>
        <time>2021-01-31T10:16:01Z</time>
      </trkpt>
      <trkpt lat="47.87387" lon="-2.75995">
        <ele>91</ele>
        <time>2021-01-31T10:16:03Z</time>
      </trkpt>
      <trkpt lat="47.87389" lon="-2.75998">
        <ele>91</ele>
        <time>2021-01-31T10:16:06Z</time>
      </trkpt>
      <trkpt lat="47.87392" lon="-2.76001">
        <ele>91</ele>
        <time>2021-01-31T10:16:07Z</time>
      </trkpt>
      <trkpt lat="47.87394" lon="-2.76004">
        <ele>91</ele>
        <time>2021-01-31T10:16:09Z</time>
      </trkpt>
      <trkpt lat="47.87396" lon="-2.76007">
        <ele>91</ele>
        <time>2021-01-31T10:16:12Z</time>
      </trkpt>
      <trkpt lat="47.87399" lon="-2.7601">
        <ele>91</ele>
        <time>2021-01-31T10:16:13Z</time>
      </trkpt>
      <trkpt lat="47.87401" lon="-2.76012">
        <ele>91</ele>
        <time>2021-01-31T10:16:15Z</time>
      </trkpt>
      <trkpt lat="47.87403" lon="-2.76015">
        <ele>92</ele>
        <time>2021-01-31T10:16:17Z</time>
      </trkpt>
      <trkpt lat="47.87405" lon="-2.76018">
        <ele>92</ele>
        <time>2021-01-31T10:16:20Z</time>
      </trkpt>
      <trkpt lat="47.87408" lon="-2.76021">
        <ele>92</ele>
        <time>2021-01-31T10:16:21Z</time>
      </trkpt>
      <trkpt lat="47.8741" lon="-2.76024">
        <ele>92</ele>
        <time>2021-01-31T10:16:23Z</time>
      </trkpt>
      <trkpt lat="47.87412" lon="-2.76027">
        <ele>92</ele>
        <time>2021-01-31T10:16:26Z</time>
      </trkpt>
      <trkpt lat="47.87415" lon="-2.7603">
        <ele>92</ele>
        <time>2021-01-31T10:16:27Z</time>
      </trkpt>
      <trkpt lat="47.87417" lon="-2.76032">
        <ele>92</ele>
        <time>2021-01-31T10:16:29Z</time>
      </trkpt>
      <trkpt lat="47.87419" lon="-2.76035">
        <ele>92</ele>
        <time>2021-01-31T10:16:32Z</time>
      </trkpt>
      <trkpt lat="47.87422" lon="-2.76038">
        <ele>92</ele>
        <time>2021-01-31T10:16:33Z</time>
      </trkpt>
      <trkpt lat="47.87424" lon="-2.76041">
        <ele>92</ele>
        <time>2021-01-31T10:16:35Z</time>
      </trkpt>
      <trkpt lat="47.87426" lon="-2.76044">
        <ele>92</ele>
        <time>2021-01-31T10:16:37Z</time>
      </trkpt>
      <trkpt lat="47.87429" lon="-2.76047">
        <ele>92</ele>
        <time>2021-01-31T10:16:39Z</time>
      </trkpt>
      <trkpt lat="47.87431" lon="-2.7605">
        <ele>92</ele>
        <time>2021-01-31T10:16:41Z</time>
      </trkpt>
      <trkpt lat="47.87433" lon="-2.76051">
        <ele>92</ele>
        <time>2021-01-31T10:16:43Z</time>
      </trkpt>
      <trkpt lat="47.87435" lon="-2.76054">
        <ele>92</ele>
        <time>2021-01-31T10:16:45Z</time>
      </trkpt>
      <trkpt lat="47.87437" lon="-2.76057">
        <ele>92</ele>
        <time>2021-01-31T10:16:47Z</time>
      </trkpt>
      <trkpt lat="47.87439" lon="-2.7606">
        <ele>93</ele>
        <time>2021-01-31T10:16:50Z</time>
      </trkpt>
      <trkpt lat="47.87441" lon="-2.76062">
        <ele>93</ele>
        <time>2021-01-31T10:16:51Z</time>
      </trkpt>
      <trkpt lat="47.87443" lon="-2.76065">
        <ele>93</ele>
        <time>2021-01-31T10:16:53Z</time>
      </trkpt>
      <trkpt lat="47.87445" lon="-2.76067">
        <ele>93</ele>
        <time>2021-01-31T10:16:55Z</time>
      </trkpt>
      <trkpt lat="47.87447" lon="-2.76069">
        <ele>93</ele>
        <time>2021-01-31T10:16:59Z</time>
      </trkpt>
      <trkpt lat="47.87445" lon="-2.76073">
        <ele>93</ele>
        <time>2021-01-31T10:17:05Z</time>
      </trkpt>
      <trkpt lat="47.87444" lon="-2.76076">
        <ele>94</ele>
        <time>2021-01-31T10:17:08Z</time>
      </trkpt>
      <trkpt lat="47.87441" lon="-2.76079">
        <ele>94</ele>
        <time>2021-01-31T10:17:09Z</time>
      </trkpt>
      <trkpt lat="47.87438" lon="-2.76081">
        <ele>95</ele>
        <time>2021-01-31T10:17:11Z</time>
      </trkpt>
      <trkpt lat="47.87437" lon="-2.76083">
        <ele>95</ele>
        <time>2021-01-31T10:17:15Z</time>
      </trkpt>
      <trkpt lat="47.87434" lon="-2.76084">
        <ele>96</ele>
        <time>2021-01-31T10:17:17Z</time>
      </trkpt>
      <trkpt lat="47.87432" lon="-2.76086">
        <ele>96</ele>
        <time>2021-01-31T10:17:19Z</time>
      </trkpt>
      <trkpt lat="47.8743" lon="-2.76087">
        <ele>96</ele>
        <time>2021-01-31T10:17:21Z</time>
      </trkpt>
      <trkpt lat="47.87428" lon="-2.76088">
        <ele>96</ele>
        <time>2021-01-31T10:17:23Z</time>
      </trkpt>
      <trkpt lat="47.87426" lon="-2.76089">
        <ele>96</ele>
        <time>2021-01-31T10:17:25Z</time>
      </trkpt>
      <trkpt lat="47.87423" lon="-2.76088">
        <ele>96</ele>
        <time>2021-01-31T10:17:27Z</time>
      </trkpt>
      <trkpt lat="47.8742" lon="-2.76088">
        <ele>97</ele>
        <time>2021-01-31T10:17:29Z</time>
      </trkpt>
      <trkpt lat="47.87418" lon="-2.76088">
        <ele>97</ele>
        <time>2021-01-31T10:17:30Z</time>
      </trkpt>
      <trkpt lat="47.87416" lon="-2.76088">
        <ele>97</ele>
        <time>2021-01-31T10:17:32Z</time>
      </trkpt>
      <trkpt lat="47.87414" lon="-2.76088">
        <ele>97</ele>
        <time>2021-01-31T10:17:34Z</time>
      </trkpt>
      <trkpt lat="47.8741" lon="-2.76087">
        <ele>97</ele>
        <time>2021-01-31T10:17:36Z</time>
      </trkpt>
      <trkpt lat="47.87407" lon="-2.76086">
        <ele>97</ele>
        <time>2021-01-31T10:17:38Z</time>
      </trkpt>
      <trkpt lat="47.87404" lon="-2.76085">
        <ele>96</ele>
        <time>2021-01-31T10:17:40Z</time>
      </trkpt>
      <trkpt lat="47.87402" lon="-2.76086">
        <ele>96</ele>
        <time>2021-01-31T10:17:42Z</time>
      </trkpt>
      <trkpt lat="47.87399" lon="-2.76088">
        <ele>96</ele>
        <time>2021-01-31T10:17:45Z</time>
      </trkpt>
      <trkpt lat="47.87396" lon="-2.76088">
        <ele>96</ele>
        <time>2021-01-31T10:17:46Z</time>
      </trkpt>
      <trkpt lat="47.87394" lon="-2.76088">
        <ele>97</ele>
        <time>2021-01-31T10:17:48Z</time>
      </trkpt>
      <trkpt lat="47.87391" lon="-2.76086">
        <ele>97</ele>
        <time>2021-01-31T10:17:51Z</time>
      </trkpt>
      <trkpt lat="47.87389" lon="-2.76086">
        <ele>97</ele>
        <time>2021-01-31T10:17:52Z</time>
      </trkpt>
      <trkpt lat="47.87386" lon="-2.76088">
        <ele>97</ele>
        <time>2021-01-31T10:17:54Z</time>
      </trkpt>
      <trkpt lat="47.87384" lon="-2.76089">
        <ele>97</ele>
        <time>2021-01-31T10:17:56Z</time>
      </trkpt>
      <trkpt lat="47.87381" lon="-2.76089">
        <ele>97</ele>
        <time>2021-01-31T10:17:58Z</time>
      </trkpt>
      <trkpt lat="47.87379" lon="-2.76086">
        <ele>97</ele>
        <time>2021-01-31T10:18:00Z</time>
      </trkpt>
      <trkpt lat="47.87377" lon="-2.76084">
        <ele>97</ele>
        <time>2021-01-31T10:18:02Z</time>
      </trkpt>
      <trkpt lat="47.87376" lon="-2.76082">
        <ele>97</ele>
        <time>2021-01-31T10:18:04Z</time>
      </trkpt>
      <trkpt lat="47.87373" lon="-2.7608">
        <ele>96</ele>
        <time>2021-01-31T10:18:07Z</time>
      </trkpt>
      <trkpt lat="47.87371" lon="-2.76081">
        <ele>96</ele>
        <time>2021-01-31T10:18:09Z</time>
      </trkpt>
      <trkpt lat="47.87369" lon="-2.76082">
        <ele>95</ele>
        <time>2021-01-31T10:18:10Z</time>
      </trkpt>
      <trkpt lat="47.87366" lon="-2.76085">
        <ele>95</ele>
        <time>2021-01-31T10:18:12Z</time>
      </trkpt>
      <trkpt lat="47.87364" lon="-2.76087">
        <ele>95</ele>
        <time>2021-01-31T10:18:14Z</time>
      </trkpt>
      <trkpt lat="47.8736" lon="-2.76089">
        <ele>94</ele>
        <time>2021-01-31T10:18:16Z</time>
      </trkpt>
      <trkpt lat="47.87357" lon="-2.76091">
        <ele>94</ele>
        <time>2021-01-31T10:18:18Z</time>
      </trkpt>
      <trkpt lat="47.87354" lon="-2.76092">
        <ele>94</ele>
        <time>2021-01-31T10:18:20Z</time>
      </trkpt>
      <trkpt lat="47.87352" lon="-2.76092">
        <ele>94</ele>
        <time>2021-01-31T10:18:22Z</time>
      </trkpt>
      <trkpt lat="47.8735" lon="-2.76091">
        <ele>94</ele>
        <time>2021-01-31T10:18:24Z</time>
      </trkpt>
      <trkpt lat="47.87348" lon="-2.76088">
        <ele>94</ele>
        <time>2021-01-31T10:18:26Z</time>
      </trkpt>
      <trkpt lat="47.87345" lon="-2.76086">
        <ele>94</ele>
        <time>2021-01-31T10:18:28Z</time>
      </trkpt>
      <trkpt lat="47.87343" lon="-2.76084">
        <ele>95</ele>
        <time>2021-01-31T10:18:31Z</time>
      </trkpt>
      <trkpt lat="47.87341" lon="-2.76081">
        <ele>95</ele>
        <time>2021-01-31T10:18:32Z</time>
      </trkpt>
      <trkpt lat="47.87339" lon="-2.76079">
        <ele>95</ele>
        <time>2021-01-31T10:18:34Z</time>
      </trkpt>
      <trkpt lat="47.87337" lon="-2.76077">
        <ele>95</ele>
        <time>2021-01-31T10:18:36Z</time>
      </trkpt>
      <trkpt lat="47.87334" lon="-2.76075">
        <ele>95</ele>
        <time>2021-01-31T10:18:38Z</time>
      </trkpt>
      <trkpt lat="47.87332" lon="-2.76073">
        <ele>96</ele>
        <time>2021-01-31T10:18:40Z</time>
      </trkpt>
      <trkpt lat="47.87329" lon="-2.76071">
        <ele>96</ele>
        <time>2021-01-31T10:18:42Z</time>
      </trkpt>
      <trkpt lat="47.87327" lon="-2.76069">
        <ele>96</ele>
        <time>2021-01-31T10:18:44Z</time>
      </trkpt>
      <trkpt lat="47.87324" lon="-2.76066">
        <ele>96</ele>
        <time>2021-01-31T10:18:46Z</time>
      </trkpt>
      <trkpt lat="47.87323" lon="-2.76065">
        <ele>96</ele>
        <time>2021-01-31T10:18:47Z</time>
      </trkpt>
      <trkpt lat="47.87321" lon="-2.76064">
        <ele>96</ele>
        <time>2021-01-31T10:18:49Z</time>
      </trkpt>
      <trkpt lat="47.87318" lon="-2.76062">
        <ele>96</ele>
        <time>2021-01-31T10:18:50Z</time>
      </trkpt>
      <trkpt lat="47.87315" lon="-2.76059">
        <ele>96</ele>
        <time>2021-01-31T10:18:52Z</time>
      </trkpt>
      <trkpt lat="47.87312" lon="-2.76057">
        <ele>96</ele>
        <time>2021-01-31T10:18:55Z</time>
      </trkpt>
      <trkpt lat="47.8731" lon="-2.76054">
        <ele>96</ele>
        <time>2021-01-31T10:18:56Z</time>
      </trkpt>
      <trkpt lat="47.87308" lon="-2.76051">
        <ele>96</ele>
        <time>2021-01-31T10:18:59Z</time>
      </trkpt>
      <trkpt lat="47.87305" lon="-2.76049">
        <ele>96</ele>
        <time>2021-01-31T10:19:00Z</time>
      </trkpt>
      <trkpt lat="47.87302" lon="-2.76047">
        <ele>96</ele>
        <time>2021-01-31T10:19:02Z</time>
      </trkpt>
      <trkpt lat="47.87299" lon="-2.76044">
        <ele>97</ele>
        <time>2021-01-31T10:19:04Z</time>
      </trkpt>
      <trkpt lat="47.87296" lon="-2.76042">
        <ele>97</ele>
        <time>2021-01-31T10:19:06Z</time>
      </trkpt>
      <trkpt lat="47.87293" lon="-2.7604">
        <ele>97</ele>
        <time>2021-01-31T10:19:08Z</time>
      </trkpt>
      <trkpt lat="47.8729" lon="-2.76038">
        <ele>97</ele>
        <time>2021-01-31T10:19:10Z</time>
      </trkpt>
      <trkpt lat="47.87288" lon="-2.76037">
        <ele>97</ele>
        <time>2021-01-31T10:19:11Z</time>
      </trkpt>
      <trkpt lat="47.87287" lon="-2.76036">
        <ele>97</ele>
        <time>2021-01-31T10:19:12Z</time>
      </trkpt>
      <trkpt lat="47.87284" lon="-2.76034">
        <ele>97</ele>
        <time>2021-01-31T10:19:14Z</time>
      </trkpt>
      <trkpt lat="47.87281" lon="-2.76032">
        <ele>97</ele>
        <time>2021-01-31T10:19:17Z</time>
      </trkpt>
      <trkpt lat="47.87277" lon="-2.7603">
        <ele>97</ele>
        <time>2021-01-31T10:19:19Z</time>
      </trkpt>
      <trkpt lat="47.87274" lon="-2.76029">
        <ele>97</ele>
        <time>2021-01-31T10:19:20Z</time>
      </trkpt>
      <trkpt lat="47.87271" lon="-2.76027">
        <ele>97</ele>
        <time>2021-01-31T10:19:22Z</time>
      </trkpt>
      <trkpt lat="47.87268" lon="-2.76026">
        <ele>98</ele>
        <time>2021-01-31T10:19:25Z</time>
      </trkpt>
      <trkpt lat="47.87265" lon="-2.76024">
        <ele>98</ele>
        <time>2021-01-31T10:19:26Z</time>
      </trkpt>
      <trkpt lat="47.87262" lon="-2.76022">
        <ele>98</ele>
        <time>2021-01-31T10:19:28Z</time>
      </trkpt>
      <trkpt lat="47.87259" lon="-2.7602">
        <ele>98</ele>
        <time>2021-01-31T10:19:30Z</time>
      </trkpt>
      <trkpt lat="47.87257" lon="-2.76019">
        <ele>98</ele>
        <time>2021-01-31T10:19:32Z</time>
      </trkpt>
      <trkpt lat="47.87254" lon="-2.76017">
        <ele>98</ele>
        <time>2021-01-31T10:19:35Z</time>
      </trkpt>
      <trkpt lat="47.87251" lon="-2.76016">
        <ele>98</ele>
        <time>2021-01-31T10:19:36Z</time>
      </trkpt>
      <trkpt lat="47.87248" lon="-2.76015">
        <ele>98</ele>
        <time>2021-01-31T10:19:38Z</time>
      </trkpt>
      <trkpt lat="47.87245" lon="-2.76014">
        <ele>98</ele>
        <time>2021-01-31T10:19:40Z</time>
      </trkpt>
      <trkpt lat="47.87242" lon="-2.76013">
        <ele>98</ele>
        <time>2021-01-31T10:19:42Z</time>
      </trkpt>
      <trkpt lat="47.87239" lon="-2.76012">
        <ele>99</ele>
        <time>2021-01-31T10:19:44Z</time>
      </trkpt>
      <trkpt lat="47.87235" lon="-2.76011">
        <ele>99</ele>
        <time>2021-01-31T10:19:47Z</time>
      </trkpt>
      <trkpt lat="47.87232" lon="-2.7601">
        <ele>99</ele>
        <time>2021-01-31T10:19:48Z</time>
      </trkpt>
      <trkpt lat="47.87229" lon="-2.7601">
        <ele>99</ele>
        <time>2021-01-31T10:19:50Z</time>
      </trkpt>
      <trkpt lat="47.87226" lon="-2.76009">
        <ele>99</ele>
        <time>2021-01-31T10:19:53Z</time>
      </trkpt>
      <trkpt lat="47.87223" lon="-2.76008">
        <ele>99</ele>
        <time>2021-01-31T10:19:54Z</time>
      </trkpt>
      <trkpt lat="47.87219" lon="-2.76007">
        <ele>99</ele>
        <time>2021-01-31T10:19:56Z</time>
      </trkpt>
      <trkpt lat="47.87216" lon="-2.76007">
        <ele>99</ele>
        <time>2021-01-31T10:19:58Z</time>
      </trkpt>
      <trkpt lat="47.87213" lon="-2.76006">
        <ele>99</ele>
        <time>2021-01-31T10:20:00Z</time>
      </trkpt>
      <trkpt lat="47.8721" lon="-2.76006">
        <ele>99</ele>
        <time>2021-01-31T10:20:02Z</time>
      </trkpt>
      <trkpt lat="47.87207" lon="-2.76005">
        <ele>100</ele>
        <time>2021-01-31T10:20:04Z</time>
      </trkpt>
      <trkpt lat="47.87203" lon="-2.76005">
        <ele>100</ele>
        <time>2021-01-31T10:20:06Z</time>
      </trkpt>
      <trkpt lat="47.87202" lon="-2.76005">
        <ele>101</ele>
        <time>2021-01-31T10:20:07Z</time>
      </trkpt>
      <trkpt lat="47.87198" lon="-2.76004">
        <ele>101</ele>
        <time>2021-01-31T10:20:09Z</time>
      </trkpt>
      <trkpt lat="47.87195" lon="-2.76004">
        <ele>101</ele>
        <time>2021-01-31T10:20:11Z</time>
      </trkpt>
      <trkpt lat="47.87192" lon="-2.76004">
        <ele>101</ele>
        <time>2021-01-31T10:20:13Z</time>
      </trkpt>
      <trkpt lat="47.87188" lon="-2.76004">
        <ele>101</ele>
        <time>2021-01-31T10:20:15Z</time>
      </trkpt>
      <trkpt lat="47.87187" lon="-2.76004">
        <ele>101</ele>
        <time>2021-01-31T10:20:16Z</time>
      </trkpt>
      <trkpt lat="47.87183" lon="-2.76004">
        <ele>101</ele>
        <time>2021-01-31T10:20:18Z</time>
      </trkpt>
      <trkpt lat="47.8718" lon="-2.76005">
        <ele>101</ele>
        <time>2021-01-31T10:20:20Z</time>
      </trkpt>
      <trkpt lat="47.87176" lon="-2.76005">
        <ele>102</ele>
        <time>2021-01-31T10:20:22Z</time>
      </trkpt>
      <trkpt lat="47.87173" lon="-2.76005">
        <ele>103</ele>
        <time>2021-01-31T10:20:24Z</time>
      </trkpt>
      <trkpt lat="47.8717" lon="-2.76006">
        <ele>103</ele>
        <time>2021-01-31T10:20:26Z</time>
      </trkpt>
      <trkpt lat="47.87167" lon="-2.76007">
        <ele>103</ele>
        <time>2021-01-31T10:20:28Z</time>
      </trkpt>
      <trkpt lat="47.87164" lon="-2.76008">
        <ele>103</ele>
        <time>2021-01-31T10:20:30Z</time>
      </trkpt>
      <trkpt lat="47.87161" lon="-2.7601">
        <ele>103</ele>
        <time>2021-01-31T10:20:32Z</time>
      </trkpt>
      <trkpt lat="47.87159" lon="-2.76011">
        <ele>103</ele>
        <time>2021-01-31T10:20:34Z</time>
      </trkpt>
      <trkpt lat="47.87156" lon="-2.76012">
        <ele>103</ele>
        <time>2021-01-31T10:20:36Z</time>
      </trkpt>
      <trkpt lat="47.87152" lon="-2.76014">
        <ele>103</ele>
        <time>2021-01-31T10:20:38Z</time>
      </trkpt>
      <trkpt lat="47.87149" lon="-2.76016">
        <ele>104</ele>
        <time>2021-01-31T10:20:41Z</time>
      </trkpt>
      <trkpt lat="47.87148" lon="-2.76018">
        <ele>104</ele>
        <time>2021-01-31T10:20:44Z</time>
      </trkpt>
      <trkpt lat="47.87145" lon="-2.7602">
        <ele>104</ele>
        <time>2021-01-31T10:20:47Z</time>
      </trkpt>
      <trkpt lat="47.87142" lon="-2.76021">
        <ele>104</ele>
        <time>2021-01-31T10:20:48Z</time>
      </trkpt>
      <trkpt lat="47.87139" lon="-2.76023">
        <ele>105</ele>
        <time>2021-01-31T10:20:50Z</time>
      </trkpt>
      <trkpt lat="47.87135" lon="-2.76025">
        <ele>105</ele>
        <time>2021-01-31T10:20:52Z</time>
      </trkpt>
      <trkpt lat="47.87132" lon="-2.76027">
        <ele>105</ele>
        <time>2021-01-31T10:20:54Z</time>
      </trkpt>
      <trkpt lat="47.87129" lon="-2.7603">
        <ele>105</ele>
        <time>2021-01-31T10:20:56Z</time>
      </trkpt>
      <trkpt lat="47.87128" lon="-2.76031">
        <ele>105</ele>
        <time>2021-01-31T10:20:57Z</time>
      </trkpt>
      <trkpt lat="47.87125" lon="-2.76034">
        <ele>105</ele>
        <time>2021-01-31T10:20:59Z</time>
      </trkpt>
      <trkpt lat="47.87123" lon="-2.76037">
        <ele>106</ele>
        <time>2021-01-31T10:21:01Z</time>
      </trkpt>
      <trkpt lat="47.8712" lon="-2.7604">
        <ele>106</ele>
        <time>2021-01-31T10:21:03Z</time>
      </trkpt>
      <trkpt lat="47.87117" lon="-2.76043">
        <ele>106</ele>
        <time>2021-01-31T10:21:05Z</time>
      </trkpt>
      <trkpt lat="47.87115" lon="-2.76047">
        <ele>106</ele>
        <time>2021-01-31T10:21:07Z</time>
      </trkpt>
      <trkpt lat="47.87113" lon="-2.7605">
        <ele>106</ele>
        <time>2021-01-31T10:21:09Z</time>
      </trkpt>
      <trkpt lat="47.87111" lon="-2.76051">
        <ele>106</ele>
        <time>2021-01-31T10:21:10Z</time>
      </trkpt>
      <trkpt lat="47.87109" lon="-2.76054">
        <ele>106</ele>
        <time>2021-01-31T10:21:12Z</time>
      </trkpt>
      <trkpt lat="47.87106" lon="-2.76058">
        <ele>106</ele>
        <time>2021-01-31T10:21:14Z</time>
      </trkpt>
      <trkpt lat="47.87104" lon="-2.76061">
        <ele>106</ele>
        <time>2021-01-31T10:21:16Z</time>
      </trkpt>
      <trkpt lat="47.87102" lon="-2.76065">
        <ele>106</ele>
        <time>2021-01-31T10:21:18Z</time>
      </trkpt>
      <trkpt lat="47.871" lon="-2.76068">
        <ele>107</ele>
        <time>2021-01-31T10:21:20Z</time>
      </trkpt>
      <trkpt lat="47.87098" lon="-2.76071">
        <ele>107</ele>
        <time>2021-01-31T10:21:23Z</time>
      </trkpt>
      <trkpt lat="47.87095" lon="-2.76074">
        <ele>107</ele>
        <time>2021-01-31T10:21:24Z</time>
      </trkpt>
      <trkpt lat="47.87092" lon="-2.76077">
        <ele>107</ele>
        <time>2021-01-31T10:21:26Z</time>
      </trkpt>
      <trkpt lat="47.8709" lon="-2.7608">
        <ele>107</ele>
        <time>2021-01-31T10:21:28Z</time>
      </trkpt>
      <trkpt lat="47.87088" lon="-2.76084">
        <ele>107</ele>
        <time>2021-01-31T10:21:30Z</time>
      </trkpt>
      <trkpt lat="47.87086" lon="-2.76088">
        <ele>107</ele>
        <time>2021-01-31T10:21:32Z</time>
      </trkpt>
      <trkpt lat="47.87084" lon="-2.76091">
        <ele>106</ele>
        <time>2021-01-31T10:21:34Z</time>
      </trkpt>
      <trkpt lat="47.87082" lon="-2.76096">
        <ele>106</ele>
        <time>2021-01-31T10:21:36Z</time>
      </trkpt>
      <trkpt lat="47.87081" lon="-2.761">
        <ele>106</ele>
        <time>2021-01-31T10:21:38Z</time>
      </trkpt>
      <trkpt lat="47.87079" lon="-2.76104">
        <ele>106</ele>
        <time>2021-01-31T10:21:40Z</time>
      </trkpt>
      <trkpt lat="47.87078" lon="-2.76108">
        <ele>107</ele>
        <time>2021-01-31T10:21:43Z</time>
      </trkpt>
      <trkpt lat="47.87077" lon="-2.76112">
        <ele>107</ele>
        <time>2021-01-31T10:21:44Z</time>
      </trkpt>
      <trkpt lat="47.87076" lon="-2.76117">
        <ele>107</ele>
        <time>2021-01-31T10:21:46Z</time>
      </trkpt>
      <trkpt lat="47.87075" lon="-2.76121">
        <ele>107</ele>
        <time>2021-01-31T10:21:48Z</time>
      </trkpt>
      <trkpt lat="47.87075" lon="-2.76125">
        <ele>107</ele>
        <time>2021-01-31T10:21:50Z</time>
      </trkpt>
      <trkpt lat="47.87076" lon="-2.76129">
        <ele>107</ele>
        <time>2021-01-31T10:21:53Z</time>
      </trkpt>
      <trkpt lat="47.87078" lon="-2.76132">
        <ele>107</ele>
        <time>2021-01-31T10:21:56Z</time>
      </trkpt>
      <trkpt lat="47.87079" lon="-2.76136">
        <ele>107</ele>
        <time>2021-01-31T10:21:59Z</time>
      </trkpt>
      <trkpt lat="47.87081" lon="-2.76139">
        <ele>107</ele>
        <time>2021-01-31T10:22:00Z</time>
      </trkpt>
      <trkpt lat="47.87084" lon="-2.76142">
        <ele>107</ele>
        <time>2021-01-31T10:22:02Z</time>
      </trkpt>
      <trkpt lat="47.87086" lon="-2.76146">
        <ele>108</ele>
        <time>2021-01-31T10:22:04Z</time>
      </trkpt>
      <trkpt lat="47.87087" lon="-2.7615">
        <ele>108</ele>
        <time>2021-01-31T10:22:06Z</time>
      </trkpt>
      <trkpt lat="47.87089" lon="-2.76154">
        <ele>108</ele>
        <time>2021-01-31T10:22:08Z</time>
      </trkpt>
      <trkpt lat="47.87091" lon="-2.76158">
        <ele>109</ele>
        <time>2021-01-31T10:22:10Z</time>
      </trkpt>
      <trkpt lat="47.87092" lon="-2.76162">
        <ele>110</ele>
        <time>2021-01-31T10:22:12Z</time>
      </trkpt>
      <trkpt lat="47.87093" lon="-2.76166">
        <ele>110</ele>
        <time>2021-01-31T10:22:14Z</time>
      </trkpt>
      <trkpt lat="47.87095" lon="-2.7617">
        <ele>110</ele>
        <time>2021-01-31T10:22:16Z</time>
      </trkpt>
      <trkpt lat="47.87096" lon="-2.76173">
        <ele>110</ele>
        <time>2021-01-31T10:22:18Z</time>
      </trkpt>
      <trkpt lat="47.87097" lon="-2.76177">
        <ele>110</ele>
        <time>2021-01-31T10:22:20Z</time>
      </trkpt>
      <trkpt lat="47.87098" lon="-2.76181">
        <ele>110</ele>
        <time>2021-01-31T10:22:22Z</time>
      </trkpt>
      <trkpt lat="47.871" lon="-2.76184">
        <ele>111</ele>
        <time>2021-01-31T10:22:24Z</time>
      </trkpt>
      <trkpt lat="47.87101" lon="-2.76188">
        <ele>111</ele>
        <time>2021-01-31T10:22:26Z</time>
      </trkpt>
      <trkpt lat="47.87102" lon="-2.76192">
        <ele>111</ele>
        <time>2021-01-31T10:22:29Z</time>
      </trkpt>
      <trkpt lat="47.87103" lon="-2.76196">
        <ele>112</ele>
        <time>2021-01-31T10:22:30Z</time>
      </trkpt>
      <trkpt lat="47.87104" lon="-2.762">
        <ele>112</ele>
        <time>2021-01-31T10:22:32Z</time>
      </trkpt>
      <trkpt lat="47.87106" lon="-2.76204">
        <ele>112</ele>
        <time>2021-01-31T10:22:34Z</time>
      </trkpt>
      <trkpt lat="47.87107" lon="-2.76208">
        <ele>113</ele>
        <time>2021-01-31T10:22:37Z</time>
      </trkpt>
      <trkpt lat="47.87108" lon="-2.76211">
        <ele>113</ele>
        <time>2021-01-31T10:22:38Z</time>
      </trkpt>
      <trkpt lat="47.87109" lon="-2.76215">
        <ele>113</ele>
        <time>2021-01-31T10:22:40Z</time>
      </trkpt>
      <trkpt lat="47.87111" lon="-2.76219">
        <ele>114</ele>
        <time>2021-01-31T10:22:42Z</time>
      </trkpt>
      <trkpt lat="47.87112" lon="-2.76223">
        <ele>114</ele>
        <time>2021-01-31T10:22:44Z</time>
      </trkpt>
      <trkpt lat="47.87113" lon="-2.76228">
        <ele>115</ele>
        <time>2021-01-31T10:22:46Z</time>
      </trkpt>
      <trkpt lat="47.87114" lon="-2.76232">
        <ele>115</ele>
        <time>2021-01-31T10:22:48Z</time>
      </trkpt>
      <trkpt lat="47.87115" lon="-2.76236">
        <ele>115</ele>
        <time>2021-01-31T10:22:50Z</time>
      </trkpt>
      <trkpt lat="47.87116" lon="-2.7624">
        <ele>115</ele>
        <time>2021-01-31T10:22:53Z</time>
      </trkpt>
      <trkpt lat="47.87117" lon="-2.76244">
        <ele>115</ele>
        <time>2021-01-31T10:22:54Z</time>
      </trkpt>
      <trkpt lat="47.87117" lon="-2.76248">
        <ele>116</ele>
        <time>2021-01-31T10:22:56Z</time>
      </trkpt>
      <trkpt lat="47.87118" lon="-2.76252">
        <ele>116</ele>
        <time>2021-01-31T10:22:58Z</time>
      </trkpt>
      <trkpt lat="47.87118" lon="-2.76256">
        <ele>116</ele>
        <time>2021-01-31T10:23:00Z</time>
      </trkpt>
      <trkpt lat="47.87119" lon="-2.7626">
        <ele>116</ele>
        <time>2021-01-31T10:23:02Z</time>
      </trkpt>
      <trkpt lat="47.87119" lon="-2.76265">
        <ele>117</ele>
        <time>2021-01-31T10:23:05Z</time>
      </trkpt>
      <trkpt lat="47.87119" lon="-2.76269">
        <ele>117</ele>
        <time>2021-01-31T10:23:06Z</time>
      </trkpt>
      <trkpt lat="47.87119" lon="-2.76273">
        <ele>117</ele>
        <time>2021-01-31T10:23:08Z</time>
      </trkpt>
      <trkpt lat="47.87119" lon="-2.76277">
        <ele>117</ele>
        <time>2021-01-31T10:23:10Z</time>
      </trkpt>
      <trkpt lat="47.87119" lon="-2.76281">
        <ele>118</ele>
        <time>2021-01-31T10:23:12Z</time>
      </trkpt>
      <trkpt lat="47.87118" lon="-2.76285">
        <ele>118</ele>
        <time>2021-01-31T10:23:15Z</time>
      </trkpt>
      <trkpt lat="47.87118" lon="-2.7629">
        <ele>118</ele>
        <time>2021-01-31T10:23:16Z</time>
      </trkpt>
      <trkpt lat="47.87118" lon="-2.76294">
        <ele>118</ele>
        <time>2021-01-31T10:23:19Z</time>
      </trkpt>
      <trkpt lat="47.87117" lon="-2.76298">
        <ele>118</ele>
        <time>2021-01-31T10:23:20Z</time>
      </trkpt>
      <trkpt lat="47.87116" lon="-2.76303">
        <ele>119</ele>
        <time>2021-01-31T10:23:22Z</time>
      </trkpt>
      <trkpt lat="47.87116" lon="-2.76307">
        <ele>119</ele>
        <time>2021-01-31T10:23:24Z</time>
      </trkpt>
      <trkpt lat="47.87115" lon="-2.76311">
        <ele>119</ele>
        <time>2021-01-31T10:23:26Z</time>
      </trkpt>
      <trkpt lat="47.87115" lon="-2.76316">
        <ele>119</ele>
        <time>2021-01-31T10:23:28Z</time>
      </trkpt>
      <trkpt lat="47.87114" lon="-2.7632">
        <ele>119</ele>
        <time>2021-01-31T10:23:30Z</time>
      </trkpt>
      <trkpt lat="47.87114" lon="-2.76325">
        <ele>118</ele>
        <time>2021-01-31T10:23:33Z</time>
      </trkpt>
      <trkpt lat="47.87113" lon="-2.76329">
        <ele>118</ele>
        <time>2021-01-31T10:23:34Z</time>
      </trkpt>
      <trkpt lat="47.87111" lon="-2.76334">
        <ele>119</ele>
        <time>2021-01-31T10:23:36Z</time>
      </trkpt>
      <trkpt lat="47.8711" lon="-2.76337">
        <ele>119</ele>
        <time>2021-01-31T10:23:38Z</time>
      </trkpt>
      <trkpt lat="47.8711" lon="-2.76342">
        <ele>119</ele>
        <time>2021-01-31T10:23:40Z</time>
      </trkpt>
      <trkpt lat="47.87109" lon="-2.76346">
        <ele>119</ele>
        <time>2021-01-31T10:23:42Z</time>
      </trkpt>
      <trkpt lat="47.87108" lon="-2.7635">
        <ele>119</ele>
        <time>2021-01-31T10:23:45Z</time>
      </trkpt>
      <trkpt lat="47.87107" lon="-2.76353">
        <ele>119</ele>
        <time>2021-01-31T10:23:46Z</time>
      </trkpt>
      <trkpt lat="47.87105" lon="-2.76356">
        <ele>120</ele>
        <time>2021-01-31T10:23:48Z</time>
      </trkpt>
      <trkpt lat="47.87104" lon="-2.76359">
        <ele>120</ele>
        <time>2021-01-31T10:23:50Z</time>
      </trkpt>
      <trkpt lat="47.87102" lon="-2.76363">
        <ele>120</ele>
        <time>2021-01-31T10:23:53Z</time>
      </trkpt>
      <trkpt lat="47.871" lon="-2.76366">
        <ele>120</ele>
        <time>2021-01-31T10:23:54Z</time>
      </trkpt>
      <trkpt lat="47.87099" lon="-2.76369">
        <ele>120</ele>
        <time>2021-01-31T10:23:56Z</time>
      </trkpt>
      <trkpt lat="47.87097" lon="-2.76372">
        <ele>121</ele>
        <time>2021-01-31T10:23:58Z</time>
      </trkpt>
      <trkpt lat="47.87095" lon="-2.76375">
        <ele>121</ele>
        <time>2021-01-31T10:24:00Z</time>
      </trkpt>
      <trkpt lat="47.87093" lon="-2.76378">
        <ele>121</ele>
        <time>2021-01-31T10:24:02Z</time>
      </trkpt>
      <trkpt lat="47.87092" lon="-2.76382">
        <ele>121</ele>
        <time>2021-01-31T10:24:04Z</time>
      </trkpt>
      <trkpt lat="47.87091" lon="-2.76385">
        <ele>121</ele>
        <time>2021-01-31T10:24:06Z</time>
      </trkpt>
      <trkpt lat="47.87089" lon="-2.76389">
        <ele>121</ele>
        <time>2021-01-31T10:24:08Z</time>
      </trkpt>
      <trkpt lat="47.87088" lon="-2.76394">
        <ele>121</ele>
        <time>2021-01-31T10:24:10Z</time>
      </trkpt>
      <trkpt lat="47.87087" lon="-2.76396">
        <ele>121</ele>
        <time>2021-01-31T10:24:11Z</time>
      </trkpt>
      <trkpt lat="47.87086" lon="-2.76401">
        <ele>121</ele>
        <time>2021-01-31T10:24:13Z</time>
      </trkpt>
      <trkpt lat="47.87084" lon="-2.76404">
        <ele>122</ele>
        <time>2021-01-31T10:24:16Z</time>
      </trkpt>
      <trkpt lat="47.87083" lon="-2.76407">
        <ele>122</ele>
        <time>2021-01-31T10:24:17Z</time>
      </trkpt>
      <trkpt lat="47.87082" lon="-2.76411">
        <ele>126</ele>
        <time>2021-01-31T10:24:19Z</time>
      </trkpt>
      <trkpt lat="47.87081" lon="-2.76416">
        <ele>126</ele>
        <time>2021-01-31T10:24:21Z</time>
      </trkpt>
      <trkpt lat="47.8708" lon="-2.76419">
        <ele>126</ele>
        <time>2021-01-31T10:24:23Z</time>
      </trkpt>
      <trkpt lat="47.87079" lon="-2.76423">
        <ele>126</ele>
        <time>2021-01-31T10:24:25Z</time>
      </trkpt>
      <trkpt lat="47.87078" lon="-2.76426">
        <ele>127</ele>
        <time>2021-01-31T10:24:26Z</time>
      </trkpt>
      <trkpt lat="47.87078" lon="-2.7643">
        <ele>127</ele>
        <time>2021-01-31T10:24:28Z</time>
      </trkpt>
      <trkpt lat="47.87077" lon="-2.76433">
        <ele>128</ele>
        <time>2021-01-31T10:24:30Z</time>
      </trkpt>
      <trkpt lat="47.87075" lon="-2.76436">
        <ele>128</ele>
        <time>2021-01-31T10:24:32Z</time>
      </trkpt>
      <trkpt lat="47.87074" lon="-2.7644">
        <ele>128</ele>
        <time>2021-01-31T10:24:34Z</time>
      </trkpt>
      <trkpt lat="47.87074" lon="-2.76445">
        <ele>128</ele>
        <time>2021-01-31T10:24:37Z</time>
      </trkpt>
      <trkpt lat="47.87074" lon="-2.7645">
        <ele>129</ele>
        <time>2021-01-31T10:24:38Z</time>
      </trkpt>
      <trkpt lat="47.87074" lon="-2.76453">
        <ele>129</ele>
        <time>2021-01-31T10:24:39Z</time>
      </trkpt>
      <trkpt lat="47.87073" lon="-2.76458">
        <ele>129</ele>
        <time>2021-01-31T10:24:41Z</time>
      </trkpt>
      <trkpt lat="47.87072" lon="-2.76463">
        <ele>129</ele>
        <time>2021-01-31T10:24:43Z</time>
      </trkpt>
      <trkpt lat="47.87071" lon="-2.76469">
        <ele>129</ele>
        <time>2021-01-31T10:24:45Z</time>
      </trkpt>
      <trkpt lat="47.87071" lon="-2.76474">
        <ele>129</ele>
        <time>2021-01-31T10:24:47Z</time>
      </trkpt>
      <trkpt lat="47.8707" lon="-2.76479">
        <ele>130</ele>
        <time>2021-01-31T10:24:49Z</time>
      </trkpt>
      <trkpt lat="47.8707" lon="-2.76483">
        <ele>129</ele>
        <time>2021-01-31T10:24:51Z</time>
      </trkpt>
      <trkpt lat="47.87069" lon="-2.76488">
        <ele>129</ele>
        <time>2021-01-31T10:24:53Z</time>
      </trkpt>
      <trkpt lat="47.87067" lon="-2.76495">
        <ele>129</ele>
        <time>2021-01-31T10:24:56Z</time>
      </trkpt>
      <trkpt lat="47.87067" lon="-2.765">
        <ele>129</ele>
        <time>2021-01-31T10:24:58Z</time>
      </trkpt>
      <trkpt lat="47.87066" lon="-2.76504">
        <ele>129</ele>
        <time>2021-01-31T10:25:00Z</time>
      </trkpt>
      <trkpt lat="47.87064" lon="-2.76512">
        <ele>130</ele>
        <time>2021-01-31T10:25:03Z</time>
      </trkpt>
      <trkpt lat="47.87064" lon="-2.76517">
        <ele>130</ele>
        <time>2021-01-31T10:25:05Z</time>
      </trkpt>
      <trkpt lat="47.87063" lon="-2.7652">
        <ele>130</ele>
        <time>2021-01-31T10:25:07Z</time>
      </trkpt>
      <trkpt lat="47.87062" lon="-2.76525">
        <ele>130</ele>
        <time>2021-01-31T10:25:09Z</time>
      </trkpt>
      <trkpt lat="47.87062" lon="-2.7653">
        <ele>130</ele>
        <time>2021-01-31T10:25:11Z</time>
      </trkpt>
      <trkpt lat="47.87061" lon="-2.76534">
        <ele>130</ele>
        <time>2021-01-31T10:25:13Z</time>
      </trkpt>
      <trkpt lat="47.87061" lon="-2.76539">
        <ele>130</ele>
        <time>2021-01-31T10:25:15Z</time>
      </trkpt>
      <trkpt lat="47.8706" lon="-2.76543">
        <ele>130</ele>
        <time>2021-01-31T10:25:18Z</time>
      </trkpt>
      <trkpt lat="47.87058" lon="-2.76546">
        <ele>130</ele>
        <time>2021-01-31T10:25:19Z</time>
      </trkpt>
      <trkpt lat="47.87058" lon="-2.76551">
        <ele>130</ele>
        <time>2021-01-31T10:25:21Z</time>
      </trkpt>
      <trkpt lat="47.87057" lon="-2.76555">
        <ele>129</ele>
        <time>2021-01-31T10:25:23Z</time>
      </trkpt>
      <trkpt lat="47.87057" lon="-2.7656">
        <ele>129</ele>
        <time>2021-01-31T10:25:25Z</time>
      </trkpt>
      <trkpt lat="47.87056" lon="-2.76568">
        <ele>129</ele>
        <time>2021-01-31T10:25:28Z</time>
      </trkpt>
      <trkpt lat="47.87056" lon="-2.76571">
        <ele>129</ele>
        <time>2021-01-31T10:25:29Z</time>
      </trkpt>
      <trkpt lat="47.87055" lon="-2.76577">
        <ele>129</ele>
        <time>2021-01-31T10:25:31Z</time>
      </trkpt>
      <trkpt lat="47.87054" lon="-2.76581">
        <ele>129</ele>
        <time>2021-01-31T10:25:34Z</time>
      </trkpt>
      <trkpt lat="47.87053" lon="-2.76586">
        <ele>129</ele>
        <time>2021-01-31T10:25:35Z</time>
      </trkpt>
      <trkpt lat="47.87051" lon="-2.7659">
        <ele>129</ele>
        <time>2021-01-31T10:25:37Z</time>
      </trkpt>
      <trkpt lat="47.8705" lon="-2.76595">
        <ele>129</ele>
        <time>2021-01-31T10:25:39Z</time>
      </trkpt>
      <trkpt lat="47.87049" lon="-2.76598">
        <ele>129</ele>
        <time>2021-01-31T10:25:42Z</time>
      </trkpt>
      <trkpt lat="47.8705" lon="-2.76601">
        <ele>128</ele>
        <time>2021-01-31T10:25:55Z</time>
      </trkpt>
      <trkpt lat="47.87052" lon="-2.76602">
        <ele>129</ele>
        <time>2021-01-31T10:26:17Z</time>
      </trkpt>
      <trkpt lat="47.87053" lon="-2.76604">
        <ele>128</ele>
        <time>2021-01-31T10:26:31Z</time>
      </trkpt>
      <trkpt lat="47.87055" lon="-2.76606">
        <ele>128</ele>
        <time>2021-01-31T10:26:33Z</time>
      </trkpt>
      <trkpt lat="47.87057" lon="-2.76609">
        <ele>128</ele>
        <time>2021-01-31T10:26:35Z</time>
      </trkpt>
      <trkpt lat="47.8706" lon="-2.76611">
        <ele>128</ele>
        <time>2021-01-31T10:26:38Z</time>
      </trkpt>
      <trkpt lat="47.87063" lon="-2.76614">
        <ele>128</ele>
        <time>2021-01-31T10:26:39Z</time>
      </trkpt>
      <trkpt lat="47.87065" lon="-2.76617">
        <ele>128</ele>
        <time>2021-01-31T10:26:41Z</time>
      </trkpt>
      <trkpt lat="47.87067" lon="-2.7662">
        <ele>128</ele>
        <time>2021-01-31T10:26:43Z</time>
      </trkpt>
      <trkpt lat="47.8707" lon="-2.76622">
        <ele>127</ele>
        <time>2021-01-31T10:26:45Z</time>
      </trkpt>
      <trkpt lat="47.87073" lon="-2.76625">
        <ele>127</ele>
        <time>2021-01-31T10:26:47Z</time>
      </trkpt>
      <trkpt lat="47.87075" lon="-2.76627">
        <ele>127</ele>
        <time>2021-01-31T10:26:49Z</time>
      </trkpt>
      <trkpt lat="47.87078" lon="-2.7663">
        <ele>127</ele>
        <time>2021-01-31T10:26:51Z</time>
      </trkpt>
      <trkpt lat="47.87081" lon="-2.76633">
        <ele>127</ele>
        <time>2021-01-31T10:26:53Z</time>
      </trkpt>
      <trkpt lat="47.87084" lon="-2.76635">
        <ele>127</ele>
        <time>2021-01-31T10:26:55Z</time>
      </trkpt>
      <trkpt lat="47.87086" lon="-2.76639">
        <ele>126</ele>
        <time>2021-01-31T10:26:58Z</time>
      </trkpt>
      <trkpt lat="47.87089" lon="-2.76641">
        <ele>126</ele>
        <time>2021-01-31T10:26:59Z</time>
      </trkpt>
      <trkpt lat="47.87092" lon="-2.76643">
        <ele>126</ele>
        <time>2021-01-31T10:27:02Z</time>
      </trkpt>
      <trkpt lat="47.87095" lon="-2.76646">
        <ele>126</ele>
        <time>2021-01-31T10:27:03Z</time>
      </trkpt>
      <trkpt lat="47.87097" lon="-2.76649">
        <ele>126</ele>
        <time>2021-01-31T10:27:05Z</time>
      </trkpt>
      <trkpt lat="47.871" lon="-2.76651">
        <ele>126</ele>
        <time>2021-01-31T10:27:08Z</time>
      </trkpt>
      <trkpt lat="47.87102" lon="-2.76654">
        <ele>126</ele>
        <time>2021-01-31T10:27:09Z</time>
      </trkpt>
      <trkpt lat="47.87105" lon="-2.76656">
        <ele>126</ele>
        <time>2021-01-31T10:27:11Z</time>
      </trkpt>
      <trkpt lat="47.87108" lon="-2.76659">
        <ele>125</ele>
        <time>2021-01-31T10:27:13Z</time>
      </trkpt>
      <trkpt lat="47.8711" lon="-2.76662">
        <ele>125</ele>
        <time>2021-01-31T10:27:16Z</time>
      </trkpt>
      <trkpt lat="47.87113" lon="-2.76665">
        <ele>125</ele>
        <time>2021-01-31T10:27:17Z</time>
      </trkpt>
      <trkpt lat="47.87115" lon="-2.76668">
        <ele>125</ele>
        <time>2021-01-31T10:27:19Z</time>
      </trkpt>
      <trkpt lat="47.87118" lon="-2.7667">
        <ele>125</ele>
        <time>2021-01-31T10:27:22Z</time>
      </trkpt>
      <trkpt lat="47.8712" lon="-2.76672">
        <ele>125</ele>
        <time>2021-01-31T10:27:23Z</time>
      </trkpt>
      <trkpt lat="47.87122" lon="-2.76675">
        <ele>125</ele>
        <time>2021-01-31T10:27:25Z</time>
      </trkpt>
      <trkpt lat="47.87125" lon="-2.76677">
        <ele>125</ele>
        <time>2021-01-31T10:27:28Z</time>
      </trkpt>
      <trkpt lat="47.87127" lon="-2.7668">
        <ele>125</ele>
        <time>2021-01-31T10:27:29Z</time>
      </trkpt>
      <trkpt lat="47.8713" lon="-2.76683">
        <ele>125</ele>
        <time>2021-01-31T10:27:31Z</time>
      </trkpt>
      <trkpt lat="47.87132" lon="-2.76685">
        <ele>125</ele>
        <time>2021-01-31T10:27:34Z</time>
      </trkpt>
      <trkpt lat="47.87135" lon="-2.76687">
        <ele>121</ele>
        <time>2021-01-31T10:27:35Z</time>
      </trkpt>
      <trkpt lat="47.87138" lon="-2.7669">
        <ele>121</ele>
        <time>2021-01-31T10:27:37Z</time>
      </trkpt>
      <trkpt lat="47.8714" lon="-2.76692">
        <ele>121</ele>
        <time>2021-01-31T10:27:39Z</time>
      </trkpt>
      <trkpt lat="47.87143" lon="-2.76695">
        <ele>120</ele>
        <time>2021-01-31T10:27:41Z</time>
      </trkpt>
      <trkpt lat="47.87146" lon="-2.76697">
        <ele>120</ele>
        <time>2021-01-31T10:27:43Z</time>
      </trkpt>
      <trkpt lat="47.87148" lon="-2.767">
        <ele>120</ele>
        <time>2021-01-31T10:27:46Z</time>
      </trkpt>
      <trkpt lat="47.87151" lon="-2.76704">
        <ele>120</ele>
        <time>2021-01-31T10:27:47Z</time>
      </trkpt>
      <trkpt lat="47.87153" lon="-2.76707">
        <ele>120</ele>
        <time>2021-01-31T10:27:49Z</time>
      </trkpt>
      <trkpt lat="47.87155" lon="-2.76711">
        <ele>120</ele>
        <time>2021-01-31T10:27:51Z</time>
      </trkpt>
      <trkpt lat="47.87158" lon="-2.76715">
        <ele>120</ele>
        <time>2021-01-31T10:27:53Z</time>
      </trkpt>
      <trkpt lat="47.8716" lon="-2.76718">
        <ele>119</ele>
        <time>2021-01-31T10:27:55Z</time>
      </trkpt>
      <trkpt lat="47.87162" lon="-2.76723">
        <ele>119</ele>
        <time>2021-01-31T10:27:57Z</time>
      </trkpt>
      <trkpt lat="47.87163" lon="-2.76726">
        <ele>119</ele>
        <time>2021-01-31T10:27:59Z</time>
      </trkpt>
      <trkpt lat="47.87165" lon="-2.7673">
        <ele>119</ele>
        <time>2021-01-31T10:28:01Z</time>
      </trkpt>
      <trkpt lat="47.87167" lon="-2.76734">
        <ele>119</ele>
        <time>2021-01-31T10:28:03Z</time>
      </trkpt>
      <trkpt lat="47.87169" lon="-2.76738">
        <ele>119</ele>
        <time>2021-01-31T10:28:06Z</time>
      </trkpt>
      <trkpt lat="47.87171" lon="-2.76742">
        <ele>119</ele>
        <time>2021-01-31T10:28:07Z</time>
      </trkpt>
      <trkpt lat="47.87173" lon="-2.76746">
        <ele>119</ele>
        <time>2021-01-31T10:28:09Z</time>
      </trkpt>
      <trkpt lat="47.87175" lon="-2.76749">
        <ele>119</ele>
        <time>2021-01-31T10:28:11Z</time>
      </trkpt>
      <trkpt lat="47.87177" lon="-2.76753">
        <ele>119</ele>
        <time>2021-01-31T10:28:13Z</time>
      </trkpt>
      <trkpt lat="47.87179" lon="-2.76757">
        <ele>119</ele>
        <time>2021-01-31T10:28:16Z</time>
      </trkpt>
      <trkpt lat="47.87181" lon="-2.76761">
        <ele>119</ele>
        <time>2021-01-31T10:28:17Z</time>
      </trkpt>
      <trkpt lat="47.87183" lon="-2.76764">
        <ele>119</ele>
        <time>2021-01-31T10:28:19Z</time>
      </trkpt>
      <trkpt lat="47.87185" lon="-2.76768">
        <ele>119</ele>
        <time>2021-01-31T10:28:22Z</time>
      </trkpt>
      <trkpt lat="47.87187" lon="-2.76772">
        <ele>119</ele>
        <time>2021-01-31T10:28:23Z</time>
      </trkpt>
      <trkpt lat="47.87189" lon="-2.76775">
        <ele>119</ele>
        <time>2021-01-31T10:28:25Z</time>
      </trkpt>
      <trkpt lat="47.87191" lon="-2.76779">
        <ele>119</ele>
        <time>2021-01-31T10:28:28Z</time>
      </trkpt>
      <trkpt lat="47.87193" lon="-2.76782">
        <ele>119</ele>
        <time>2021-01-31T10:28:30Z</time>
      </trkpt>
      <trkpt lat="47.87195" lon="-2.76786">
        <ele>119</ele>
        <time>2021-01-31T10:28:31Z</time>
      </trkpt>
      <trkpt lat="47.87196" lon="-2.7679">
        <ele>119</ele>
        <time>2021-01-31T10:28:33Z</time>
      </trkpt>
      <trkpt lat="47.87198" lon="-2.76793">
        <ele>119</ele>
        <time>2021-01-31T10:28:36Z</time>
      </trkpt>
      <trkpt lat="47.872" lon="-2.76797">
        <ele>119</ele>
        <time>2021-01-31T10:28:37Z</time>
      </trkpt>
      <trkpt lat="47.87202" lon="-2.768">
        <ele>119</ele>
        <time>2021-01-31T10:28:39Z</time>
      </trkpt>
      <trkpt lat="47.87204" lon="-2.76804">
        <ele>119</ele>
        <time>2021-01-31T10:28:41Z</time>
      </trkpt>
      <trkpt lat="47.87206" lon="-2.76807">
        <ele>119</ele>
        <time>2021-01-31T10:28:43Z</time>
      </trkpt>
      <trkpt lat="47.87207" lon="-2.76811">
        <ele>119</ele>
        <time>2021-01-31T10:28:45Z</time>
      </trkpt>
      <trkpt lat="47.87209" lon="-2.76815">
        <ele>119</ele>
        <time>2021-01-31T10:28:47Z</time>
      </trkpt>
      <trkpt lat="47.87211" lon="-2.76819">
        <ele>119</ele>
        <time>2021-01-31T10:28:49Z</time>
      </trkpt>
      <trkpt lat="47.87213" lon="-2.76822">
        <ele>119</ele>
        <time>2021-01-31T10:28:51Z</time>
      </trkpt>
      <trkpt lat="47.87215" lon="-2.76826">
        <ele>119</ele>
        <time>2021-01-31T10:28:53Z</time>
      </trkpt>
      <trkpt lat="47.87217" lon="-2.7683">
        <ele>119</ele>
        <time>2021-01-31T10:28:55Z</time>
      </trkpt>
      <trkpt lat="47.87219" lon="-2.76833">
        <ele>119</ele>
        <time>2021-01-31T10:28:57Z</time>
      </trkpt>
      <trkpt lat="47.87221" lon="-2.76837">
        <ele>119</ele>
        <time>2021-01-31T10:28:59Z</time>
      </trkpt>
      <trkpt lat="47.87223" lon="-2.76841">
        <ele>119</ele>
        <time>2021-01-31T10:29:01Z</time>
      </trkpt>
      <trkpt lat="47.87225" lon="-2.76845">
        <ele>118</ele>
        <time>2021-01-31T10:29:03Z</time>
      </trkpt>
      <trkpt lat="47.87226" lon="-2.76849">
        <ele>119</ele>
        <time>2021-01-31T10:29:05Z</time>
      </trkpt>
      <trkpt lat="47.87228" lon="-2.76853">
        <ele>119</ele>
        <time>2021-01-31T10:29:08Z</time>
      </trkpt>
      <trkpt lat="47.8723" lon="-2.76857">
        <ele>119</ele>
        <time>2021-01-31T10:29:09Z</time>
      </trkpt>
      <trkpt lat="47.87231" lon="-2.76861">
        <ele>119</ele>
        <time>2021-01-31T10:29:11Z</time>
      </trkpt>
      <trkpt lat="47.87233" lon="-2.76865">
        <ele>119</ele>
        <time>2021-01-31T10:29:13Z</time>
      </trkpt>
      <trkpt lat="47.87235" lon="-2.76869">
        <ele>119</ele>
        <time>2021-01-31T10:29:15Z</time>
      </trkpt>
      <trkpt lat="47.87237" lon="-2.76873">
        <ele>119</ele>
        <time>2021-01-31T10:29:17Z</time>
      </trkpt>
      <trkpt lat="47.87239" lon="-2.76876">
        <ele>119</ele>
        <time>2021-01-31T10:29:20Z</time>
      </trkpt>
      <trkpt lat="47.87241" lon="-2.7688">
        <ele>119</ele>
        <time>2021-01-31T10:29:21Z</time>
      </trkpt>
      <trkpt lat="47.87242" lon="-2.76884">
        <ele>119</ele>
        <time>2021-01-31T10:29:23Z</time>
      </trkpt>
      <trkpt lat="47.87244" lon="-2.76887">
        <ele>120</ele>
        <time>2021-01-31T10:29:25Z</time>
      </trkpt>
      <trkpt lat="47.87246" lon="-2.76891">
        <ele>120</ele>
        <time>2021-01-31T10:29:27Z</time>
      </trkpt>
      <trkpt lat="47.87248" lon="-2.76895">
        <ele>120</ele>
        <time>2021-01-31T10:29:29Z</time>
      </trkpt>
      <trkpt lat="47.87249" lon="-2.76898">
        <ele>119</ele>
        <time>2021-01-31T10:29:32Z</time>
      </trkpt>
      <trkpt lat="47.87251" lon="-2.76901">
        <ele>119</ele>
        <time>2021-01-31T10:29:33Z</time>
      </trkpt>
      <trkpt lat="47.87253" lon="-2.76904">
        <ele>119</ele>
        <time>2021-01-31T10:29:35Z</time>
      </trkpt>
      <trkpt lat="47.87255" lon="-2.76907">
        <ele>119</ele>
        <time>2021-01-31T10:29:37Z</time>
      </trkpt>
      <trkpt lat="47.87257" lon="-2.7691">
        <ele>119</ele>
        <time>2021-01-31T10:29:39Z</time>
      </trkpt>
      <trkpt lat="47.87259" lon="-2.76914">
        <ele>119</ele>
        <time>2021-01-31T10:29:42Z</time>
      </trkpt>
      <trkpt lat="47.87261" lon="-2.76918">
        <ele>119</ele>
        <time>2021-01-31T10:29:43Z</time>
      </trkpt>
      <trkpt lat="47.87262" lon="-2.76922">
        <ele>119</ele>
        <time>2021-01-31T10:29:45Z</time>
      </trkpt>
      <trkpt lat="47.87264" lon="-2.76927">
        <ele>119</ele>
        <time>2021-01-31T10:29:48Z</time>
      </trkpt>
      <trkpt lat="47.87266" lon="-2.76931">
        <ele>119</ele>
        <time>2021-01-31T10:29:49Z</time>
      </trkpt>
      <trkpt lat="47.87268" lon="-2.76935">
        <ele>118</ele>
        <time>2021-01-31T10:29:51Z</time>
      </trkpt>
      <trkpt lat="47.87269" lon="-2.76939">
        <ele>118</ele>
        <time>2021-01-31T10:29:53Z</time>
      </trkpt>
      <trkpt lat="47.87268" lon="-2.76944">
        <ele>118</ele>
        <time>2021-01-31T10:29:55Z</time>
      </trkpt>
      <trkpt lat="47.87266" lon="-2.76948">
        <ele>118</ele>
        <time>2021-01-31T10:29:58Z</time>
      </trkpt>
      <trkpt lat="47.87263" lon="-2.76951">
        <ele>118</ele>
        <time>2021-01-31T10:29:59Z</time>
      </trkpt>
      <trkpt lat="47.87261" lon="-2.76952">
        <ele>118</ele>
        <time>2021-01-31T10:30:01Z</time>
      </trkpt>
      <trkpt lat="47.87258" lon="-2.76955">
        <ele>118</ele>
        <time>2021-01-31T10:30:03Z</time>
      </trkpt>
      <trkpt lat="47.87255" lon="-2.76956">
        <ele>118</ele>
        <time>2021-01-31T10:30:05Z</time>
      </trkpt>
      <trkpt lat="47.87253" lon="-2.76958">
        <ele>119</ele>
        <time>2021-01-31T10:30:07Z</time>
      </trkpt>
      <trkpt lat="47.8725" lon="-2.76959">
        <ele>119</ele>
        <time>2021-01-31T10:30:09Z</time>
      </trkpt>
      <trkpt lat="47.87247" lon="-2.76961">
        <ele>119</ele>
        <time>2021-01-31T10:30:11Z</time>
      </trkpt>
      <trkpt lat="47.87245" lon="-2.76962">
        <ele>119</ele>
        <time>2021-01-31T10:30:14Z</time>
      </trkpt>
      <trkpt lat="47.87242" lon="-2.76964">
        <ele>119</ele>
        <time>2021-01-31T10:30:15Z</time>
      </trkpt>
      <trkpt lat="47.87239" lon="-2.76967">
        <ele>119</ele>
        <time>2021-01-31T10:30:17Z</time>
      </trkpt>
      <trkpt lat="47.87237" lon="-2.76969">
        <ele>119</ele>
        <time>2021-01-31T10:30:19Z</time>
      </trkpt>
      <trkpt lat="47.87234" lon="-2.76971">
        <ele>119</ele>
        <time>2021-01-31T10:30:21Z</time>
      </trkpt>
      <trkpt lat="47.87231" lon="-2.76972">
        <ele>119</ele>
        <time>2021-01-31T10:30:24Z</time>
      </trkpt>
      <trkpt lat="47.87229" lon="-2.76974">
        <ele>119</ele>
        <time>2021-01-31T10:30:25Z</time>
      </trkpt>
      <trkpt lat="47.87226" lon="-2.76976">
        <ele>119</ele>
        <time>2021-01-31T10:30:27Z</time>
      </trkpt>
      <trkpt lat="47.87223" lon="-2.76978">
        <ele>119</ele>
        <time>2021-01-31T10:30:29Z</time>
      </trkpt>
      <trkpt lat="47.8722" lon="-2.7698">
        <ele>120</ele>
        <time>2021-01-31T10:30:31Z</time>
      </trkpt>
      <trkpt lat="47.87218" lon="-2.76982">
        <ele>120</ele>
        <time>2021-01-31T10:30:33Z</time>
      </trkpt>
      <trkpt lat="47.87215" lon="-2.76984">
        <ele>120</ele>
        <time>2021-01-31T10:30:35Z</time>
      </trkpt>
      <trkpt lat="47.87212" lon="-2.76986">
        <ele>120</ele>
        <time>2021-01-31T10:30:37Z</time>
      </trkpt>
      <trkpt lat="47.87209" lon="-2.76988">
        <ele>120</ele>
        <time>2021-01-31T10:30:39Z</time>
      </trkpt>
      <trkpt lat="47.87206" lon="-2.76989">
        <ele>120</ele>
        <time>2021-01-31T10:30:41Z</time>
      </trkpt>
      <trkpt lat="47.87203" lon="-2.76991">
        <ele>120</ele>
        <time>2021-01-31T10:30:43Z</time>
      </trkpt>
      <trkpt lat="47.872" lon="-2.76994">
        <ele>120</ele>
        <time>2021-01-31T10:30:45Z</time>
      </trkpt>
      <trkpt lat="47.87196" lon="-2.76997">
        <ele>120</ele>
        <time>2021-01-31T10:30:48Z</time>
      </trkpt>
      <trkpt lat="47.87193" lon="-2.76999">
        <ele>120</ele>
        <time>2021-01-31T10:30:51Z</time>
      </trkpt>
      <trkpt lat="47.8719" lon="-2.77001">
        <ele>120</ele>
        <time>2021-01-31T10:30:52Z</time>
      </trkpt>
      <trkpt lat="47.87187" lon="-2.77003">
        <ele>120</ele>
        <time>2021-01-31T10:30:54Z</time>
      </trkpt>
      <trkpt lat="47.87184" lon="-2.77005">
        <ele>120</ele>
        <time>2021-01-31T10:30:57Z</time>
      </trkpt>
      <trkpt lat="47.87181" lon="-2.77007">
        <ele>120</ele>
        <time>2021-01-31T10:30:58Z</time>
      </trkpt>
      <trkpt lat="47.87179" lon="-2.77009">
        <ele>120</ele>
        <time>2021-01-31T10:31:00Z</time>
      </trkpt>
      <trkpt lat="47.87176" lon="-2.77011">
        <ele>120</ele>
        <time>2021-01-31T10:31:02Z</time>
      </trkpt>
      <trkpt lat="47.87173" lon="-2.77013">
        <ele>121</ele>
        <time>2021-01-31T10:31:04Z</time>
      </trkpt>
      <trkpt lat="47.8717" lon="-2.77015">
        <ele>121</ele>
        <time>2021-01-31T10:31:06Z</time>
      </trkpt>
      <trkpt lat="47.87167" lon="-2.77018">
        <ele>121</ele>
        <time>2021-01-31T10:31:08Z</time>
      </trkpt>
      <trkpt lat="47.87165" lon="-2.77019">
        <ele>121</ele>
        <time>2021-01-31T10:31:11Z</time>
      </trkpt>
      <trkpt lat="47.87162" lon="-2.77021">
        <ele>121</ele>
        <time>2021-01-31T10:31:12Z</time>
      </trkpt>
      <trkpt lat="47.87159" lon="-2.77023">
        <ele>121</ele>
        <time>2021-01-31T10:31:14Z</time>
      </trkpt>
      <trkpt lat="47.87157" lon="-2.77025">
        <ele>125</ele>
        <time>2021-01-31T10:31:16Z</time>
      </trkpt>
      <trkpt lat="47.87154" lon="-2.77027">
        <ele>125</ele>
        <time>2021-01-31T10:31:18Z</time>
      </trkpt>
      <trkpt lat="47.87151" lon="-2.77029">
        <ele>121</ele>
        <time>2021-01-31T10:31:21Z</time>
      </trkpt>
      <trkpt lat="47.87148" lon="-2.77031">
        <ele>124</ele>
        <time>2021-01-31T10:31:22Z</time>
      </trkpt>
      <trkpt lat="47.87145" lon="-2.77032">
        <ele>124</ele>
        <time>2021-01-31T10:31:24Z</time>
      </trkpt>
      <trkpt lat="47.87143" lon="-2.77034">
        <ele>124</ele>
        <time>2021-01-31T10:31:26Z</time>
      </trkpt>
      <trkpt lat="47.8714" lon="-2.77036">
        <ele>125</ele>
        <time>2021-01-31T10:31:28Z</time>
      </trkpt>
      <trkpt lat="47.87137" lon="-2.77039">
        <ele>125</ele>
        <time>2021-01-31T10:31:30Z</time>
      </trkpt>
      <trkpt lat="47.87134" lon="-2.77041">
        <ele>125</ele>
        <time>2021-01-31T10:31:32Z</time>
      </trkpt>
      <trkpt lat="47.87131" lon="-2.77043">
        <ele>125</ele>
        <time>2021-01-31T10:31:35Z</time>
      </trkpt>
      <trkpt lat="47.87128" lon="-2.77045">
        <ele>125</ele>
        <time>2021-01-31T10:31:36Z</time>
      </trkpt>
      <trkpt lat="47.87126" lon="-2.77047">
        <ele>125</ele>
        <time>2021-01-31T10:31:38Z</time>
      </trkpt>
      <trkpt lat="47.87123" lon="-2.77049">
        <ele>126</ele>
        <time>2021-01-31T10:31:40Z</time>
      </trkpt>
      <trkpt lat="47.8712" lon="-2.77051">
        <ele>126</ele>
        <time>2021-01-31T10:31:43Z</time>
      </trkpt>
      <trkpt lat="47.87117" lon="-2.77054">
        <ele>126</ele>
        <time>2021-01-31T10:31:44Z</time>
      </trkpt>
      <trkpt lat="47.87114" lon="-2.77056">
        <ele>126</ele>
        <time>2021-01-31T10:31:46Z</time>
      </trkpt>
      <trkpt lat="47.87111" lon="-2.77058">
        <ele>127</ele>
        <time>2021-01-31T10:31:49Z</time>
      </trkpt>
      <trkpt lat="47.87108" lon="-2.7706">
        <ele>127</ele>
        <time>2021-01-31T10:31:50Z</time>
      </trkpt>
      <trkpt lat="47.87106" lon="-2.77061">
        <ele>127</ele>
        <time>2021-01-31T10:31:52Z</time>
      </trkpt>
      <trkpt lat="47.87103" lon="-2.77063">
        <ele>128</ele>
        <time>2021-01-31T10:31:54Z</time>
      </trkpt>
      <trkpt lat="47.871" lon="-2.77065">
        <ele>128</ele>
        <time>2021-01-31T10:31:56Z</time>
      </trkpt>
      <trkpt lat="47.87097" lon="-2.77067">
        <ele>128</ele>
        <time>2021-01-31T10:31:58Z</time>
      </trkpt>
      <trkpt lat="47.87094" lon="-2.77069">
        <ele>128</ele>
        <time>2021-01-31T10:32:01Z</time>
      </trkpt>
      <trkpt lat="47.87091" lon="-2.77071">
        <ele>128</ele>
        <time>2021-01-31T10:32:02Z</time>
      </trkpt>
      <trkpt lat="47.87088" lon="-2.77073">
        <ele>128</ele>
        <time>2021-01-31T10:32:04Z</time>
      </trkpt>
      <trkpt lat="47.87085" lon="-2.77075">
        <ele>128</ele>
        <time>2021-01-31T10:32:07Z</time>
      </trkpt>
      <trkpt lat="47.87082" lon="-2.77076">
        <ele>128</ele>
        <time>2021-01-31T10:32:08Z</time>
      </trkpt>
      <trkpt lat="47.87079" lon="-2.77078">
        <ele>129</ele>
        <time>2021-01-31T10:32:10Z</time>
      </trkpt>
      <trkpt lat="47.87076" lon="-2.7708">
        <ele>129</ele>
        <time>2021-01-31T10:32:12Z</time>
      </trkpt>
      <trkpt lat="47.87073" lon="-2.77082">
        <ele>129</ele>
        <time>2021-01-31T10:32:14Z</time>
      </trkpt>
      <trkpt lat="47.8707" lon="-2.77083">
        <ele>129</ele>
        <time>2021-01-31T10:32:16Z</time>
      </trkpt>
      <trkpt lat="47.87067" lon="-2.77084">
        <ele>129</ele>
        <time>2021-01-31T10:32:18Z</time>
      </trkpt>
      <trkpt lat="47.87064" lon="-2.77084">
        <ele>130</ele>
        <time>2021-01-31T10:32:21Z</time>
      </trkpt>
      <trkpt lat="47.87061" lon="-2.77085">
        <ele>130</ele>
        <time>2021-01-31T10:32:22Z</time>
      </trkpt>
      <trkpt lat="47.87058" lon="-2.77085">
        <ele>130</ele>
        <time>2021-01-31T10:32:24Z</time>
      </trkpt>
      <trkpt lat="47.87055" lon="-2.77086">
        <ele>130</ele>
        <time>2021-01-31T10:32:26Z</time>
      </trkpt>
      <trkpt lat="47.87052" lon="-2.77086">
        <ele>131</ele>
        <time>2021-01-31T10:32:28Z</time>
      </trkpt>
      <trkpt lat="47.87049" lon="-2.77087">
        <ele>131</ele>
        <time>2021-01-31T10:32:30Z</time>
      </trkpt>
      <trkpt lat="47.87046" lon="-2.77087">
        <ele>131</ele>
        <time>2021-01-31T10:32:32Z</time>
      </trkpt>
      <trkpt lat="47.87043" lon="-2.77087">
        <ele>131</ele>
        <time>2021-01-31T10:32:34Z</time>
      </trkpt>
      <trkpt lat="47.8704" lon="-2.77088">
        <ele>131</ele>
        <time>2021-01-31T10:32:36Z</time>
      </trkpt>
      <trkpt lat="47.87037" lon="-2.77088">
        <ele>131</ele>
        <time>2021-01-31T10:32:38Z</time>
      </trkpt>
      <trkpt lat="47.87033" lon="-2.77089">
        <ele>131</ele>
        <time>2021-01-31T10:32:40Z</time>
      </trkpt>
      <trkpt lat="47.8703" lon="-2.77089">
        <ele>131</ele>
        <time>2021-01-31T10:32:42Z</time>
      </trkpt>
      <trkpt lat="47.87027" lon="-2.77089">
        <ele>131</ele>
        <time>2021-01-31T10:32:44Z</time>
      </trkpt>
      <trkpt lat="47.87024" lon="-2.77089">
        <ele>131</ele>
        <time>2021-01-31T10:32:46Z</time>
      </trkpt>
      <trkpt lat="47.8702" lon="-2.7709">
        <ele>131</ele>
        <time>2021-01-31T10:32:48Z</time>
      </trkpt>
      <trkpt lat="47.87017" lon="-2.77091">
        <ele>131</ele>
        <time>2021-01-31T10:32:50Z</time>
      </trkpt>
      <trkpt lat="47.87014" lon="-2.77092">
        <ele>131</ele>
        <time>2021-01-31T10:32:52Z</time>
      </trkpt>
      <trkpt lat="47.8701" lon="-2.77093">
        <ele>131</ele>
        <time>2021-01-31T10:32:54Z</time>
      </trkpt>
      <trkpt lat="47.87007" lon="-2.77095">
        <ele>130</ele>
        <time>2021-01-31T10:32:56Z</time>
      </trkpt>
      <trkpt lat="47.87004" lon="-2.77096">
        <ele>130</ele>
        <time>2021-01-31T10:32:58Z</time>
      </trkpt>
      <trkpt lat="47.87001" lon="-2.77097">
        <ele>130</ele>
        <time>2021-01-31T10:33:00Z</time>
      </trkpt>
      <trkpt lat="47.86998" lon="-2.77098">
        <ele>130</ele>
        <time>2021-01-31T10:33:02Z</time>
      </trkpt>
      <trkpt lat="47.86995" lon="-2.77099">
        <ele>130</ele>
        <time>2021-01-31T10:33:04Z</time>
      </trkpt>
      <trkpt lat="47.86992" lon="-2.77101">
        <ele>130</ele>
        <time>2021-01-31T10:33:07Z</time>
      </trkpt>
      <trkpt lat="47.86989" lon="-2.77102">
        <ele>130</ele>
        <time>2021-01-31T10:33:08Z</time>
      </trkpt>
      <trkpt lat="47.86986" lon="-2.77104">
        <ele>130</ele>
        <time>2021-01-31T10:33:10Z</time>
      </trkpt>
      <trkpt lat="47.86983" lon="-2.77105">
        <ele>130</ele>
        <time>2021-01-31T10:33:12Z</time>
      </trkpt>
      <trkpt lat="47.86981" lon="-2.77107">
        <ele>130</ele>
        <time>2021-01-31T10:33:15Z</time>
      </trkpt>
      <trkpt lat="47.86978" lon="-2.77109">
        <ele>130</ele>
        <time>2021-01-31T10:33:16Z</time>
      </trkpt>
      <trkpt lat="47.86974" lon="-2.77109">
        <ele>129</ele>
        <time>2021-01-31T10:33:19Z</time>
      </trkpt>
      <trkpt lat="47.86973" lon="-2.7711">
        <ele>129</ele>
        <time>2021-01-31T10:33:20Z</time>
      </trkpt>
      <trkpt lat="47.8697" lon="-2.77112">
        <ele>129</ele>
        <time>2021-01-31T10:33:22Z</time>
      </trkpt>
      <trkpt lat="47.86968" lon="-2.77113">
        <ele>129</ele>
        <time>2021-01-31T10:33:24Z</time>
      </trkpt>
      <trkpt lat="47.86966" lon="-2.77115">
        <ele>129</ele>
        <time>2021-01-31T10:33:26Z</time>
      </trkpt>
      <trkpt lat="47.86964" lon="-2.77115">
        <ele>129</ele>
        <time>2021-01-31T10:33:27Z</time>
      </trkpt>
      <trkpt lat="47.86961" lon="-2.77115">
        <ele>129</ele>
        <time>2021-01-31T10:33:28Z</time>
      </trkpt>
      <trkpt lat="47.8696" lon="-2.77116">
        <ele>129</ele>
        <time>2021-01-31T10:33:29Z</time>
      </trkpt>
      <trkpt lat="47.86956" lon="-2.77117">
        <ele>129</ele>
        <time>2021-01-31T10:33:31Z</time>
      </trkpt>
      <trkpt lat="47.86954" lon="-2.77118">
        <ele>129</ele>
        <time>2021-01-31T10:33:34Z</time>
      </trkpt>
      <trkpt lat="47.86951" lon="-2.77119">
        <ele>129</ele>
        <time>2021-01-31T10:33:35Z</time>
      </trkpt>
      <trkpt lat="47.86948" lon="-2.77119">
        <ele>129</ele>
        <time>2021-01-31T10:33:37Z</time>
      </trkpt>
      <trkpt lat="47.86946" lon="-2.7712">
        <ele>129</ele>
        <time>2021-01-31T10:33:39Z</time>
      </trkpt>
      <trkpt lat="47.86943" lon="-2.77121">
        <ele>129</ele>
        <time>2021-01-31T10:33:42Z</time>
      </trkpt>
      <trkpt lat="47.8694" lon="-2.77123">
        <ele>129</ele>
        <time>2021-01-31T10:33:43Z</time>
      </trkpt>
      <trkpt lat="47.86937" lon="-2.77125">
        <ele>129</ele>
        <time>2021-01-31T10:33:45Z</time>
      </trkpt>
      <trkpt lat="47.86935" lon="-2.77126">
        <ele>129</ele>
        <time>2021-01-31T10:33:47Z</time>
      </trkpt>
      <trkpt lat="47.86932" lon="-2.77127">
        <ele>129</ele>
        <time>2021-01-31T10:33:49Z</time>
      </trkpt>
      <trkpt lat="47.86928" lon="-2.77128">
        <ele>129</ele>
        <time>2021-01-31T10:33:51Z</time>
      </trkpt>
      <trkpt lat="47.86926" lon="-2.77128">
        <ele>128</ele>
        <time>2021-01-31T10:33:52Z</time>
      </trkpt>
      <trkpt lat="47.86924" lon="-2.77128">
        <ele>128</ele>
        <time>2021-01-31T10:33:53Z</time>
      </trkpt>
      <trkpt lat="47.86922" lon="-2.77128">
        <ele>128</ele>
        <time>2021-01-31T10:33:54Z</time>
      </trkpt>
      <trkpt lat="47.86919" lon="-2.77128">
        <ele>128</ele>
        <time>2021-01-31T10:33:56Z</time>
      </trkpt>
      <trkpt lat="47.86916" lon="-2.77128">
        <ele>128</ele>
        <time>2021-01-31T10:33:58Z</time>
      </trkpt>
      <trkpt lat="47.86914" lon="-2.77127">
        <ele>128</ele>
        <time>2021-01-31T10:34:00Z</time>
      </trkpt>
      <trkpt lat="47.86911" lon="-2.77127">
        <ele>128</ele>
        <time>2021-01-31T10:34:02Z</time>
      </trkpt>
      <trkpt lat="47.86908" lon="-2.77127">
        <ele>127</ele>
        <time>2021-01-31T10:34:04Z</time>
      </trkpt>
      <trkpt lat="47.86904" lon="-2.77127">
        <ele>127</ele>
        <time>2021-01-31T10:34:06Z</time>
      </trkpt>
      <trkpt lat="47.86901" lon="-2.77126">
        <ele>127</ele>
        <time>2021-01-31T10:34:08Z</time>
      </trkpt>
      <trkpt lat="47.86898" lon="-2.77124">
        <ele>126</ele>
        <time>2021-01-31T10:34:10Z</time>
      </trkpt>
      <trkpt lat="47.86894" lon="-2.77123">
        <ele>126</ele>
        <time>2021-01-31T10:34:12Z</time>
      </trkpt>
      <trkpt lat="47.86891" lon="-2.77122">
        <ele>126</ele>
        <time>2021-01-31T10:34:14Z</time>
      </trkpt>
      <trkpt lat="47.86888" lon="-2.7712">
        <ele>126</ele>
        <time>2021-01-31T10:34:16Z</time>
      </trkpt>
      <trkpt lat="47.86885" lon="-2.77119">
        <ele>126</ele>
        <time>2021-01-31T10:34:18Z</time>
      </trkpt>
      <trkpt lat="47.86882" lon="-2.77118">
        <ele>126</ele>
        <time>2021-01-31T10:34:20Z</time>
      </trkpt>
      <trkpt lat="47.86879" lon="-2.77116">
        <ele>126</ele>
        <time>2021-01-31T10:34:22Z</time>
      </trkpt>
      <trkpt lat="47.86876" lon="-2.77114">
        <ele>126</ele>
        <time>2021-01-31T10:34:24Z</time>
      </trkpt>
      <trkpt lat="47.86873" lon="-2.77113">
        <ele>126</ele>
        <time>2021-01-31T10:34:26Z</time>
      </trkpt>
      <trkpt lat="47.8687" lon="-2.77111">
        <ele>121.3</ele>
        <time>2021-01-31T10:34:29Z</time>
      </trkpt>
      <trkpt lat="47.86867" lon="-2.7711">
        <ele>126</ele>
        <time>2021-01-31T10:34:30Z</time>
      </trkpt>
      <trkpt lat="47.86863" lon="-2.77108">
        <ele>126</ele>
        <time>2021-01-31T10:34:32Z</time>
      </trkpt>
      <trkpt lat="47.8686" lon="-2.77106">
        <ele>125</ele>
        <time>2021-01-31T10:34:34Z</time>
      </trkpt>
      <trkpt lat="47.86857" lon="-2.77105">
        <ele>125</ele>
        <time>2021-01-31T10:34:36Z</time>
      </trkpt>
      <trkpt lat="47.86854" lon="-2.77104">
        <ele>125</ele>
        <time>2021-01-31T10:34:38Z</time>
      </trkpt>
      <trkpt lat="47.86851" lon="-2.77102">
        <ele>125</ele>
        <time>2021-01-31T10:34:40Z</time>
      </trkpt>
      <trkpt lat="47.86848" lon="-2.771">
        <ele>125</ele>
        <time>2021-01-31T10:34:42Z</time>
      </trkpt>
      <trkpt lat="47.86845" lon="-2.77099">
        <ele>125</ele>
        <time>2021-01-31T10:34:44Z</time>
      </trkpt>
      <trkpt lat="47.86842" lon="-2.77097">
        <ele>125</ele>
        <time>2021-01-31T10:34:46Z</time>
      </trkpt>
      <trkpt lat="47.86839" lon="-2.77095">
        <ele>125</ele>
        <time>2021-01-31T10:34:48Z</time>
      </trkpt>
      <trkpt lat="47.86836" lon="-2.77095">
        <ele>125</ele>
        <time>2021-01-31T10:34:50Z</time>
      </trkpt>
      <trkpt lat="47.86834" lon="-2.77094">
        <ele>125</ele>
        <time>2021-01-31T10:34:52Z</time>
      </trkpt>
      <trkpt lat="47.86831" lon="-2.77093">
        <ele>125</ele>
        <time>2021-01-31T10:34:54Z</time>
      </trkpt>
      <trkpt lat="47.86828" lon="-2.77091">
        <ele>125</ele>
        <time>2021-01-31T10:34:56Z</time>
      </trkpt>
      <trkpt lat="47.86825" lon="-2.7709">
        <ele>125</ele>
        <time>2021-01-31T10:34:58Z</time>
      </trkpt>
      <trkpt lat="47.86823" lon="-2.77088">
        <ele>125</ele>
        <time>2021-01-31T10:35:01Z</time>
      </trkpt>
      <trkpt lat="47.86821" lon="-2.77088">
        <ele>125</ele>
        <time>2021-01-31T10:35:02Z</time>
      </trkpt>
      <trkpt lat="47.86818" lon="-2.77087">
        <ele>125</ele>
        <time>2021-01-31T10:35:04Z</time>
      </trkpt>
      <trkpt lat="47.86816" lon="-2.77086">
        <ele>125</ele>
        <time>2021-01-31T10:35:05Z</time>
      </trkpt>
      <trkpt lat="47.86813" lon="-2.77085">
        <ele>124</ele>
        <time>2021-01-31T10:35:07Z</time>
      </trkpt>
      <trkpt lat="47.8681" lon="-2.77083">
        <ele>124</ele>
        <time>2021-01-31T10:35:09Z</time>
      </trkpt>
      <trkpt lat="47.86807" lon="-2.77082">
        <ele>124</ele>
        <time>2021-01-31T10:35:11Z</time>
      </trkpt>
      <trkpt lat="47.86805" lon="-2.77081">
        <ele>124</ele>
        <time>2021-01-31T10:35:13Z</time>
      </trkpt>
      <trkpt lat="47.86803" lon="-2.7708">
        <ele>124</ele>
        <time>2021-01-31T10:35:15Z</time>
      </trkpt>
      <trkpt lat="47.868" lon="-2.77079">
        <ele>124</ele>
        <time>2021-01-31T10:35:17Z</time>
      </trkpt>
      <trkpt lat="47.86799" lon="-2.77077">
        <ele>124</ele>
        <time>2021-01-31T10:35:19Z</time>
      </trkpt>
      <trkpt lat="47.86796" lon="-2.77075">
        <ele>124</ele>
        <time>2021-01-31T10:35:21Z</time>
      </trkpt>
      <trkpt lat="47.86794" lon="-2.77074">
        <ele>124</ele>
        <time>2021-01-31T10:35:23Z</time>
      </trkpt>
      <trkpt lat="47.86792" lon="-2.77073">
        <ele>124</ele>
        <time>2021-01-31T10:35:24Z</time>
      </trkpt>
      <trkpt lat="47.8679" lon="-2.77071">
        <ele>124</ele>
        <time>2021-01-31T10:35:26Z</time>
      </trkpt>
      <trkpt lat="47.86788" lon="-2.77069">
        <ele>124</ele>
        <time>2021-01-31T10:35:28Z</time>
      </trkpt>
      <trkpt lat="47.86785" lon="-2.77068">
        <ele>124</ele>
        <time>2021-01-31T10:35:30Z</time>
      </trkpt>
      <trkpt lat="47.86783" lon="-2.77066">
        <ele>124</ele>
        <time>2021-01-31T10:35:32Z</time>
      </trkpt>
      <trkpt lat="47.8678" lon="-2.77064">
        <ele>124</ele>
        <time>2021-01-31T10:35:34Z</time>
      </trkpt>
      <trkpt lat="47.86778" lon="-2.77063">
        <ele>123</ele>
        <time>2021-01-31T10:35:35Z</time>
      </trkpt>
      <trkpt lat="47.86773" lon="-2.77061">
        <ele>123</ele>
        <time>2021-01-31T10:35:38Z</time>
      </trkpt>
      <trkpt lat="47.86771" lon="-2.7706">
        <ele>123</ele>
        <time>2021-01-31T10:35:41Z</time>
      </trkpt>
      <trkpt lat="47.86768" lon="-2.77058">
        <ele>123</ele>
        <time>2021-01-31T10:35:42Z</time>
      </trkpt>
      <trkpt lat="47.86767" lon="-2.77057">
        <ele>123</ele>
        <time>2021-01-31T10:35:44Z</time>
      </trkpt>
      <trkpt lat="47.86764" lon="-2.77056">
        <ele>123</ele>
        <time>2021-01-31T10:35:45Z</time>
      </trkpt>
      <trkpt lat="47.86761" lon="-2.77054">
        <ele>123</ele>
        <time>2021-01-31T10:35:47Z</time>
      </trkpt>
      <trkpt lat="47.86758" lon="-2.77052">
        <ele>123</ele>
        <time>2021-01-31T10:35:49Z</time>
      </trkpt>
      <trkpt lat="47.86756" lon="-2.7705">
        <ele>123</ele>
        <time>2021-01-31T10:35:51Z</time>
      </trkpt>
      <trkpt lat="47.86752" lon="-2.77048">
        <ele>123</ele>
        <time>2021-01-31T10:35:53Z</time>
      </trkpt>
      <trkpt lat="47.8675" lon="-2.77047">
        <ele>123</ele>
        <time>2021-01-31T10:35:55Z</time>
      </trkpt>
      <trkpt lat="47.86747" lon="-2.77046">
        <ele>123</ele>
        <time>2021-01-31T10:35:57Z</time>
      </trkpt>
      <trkpt lat="47.86743" lon="-2.77045">
        <ele>123</ele>
        <time>2021-01-31T10:35:59Z</time>
      </trkpt>
      <trkpt lat="47.86741" lon="-2.77044">
        <ele>123</ele>
        <time>2021-01-31T10:36:00Z</time>
      </trkpt>
      <trkpt lat="47.86739" lon="-2.77043">
        <ele>123</ele>
        <time>2021-01-31T10:36:01Z</time>
      </trkpt>
      <trkpt lat="47.86736" lon="-2.77042">
        <ele>123</ele>
        <time>2021-01-31T10:36:03Z</time>
      </trkpt>
      <trkpt lat="47.86734" lon="-2.77041">
        <ele>123</ele>
        <time>2021-01-31T10:36:04Z</time>
      </trkpt>
      <trkpt lat="47.86732" lon="-2.7704">
        <ele>123</ele>
        <time>2021-01-31T10:36:05Z</time>
      </trkpt>
      <trkpt lat="47.86729" lon="-2.77039">
        <ele>123</ele>
        <time>2021-01-31T10:36:07Z</time>
      </trkpt>
      <trkpt lat="47.86726" lon="-2.77037">
        <ele>123</ele>
        <time>2021-01-31T10:36:10Z</time>
      </trkpt>
      <trkpt lat="47.86723" lon="-2.77035">
        <ele>123</ele>
        <time>2021-01-31T10:36:11Z</time>
      </trkpt>
      <trkpt lat="47.8672" lon="-2.77034">
        <ele>123</ele>
        <time>2021-01-31T10:36:13Z</time>
      </trkpt>
      <trkpt lat="47.86717" lon="-2.77032">
        <ele>123</ele>
        <time>2021-01-31T10:36:15Z</time>
      </trkpt>
      <trkpt lat="47.86715" lon="-2.77031">
        <ele>123</ele>
        <time>2021-01-31T10:36:17Z</time>
      </trkpt>
      <trkpt lat="47.86711" lon="-2.7703">
        <ele>123</ele>
        <time>2021-01-31T10:36:19Z</time>
      </trkpt>
      <trkpt lat="47.86709" lon="-2.77029">
        <ele>123</ele>
        <time>2021-01-31T10:36:22Z</time>
      </trkpt>
      <trkpt lat="47.86706" lon="-2.77028">
        <ele>123</ele>
        <time>2021-01-31T10:36:23Z</time>
      </trkpt>
      <trkpt lat="47.86703" lon="-2.77027">
        <ele>123</ele>
        <time>2021-01-31T10:36:25Z</time>
      </trkpt>
      <trkpt lat="47.86701" lon="-2.77025">
        <ele>123</ele>
        <time>2021-01-31T10:36:27Z</time>
      </trkpt>
      <trkpt lat="47.86699" lon="-2.77024">
        <ele>123</ele>
        <time>2021-01-31T10:36:28Z</time>
      </trkpt>
      <trkpt lat="47.86695" lon="-2.77021">
        <ele>123</ele>
        <time>2021-01-31T10:36:30Z</time>
      </trkpt>
      <trkpt lat="47.86693" lon="-2.7702">
        <ele>123</ele>
        <time>2021-01-31T10:36:31Z</time>
      </trkpt>
      <trkpt lat="47.86691" lon="-2.7702">
        <ele>120</ele>
        <time>2021-01-31T10:36:32Z</time>
      </trkpt>
      <trkpt lat="47.86689" lon="-2.77019">
        <ele>120</ele>
        <time>2021-01-31T10:36:33Z</time>
      </trkpt>
      <trkpt lat="47.86686" lon="-2.77017">
        <ele>120</ele>
        <time>2021-01-31T10:36:36Z</time>
      </trkpt>
      <trkpt lat="47.86683" lon="-2.77015">
        <ele>120</ele>
        <time>2021-01-31T10:36:37Z</time>
      </trkpt>
      <trkpt lat="47.8668" lon="-2.77014">
        <ele>120</ele>
        <time>2021-01-31T10:36:39Z</time>
      </trkpt>
      <trkpt lat="47.86677" lon="-2.77012">
        <ele>120</ele>
        <time>2021-01-31T10:36:41Z</time>
      </trkpt>
      <trkpt lat="47.86674" lon="-2.7701">
        <ele>120</ele>
        <time>2021-01-31T10:36:44Z</time>
      </trkpt>
      <trkpt lat="47.86671" lon="-2.77007">
        <ele>120</ele>
        <time>2021-01-31T10:36:45Z</time>
      </trkpt>
      <trkpt lat="47.86669" lon="-2.77006">
        <ele>120</ele>
        <time>2021-01-31T10:36:47Z</time>
      </trkpt>
      <trkpt lat="47.86667" lon="-2.77004">
        <ele>120</ele>
        <time>2021-01-31T10:36:49Z</time>
      </trkpt>
      <trkpt lat="47.86666" lon="-2.77002">
        <ele>120</ele>
        <time>2021-01-31T10:36:52Z</time>
      </trkpt>
      <trkpt lat="47.86664" lon="-2.76999">
        <ele>120</ele>
        <time>2021-01-31T10:36:54Z</time>
      </trkpt>
      <trkpt lat="47.86662" lon="-2.76997">
        <ele>120</ele>
        <time>2021-01-31T10:36:56Z</time>
      </trkpt>
      <trkpt lat="47.86659" lon="-2.76995">
        <ele>120</ele>
        <time>2021-01-31T10:36:58Z</time>
      </trkpt>
      <trkpt lat="47.86657" lon="-2.76993">
        <ele>120</ele>
        <time>2021-01-31T10:37:00Z</time>
      </trkpt>
      <trkpt lat="47.86655" lon="-2.76991">
        <ele>120</ele>
        <time>2021-01-31T10:37:02Z</time>
      </trkpt>
      <trkpt lat="47.86652" lon="-2.7699">
        <ele>119</ele>
        <time>2021-01-31T10:37:04Z</time>
      </trkpt>
      <trkpt lat="47.86649" lon="-2.76988">
        <ele>118</ele>
        <time>2021-01-31T10:37:06Z</time>
      </trkpt>
      <trkpt lat="47.86647" lon="-2.76987">
        <ele>118</ele>
        <time>2021-01-31T10:37:07Z</time>
      </trkpt>
      <trkpt lat="47.86644" lon="-2.76984">
        <ele>119</ele>
        <time>2021-01-31T10:37:09Z</time>
      </trkpt>
      <trkpt lat="47.86642" lon="-2.76982">
        <ele>119</ele>
        <time>2021-01-31T10:37:11Z</time>
      </trkpt>
      <trkpt lat="47.86641" lon="-2.76981">
        <ele>119</ele>
        <time>2021-01-31T10:37:13Z</time>
      </trkpt>
      <trkpt lat="47.86639" lon="-2.76978">
        <ele>119</ele>
        <time>2021-01-31T10:37:16Z</time>
      </trkpt>
      <trkpt lat="47.86637" lon="-2.76976">
        <ele>119</ele>
        <time>2021-01-31T10:37:17Z</time>
      </trkpt>
      <trkpt lat="47.86635" lon="-2.76973">
        <ele>120</ele>
        <time>2021-01-31T10:37:19Z</time>
      </trkpt>
      <trkpt lat="47.86633" lon="-2.7697">
        <ele>119</ele>
        <time>2021-01-31T10:37:22Z</time>
      </trkpt>
      <trkpt lat="47.86631" lon="-2.76967">
        <ele>119</ele>
        <time>2021-01-31T10:37:23Z</time>
      </trkpt>
      <trkpt lat="47.86629" lon="-2.76964">
        <ele>119</ele>
        <time>2021-01-31T10:37:25Z</time>
      </trkpt>
      <trkpt lat="47.86628" lon="-2.76961">
        <ele>119</ele>
        <time>2021-01-31T10:37:27Z</time>
      </trkpt>
      <trkpt lat="47.86627" lon="-2.76958">
        <ele>119</ele>
        <time>2021-01-31T10:37:30Z</time>
      </trkpt>
      <trkpt lat="47.86625" lon="-2.76955">
        <ele>119</ele>
        <time>2021-01-31T10:37:31Z</time>
      </trkpt>
      <trkpt lat="47.86624" lon="-2.76952">
        <ele>118</ele>
        <time>2021-01-31T10:37:33Z</time>
      </trkpt>
      <trkpt lat="47.8662" lon="-2.76948">
        <ele>118</ele>
        <time>2021-01-31T10:37:36Z</time>
      </trkpt>
      <trkpt lat="47.86618" lon="-2.76944">
        <ele>118</ele>
        <time>2021-01-31T10:37:38Z</time>
      </trkpt>
      <trkpt lat="47.86615" lon="-2.76941">
        <ele>118</ele>
        <time>2021-01-31T10:37:41Z</time>
      </trkpt>
      <trkpt lat="47.86614" lon="-2.76938">
        <ele>118</ele>
        <time>2021-01-31T10:37:42Z</time>
      </trkpt>
      <trkpt lat="47.86612" lon="-2.76935">
        <ele>118</ele>
        <time>2021-01-31T10:37:44Z</time>
      </trkpt>
      <trkpt lat="47.86611" lon="-2.76932">
        <ele>118</ele>
        <time>2021-01-31T10:37:47Z</time>
      </trkpt>
      <trkpt lat="47.8661" lon="-2.76928">
        <ele>118</ele>
        <time>2021-01-31T10:37:48Z</time>
      </trkpt>
      <trkpt lat="47.86609" lon="-2.76924">
        <ele>118</ele>
        <time>2021-01-31T10:37:50Z</time>
      </trkpt>
      <trkpt lat="47.86608" lon="-2.7692">
        <ele>117</ele>
        <time>2021-01-31T10:37:52Z</time>
      </trkpt>
      <trkpt lat="47.86608" lon="-2.76915">
        <ele>117</ele>
        <time>2021-01-31T10:37:54Z</time>
      </trkpt>
      <trkpt lat="47.86608" lon="-2.7691">
        <ele>117</ele>
        <time>2021-01-31T10:37:56Z</time>
      </trkpt>
      <trkpt lat="47.86609" lon="-2.76906">
        <ele>117</ele>
        <time>2021-01-31T10:37:59Z</time>
      </trkpt>
      <trkpt lat="47.8661" lon="-2.76903">
        <ele>117</ele>
        <time>2021-01-31T10:38:00Z</time>
      </trkpt>
      <trkpt lat="47.8661" lon="-2.769">
        <ele>117</ele>
        <time>2021-01-31T10:38:02Z</time>
      </trkpt>
      <trkpt lat="47.86611" lon="-2.76896">
        <ele>117</ele>
        <time>2021-01-31T10:38:04Z</time>
      </trkpt>
      <trkpt lat="47.86612" lon="-2.76892">
        <ele>117</ele>
        <time>2021-01-31T10:38:06Z</time>
      </trkpt>
      <trkpt lat="47.86613" lon="-2.76889">
        <ele>117</ele>
        <time>2021-01-31T10:38:08Z</time>
      </trkpt>
      <trkpt lat="47.86613" lon="-2.76885">
        <ele>117</ele>
        <time>2021-01-31T10:38:10Z</time>
      </trkpt>
      <trkpt lat="47.86612" lon="-2.76882">
        <ele>117</ele>
        <time>2021-01-31T10:38:12Z</time>
      </trkpt>
      <trkpt lat="47.86612" lon="-2.76878">
        <ele>118</ele>
        <time>2021-01-31T10:38:14Z</time>
      </trkpt>
      <trkpt lat="47.86612" lon="-2.76874">
        <ele>118</ele>
        <time>2021-01-31T10:38:16Z</time>
      </trkpt>
      <trkpt lat="47.86612" lon="-2.7687">
        <ele>118</ele>
        <time>2021-01-31T10:38:18Z</time>
      </trkpt>
      <trkpt lat="47.86612" lon="-2.76866">
        <ele>117</ele>
        <time>2021-01-31T10:38:20Z</time>
      </trkpt>
      <trkpt lat="47.86611" lon="-2.76862">
        <ele>117</ele>
        <time>2021-01-31T10:38:22Z</time>
      </trkpt>
      <trkpt lat="47.86611" lon="-2.76858">
        <ele>117</ele>
        <time>2021-01-31T10:38:24Z</time>
      </trkpt>
      <trkpt lat="47.86611" lon="-2.76853">
        <ele>117</ele>
        <time>2021-01-31T10:38:26Z</time>
      </trkpt>
      <trkpt lat="47.86611" lon="-2.76848">
        <ele>117</ele>
        <time>2021-01-31T10:38:28Z</time>
      </trkpt>
      <trkpt lat="47.86611" lon="-2.76845">
        <ele>117</ele>
        <time>2021-01-31T10:38:29Z</time>
      </trkpt>
      <trkpt lat="47.86612" lon="-2.76842">
        <ele>117</ele>
        <time>2021-01-31T10:38:30Z</time>
      </trkpt>
      <trkpt lat="47.86611" lon="-2.76838">
        <ele>117</ele>
        <time>2021-01-31T10:38:32Z</time>
      </trkpt>
      <trkpt lat="47.86611" lon="-2.76834">
        <ele>117</ele>
        <time>2021-01-31T10:38:34Z</time>
      </trkpt>
      <trkpt lat="47.86612" lon="-2.7683">
        <ele>117</ele>
        <time>2021-01-31T10:38:36Z</time>
      </trkpt>
      <trkpt lat="47.86613" lon="-2.76827">
        <ele>117</ele>
        <time>2021-01-31T10:38:38Z</time>
      </trkpt>
      <trkpt lat="47.86614" lon="-2.76823">
        <ele>117</ele>
        <time>2021-01-31T10:38:40Z</time>
      </trkpt>
      <trkpt lat="47.86615" lon="-2.76819">
        <ele>117</ele>
        <time>2021-01-31T10:38:42Z</time>
      </trkpt>
      <trkpt lat="47.86616" lon="-2.76816">
        <ele>117</ele>
        <time>2021-01-31T10:38:44Z</time>
      </trkpt>
      <trkpt lat="47.86617" lon="-2.76812">
        <ele>117</ele>
        <time>2021-01-31T10:38:46Z</time>
      </trkpt>
      <trkpt lat="47.86619" lon="-2.76806">
        <ele>117</ele>
        <time>2021-01-31T10:38:49Z</time>
      </trkpt>
      <trkpt lat="47.86619" lon="-2.76801">
        <ele>117</ele>
        <time>2021-01-31T10:38:50Z</time>
      </trkpt>
      <trkpt lat="47.86617" lon="-2.76796">
        <ele>117</ele>
        <time>2021-01-31T10:38:52Z</time>
      </trkpt>
      <trkpt lat="47.86615" lon="-2.76794">
        <ele>117</ele>
        <time>2021-01-31T10:38:53Z</time>
      </trkpt>
      <trkpt lat="47.86615" lon="-2.76788">
        <ele>117</ele>
        <time>2021-01-31T10:38:55Z</time>
      </trkpt>
      <trkpt lat="47.86614" lon="-2.76784">
        <ele>117</ele>
        <time>2021-01-31T10:38:57Z</time>
      </trkpt>
      <trkpt lat="47.86615" lon="-2.76781">
        <ele>117</ele>
        <time>2021-01-31T10:39:04Z</time>
      </trkpt>
      <trkpt lat="47.86615" lon="-2.76777">
        <ele>117</ele>
        <time>2021-01-31T10:39:06Z</time>
      </trkpt>
      <trkpt lat="47.86615" lon="-2.76774">
        <ele>117</ele>
        <time>2021-01-31T10:39:07Z</time>
      </trkpt>
      <trkpt lat="47.86614" lon="-2.7677">
        <ele>117</ele>
        <time>2021-01-31T10:39:10Z</time>
      </trkpt>
      <trkpt lat="47.86613" lon="-2.76766">
        <ele>117</ele>
        <time>2021-01-31T10:39:11Z</time>
      </trkpt>
      <trkpt lat="47.86613" lon="-2.76761">
        <ele>117</ele>
        <time>2021-01-31T10:39:13Z</time>
      </trkpt>
      <trkpt lat="47.86613" lon="-2.76757">
        <ele>117</ele>
        <time>2021-01-31T10:39:15Z</time>
      </trkpt>
      <trkpt lat="47.86612" lon="-2.76753">
        <ele>117</ele>
        <time>2021-01-31T10:39:18Z</time>
      </trkpt>
      <trkpt lat="47.86612" lon="-2.76749">
        <ele>117</ele>
        <time>2021-01-31T10:39:19Z</time>
      </trkpt>
      <trkpt lat="47.86611" lon="-2.76745">
        <ele>117</ele>
        <time>2021-01-31T10:39:21Z</time>
      </trkpt>
      <trkpt lat="47.8661" lon="-2.76741">
        <ele>117</ele>
        <time>2021-01-31T10:39:24Z</time>
      </trkpt>
      <trkpt lat="47.86608" lon="-2.76739">
        <ele>117</ele>
        <time>2021-01-31T10:39:25Z</time>
      </trkpt>
      <trkpt lat="47.86603" lon="-2.76739">
        <ele>118</ele>
        <time>2021-01-31T10:39:28Z</time>
      </trkpt>
      <trkpt lat="47.866" lon="-2.7674">
        <ele>119</ele>
        <time>2021-01-31T10:39:30Z</time>
      </trkpt>
      <trkpt lat="47.86598" lon="-2.7674">
        <ele>119</ele>
        <time>2021-01-31T10:39:31Z</time>
      </trkpt>
      <trkpt lat="47.86596" lon="-2.7674">
        <ele>119</ele>
        <time>2021-01-31T10:39:32Z</time>
      </trkpt>
      <trkpt lat="47.86594" lon="-2.76743">
        <ele>119</ele>
        <time>2021-01-31T10:39:34Z</time>
      </trkpt>
      <trkpt lat="47.86593" lon="-2.76746">
        <ele>119</ele>
        <time>2021-01-31T10:39:37Z</time>
      </trkpt>
      <trkpt lat="47.8659" lon="-2.76749">
        <ele>120</ele>
        <time>2021-01-31T10:39:41Z</time>
      </trkpt>
      <trkpt lat="47.86588" lon="-2.7675">
        <ele>120</ele>
        <time>2021-01-31T10:39:43Z</time>
      </trkpt>
      <trkpt lat="47.86586" lon="-2.76753">
        <ele>120</ele>
        <time>2021-01-31T10:39:44Z</time>
      </trkpt>
      <trkpt lat="47.86584" lon="-2.76756">
        <ele>120</ele>
        <time>2021-01-31T10:39:46Z</time>
      </trkpt>
      <trkpt lat="47.86582" lon="-2.76758">
        <ele>120</ele>
        <time>2021-01-31T10:39:49Z</time>
      </trkpt>
      <trkpt lat="47.86582" lon="-2.76762">
        <ele>120</ele>
        <time>2021-01-31T10:39:50Z</time>
      </trkpt>
      <trkpt lat="47.86582" lon="-2.76765">
        <ele>120</ele>
        <time>2021-01-31T10:39:52Z</time>
      </trkpt>
      <trkpt lat="47.8658" lon="-2.76769">
        <ele>120</ele>
        <time>2021-01-31T10:39:53Z</time>
      </trkpt>
      <trkpt lat="47.86574" lon="-2.7678">
        <ele>120</ele>
        <time>2021-01-31T10:40:00Z</time>
      </trkpt>
      <trkpt lat="47.86569" lon="-2.76788">
        <ele>120</ele>
        <time>2021-01-31T10:40:04Z</time>
      </trkpt>
      <trkpt lat="47.86566" lon="-2.76791">
        <ele>124</ele>
        <time>2021-01-31T10:40:07Z</time>
      </trkpt>
      <trkpt lat="47.86564" lon="-2.76793">
        <ele>125</ele>
        <time>2021-01-31T10:40:08Z</time>
      </trkpt>
      <trkpt lat="47.86561" lon="-2.76797">
        <ele>125</ele>
        <time>2021-01-31T10:40:10Z</time>
      </trkpt>
      <trkpt lat="47.86559" lon="-2.768">
        <ele>125</ele>
        <time>2021-01-31T10:40:12Z</time>
      </trkpt>
      <trkpt lat="47.86557" lon="-2.76803">
        <ele>126</ele>
        <time>2021-01-31T10:40:14Z</time>
      </trkpt>
      <trkpt lat="47.86556" lon="-2.76807">
        <ele>126</ele>
        <time>2021-01-31T10:40:17Z</time>
      </trkpt>
      <trkpt lat="47.86554" lon="-2.7681">
        <ele>126</ele>
        <time>2021-01-31T10:40:18Z</time>
      </trkpt>
      <trkpt lat="47.86552" lon="-2.76813">
        <ele>126</ele>
        <time>2021-01-31T10:40:20Z</time>
      </trkpt>
      <trkpt lat="47.8655" lon="-2.76815">
        <ele>126</ele>
        <time>2021-01-31T10:40:21Z</time>
      </trkpt>
      <trkpt lat="47.86548" lon="-2.76819">
        <ele>126</ele>
        <time>2021-01-31T10:40:23Z</time>
      </trkpt>
      <trkpt lat="47.86547" lon="-2.76823">
        <ele>127</ele>
        <time>2021-01-31T10:40:25Z</time>
      </trkpt>
      <trkpt lat="47.86545" lon="-2.76827">
        <ele>127</ele>
        <time>2021-01-31T10:40:27Z</time>
      </trkpt>
      <trkpt lat="47.86544" lon="-2.76831">
        <ele>127</ele>
        <time>2021-01-31T10:40:29Z</time>
      </trkpt>
      <trkpt lat="47.86543" lon="-2.76834">
        <ele>127</ele>
        <time>2021-01-31T10:40:31Z</time>
      </trkpt>
      <trkpt lat="47.86541" lon="-2.76841">
        <ele>127</ele>
        <time>2021-01-31T10:40:34Z</time>
      </trkpt>
      <trkpt lat="47.86539" lon="-2.76843">
        <ele>127</ele>
        <time>2021-01-31T10:40:35Z</time>
      </trkpt>
      <trkpt lat="47.86537" lon="-2.76847">
        <ele>127</ele>
        <time>2021-01-31T10:40:37Z</time>
      </trkpt>
      <trkpt lat="47.86536" lon="-2.76849">
        <ele>127</ele>
        <time>2021-01-31T10:40:38Z</time>
      </trkpt>
      <trkpt lat="47.86534" lon="-2.76851">
        <ele>127</ele>
        <time>2021-01-31T10:40:39Z</time>
      </trkpt>
      <trkpt lat="47.86532" lon="-2.76852">
        <ele>127</ele>
        <time>2021-01-31T10:40:40Z</time>
      </trkpt>
      <trkpt lat="47.8653" lon="-2.76855">
        <ele>127</ele>
        <time>2021-01-31T10:40:43Z</time>
      </trkpt>
      <trkpt lat="47.86527" lon="-2.76858">
        <ele>127</ele>
        <time>2021-01-31T10:40:44Z</time>
      </trkpt>
      <trkpt lat="47.86525" lon="-2.76861">
        <ele>127</ele>
        <time>2021-01-31T10:40:46Z</time>
      </trkpt>
      <trkpt lat="47.86524" lon="-2.76862">
        <ele>127</ele>
        <time>2021-01-31T10:40:47Z</time>
      </trkpt>
      <trkpt lat="47.86521" lon="-2.76865">
        <ele>128</ele>
        <time>2021-01-31T10:40:50Z</time>
      </trkpt>
      <trkpt lat="47.86519" lon="-2.76868">
        <ele>129</ele>
        <time>2021-01-31T10:40:53Z</time>
      </trkpt>
      <trkpt lat="47.86516" lon="-2.76871">
        <ele>129</ele>
        <time>2021-01-31T10:40:54Z</time>
      </trkpt>
      <trkpt lat="47.86514" lon="-2.76873">
        <ele>129</ele>
        <time>2021-01-31T10:40:56Z</time>
      </trkpt>
      <trkpt lat="47.86512" lon="-2.76875">
        <ele>129</ele>
        <time>2021-01-31T10:40:58Z</time>
      </trkpt>
      <trkpt lat="47.8651" lon="-2.76877">
        <ele>130</ele>
        <time>2021-01-31T10:41:00Z</time>
      </trkpt>
      <trkpt lat="47.86508" lon="-2.76877">
        <ele>131</ele>
        <time>2021-01-31T10:41:02Z</time>
      </trkpt>
      <trkpt lat="47.86506" lon="-2.76878">
        <ele>132</ele>
        <time>2021-01-31T10:41:05Z</time>
      </trkpt>
      <trkpt lat="47.86504" lon="-2.76879">
        <ele>133</ele>
        <time>2021-01-31T10:41:07Z</time>
      </trkpt>
      <trkpt lat="47.86501" lon="-2.76879">
        <ele>134</ele>
        <time>2021-01-31T10:41:10Z</time>
      </trkpt>
      <trkpt lat="47.86498" lon="-2.76881">
        <ele>135</ele>
        <time>2021-01-31T10:41:12Z</time>
      </trkpt>
      <trkpt lat="47.86495" lon="-2.76882">
        <ele>135</ele>
        <time>2021-01-31T10:41:14Z</time>
      </trkpt>
      <trkpt lat="47.86492" lon="-2.76884">
        <ele>135</ele>
        <time>2021-01-31T10:41:16Z</time>
      </trkpt>
      <trkpt lat="47.8649" lon="-2.76885">
        <ele>135</ele>
        <time>2021-01-31T10:41:17Z</time>
      </trkpt>
      <trkpt lat="47.86488" lon="-2.76887">
        <ele>135</ele>
        <time>2021-01-31T10:41:18Z</time>
      </trkpt>
      <trkpt lat="47.86486" lon="-2.76888">
        <ele>135</ele>
        <time>2021-01-31T10:41:19Z</time>
      </trkpt>
      <trkpt lat="47.86483" lon="-2.76889">
        <ele>135</ele>
        <time>2021-01-31T10:41:20Z</time>
      </trkpt>
      <trkpt lat="47.86481" lon="-2.76891">
        <ele>135</ele>
        <time>2021-01-31T10:41:22Z</time>
      </trkpt>
      <trkpt lat="47.86478" lon="-2.76895">
        <ele>135</ele>
        <time>2021-01-31T10:41:24Z</time>
      </trkpt>
      <trkpt lat="47.86477" lon="-2.76896">
        <ele>135</ele>
        <time>2021-01-31T10:41:25Z</time>
      </trkpt>
      <trkpt lat="47.86474" lon="-2.76899">
        <ele>135</ele>
        <time>2021-01-31T10:41:27Z</time>
      </trkpt>
      <trkpt lat="47.86471" lon="-2.769">
        <ele>135</ele>
        <time>2021-01-31T10:41:29Z</time>
      </trkpt>
      <trkpt lat="47.86469" lon="-2.769">
        <ele>135</ele>
        <time>2021-01-31T10:41:34Z</time>
      </trkpt>
      <trkpt lat="47.86467" lon="-2.76901">
        <ele>136</ele>
        <time>2021-01-31T10:41:35Z</time>
      </trkpt>
      <trkpt lat="47.86464" lon="-2.76901">
        <ele>136</ele>
        <time>2021-01-31T10:41:37Z</time>
      </trkpt>
      <trkpt lat="47.86461" lon="-2.76901">
        <ele>136</ele>
        <time>2021-01-31T10:41:40Z</time>
      </trkpt>
      <trkpt lat="47.86458" lon="-2.769">
        <ele>136</ele>
        <time>2021-01-31T10:41:41Z</time>
      </trkpt>
      <trkpt lat="47.86455" lon="-2.769">
        <ele>136</ele>
        <time>2021-01-31T10:41:43Z</time>
      </trkpt>
      <trkpt lat="47.86452" lon="-2.769">
        <ele>136</ele>
        <time>2021-01-31T10:41:45Z</time>
      </trkpt>
      <trkpt lat="47.8645" lon="-2.769">
        <ele>137</ele>
        <time>2021-01-31T10:41:48Z</time>
      </trkpt>
      <trkpt lat="47.86447" lon="-2.769">
        <ele>137</ele>
        <time>2021-01-31T10:41:49Z</time>
      </trkpt>
      <trkpt lat="47.86445" lon="-2.769">
        <ele>137</ele>
        <time>2021-01-31T10:41:51Z</time>
      </trkpt>
      <trkpt lat="47.86443" lon="-2.76902">
        <ele>137</ele>
        <time>2021-01-31T10:41:53Z</time>
      </trkpt>
      <trkpt lat="47.86441" lon="-2.76901">
        <ele>138</ele>
        <time>2021-01-31T10:41:55Z</time>
      </trkpt>
      <trkpt lat="47.86439" lon="-2.76899">
        <ele>138</ele>
        <time>2021-01-31T10:41:58Z</time>
      </trkpt>
      <trkpt lat="47.8644" lon="-2.76895">
        <ele>138</ele>
        <time>2021-01-31T10:42:01Z</time>
      </trkpt>
      <trkpt lat="47.86439" lon="-2.76892">
        <ele>139</ele>
        <time>2021-01-31T10:42:03Z</time>
      </trkpt>
      <trkpt lat="47.86438" lon="-2.76888">
        <ele>139</ele>
        <time>2021-01-31T10:42:05Z</time>
      </trkpt>
      <trkpt lat="47.86437" lon="-2.76884">
        <ele>139</ele>
        <time>2021-01-31T10:42:07Z</time>
      </trkpt>
      <trkpt lat="47.86437" lon="-2.76882">
        <ele>139</ele>
        <time>2021-01-31T10:42:09Z</time>
      </trkpt>
      <trkpt lat="47.86437" lon="-2.76878">
        <ele>140</ele>
        <time>2021-01-31T10:42:12Z</time>
      </trkpt>
      <trkpt lat="47.86437" lon="-2.76873">
        <ele>140</ele>
        <time>2021-01-31T10:42:15Z</time>
      </trkpt>
      <trkpt lat="47.86437" lon="-2.7687">
        <ele>140</ele>
        <time>2021-01-31T10:42:16Z</time>
      </trkpt>
      <trkpt lat="47.86438" lon="-2.76866">
        <ele>140</ele>
        <time>2021-01-31T10:42:18Z</time>
      </trkpt>
      <trkpt lat="47.86438" lon="-2.76862">
        <ele>141</ele>
        <time>2021-01-31T10:42:21Z</time>
      </trkpt>
      <trkpt lat="47.86438" lon="-2.76858">
        <ele>141</ele>
        <time>2021-01-31T10:42:22Z</time>
      </trkpt>
      <trkpt lat="47.86438" lon="-2.76854">
        <ele>141</ele>
        <time>2021-01-31T10:42:24Z</time>
      </trkpt>
      <trkpt lat="47.86438" lon="-2.7685">
        <ele>141</ele>
        <time>2021-01-31T10:42:26Z</time>
      </trkpt>
      <trkpt lat="47.86439" lon="-2.76845">
        <ele>141</ele>
        <time>2021-01-31T10:42:29Z</time>
      </trkpt>
      <trkpt lat="47.86439" lon="-2.76841">
        <ele>141</ele>
        <time>2021-01-31T10:42:30Z</time>
      </trkpt>
      <trkpt lat="47.86438" lon="-2.76836">
        <ele>142</ele>
        <time>2021-01-31T10:42:32Z</time>
      </trkpt>
      <trkpt lat="47.86438" lon="-2.76831">
        <ele>142</ele>
        <time>2021-01-31T10:42:34Z</time>
      </trkpt>
      <trkpt lat="47.86437" lon="-2.76828">
        <ele>143</ele>
        <time>2021-01-31T10:42:36Z</time>
      </trkpt>
      <trkpt lat="47.86435" lon="-2.76828">
        <ele>143</ele>
        <time>2021-01-31T10:42:38Z</time>
      </trkpt>
      <trkpt lat="47.86433" lon="-2.76828">
        <ele>143</ele>
        <time>2021-01-31T10:42:41Z</time>
      </trkpt>
      <trkpt lat="47.86431" lon="-2.76831">
        <ele>143</ele>
        <time>2021-01-31T10:42:44Z</time>
      </trkpt>
      <trkpt lat="47.86429" lon="-2.76831">
        <ele>143</ele>
        <time>2021-01-31T10:42:46Z</time>
      </trkpt>
      <trkpt lat="47.86427" lon="-2.7683">
        <ele>143</ele>
        <time>2021-01-31T10:42:50Z</time>
      </trkpt>
      <trkpt lat="47.86424" lon="-2.7683">
        <ele>143</ele>
        <time>2021-01-31T10:42:53Z</time>
      </trkpt>
      <trkpt lat="47.86416" lon="-2.76832">
        <ele>142</ele>
        <time>2021-01-31T10:42:57Z</time>
      </trkpt>
      <trkpt lat="47.86414" lon="-2.76832">
        <ele>142</ele>
        <time>2021-01-31T10:42:58Z</time>
      </trkpt>
      <trkpt lat="47.86411" lon="-2.76835">
        <ele>142</ele>
        <time>2021-01-31T10:43:02Z</time>
      </trkpt>
      <trkpt lat="47.86409" lon="-2.76836">
        <ele>142</ele>
        <time>2021-01-31T10:43:04Z</time>
      </trkpt>
      <trkpt lat="47.86407" lon="-2.76838">
        <ele>141</ele>
        <time>2021-01-31T10:43:05Z</time>
      </trkpt>
      <trkpt lat="47.86404" lon="-2.7684">
        <ele>141</ele>
        <time>2021-01-31T10:43:07Z</time>
      </trkpt>
      <trkpt lat="47.86403" lon="-2.76843">
        <ele>141</ele>
        <time>2021-01-31T10:43:09Z</time>
      </trkpt>
      <trkpt lat="47.864" lon="-2.76845">
        <ele>141</ele>
        <time>2021-01-31T10:43:11Z</time>
      </trkpt>
      <trkpt lat="47.86399" lon="-2.76847">
        <ele>141</ele>
        <time>2021-01-31T10:43:13Z</time>
      </trkpt>
      <trkpt lat="47.86398" lon="-2.7685">
        <ele>141</ele>
        <time>2021-01-31T10:43:16Z</time>
      </trkpt>
      <trkpt lat="47.86396" lon="-2.76852">
        <ele>141</ele>
        <time>2021-01-31T10:43:18Z</time>
      </trkpt>
      <trkpt lat="47.86394" lon="-2.76855">
        <ele>141</ele>
        <time>2021-01-31T10:43:20Z</time>
      </trkpt>
      <trkpt lat="47.86392" lon="-2.76858">
        <ele>141</ele>
        <time>2021-01-31T10:43:22Z</time>
      </trkpt>
      <trkpt lat="47.8639" lon="-2.76859">
        <ele>141</ele>
        <time>2021-01-31T10:43:23Z</time>
      </trkpt>
      <trkpt lat="47.86388" lon="-2.76861">
        <ele>141</ele>
        <time>2021-01-31T10:43:24Z</time>
      </trkpt>
      <trkpt lat="47.86387" lon="-2.76863">
        <ele>141</ele>
        <time>2021-01-31T10:43:25Z</time>
      </trkpt>
      <trkpt lat="47.86384" lon="-2.76865">
        <ele>141</ele>
        <time>2021-01-31T10:43:26Z</time>
      </trkpt>
      <trkpt lat="47.86381" lon="-2.76867">
        <ele>141</ele>
        <time>2021-01-31T10:43:27Z</time>
      </trkpt>
      <trkpt lat="47.8638" lon="-2.76869">
        <ele>141</ele>
        <time>2021-01-31T10:43:28Z</time>
      </trkpt>
      <trkpt lat="47.86378" lon="-2.7687">
        <ele>141</ele>
        <time>2021-01-31T10:43:30Z</time>
      </trkpt>
      <trkpt lat="47.86375" lon="-2.76872">
        <ele>141</ele>
        <time>2021-01-31T10:43:31Z</time>
      </trkpt>
      <trkpt lat="47.86372" lon="-2.76873">
        <ele>141</ele>
        <time>2021-01-31T10:43:33Z</time>
      </trkpt>
      <trkpt lat="47.8637" lon="-2.76874">
        <ele>141</ele>
        <time>2021-01-31T10:43:34Z</time>
      </trkpt>
      <trkpt lat="47.86368" lon="-2.76874">
        <ele>141</ele>
        <time>2021-01-31T10:43:36Z</time>
      </trkpt>
      <trkpt lat="47.86365" lon="-2.76877">
        <ele>141</ele>
        <time>2021-01-31T10:43:37Z</time>
      </trkpt>
      <trkpt lat="47.86362" lon="-2.76878">
        <ele>141</ele>
        <time>2021-01-31T10:43:39Z</time>
      </trkpt>
      <trkpt lat="47.8636" lon="-2.76879">
        <ele>141</ele>
        <time>2021-01-31T10:43:40Z</time>
      </trkpt>
      <trkpt lat="47.86357" lon="-2.76879">
        <ele>141</ele>
        <time>2021-01-31T10:43:42Z</time>
      </trkpt>
      <trkpt lat="47.86353" lon="-2.76878">
        <ele>141</ele>
        <time>2021-01-31T10:43:44Z</time>
      </trkpt>
      <trkpt lat="47.86351" lon="-2.76878">
        <ele>141</ele>
        <time>2021-01-31T10:43:47Z</time>
      </trkpt>
      <trkpt lat="47.86347" lon="-2.76877">
        <ele>141</ele>
        <time>2021-01-31T10:43:48Z</time>
      </trkpt>
      <trkpt lat="47.86343" lon="-2.76876">
        <ele>141</ele>
        <time>2021-01-31T10:43:50Z</time>
      </trkpt>
      <trkpt lat="47.86341" lon="-2.76875">
        <ele>141</ele>
        <time>2021-01-31T10:43:53Z</time>
      </trkpt>
      <trkpt lat="47.8634" lon="-2.76873">
        <ele>141</ele>
        <time>2021-01-31T10:43:54Z</time>
      </trkpt>
      <trkpt lat="47.86337" lon="-2.76872">
        <ele>141</ele>
        <time>2021-01-31T10:43:57Z</time>
      </trkpt>
      <trkpt lat="47.86335" lon="-2.76871">
        <ele>141</ele>
        <time>2021-01-31T10:44:00Z</time>
      </trkpt>
      <trkpt lat="47.86332" lon="-2.7687">
        <ele>142</ele>
        <time>2021-01-31T10:44:02Z</time>
      </trkpt>
      <trkpt lat="47.86329" lon="-2.76868">
        <ele>142</ele>
        <time>2021-01-31T10:44:04Z</time>
      </trkpt>
      <trkpt lat="47.86325" lon="-2.76868">
        <ele>142</ele>
        <time>2021-01-31T10:44:06Z</time>
      </trkpt>
      <trkpt lat="47.86323" lon="-2.76868">
        <ele>143</ele>
        <time>2021-01-31T10:44:09Z</time>
      </trkpt>
      <trkpt lat="47.8632" lon="-2.76866">
        <ele>143</ele>
        <time>2021-01-31T10:44:12Z</time>
      </trkpt>
      <trkpt lat="47.86317" lon="-2.76865">
        <ele>143</ele>
        <time>2021-01-31T10:44:14Z</time>
      </trkpt>
      <trkpt lat="47.86314" lon="-2.76864">
        <ele>143</ele>
        <time>2021-01-31T10:44:16Z</time>
      </trkpt>
      <trkpt lat="47.86311" lon="-2.76862">
        <ele>143</ele>
        <time>2021-01-31T10:44:18Z</time>
      </trkpt>
      <trkpt lat="47.86308" lon="-2.7686">
        <ele>143</ele>
        <time>2021-01-31T10:44:20Z</time>
      </trkpt>
      <trkpt lat="47.86306" lon="-2.76858">
        <ele>143</ele>
        <time>2021-01-31T10:44:23Z</time>
      </trkpt>
      <trkpt lat="47.86304" lon="-2.7686">
        <ele>144</ele>
        <time>2021-01-31T10:44:29Z</time>
      </trkpt>
      <trkpt lat="47.86303" lon="-2.76863">
        <ele>144</ele>
        <time>2021-01-31T10:44:50Z</time>
      </trkpt>
      <trkpt lat="47.86302" lon="-2.76864">
        <ele>144</ele>
        <time>2021-01-31T10:44:55Z</time>
      </trkpt>
      <trkpt lat="47.86299" lon="-2.76866">
        <ele>144</ele>
        <time>2021-01-31T10:44:59Z</time>
      </trkpt>
      <trkpt lat="47.86296" lon="-2.76867">
        <ele>145</ele>
        <time>2021-01-31T10:45:02Z</time>
      </trkpt>
      <trkpt lat="47.86294" lon="-2.76868">
        <ele>144</ele>
        <time>2021-01-31T10:45:21Z</time>
      </trkpt>
      <trkpt lat="47.86293" lon="-2.76872">
        <ele>144</ele>
        <time>2021-01-31T10:45:23Z</time>
      </trkpt>
      <trkpt lat="47.86292" lon="-2.76876">
        <ele>144</ele>
        <time>2021-01-31T10:45:25Z</time>
      </trkpt>
      <trkpt lat="47.8629" lon="-2.76879">
        <ele>144</ele>
        <time>2021-01-31T10:45:27Z</time>
      </trkpt>
      <trkpt lat="47.86289" lon="-2.76882">
        <ele>144</ele>
        <time>2021-01-31T10:45:29Z</time>
      </trkpt>
      <trkpt lat="47.86287" lon="-2.76883">
        <ele>144</ele>
        <time>2021-01-31T10:45:31Z</time>
      </trkpt>
      <trkpt lat="47.86285" lon="-2.76884">
        <ele>143</ele>
        <time>2021-01-31T10:45:32Z</time>
      </trkpt>
      <trkpt lat="47.86282" lon="-2.76884">
        <ele>143</ele>
        <time>2021-01-31T10:45:34Z</time>
      </trkpt>
      <trkpt lat="47.86279" lon="-2.76884">
        <ele>143</ele>
        <time>2021-01-31T10:45:36Z</time>
      </trkpt>
      <trkpt lat="47.86275" lon="-2.76885">
        <ele>143</ele>
        <time>2021-01-31T10:45:38Z</time>
      </trkpt>
      <trkpt lat="47.86272" lon="-2.76887">
        <ele>143</ele>
        <time>2021-01-31T10:45:40Z</time>
      </trkpt>
      <trkpt lat="47.8627" lon="-2.7689">
        <ele>143</ele>
        <time>2021-01-31T10:45:42Z</time>
      </trkpt>
      <trkpt lat="47.86269" lon="-2.76896">
        <ele>143</ele>
        <time>2021-01-31T10:45:44Z</time>
      </trkpt>
      <trkpt lat="47.86269" lon="-2.76899">
        <ele>142</ele>
        <time>2021-01-31T10:45:45Z</time>
      </trkpt>
      <trkpt lat="47.86269" lon="-2.76902">
        <ele>143</ele>
        <time>2021-01-31T10:45:46Z</time>
      </trkpt>
      <trkpt lat="47.86269" lon="-2.76905">
        <ele>143</ele>
        <time>2021-01-31T10:45:47Z</time>
      </trkpt>
      <trkpt lat="47.8627" lon="-2.76908">
        <ele>143</ele>
        <time>2021-01-31T10:45:48Z</time>
      </trkpt>
      <trkpt lat="47.86271" lon="-2.76914">
        <ele>142</ele>
        <time>2021-01-31T10:45:50Z</time>
      </trkpt>
      <trkpt lat="47.86271" lon="-2.76917">
        <ele>141</ele>
        <time>2021-01-31T10:45:51Z</time>
      </trkpt>
      <trkpt lat="47.86271" lon="-2.76921">
        <ele>141</ele>
        <time>2021-01-31T10:45:52Z</time>
      </trkpt>
      <trkpt lat="47.86271" lon="-2.76926">
        <ele>141</ele>
        <time>2021-01-31T10:45:54Z</time>
      </trkpt>
      <trkpt lat="47.86272" lon="-2.76931">
        <ele>140</ele>
        <time>2021-01-31T10:45:56Z</time>
      </trkpt>
      <trkpt lat="47.86272" lon="-2.76933">
        <ele>139</ele>
        <time>2021-01-31T10:45:57Z</time>
      </trkpt>
      <trkpt lat="47.86273" lon="-2.76936">
        <ele>139</ele>
        <time>2021-01-31T10:45:58Z</time>
      </trkpt>
      <trkpt lat="47.86273" lon="-2.76939">
        <ele>139</ele>
        <time>2021-01-31T10:45:59Z</time>
      </trkpt>
      <trkpt lat="47.86275" lon="-2.76944">
        <ele>139</ele>
        <time>2021-01-31T10:46:01Z</time>
      </trkpt>
      <trkpt lat="47.86276" lon="-2.76948">
        <ele>139</ele>
        <time>2021-01-31T10:46:03Z</time>
      </trkpt>
      <trkpt lat="47.86276" lon="-2.76951">
        <ele>139</ele>
        <time>2021-01-31T10:46:04Z</time>
      </trkpt>
      <trkpt lat="47.86276" lon="-2.76956">
        <ele>139</ele>
        <time>2021-01-31T10:46:06Z</time>
      </trkpt>
      <trkpt lat="47.86277" lon="-2.7696">
        <ele>138</ele>
        <time>2021-01-31T10:46:08Z</time>
      </trkpt>
      <trkpt lat="47.86279" lon="-2.76962">
        <ele>138</ele>
        <time>2021-01-31T10:46:12Z</time>
      </trkpt>
      <trkpt lat="47.86281" lon="-2.76962">
        <ele>138</ele>
        <time>2021-01-31T10:46:21Z</time>
      </trkpt>
      <trkpt lat="47.86283" lon="-2.76961">
        <ele>138</ele>
        <time>2021-01-31T10:46:29Z</time>
      </trkpt>
      <trkpt lat="47.86283" lon="-2.76964">
        <ele>138</ele>
        <time>2021-01-31T10:46:57Z</time>
      </trkpt>
      <trkpt lat="47.86282" lon="-2.76967">
        <ele>138</ele>
        <time>2021-01-31T10:46:59Z</time>
      </trkpt>
      <trkpt lat="47.86282" lon="-2.76971">
        <ele>138</ele>
        <time>2021-01-31T10:47:01Z</time>
      </trkpt>
      <trkpt lat="47.86283" lon="-2.76974">
        <ele>138</ele>
        <time>2021-01-31T10:47:11Z</time>
      </trkpt>
      <trkpt lat="47.86282" lon="-2.76978">
        <ele>138</ele>
        <time>2021-01-31T10:47:13Z</time>
      </trkpt>
      <trkpt lat="47.86283" lon="-2.76981">
        <ele>138</ele>
        <time>2021-01-31T10:47:14Z</time>
      </trkpt>
      <trkpt lat="47.86282" lon="-2.76986">
        <ele>137</ele>
        <time>2021-01-31T10:47:16Z</time>
      </trkpt>
      <trkpt lat="47.86282" lon="-2.76991">
        <ele>137</ele>
        <time>2021-01-31T10:47:19Z</time>
      </trkpt>
      <trkpt lat="47.86282" lon="-2.76996">
        <ele>137</ele>
        <time>2021-01-31T10:47:20Z</time>
      </trkpt>
      <trkpt lat="47.86282" lon="-2.76998">
        <ele>137</ele>
        <time>2021-01-31T10:47:21Z</time>
      </trkpt>
      <trkpt lat="47.86283" lon="-2.77004">
        <ele>136</ele>
        <time>2021-01-31T10:47:23Z</time>
      </trkpt>
      <trkpt lat="47.86283" lon="-2.77006">
        <ele>136</ele>
        <time>2021-01-31T10:47:24Z</time>
      </trkpt>
      <trkpt lat="47.86283" lon="-2.77014">
        <ele>135</ele>
        <time>2021-01-31T10:47:27Z</time>
      </trkpt>
      <trkpt lat="47.86283" lon="-2.77017">
        <ele>135</ele>
        <time>2021-01-31T10:47:28Z</time>
      </trkpt>
      <trkpt lat="47.86284" lon="-2.77022">
        <ele>135</ele>
        <time>2021-01-31T10:47:30Z</time>
      </trkpt>
      <trkpt lat="47.86285" lon="-2.77027">
        <ele>135</ele>
        <time>2021-01-31T10:47:32Z</time>
      </trkpt>
      <trkpt lat="47.86286" lon="-2.77031">
        <ele>135</ele>
        <time>2021-01-31T10:47:34Z</time>
      </trkpt>
      <trkpt lat="47.86287" lon="-2.77036">
        <ele>134</ele>
        <time>2021-01-31T10:47:36Z</time>
      </trkpt>
      <trkpt lat="47.86288" lon="-2.77038">
        <ele>134</ele>
        <time>2021-01-31T10:47:37Z</time>
      </trkpt>
      <trkpt lat="47.86289" lon="-2.77043">
        <ele>134</ele>
        <time>2021-01-31T10:47:39Z</time>
      </trkpt>
      <trkpt lat="47.86291" lon="-2.77048">
        <ele>134</ele>
        <time>2021-01-31T10:47:41Z</time>
      </trkpt>
      <trkpt lat="47.86293" lon="-2.7705">
        <ele>134</ele>
        <time>2021-01-31T10:47:42Z</time>
      </trkpt>
      <trkpt lat="47.86294" lon="-2.77053">
        <ele>134</ele>
        <time>2021-01-31T10:47:43Z</time>
      </trkpt>
      <trkpt lat="47.86295" lon="-2.77055">
        <ele>134</ele>
        <time>2021-01-31T10:47:44Z</time>
      </trkpt>
      <trkpt lat="47.86296" lon="-2.77058">
        <ele>135</ele>
        <time>2021-01-31T10:47:45Z</time>
      </trkpt>
      <trkpt lat="47.86297" lon="-2.77061">
        <ele>135</ele>
        <time>2021-01-31T10:47:46Z</time>
      </trkpt>
      <trkpt lat="47.86299" lon="-2.77066">
        <ele>135</ele>
        <time>2021-01-31T10:47:49Z</time>
      </trkpt>
      <trkpt lat="47.86299" lon="-2.77071">
        <ele>135</ele>
        <time>2021-01-31T10:47:50Z</time>
      </trkpt>
      <trkpt lat="47.863" lon="-2.77076">
        <ele>135</ele>
        <time>2021-01-31T10:47:52Z</time>
      </trkpt>
      <trkpt lat="47.863" lon="-2.7708">
        <ele>135</ele>
        <time>2021-01-31T10:47:54Z</time>
      </trkpt>
      <trkpt lat="47.863" lon="-2.77083">
        <ele>135</ele>
        <time>2021-01-31T10:47:56Z</time>
      </trkpt>
      <trkpt lat="47.86299" lon="-2.77086">
        <ele>135</ele>
        <time>2021-01-31T10:47:58Z</time>
      </trkpt>
      <trkpt lat="47.86298" lon="-2.77089">
        <ele>135</ele>
        <time>2021-01-31T10:48:00Z</time>
      </trkpt>
      <trkpt lat="47.86298" lon="-2.77092">
        <ele>135</ele>
        <time>2021-01-31T10:48:03Z</time>
      </trkpt>
      <trkpt lat="47.86297" lon="-2.77096">
        <ele>136</ele>
        <time>2021-01-31T10:48:04Z</time>
      </trkpt>
      <trkpt lat="47.86296" lon="-2.771">
        <ele>136</ele>
        <time>2021-01-31T10:48:06Z</time>
      </trkpt>
      <trkpt lat="47.86295" lon="-2.77105">
        <ele>136</ele>
        <time>2021-01-31T10:48:08Z</time>
      </trkpt>
      <trkpt lat="47.86295" lon="-2.77109">
        <ele>136</ele>
        <time>2021-01-31T10:48:10Z</time>
      </trkpt>
      <trkpt lat="47.86295" lon="-2.77112">
        <ele>136</ele>
        <time>2021-01-31T10:48:11Z</time>
      </trkpt>
      <trkpt lat="47.86294" lon="-2.77115">
        <ele>136</ele>
        <time>2021-01-31T10:48:12Z</time>
      </trkpt>
      <trkpt lat="47.86294" lon="-2.77118">
        <ele>136</ele>
        <time>2021-01-31T10:48:13Z</time>
      </trkpt>
      <trkpt lat="47.86293" lon="-2.77123">
        <ele>136</ele>
        <time>2021-01-31T10:48:15Z</time>
      </trkpt>
      <trkpt lat="47.86292" lon="-2.77127">
        <ele>136</ele>
        <time>2021-01-31T10:48:17Z</time>
      </trkpt>
      <trkpt lat="47.86292" lon="-2.77131">
        <ele>137</ele>
        <time>2021-01-31T10:48:19Z</time>
      </trkpt>
      <trkpt lat="47.86291" lon="-2.77135">
        <ele>137</ele>
        <time>2021-01-31T10:48:21Z</time>
      </trkpt>
      <trkpt lat="47.8629" lon="-2.77139">
        <ele>137</ele>
        <time>2021-01-31T10:48:23Z</time>
      </trkpt>
      <trkpt lat="47.86289" lon="-2.77143">
        <ele>137</ele>
        <time>2021-01-31T10:48:25Z</time>
      </trkpt>
      <trkpt lat="47.86288" lon="-2.77148">
        <ele>138</ele>
        <time>2021-01-31T10:48:27Z</time>
      </trkpt>
      <trkpt lat="47.86288" lon="-2.77152">
        <ele>138</ele>
        <time>2021-01-31T10:48:29Z</time>
      </trkpt>
      <trkpt lat="47.86288" lon="-2.77155">
        <ele>138</ele>
        <time>2021-01-31T10:48:30Z</time>
      </trkpt>
      <trkpt lat="47.86288" lon="-2.77159">
        <ele>139</ele>
        <time>2021-01-31T10:48:32Z</time>
      </trkpt>
      <trkpt lat="47.86287" lon="-2.77162">
        <ele>139</ele>
        <time>2021-01-31T10:48:34Z</time>
      </trkpt>
      <trkpt lat="47.86286" lon="-2.77165">
        <ele>140</ele>
        <time>2021-01-31T10:48:36Z</time>
      </trkpt>
      <trkpt lat="47.86284" lon="-2.77165">
        <ele>141</ele>
        <time>2021-01-31T10:48:41Z</time>
      </trkpt>
      <trkpt lat="47.86282" lon="-2.77166">
        <ele>142</ele>
        <time>2021-01-31T10:48:46Z</time>
      </trkpt>
      <trkpt lat="47.8628" lon="-2.77169">
        <ele>142</ele>
        <time>2021-01-31T10:48:47Z</time>
      </trkpt>
      <trkpt lat="47.86279" lon="-2.77173">
        <ele>142</ele>
        <time>2021-01-31T10:48:49Z</time>
      </trkpt>
      <trkpt lat="47.86278" lon="-2.77176">
        <ele>142</ele>
        <time>2021-01-31T10:48:52Z</time>
      </trkpt>
      <trkpt lat="47.86277" lon="-2.77181">
        <ele>142</ele>
        <time>2021-01-31T10:48:53Z</time>
      </trkpt>
      <trkpt lat="47.86276" lon="-2.77185">
        <ele>143</ele>
        <time>2021-01-31T10:48:55Z</time>
      </trkpt>
      <trkpt lat="47.86274" lon="-2.7719">
        <ele>144</ele>
        <time>2021-01-31T10:48:58Z</time>
      </trkpt>
      <trkpt lat="47.86273" lon="-2.77194">
        <ele>144</ele>
        <time>2021-01-31T10:49:00Z</time>
      </trkpt>
      <trkpt lat="47.86272" lon="-2.77198">
        <ele>144</ele>
        <time>2021-01-31T10:49:01Z</time>
      </trkpt>
      <trkpt lat="47.86271" lon="-2.77202">
        <ele>144</ele>
        <time>2021-01-31T10:49:03Z</time>
      </trkpt>
      <trkpt lat="47.86269" lon="-2.77207">
        <ele>145</ele>
        <time>2021-01-31T10:49:05Z</time>
      </trkpt>
      <trkpt lat="47.86268" lon="-2.7721">
        <ele>145</ele>
        <time>2021-01-31T10:49:07Z</time>
      </trkpt>
      <trkpt lat="47.86267" lon="-2.77214">
        <ele>146</ele>
        <time>2021-01-31T10:49:09Z</time>
      </trkpt>
      <trkpt lat="47.86267" lon="-2.77217">
        <ele>147</ele>
        <time>2021-01-31T10:49:11Z</time>
      </trkpt>
      <trkpt lat="47.86266" lon="-2.77221">
        <ele>148</ele>
        <time>2021-01-31T10:49:13Z</time>
      </trkpt>
      <trkpt lat="47.86264" lon="-2.77225">
        <ele>149</ele>
        <time>2021-01-31T10:49:16Z</time>
      </trkpt>
      <trkpt lat="47.86263" lon="-2.77228">
        <ele>149</ele>
        <time>2021-01-31T10:49:17Z</time>
      </trkpt>
      <trkpt lat="47.86262" lon="-2.77232">
        <ele>149</ele>
        <time>2021-01-31T10:49:19Z</time>
      </trkpt>
      <trkpt lat="47.8626" lon="-2.77235">
        <ele>149</ele>
        <time>2021-01-31T10:49:22Z</time>
      </trkpt>
      <trkpt lat="47.86258" lon="-2.77239">
        <ele>149</ele>
        <time>2021-01-31T10:49:24Z</time>
      </trkpt>
      <trkpt lat="47.86257" lon="-2.77243">
        <ele>149</ele>
        <time>2021-01-31T10:49:25Z</time>
      </trkpt>
      <trkpt lat="47.86255" lon="-2.77246">
        <ele>150</ele>
        <time>2021-01-31T10:49:27Z</time>
      </trkpt>
      <trkpt lat="47.86254" lon="-2.77249">
        <ele>151</ele>
        <time>2021-01-31T10:49:29Z</time>
      </trkpt>
      <trkpt lat="47.86253" lon="-2.77253">
        <ele>151</ele>
        <time>2021-01-31T10:49:32Z</time>
      </trkpt>
      <trkpt lat="47.86255" lon="-2.77256">
        <ele>152</ele>
        <time>2021-01-31T10:49:40Z</time>
      </trkpt>
      <trkpt lat="47.86255" lon="-2.77258">
        <ele>152</ele>
        <time>2021-01-31T10:49:44Z</time>
      </trkpt>
      <trkpt lat="47.86254" lon="-2.77261">
        <ele>152</ele>
        <time>2021-01-31T10:50:00Z</time>
      </trkpt>
      <trkpt lat="47.86252" lon="-2.77264">
        <ele>152</ele>
        <time>2021-01-31T10:50:08Z</time>
      </trkpt>
      <trkpt lat="47.8625" lon="-2.77266">
        <ele>152</ele>
        <time>2021-01-31T10:50:10Z</time>
      </trkpt>
      <trkpt lat="47.86248" lon="-2.77269">
        <ele>152</ele>
        <time>2021-01-31T10:50:12Z</time>
      </trkpt>
      <trkpt lat="47.86247" lon="-2.77273">
        <ele>152</ele>
        <time>2021-01-31T10:50:14Z</time>
      </trkpt>
      <trkpt lat="47.86245" lon="-2.77277">
        <ele>152</ele>
        <time>2021-01-31T10:50:17Z</time>
      </trkpt>
      <trkpt lat="47.86244" lon="-2.77281">
        <ele>152</ele>
        <time>2021-01-31T10:50:18Z</time>
      </trkpt>
      <trkpt lat="47.86243" lon="-2.77285">
        <ele>152</ele>
        <time>2021-01-31T10:50:20Z</time>
      </trkpt>
      <trkpt lat="47.86241" lon="-2.77289">
        <ele>153</ele>
        <time>2021-01-31T10:50:23Z</time>
      </trkpt>
      <trkpt lat="47.8624" lon="-2.77294">
        <ele>153</ele>
        <time>2021-01-31T10:50:24Z</time>
      </trkpt>
      <trkpt lat="47.86239" lon="-2.77296">
        <ele>153</ele>
        <time>2021-01-31T10:50:25Z</time>
      </trkpt>
      <trkpt lat="47.86237" lon="-2.773">
        <ele>153</ele>
        <time>2021-01-31T10:50:27Z</time>
      </trkpt>
      <trkpt lat="47.86236" lon="-2.77305">
        <ele>153</ele>
        <time>2021-01-31T10:50:29Z</time>
      </trkpt>
      <trkpt lat="47.86234" lon="-2.77308">
        <ele>153</ele>
        <time>2021-01-31T10:50:31Z</time>
      </trkpt>
      <trkpt lat="47.86233" lon="-2.7731">
        <ele>153</ele>
        <time>2021-01-31T10:50:32Z</time>
      </trkpt>
      <trkpt lat="47.86231" lon="-2.77312">
        <ele>153</ele>
        <time>2021-01-31T10:50:33Z</time>
      </trkpt>
      <trkpt lat="47.86229" lon="-2.77315">
        <ele>153</ele>
        <time>2021-01-31T10:50:36Z</time>
      </trkpt>
      <trkpt lat="47.86226" lon="-2.77316">
        <ele>153</ele>
        <time>2021-01-31T10:50:37Z</time>
      </trkpt>
      <trkpt lat="47.86224" lon="-2.77316">
        <ele>153</ele>
        <time>2021-01-31T10:50:40Z</time>
      </trkpt>
      <trkpt lat="47.86222" lon="-2.77315">
        <ele>153</ele>
        <time>2021-01-31T10:50:41Z</time>
      </trkpt>
      <trkpt lat="47.86219" lon="-2.77313">
        <ele>153</ele>
        <time>2021-01-31T10:50:43Z</time>
      </trkpt>
      <trkpt lat="47.86216" lon="-2.77312">
        <ele>153</ele>
        <time>2021-01-31T10:50:45Z</time>
      </trkpt>
      <trkpt lat="47.86213" lon="-2.77311">
        <ele>153</ele>
        <time>2021-01-31T10:50:48Z</time>
      </trkpt>
      <trkpt lat="47.8621" lon="-2.7731">
        <ele>153</ele>
        <time>2021-01-31T10:50:50Z</time>
      </trkpt>
      <trkpt lat="47.86206" lon="-2.7731">
        <ele>153</ele>
        <time>2021-01-31T10:50:51Z</time>
      </trkpt>
      <trkpt lat="47.86203" lon="-2.77309">
        <ele>152</ele>
        <time>2021-01-31T10:50:54Z</time>
      </trkpt>
      <trkpt lat="47.862" lon="-2.7731">
        <ele>153</ele>
        <time>2021-01-31T10:50:55Z</time>
      </trkpt>
      <trkpt lat="47.86197" lon="-2.77311">
        <ele>153</ele>
        <time>2021-01-31T10:50:57Z</time>
      </trkpt>
      <trkpt lat="47.86195" lon="-2.77313">
        <ele>153</ele>
        <time>2021-01-31T10:50:59Z</time>
      </trkpt>
      <trkpt lat="47.86191" lon="-2.77315">
        <ele>153</ele>
        <time>2021-01-31T10:51:02Z</time>
      </trkpt>
      <trkpt lat="47.86188" lon="-2.77317">
        <ele>153</ele>
        <time>2021-01-31T10:51:03Z</time>
      </trkpt>
      <trkpt lat="47.86186" lon="-2.77319">
        <ele>153</ele>
        <time>2021-01-31T10:51:05Z</time>
      </trkpt>
      <trkpt lat="47.86183" lon="-2.7732">
        <ele>153</ele>
        <time>2021-01-31T10:51:07Z</time>
      </trkpt>
      <trkpt lat="47.8618" lon="-2.77322">
        <ele>152</ele>
        <time>2021-01-31T10:51:09Z</time>
      </trkpt>
      <trkpt lat="47.86177" lon="-2.77325">
        <ele>152</ele>
        <time>2021-01-31T10:51:11Z</time>
      </trkpt>
      <trkpt lat="47.86176" lon="-2.77326">
        <ele>152</ele>
        <time>2021-01-31T10:51:12Z</time>
      </trkpt>
      <trkpt lat="47.86173" lon="-2.77328">
        <ele>152</ele>
        <time>2021-01-31T10:51:14Z</time>
      </trkpt>
      <trkpt lat="47.86171" lon="-2.7733">
        <ele>152</ele>
        <time>2021-01-31T10:51:15Z</time>
      </trkpt>
      <trkpt lat="47.86169" lon="-2.77331">
        <ele>152</ele>
        <time>2021-01-31T10:51:16Z</time>
      </trkpt>
      <trkpt lat="47.86168" lon="-2.77333">
        <ele>152</ele>
        <time>2021-01-31T10:51:19Z</time>
      </trkpt>
      <trkpt lat="47.86166" lon="-2.77334">
        <ele>151</ele>
        <time>2021-01-31T10:51:21Z</time>
      </trkpt>
      <trkpt lat="47.86164" lon="-2.77336">
        <ele>151</ele>
        <time>2021-01-31T10:51:23Z</time>
      </trkpt>
      <trkpt lat="47.86161" lon="-2.77338">
        <ele>150</ele>
        <time>2021-01-31T10:51:26Z</time>
      </trkpt>
      <trkpt lat="47.86161" lon="-2.77341">
        <ele>149</ele>
        <time>2021-01-31T10:51:35Z</time>
      </trkpt>
      <trkpt lat="47.86161" lon="-2.77345">
        <ele>149</ele>
        <time>2021-01-31T10:51:37Z</time>
      </trkpt>
      <trkpt lat="47.8616" lon="-2.77348">
        <ele>149</ele>
        <time>2021-01-31T10:51:40Z</time>
      </trkpt>
      <trkpt lat="47.8616" lon="-2.77351">
        <ele>149</ele>
        <time>2021-01-31T10:51:42Z</time>
      </trkpt>
      <trkpt lat="47.86159" lon="-2.77354">
        <ele>149</ele>
        <time>2021-01-31T10:51:43Z</time>
      </trkpt>
      <trkpt lat="47.86158" lon="-2.77357">
        <ele>149</ele>
        <time>2021-01-31T10:51:46Z</time>
      </trkpt>
      <trkpt lat="47.86157" lon="-2.77361">
        <ele>148</ele>
        <time>2021-01-31T10:51:48Z</time>
      </trkpt>
      <trkpt lat="47.86156" lon="-2.77364">
        <ele>148</ele>
        <time>2021-01-31T10:51:49Z</time>
      </trkpt>
      <trkpt lat="47.86155" lon="-2.77369">
        <ele>147</ele>
        <time>2021-01-31T10:51:51Z</time>
      </trkpt>
      <trkpt lat="47.86153" lon="-2.77372">
        <ele>147</ele>
        <time>2021-01-31T10:51:54Z</time>
      </trkpt>
      <trkpt lat="47.86151" lon="-2.77375">
        <ele>147</ele>
        <time>2021-01-31T10:51:56Z</time>
      </trkpt>
      <trkpt lat="47.86148" lon="-2.77376">
        <ele>146</ele>
        <time>2021-01-31T10:51:58Z</time>
      </trkpt>
      <trkpt lat="47.86146" lon="-2.77377">
        <ele>146</ele>
        <time>2021-01-31T10:52:00Z</time>
      </trkpt>
      <trkpt lat="47.86144" lon="-2.77378">
        <ele>146</ele>
        <time>2021-01-31T10:52:01Z</time>
      </trkpt>
      <trkpt lat="47.86142" lon="-2.7738">
        <ele>144</ele>
        <time>2021-01-31T10:52:04Z</time>
      </trkpt>
      <trkpt lat="47.8614" lon="-2.77382">
        <ele>144</ele>
        <time>2021-01-31T10:52:05Z</time>
      </trkpt>
      <trkpt lat="47.86138" lon="-2.77383">
        <ele>143</ele>
        <time>2021-01-31T10:52:07Z</time>
      </trkpt>
      <trkpt lat="47.86134" lon="-2.77386">
        <ele>143</ele>
        <time>2021-01-31T10:52:10Z</time>
      </trkpt>
      <trkpt lat="47.86132" lon="-2.77388">
        <ele>143</ele>
        <time>2021-01-31T10:52:11Z</time>
      </trkpt>
      <trkpt lat="47.8613" lon="-2.77392">
        <ele>142</ele>
        <time>2021-01-31T10:52:13Z</time>
      </trkpt>
      <trkpt lat="47.86128" lon="-2.77394">
        <ele>141</ele>
        <time>2021-01-31T10:52:15Z</time>
      </trkpt>
      <trkpt lat="47.86127" lon="-2.77396">
        <ele>140</ele>
        <time>2021-01-31T10:52:19Z</time>
      </trkpt>
      <trkpt lat="47.86128" lon="-2.774">
        <ele>140</ele>
        <time>2021-01-31T10:52:24Z</time>
      </trkpt>
      <trkpt lat="47.86128" lon="-2.77403">
        <ele>141</ele>
        <time>2021-01-31T10:52:26Z</time>
      </trkpt>
      <trkpt lat="47.86128" lon="-2.77407">
        <ele>140</ele>
        <time>2021-01-31T10:52:29Z</time>
      </trkpt>
      <trkpt lat="47.86127" lon="-2.77411">
        <ele>140</ele>
        <time>2021-01-31T10:52:31Z</time>
      </trkpt>
      <trkpt lat="47.86126" lon="-2.77413">
        <ele>140</ele>
        <time>2021-01-31T10:52:32Z</time>
      </trkpt>
      <trkpt lat="47.86126" lon="-2.77418">
        <ele>139</ele>
        <time>2021-01-31T10:52:33Z</time>
      </trkpt>
      <trkpt lat="47.86126" lon="-2.77423">
        <ele>139</ele>
        <time>2021-01-31T10:52:36Z</time>
      </trkpt>
      <trkpt lat="47.86127" lon="-2.77427">
        <ele>139</ele>
        <time>2021-01-31T10:52:37Z</time>
      </trkpt>
      <trkpt lat="47.86128" lon="-2.7743">
        <ele>139</ele>
        <time>2021-01-31T10:52:38Z</time>
      </trkpt>
      <trkpt lat="47.8613" lon="-2.77434">
        <ele>138</ele>
        <time>2021-01-31T10:52:39Z</time>
      </trkpt>
      <trkpt lat="47.86131" lon="-2.77442">
        <ele>138</ele>
        <time>2021-01-31T10:52:41Z</time>
      </trkpt>
      <trkpt lat="47.86131" lon="-2.77446">
        <ele>138</ele>
        <time>2021-01-31T10:52:42Z</time>
      </trkpt>
      <trkpt lat="47.86132" lon="-2.77451">
        <ele>137</ele>
        <time>2021-01-31T10:52:44Z</time>
      </trkpt>
      <trkpt lat="47.86132" lon="-2.77454">
        <ele>137</ele>
        <time>2021-01-31T10:52:46Z</time>
      </trkpt>
      <trkpt lat="47.86132" lon="-2.77457">
        <ele>137</ele>
        <time>2021-01-31T10:52:48Z</time>
      </trkpt>
      <trkpt lat="47.86133" lon="-2.7746">
        <ele>137</ele>
        <time>2021-01-31T10:52:53Z</time>
      </trkpt>
      <trkpt lat="47.86132" lon="-2.77463">
        <ele>137</ele>
        <time>2021-01-31T10:52:56Z</time>
      </trkpt>
      <trkpt lat="47.86133" lon="-2.77468">
        <ele>137</ele>
        <time>2021-01-31T10:52:58Z</time>
      </trkpt>
      <trkpt lat="47.86139" lon="-2.77479">
        <ele>136</ele>
        <time>2021-01-31T10:53:04Z</time>
      </trkpt>
      <trkpt lat="47.86141" lon="-2.77483">
        <ele>136</ele>
        <time>2021-01-31T10:53:05Z</time>
      </trkpt>
      <trkpt lat="47.86144" lon="-2.77486">
        <ele>136</ele>
        <time>2021-01-31T10:53:07Z</time>
      </trkpt>
      <trkpt lat="47.86146" lon="-2.77488">
        <ele>136</ele>
        <time>2021-01-31T10:53:09Z</time>
      </trkpt>
      <trkpt lat="47.86147" lon="-2.77491">
        <ele>135</ele>
        <time>2021-01-31T10:53:11Z</time>
      </trkpt>
      <trkpt lat="47.86148" lon="-2.77494">
        <ele>134</ele>
        <time>2021-01-31T10:53:13Z</time>
      </trkpt>
      <trkpt lat="47.86149" lon="-2.77497">
        <ele>133</ele>
        <time>2021-01-31T10:53:16Z</time>
      </trkpt>
      <trkpt lat="47.8615" lon="-2.775">
        <ele>133</ele>
        <time>2021-01-31T10:53:20Z</time>
      </trkpt>
      <trkpt lat="47.86148" lon="-2.77501">
        <ele>131</ele>
        <time>2021-01-31T10:53:26Z</time>
      </trkpt>
      <trkpt lat="47.86146" lon="-2.77503">
        <ele>130</ele>
        <time>2021-01-31T10:53:28Z</time>
      </trkpt>
      <trkpt lat="47.86146" lon="-2.77507">
        <ele>130</ele>
        <time>2021-01-31T10:53:31Z</time>
      </trkpt>
      <trkpt lat="47.86147" lon="-2.7751">
        <ele>129</ele>
        <time>2021-01-31T10:53:32Z</time>
      </trkpt>
      <trkpt lat="47.86148" lon="-2.77513">
        <ele>128</ele>
        <time>2021-01-31T10:53:41Z</time>
      </trkpt>
      <trkpt lat="47.8615" lon="-2.77514">
        <ele>128</ele>
        <time>2021-01-31T10:53:43Z</time>
      </trkpt>
      <trkpt lat="47.86151" lon="-2.77517">
        <ele>128</ele>
        <time>2021-01-31T10:53:47Z</time>
      </trkpt>
      <trkpt lat="47.86153" lon="-2.7752">
        <ele>128</ele>
        <time>2021-01-31T10:53:50Z</time>
      </trkpt>
      <trkpt lat="47.86154" lon="-2.77522">
        <ele>123</ele>
        <time>2021-01-31T10:53:53Z</time>
      </trkpt>
      <trkpt lat="47.86152" lon="-2.77524">
        <ele>122</ele>
        <time>2021-01-31T10:53:56Z</time>
      </trkpt>
      <trkpt lat="47.86151" lon="-2.77526">
        <ele>121</ele>
        <time>2021-01-31T10:54:01Z</time>
      </trkpt>
      <trkpt lat="47.8615" lon="-2.77529">
        <ele>120</ele>
        <time>2021-01-31T10:54:06Z</time>
      </trkpt>
      <trkpt lat="47.8615" lon="-2.77532">
        <ele>120</ele>
        <time>2021-01-31T10:54:28Z</time>
      </trkpt>
      <trkpt lat="47.8615" lon="-2.77534">
        <ele>119</ele>
        <time>2021-01-31T10:54:39Z</time>
      </trkpt>
      <trkpt lat="47.86152" lon="-2.77537">
        <ele>119</ele>
        <time>2021-01-31T10:54:43Z</time>
      </trkpt>
      <trkpt lat="47.86155" lon="-2.77539">
        <ele>119</ele>
        <time>2021-01-31T10:54:44Z</time>
      </trkpt>
      <trkpt lat="47.86157" lon="-2.77539">
        <ele>119</ele>
        <time>2021-01-31T10:54:46Z</time>
      </trkpt>
      <trkpt lat="47.8616" lon="-2.7754">
        <ele>119</ele>
        <time>2021-01-31T10:54:48Z</time>
      </trkpt>
      <trkpt lat="47.86163" lon="-2.77542">
        <ele>119</ele>
        <time>2021-01-31T10:54:51Z</time>
      </trkpt>
      <trkpt lat="47.86166" lon="-2.77543">
        <ele>118</ele>
        <time>2021-01-31T10:54:53Z</time>
      </trkpt>
      <trkpt lat="47.86169" lon="-2.77544">
        <ele>118</ele>
        <time>2021-01-31T10:54:54Z</time>
      </trkpt>
      <trkpt lat="47.86172" lon="-2.77546">
        <ele>118</ele>
        <time>2021-01-31T10:54:56Z</time>
      </trkpt>
      <trkpt lat="47.86174" lon="-2.77547">
        <ele>118</ele>
        <time>2021-01-31T10:54:57Z</time>
      </trkpt>
      <trkpt lat="47.86177" lon="-2.77548">
        <ele>119</ele>
        <time>2021-01-31T10:55:00Z</time>
      </trkpt>
      <trkpt lat="47.8618" lon="-2.7755">
        <ele>119</ele>
        <time>2021-01-31T10:55:01Z</time>
      </trkpt>
      <trkpt lat="47.86182" lon="-2.77552">
        <ele>119</ele>
        <time>2021-01-31T10:55:03Z</time>
      </trkpt>
      <trkpt lat="47.86185" lon="-2.77551">
        <ele>119</ele>
        <time>2021-01-31T10:55:05Z</time>
      </trkpt>
      <trkpt lat="47.86188" lon="-2.7755">
        <ele>119</ele>
        <time>2021-01-31T10:55:08Z</time>
      </trkpt>
      <trkpt lat="47.8619" lon="-2.7755">
        <ele>119</ele>
        <time>2021-01-31T10:55:11Z</time>
      </trkpt>
      <trkpt lat="47.86193" lon="-2.77551">
        <ele>119</ele>
        <time>2021-01-31T10:55:13Z</time>
      </trkpt>
      <trkpt lat="47.86196" lon="-2.77551">
        <ele>119</ele>
        <time>2021-01-31T10:55:14Z</time>
      </trkpt>
      <trkpt lat="47.86198" lon="-2.77552">
        <ele>119</ele>
        <time>2021-01-31T10:55:17Z</time>
      </trkpt>
      <trkpt lat="47.86201" lon="-2.77552">
        <ele>120</ele>
        <time>2021-01-31T10:55:19Z</time>
      </trkpt>
      <trkpt lat="47.86204" lon="-2.77552">
        <ele>120</ele>
        <time>2021-01-31T10:55:20Z</time>
      </trkpt>
      <trkpt lat="47.86207" lon="-2.77552">
        <ele>115.2</ele>
        <time>2021-01-31T10:55:23Z</time>
      </trkpt>
      <trkpt lat="47.8621" lon="-2.77553">
        <ele>120</ele>
        <time>2021-01-31T10:55:24Z</time>
      </trkpt>
      <trkpt lat="47.86212" lon="-2.77552">
        <ele>120</ele>
        <time>2021-01-31T10:55:27Z</time>
      </trkpt>
      <trkpt lat="47.86215" lon="-2.77552">
        <ele>120</ele>
        <time>2021-01-31T10:55:28Z</time>
      </trkpt>
      <trkpt lat="47.86218" lon="-2.77552">
        <ele>120</ele>
        <time>2021-01-31T10:55:31Z</time>
      </trkpt>
      <trkpt lat="47.8622" lon="-2.77552">
        <ele>120</ele>
        <time>2021-01-31T10:55:32Z</time>
      </trkpt>
      <trkpt lat="47.86223" lon="-2.77552">
        <ele>120</ele>
        <time>2021-01-31T10:55:34Z</time>
      </trkpt>
      <trkpt lat="47.86226" lon="-2.77551">
        <ele>121</ele>
        <time>2021-01-31T10:55:37Z</time>
      </trkpt>
      <trkpt lat="47.86229" lon="-2.77552">
        <ele>121</ele>
        <time>2021-01-31T10:55:38Z</time>
      </trkpt>
      <trkpt lat="47.86231" lon="-2.77552">
        <ele>121</ele>
        <time>2021-01-31T10:55:41Z</time>
      </trkpt>
      <trkpt lat="47.86231" lon="-2.77548">
        <ele>121</ele>
        <time>2021-01-31T10:55:43Z</time>
      </trkpt>
      <trkpt lat="47.8623" lon="-2.77545">
        <ele>121</ele>
        <time>2021-01-31T10:55:46Z</time>
      </trkpt>
      <trkpt lat="47.86228" lon="-2.77543">
        <ele>121</ele>
        <time>2021-01-31T10:55:47Z</time>
      </trkpt>
      <trkpt lat="47.86226" lon="-2.77541">
        <ele>121</ele>
        <time>2021-01-31T10:55:49Z</time>
      </trkpt>
      <trkpt lat="47.86225" lon="-2.77539">
        <ele>121</ele>
        <time>2021-01-31T10:55:52Z</time>
      </trkpt>
      <trkpt lat="47.86222" lon="-2.77537">
        <ele>121</ele>
        <time>2021-01-31T10:55:53Z</time>
      </trkpt>
      <trkpt lat="47.8622" lon="-2.77535">
        <ele>121</ele>
        <time>2021-01-31T10:55:55Z</time>
      </trkpt>
      <trkpt lat="47.86217" lon="-2.77534">
        <ele>121</ele>
        <time>2021-01-31T10:55:58Z</time>
      </trkpt>
      <trkpt lat="47.86215" lon="-2.77533">
        <ele>121</ele>
        <time>2021-01-31T10:56:00Z</time>
      </trkpt>
      <trkpt lat="47.86212" lon="-2.77532">
        <ele>121</ele>
        <time>2021-01-31T10:56:01Z</time>
      </trkpt>
      <trkpt lat="47.86208" lon="-2.77532">
        <ele>121</ele>
        <time>2021-01-31T10:56:04Z</time>
      </trkpt>
      <trkpt lat="47.86206" lon="-2.77531">
        <ele>121</ele>
        <time>2021-01-31T10:56:06Z</time>
      </trkpt>
      <trkpt lat="47.86203" lon="-2.77531">
        <ele>121</ele>
        <time>2021-01-31T10:56:07Z</time>
      </trkpt>
      <trkpt lat="47.862" lon="-2.7753">
        <ele>120</ele>
        <time>2021-01-31T10:56:10Z</time>
      </trkpt>
      <trkpt lat="47.86197" lon="-2.77531">
        <ele>120</ele>
        <time>2021-01-31T10:56:12Z</time>
      </trkpt>
      <trkpt lat="47.86196" lon="-2.77531">
        <ele>119</ele>
        <time>2021-01-31T10:56:18Z</time>
      </trkpt>
      <trkpt lat="47.86194" lon="-2.77529">
        <ele>119</ele>
        <time>2021-01-31T10:56:20Z</time>
      </trkpt>
      <trkpt lat="47.86191" lon="-2.77527">
        <ele>119</ele>
        <time>2021-01-31T10:56:23Z</time>
      </trkpt>
      <trkpt lat="47.86187" lon="-2.77527">
        <ele>119</ele>
        <time>2021-01-31T10:56:24Z</time>
      </trkpt>
      <trkpt lat="47.86185" lon="-2.77527">
        <ele>119</ele>
        <time>2021-01-31T10:56:25Z</time>
      </trkpt>
      <trkpt lat="47.8618" lon="-2.77527">
        <ele>119</ele>
        <time>2021-01-31T10:56:27Z</time>
      </trkpt>
      <trkpt lat="47.86178" lon="-2.77528">
        <ele>119</ele>
        <time>2021-01-31T10:56:29Z</time>
      </trkpt>
      <trkpt lat="47.86177" lon="-2.77527">
        <ele>119</ele>
        <time>2021-01-31T10:56:30Z</time>
      </trkpt>
      <trkpt lat="47.86173" lon="-2.77527">
        <ele>119</ele>
        <time>2021-01-31T10:56:31Z</time>
      </trkpt>
      <trkpt lat="47.86169" lon="-2.77527">
        <ele>119</ele>
        <time>2021-01-31T10:56:33Z</time>
      </trkpt>
      <trkpt lat="47.86167" lon="-2.77527">
        <ele>119</ele>
        <time>2021-01-31T10:56:36Z</time>
      </trkpt>
      <trkpt lat="47.86164" lon="-2.77526">
        <ele>119</ele>
        <time>2021-01-31T10:56:37Z</time>
      </trkpt>
      <trkpt lat="47.86161" lon="-2.77527">
        <ele>120</ele>
        <time>2021-01-31T10:56:39Z</time>
      </trkpt>
      <trkpt lat="47.86159" lon="-2.77526">
        <ele>120</ele>
        <time>2021-01-31T10:56:42Z</time>
      </trkpt>
      <trkpt lat="47.86155" lon="-2.77525">
        <ele>120</ele>
        <time>2021-01-31T10:56:43Z</time>
      </trkpt>
      <trkpt lat="47.86153" lon="-2.77524">
        <ele>120</ele>
        <time>2021-01-31T10:56:46Z</time>
      </trkpt>
      <trkpt lat="47.86151" lon="-2.77524">
        <ele>120</ele>
        <time>2021-01-31T10:56:48Z</time>
      </trkpt>
      <trkpt lat="47.86149" lon="-2.77524">
        <ele>121</ele>
        <time>2021-01-31T10:56:49Z</time>
      </trkpt>
      <trkpt lat="47.86145" lon="-2.77523">
        <ele>121</ele>
        <time>2021-01-31T10:56:50Z</time>
      </trkpt>
      <trkpt lat="47.86142" lon="-2.77522">
        <ele>121</ele>
        <time>2021-01-31T10:56:52Z</time>
      </trkpt>
      <trkpt lat="47.86139" lon="-2.77521">
        <ele>122</ele>
        <time>2021-01-31T10:56:55Z</time>
      </trkpt>
      <trkpt lat="47.86137" lon="-2.7752">
        <ele>123</ele>
        <time>2021-01-31T10:56:56Z</time>
      </trkpt>
      <trkpt lat="47.86135" lon="-2.77518">
        <ele>123</ele>
        <time>2021-01-31T10:57:00Z</time>
      </trkpt>
      <trkpt lat="47.86133" lon="-2.77516">
        <ele>124</ele>
        <time>2021-01-31T10:57:01Z</time>
      </trkpt>
      <trkpt lat="47.86131" lon="-2.77513">
        <ele>124</ele>
        <time>2021-01-31T10:57:03Z</time>
      </trkpt>
      <trkpt lat="47.8613" lon="-2.7751">
        <ele>125</ele>
        <time>2021-01-31T10:57:06Z</time>
      </trkpt>
      <trkpt lat="47.8613" lon="-2.77508">
        <ele>129</ele>
        <time>2021-01-31T10:57:08Z</time>
      </trkpt>
      <trkpt lat="47.86128" lon="-2.77506">
        <ele>129</ele>
        <time>2021-01-31T10:57:09Z</time>
      </trkpt>
      <trkpt lat="47.86126" lon="-2.77503">
        <ele>130</ele>
        <time>2021-01-31T10:57:12Z</time>
      </trkpt>
      <trkpt lat="47.86125" lon="-2.775">
        <ele>130</ele>
        <time>2021-01-31T10:57:14Z</time>
      </trkpt>
      <trkpt lat="47.86123" lon="-2.77497">
        <ele>130</ele>
        <time>2021-01-31T10:57:15Z</time>
      </trkpt>
      <trkpt lat="47.8612" lon="-2.77494">
        <ele>131</ele>
        <time>2021-01-31T10:57:17Z</time>
      </trkpt>
      <trkpt lat="47.86119" lon="-2.7749">
        <ele>131</ele>
        <time>2021-01-31T10:57:20Z</time>
      </trkpt>
      <trkpt lat="47.86118" lon="-2.77487">
        <ele>132</ele>
        <time>2021-01-31T10:57:21Z</time>
      </trkpt>
      <trkpt lat="47.86117" lon="-2.77483">
        <ele>132</ele>
        <time>2021-01-31T10:57:23Z</time>
      </trkpt>
      <trkpt lat="47.86117" lon="-2.7748">
        <ele>132</ele>
        <time>2021-01-31T10:57:26Z</time>
      </trkpt>
      <trkpt lat="47.86116" lon="-2.77477">
        <ele>132</ele>
        <time>2021-01-31T10:57:27Z</time>
      </trkpt>
      <trkpt lat="47.86116" lon="-2.77472">
        <ele>132</ele>
        <time>2021-01-31T10:57:29Z</time>
      </trkpt>
      <trkpt lat="47.86115" lon="-2.77469">
        <ele>133</ele>
        <time>2021-01-31T10:57:31Z</time>
      </trkpt>
      <trkpt lat="47.86114" lon="-2.77465">
        <ele>133</ele>
        <time>2021-01-31T10:57:32Z</time>
      </trkpt>
      <trkpt lat="47.86113" lon="-2.77462">
        <ele>133</ele>
        <time>2021-01-31T10:57:35Z</time>
      </trkpt>
      <trkpt lat="47.86112" lon="-2.77459">
        <ele>133</ele>
        <time>2021-01-31T10:57:36Z</time>
      </trkpt>
      <trkpt lat="47.8611" lon="-2.77455">
        <ele>133</ele>
        <time>2021-01-31T10:57:39Z</time>
      </trkpt>
      <trkpt lat="47.86108" lon="-2.77452">
        <ele>133</ele>
        <time>2021-01-31T10:57:40Z</time>
      </trkpt>
      <trkpt lat="47.86103" lon="-2.77448">
        <ele>133</ele>
        <time>2021-01-31T10:57:43Z</time>
      </trkpt>
      <trkpt lat="47.86101" lon="-2.77444">
        <ele>133</ele>
        <time>2021-01-31T10:57:46Z</time>
      </trkpt>
      <trkpt lat="47.86099" lon="-2.7744">
        <ele>133</ele>
        <time>2021-01-31T10:57:48Z</time>
      </trkpt>
      <trkpt lat="47.86098" lon="-2.77436">
        <ele>133</ele>
        <time>2021-01-31T10:57:49Z</time>
      </trkpt>
      <trkpt lat="47.86095" lon="-2.77431">
        <ele>133</ele>
        <time>2021-01-31T10:57:51Z</time>
      </trkpt>
      <trkpt lat="47.86093" lon="-2.77428">
        <ele>132</ele>
        <time>2021-01-31T10:57:53Z</time>
      </trkpt>
      <trkpt lat="47.86091" lon="-2.77426">
        <ele>132</ele>
        <time>2021-01-31T10:57:55Z</time>
      </trkpt>
      <trkpt lat="47.86089" lon="-2.77423">
        <ele>132</ele>
        <time>2021-01-31T10:57:58Z</time>
      </trkpt>
      <trkpt lat="47.86088" lon="-2.7742">
        <ele>132</ele>
        <time>2021-01-31T10:57:59Z</time>
      </trkpt>
      <trkpt lat="47.86088" lon="-2.77415">
        <ele>133</ele>
        <time>2021-01-31T10:58:02Z</time>
      </trkpt>
      <trkpt lat="47.86087" lon="-2.7741">
        <ele>133</ele>
        <time>2021-01-31T10:58:04Z</time>
      </trkpt>
      <trkpt lat="47.86087" lon="-2.77407">
        <ele>133</ele>
        <time>2021-01-31T10:58:05Z</time>
      </trkpt>
      <trkpt lat="47.86086" lon="-2.77404">
        <ele>133</ele>
        <time>2021-01-31T10:58:06Z</time>
      </trkpt>
      <trkpt lat="47.86083" lon="-2.774">
        <ele>133</ele>
        <time>2021-01-31T10:58:09Z</time>
      </trkpt>
      <trkpt lat="47.86082" lon="-2.77399">
        <ele>133</ele>
        <time>2021-01-31T10:58:16Z</time>
      </trkpt>
      <trkpt lat="47.86079" lon="-2.77399">
        <ele>133</ele>
        <time>2021-01-31T10:58:19Z</time>
      </trkpt>
      <trkpt lat="47.86077" lon="-2.774">
        <ele>133</ele>
        <time>2021-01-31T10:58:22Z</time>
      </trkpt>
      <trkpt lat="47.86075" lon="-2.77397">
        <ele>133</ele>
        <time>2021-01-31T10:58:25Z</time>
      </trkpt>
      <trkpt lat="47.86073" lon="-2.77394">
        <ele>133</ele>
        <time>2021-01-31T10:58:28Z</time>
      </trkpt>
      <trkpt lat="47.86068" lon="-2.77393">
        <ele>131</ele>
        <time>2021-01-31T10:58:31Z</time>
      </trkpt>
      <trkpt lat="47.86065" lon="-2.77394">
        <ele>130</ele>
        <time>2021-01-31T10:58:33Z</time>
      </trkpt>
      <trkpt lat="47.8606" lon="-2.77394">
        <ele>130</ele>
        <time>2021-01-31T10:58:34Z</time>
      </trkpt>
      <trkpt lat="47.86057" lon="-2.77393">
        <ele>129</ele>
        <time>2021-01-31T10:58:36Z</time>
      </trkpt>
      <trkpt lat="47.86054" lon="-2.77393">
        <ele>129</ele>
        <time>2021-01-31T10:58:38Z</time>
      </trkpt>
      <trkpt lat="47.86052" lon="-2.77394">
        <ele>129</ele>
        <time>2021-01-31T10:58:39Z</time>
      </trkpt>
      <trkpt lat="47.8605" lon="-2.77395">
        <ele>125</ele>
        <time>2021-01-31T10:58:41Z</time>
      </trkpt>
      <trkpt lat="47.86045" lon="-2.77397">
        <ele>125</ele>
        <time>2021-01-31T10:58:43Z</time>
      </trkpt>
      <trkpt lat="47.86044" lon="-2.774">
        <ele>124</ele>
        <time>2021-01-31T10:58:46Z</time>
      </trkpt>
      <trkpt lat="47.86042" lon="-2.77403">
        <ele>124</ele>
        <time>2021-01-31T10:58:47Z</time>
      </trkpt>
      <trkpt lat="47.8604" lon="-2.77407">
        <ele>122</ele>
        <time>2021-01-31T10:58:49Z</time>
      </trkpt>
      <trkpt lat="47.86039" lon="-2.7741">
        <ele>121</ele>
        <time>2021-01-31T10:58:50Z</time>
      </trkpt>
      <trkpt lat="47.86036" lon="-2.77416">
        <ele>121</ele>
        <time>2021-01-31T10:58:52Z</time>
      </trkpt>
      <trkpt lat="47.86034" lon="-2.77419">
        <ele>121</ele>
        <time>2021-01-31T10:58:53Z</time>
      </trkpt>
      <trkpt lat="47.86033" lon="-2.77422">
        <ele>121</ele>
        <time>2021-01-31T10:58:56Z</time>
      </trkpt>
      <trkpt lat="47.86031" lon="-2.77425">
        <ele>120</ele>
        <time>2021-01-31T10:58:59Z</time>
      </trkpt>
      <trkpt lat="47.86029" lon="-2.77428">
        <ele>119</ele>
        <time>2021-01-31T10:59:00Z</time>
      </trkpt>
      <trkpt lat="47.86029" lon="-2.77433">
        <ele>118</ele>
        <time>2021-01-31T10:59:02Z</time>
      </trkpt>
      <trkpt lat="47.86029" lon="-2.77436">
        <ele>118</ele>
        <time>2021-01-31T10:59:05Z</time>
      </trkpt>
      <trkpt lat="47.86027" lon="-2.77438">
        <ele>118</ele>
        <time>2021-01-31T10:59:07Z</time>
      </trkpt>
      <trkpt lat="47.86025" lon="-2.7744">
        <ele>117</ele>
        <time>2021-01-31T10:59:10Z</time>
      </trkpt>
      <trkpt lat="47.86024" lon="-2.77443">
        <ele>116</ele>
        <time>2021-01-31T10:59:13Z</time>
      </trkpt>
      <trkpt lat="47.86025" lon="-2.77447">
        <ele>116</ele>
        <time>2021-01-31T10:59:17Z</time>
      </trkpt>
      <trkpt lat="47.86023" lon="-2.77448">
        <ele>116</ele>
        <time>2021-01-31T10:59:22Z</time>
      </trkpt>
      <trkpt lat="47.86022" lon="-2.77452">
        <ele>114</ele>
        <time>2021-01-31T10:59:25Z</time>
      </trkpt>
      <trkpt lat="47.86021" lon="-2.77456">
        <ele>113</ele>
        <time>2021-01-31T10:59:27Z</time>
      </trkpt>
      <trkpt lat="47.86022" lon="-2.7746">
        <ele>112</ele>
        <time>2021-01-31T10:59:29Z</time>
      </trkpt>
      <trkpt lat="47.86023" lon="-2.77463">
        <ele>111</ele>
        <time>2021-01-31T10:59:31Z</time>
      </trkpt>
      <trkpt lat="47.86022" lon="-2.77466">
        <ele>111</ele>
        <time>2021-01-31T10:59:33Z</time>
      </trkpt>
      <trkpt lat="47.86022" lon="-2.7747">
        <ele>110</ele>
        <time>2021-01-31T10:59:37Z</time>
      </trkpt>
      <trkpt lat="47.86022" lon="-2.77474">
        <ele>109</ele>
        <time>2021-01-31T10:59:39Z</time>
      </trkpt>
      <trkpt lat="47.86022" lon="-2.7748">
        <ele>108</ele>
        <time>2021-01-31T10:59:40Z</time>
      </trkpt>
      <trkpt lat="47.86023" lon="-2.77483">
        <ele>108</ele>
        <time>2021-01-31T10:59:42Z</time>
      </trkpt>
      <trkpt lat="47.86023" lon="-2.77487">
        <ele>108</ele>
        <time>2021-01-31T10:59:43Z</time>
      </trkpt>
      <trkpt lat="47.86025" lon="-2.77491">
        <ele>107</ele>
        <time>2021-01-31T10:59:46Z</time>
      </trkpt>
      <trkpt lat="47.86025" lon="-2.77497">
        <ele>107</ele>
        <time>2021-01-31T10:59:48Z</time>
      </trkpt>
      <trkpt lat="47.86027" lon="-2.77502">
        <ele>106</ele>
        <time>2021-01-31T10:59:51Z</time>
      </trkpt>
      <trkpt lat="47.86027" lon="-2.77505">
        <ele>105</ele>
        <time>2021-01-31T10:59:53Z</time>
      </trkpt>
      <trkpt lat="47.86029" lon="-2.77507">
        <ele>105</ele>
        <time>2021-01-31T10:59:55Z</time>
      </trkpt>
      <trkpt lat="47.8603" lon="-2.7751">
        <ele>105</ele>
        <time>2021-01-31T10:59:56Z</time>
      </trkpt>
      <trkpt lat="47.86031" lon="-2.77513">
        <ele>105</ele>
        <time>2021-01-31T10:59:59Z</time>
      </trkpt>
      <trkpt lat="47.86031" lon="-2.77516">
        <ele>105</ele>
        <time>2021-01-31T11:00:00Z</time>
      </trkpt>
      <trkpt lat="47.86029" lon="-2.77519">
        <ele>104</ele>
        <time>2021-01-31T11:00:03Z</time>
      </trkpt>
      <trkpt lat="47.86028" lon="-2.77523">
        <ele>104</ele>
        <time>2021-01-31T11:00:04Z</time>
      </trkpt>
      <trkpt lat="47.86027" lon="-2.77525">
        <ele>103</ele>
        <time>2021-01-31T11:00:07Z</time>
      </trkpt>
      <trkpt lat="47.86025" lon="-2.77528">
        <ele>102</ele>
        <time>2021-01-31T11:00:10Z</time>
      </trkpt>
      <trkpt lat="47.86024" lon="-2.7753">
        <ele>101</ele>
        <time>2021-01-31T11:00:12Z</time>
      </trkpt>
      <trkpt lat="47.86024" lon="-2.77533">
        <ele>100</ele>
        <time>2021-01-31T11:00:14Z</time>
      </trkpt>
      <trkpt lat="47.86023" lon="-2.77536">
        <ele>100</ele>
        <time>2021-01-31T11:00:15Z</time>
      </trkpt>
      <trkpt lat="47.86021" lon="-2.77537">
        <ele>99</ele>
        <time>2021-01-31T11:00:21Z</time>
      </trkpt>
      <trkpt lat="47.86019" lon="-2.77538">
        <ele>97</ele>
        <time>2021-01-31T11:00:24Z</time>
      </trkpt>
      <trkpt lat="47.86017" lon="-2.77539">
        <ele>97</ele>
        <time>2021-01-31T11:00:27Z</time>
      </trkpt>
      <trkpt lat="47.86017" lon="-2.77544">
        <ele>97</ele>
        <time>2021-01-31T11:00:35Z</time>
      </trkpt>
      <trkpt lat="47.86018" lon="-2.77548">
        <ele>96</ele>
        <time>2021-01-31T11:00:37Z</time>
      </trkpt>
      <trkpt lat="47.86018" lon="-2.77545">
        <ele>97</ele>
        <time>2021-01-31T11:00:47Z</time>
      </trkpt>
      <trkpt lat="47.86016" lon="-2.77544">
        <ele>97</ele>
        <time>2021-01-31T11:00:50Z</time>
      </trkpt>
      <trkpt lat="47.86014" lon="-2.77544">
        <ele>97</ele>
        <time>2021-01-31T11:00:51Z</time>
      </trkpt>
      <trkpt lat="47.86014" lon="-2.7754">
        <ele>96</ele>
        <time>2021-01-31T11:00:59Z</time>
      </trkpt>
      <trkpt lat="47.86014" lon="-2.77537">
        <ele>97</ele>
        <time>2021-01-31T11:01:01Z</time>
      </trkpt>
      <trkpt lat="47.86014" lon="-2.77533">
        <ele>97</ele>
        <time>2021-01-31T11:01:03Z</time>
      </trkpt>
      <trkpt lat="47.86012" lon="-2.7753">
        <ele>97</ele>
        <time>2021-01-31T11:01:05Z</time>
      </trkpt>
      <trkpt lat="47.86013" lon="-2.77527">
        <ele>99</ele>
        <time>2021-01-31T11:01:09Z</time>
      </trkpt>
      <trkpt lat="47.86012" lon="-2.77524">
        <ele>99</ele>
        <time>2021-01-31T11:01:12Z</time>
      </trkpt>
      <trkpt lat="47.8601" lon="-2.77522">
        <ele>99</ele>
        <time>2021-01-31T11:01:15Z</time>
      </trkpt>
      <trkpt lat="47.86009" lon="-2.77519">
        <ele>99</ele>
        <time>2021-01-31T11:01:16Z</time>
      </trkpt>
      <trkpt lat="47.86005" lon="-2.77506">
        <ele>98</ele>
        <time>2021-01-31T11:01:22Z</time>
      </trkpt>
      <trkpt lat="47.85998" lon="-2.77498">
        <ele>98</ele>
        <time>2021-01-31T11:01:28Z</time>
      </trkpt>
      <trkpt lat="47.85991" lon="-2.77493">
        <ele>97</ele>
        <time>2021-01-31T11:01:33Z</time>
      </trkpt>
      <trkpt lat="47.85989" lon="-2.77491">
        <ele>97</ele>
        <time>2021-01-31T11:01:35Z</time>
      </trkpt>
      <trkpt lat="47.85986" lon="-2.77487">
        <ele>97</ele>
        <time>2021-01-31T11:01:36Z</time>
      </trkpt>
      <trkpt lat="47.85984" lon="-2.77486">
        <ele>97</ele>
        <time>2021-01-31T11:01:37Z</time>
      </trkpt>
      <trkpt lat="47.85983" lon="-2.77485">
        <ele>97</ele>
        <time>2021-01-31T11:01:39Z</time>
      </trkpt>
      <trkpt lat="47.85981" lon="-2.77482">
        <ele>97</ele>
        <time>2021-01-31T11:01:41Z</time>
      </trkpt>
      <trkpt lat="47.85975" lon="-2.77471">
        <ele>97</ele>
        <time>2021-01-31T11:01:51Z</time>
      </trkpt>
      <trkpt lat="47.85974" lon="-2.77466">
        <ele>97</ele>
        <time>2021-01-31T11:01:53Z</time>
      </trkpt>
      <trkpt lat="47.85973" lon="-2.77463">
        <ele>97</ele>
        <time>2021-01-31T11:01:55Z</time>
      </trkpt>
      <trkpt lat="47.85972" lon="-2.7746">
        <ele>96</ele>
        <time>2021-01-31T11:01:58Z</time>
      </trkpt>
      <trkpt lat="47.85971" lon="-2.77456">
        <ele>96</ele>
        <time>2021-01-31T11:01:59Z</time>
      </trkpt>
      <trkpt lat="47.85969" lon="-2.77452">
        <ele>96</ele>
        <time>2021-01-31T11:02:01Z</time>
      </trkpt>
      <trkpt lat="47.85968" lon="-2.77449">
        <ele>96</ele>
        <time>2021-01-31T11:02:04Z</time>
      </trkpt>
      <trkpt lat="47.85969" lon="-2.77446">
        <ele>95</ele>
        <time>2021-01-31T11:02:07Z</time>
      </trkpt>
      <trkpt lat="47.85967" lon="-2.77442">
        <ele>96</ele>
        <time>2021-01-31T11:02:09Z</time>
      </trkpt>
      <trkpt lat="47.85966" lon="-2.77439">
        <ele>96</ele>
        <time>2021-01-31T11:02:11Z</time>
      </trkpt>
      <trkpt lat="47.85964" lon="-2.77437">
        <ele>96</ele>
        <time>2021-01-31T11:02:12Z</time>
      </trkpt>
      <trkpt lat="47.85959" lon="-2.7743">
        <ele>96</ele>
        <time>2021-01-31T11:02:18Z</time>
      </trkpt>
      <trkpt lat="47.85958" lon="-2.77427">
        <ele>96</ele>
        <time>2021-01-31T11:02:19Z</time>
      </trkpt>
      <trkpt lat="47.85953" lon="-2.77415">
        <ele>96</ele>
        <time>2021-01-31T11:02:25Z</time>
      </trkpt>
      <trkpt lat="47.85948" lon="-2.77403">
        <ele>98</ele>
        <time>2021-01-31T11:02:31Z</time>
      </trkpt>
      <trkpt lat="47.85942" lon="-2.7739">
        <ele>98</ele>
        <time>2021-01-31T11:02:40Z</time>
      </trkpt>
      <trkpt lat="47.85937" lon="-2.77381">
        <ele>98</ele>
        <time>2021-01-31T11:02:45Z</time>
      </trkpt>
      <trkpt lat="47.85935" lon="-2.7738">
        <ele>98</ele>
        <time>2021-01-31T11:02:48Z</time>
      </trkpt>
      <trkpt lat="47.85933" lon="-2.77378">
        <ele>99</ele>
        <time>2021-01-31T11:02:51Z</time>
      </trkpt>
      <trkpt lat="47.85931" lon="-2.77376">
        <ele>99</ele>
        <time>2021-01-31T11:02:52Z</time>
      </trkpt>
      <trkpt lat="47.85926" lon="-2.77364">
        <ele>99</ele>
        <time>2021-01-31T11:02:59Z</time>
      </trkpt>
      <trkpt lat="47.85925" lon="-2.77356">
        <ele>99</ele>
        <time>2021-01-31T11:03:07Z</time>
      </trkpt>
      <trkpt lat="47.85922" lon="-2.77355">
        <ele>99</ele>
        <time>2021-01-31T11:03:11Z</time>
      </trkpt>
      <trkpt lat="47.85917" lon="-2.77353">
        <ele>99</ele>
        <time>2021-01-31T11:03:16Z</time>
      </trkpt>
      <trkpt lat="47.85913" lon="-2.77353">
        <ele>99</ele>
        <time>2021-01-31T11:03:20Z</time>
      </trkpt>
      <trkpt lat="47.85911" lon="-2.77354">
        <ele>99</ele>
        <time>2021-01-31T11:03:35Z</time>
      </trkpt>
      <trkpt lat="47.85909" lon="-2.77353">
        <ele>99</ele>
        <time>2021-01-31T11:04:02Z</time>
      </trkpt>
      <trkpt lat="47.85907" lon="-2.77351">
        <ele>99</ele>
        <time>2021-01-31T11:04:03Z</time>
      </trkpt>
      <trkpt lat="47.85904" lon="-2.7735">
        <ele>98</ele>
        <time>2021-01-31T11:04:06Z</time>
      </trkpt>
      <trkpt lat="47.85903" lon="-2.77348">
        <ele>98</ele>
        <time>2021-01-31T11:04:08Z</time>
      </trkpt>
      <trkpt lat="47.859" lon="-2.77346">
        <ele>98</ele>
        <time>2021-01-31T11:04:10Z</time>
      </trkpt>
      <trkpt lat="47.85898" lon="-2.77344">
        <ele>98</ele>
        <time>2021-01-31T11:04:12Z</time>
      </trkpt>
      <trkpt lat="47.85894" lon="-2.77343">
        <ele>97</ele>
        <time>2021-01-31T11:04:15Z</time>
      </trkpt>
      <trkpt lat="47.85889" lon="-2.77342">
        <ele>97</ele>
        <time>2021-01-31T11:04:17Z</time>
      </trkpt>
      <trkpt lat="47.85886" lon="-2.7734">
        <ele>97</ele>
        <time>2021-01-31T11:04:20Z</time>
      </trkpt>
      <trkpt lat="47.85884" lon="-2.77339">
        <ele>97</ele>
        <time>2021-01-31T11:04:21Z</time>
      </trkpt>
      <trkpt lat="47.85881" lon="-2.77339">
        <ele>97</ele>
        <time>2021-01-31T11:04:24Z</time>
      </trkpt>
      <trkpt lat="47.85879" lon="-2.77338">
        <ele>96</ele>
        <time>2021-01-31T11:04:26Z</time>
      </trkpt>
      <trkpt lat="47.85875" lon="-2.77337">
        <ele>96</ele>
        <time>2021-01-31T11:04:27Z</time>
      </trkpt>
      <trkpt lat="47.85874" lon="-2.77335">
        <ele>96</ele>
        <time>2021-01-31T11:04:30Z</time>
      </trkpt>
      <trkpt lat="47.85872" lon="-2.77333">
        <ele>97</ele>
        <time>2021-01-31T11:04:32Z</time>
      </trkpt>
      <trkpt lat="47.8587" lon="-2.7733">
        <ele>97</ele>
        <time>2021-01-31T11:04:33Z</time>
      </trkpt>
      <trkpt lat="47.85868" lon="-2.77328">
        <ele>98</ele>
        <time>2021-01-31T11:04:34Z</time>
      </trkpt>
      <trkpt lat="47.85865" lon="-2.77326">
        <ele>98</ele>
        <time>2021-01-31T11:04:36Z</time>
      </trkpt>
      <trkpt lat="47.85864" lon="-2.77324">
        <ele>98</ele>
        <time>2021-01-31T11:04:38Z</time>
      </trkpt>
      <trkpt lat="47.85858" lon="-2.7732">
        <ele>99</ele>
        <time>2021-01-31T11:04:41Z</time>
      </trkpt>
      <trkpt lat="47.85856" lon="-2.77319">
        <ele>99</ele>
        <time>2021-01-31T11:04:43Z</time>
      </trkpt>
      <trkpt lat="47.85855" lon="-2.77317">
        <ele>99</ele>
        <time>2021-01-31T11:04:44Z</time>
      </trkpt>
      <trkpt lat="47.85852" lon="-2.77314">
        <ele>99</ele>
        <time>2021-01-31T11:04:45Z</time>
      </trkpt>
      <trkpt lat="47.85849" lon="-2.77311">
        <ele>99</ele>
        <time>2021-01-31T11:04:47Z</time>
      </trkpt>
      <trkpt lat="47.85847" lon="-2.7731">
        <ele>99</ele>
        <time>2021-01-31T11:04:49Z</time>
      </trkpt>
      <trkpt lat="47.85845" lon="-2.77309">
        <ele>99</ele>
        <time>2021-01-31T11:04:50Z</time>
      </trkpt>
      <trkpt lat="47.85843" lon="-2.77308">
        <ele>99</ele>
        <time>2021-01-31T11:04:52Z</time>
      </trkpt>
      <trkpt lat="47.8584" lon="-2.77309">
        <ele>99</ele>
        <time>2021-01-31T11:04:55Z</time>
      </trkpt>
      <trkpt lat="47.85837" lon="-2.7731">
        <ele>99</ele>
        <time>2021-01-31T11:04:57Z</time>
      </trkpt>
      <trkpt lat="47.85835" lon="-2.77311">
        <ele>99</ele>
        <time>2021-01-31T11:05:03Z</time>
      </trkpt>
      <trkpt lat="47.85833" lon="-2.77313">
        <ele>99</ele>
        <time>2021-01-31T11:05:06Z</time>
      </trkpt>
      <trkpt lat="47.85831" lon="-2.77313">
        <ele>99</ele>
        <time>2021-01-31T11:05:11Z</time>
      </trkpt>
      <trkpt lat="47.85828" lon="-2.77314">
        <ele>99</ele>
        <time>2021-01-31T11:05:13Z</time>
      </trkpt>
      <trkpt lat="47.85825" lon="-2.77314">
        <ele>98</ele>
        <time>2021-01-31T11:05:16Z</time>
      </trkpt>
      <trkpt lat="47.85823" lon="-2.77315">
        <ele>98</ele>
        <time>2021-01-31T11:05:17Z</time>
      </trkpt>
      <trkpt lat="47.8582" lon="-2.77316">
        <ele>98</ele>
        <time>2021-01-31T11:05:19Z</time>
      </trkpt>
      <trkpt lat="47.85818" lon="-2.77317">
        <ele>98</ele>
        <time>2021-01-31T11:05:22Z</time>
      </trkpt>
      <trkpt lat="47.85816" lon="-2.77317">
        <ele>98</ele>
        <time>2021-01-31T11:05:23Z</time>
      </trkpt>
      <trkpt lat="47.85813" lon="-2.77318">
        <ele>98</ele>
        <time>2021-01-31T11:05:25Z</time>
      </trkpt>
      <trkpt lat="47.85808" lon="-2.77319">
        <ele>97</ele>
        <time>2021-01-31T11:05:28Z</time>
      </trkpt>
      <trkpt lat="47.85806" lon="-2.7732">
        <ele>96</ele>
        <time>2021-01-31T11:05:30Z</time>
      </trkpt>
      <trkpt lat="47.85803" lon="-2.7732">
        <ele>96</ele>
        <time>2021-01-31T11:05:31Z</time>
      </trkpt>
      <trkpt lat="47.85799" lon="-2.77321">
        <ele>96</ele>
        <time>2021-01-31T11:05:33Z</time>
      </trkpt>
      <trkpt lat="47.85797" lon="-2.77321">
        <ele>96</ele>
        <time>2021-01-31T11:05:34Z</time>
      </trkpt>
      <trkpt lat="47.85794" lon="-2.77322">
        <ele>96</ele>
        <time>2021-01-31T11:05:36Z</time>
      </trkpt>
      <trkpt lat="47.85791" lon="-2.77323">
        <ele>94</ele>
        <time>2021-01-31T11:05:38Z</time>
      </trkpt>
      <trkpt lat="47.85788" lon="-2.77324">
        <ele>94</ele>
        <time>2021-01-31T11:05:40Z</time>
      </trkpt>
      <trkpt lat="47.85786" lon="-2.77324">
        <ele>94</ele>
        <time>2021-01-31T11:05:42Z</time>
      </trkpt>
      <trkpt lat="47.85782" lon="-2.77325">
        <ele>94</ele>
        <time>2021-01-31T11:05:44Z</time>
      </trkpt>
      <trkpt lat="47.8578" lon="-2.77326">
        <ele>94</ele>
        <time>2021-01-31T11:05:45Z</time>
      </trkpt>
      <trkpt lat="47.85779" lon="-2.77326">
        <ele>94</ele>
        <time>2021-01-31T11:05:47Z</time>
      </trkpt>
      <trkpt lat="47.85775" lon="-2.77326">
        <ele>94</ele>
        <time>2021-01-31T11:05:48Z</time>
      </trkpt>
      <trkpt lat="47.85773" lon="-2.77327">
        <ele>94</ele>
        <time>2021-01-31T11:05:50Z</time>
      </trkpt>
      <trkpt lat="47.85771" lon="-2.7733">
        <ele>94</ele>
        <time>2021-01-31T11:06:09Z</time>
      </trkpt>
      <trkpt lat="47.85769" lon="-2.77332">
        <ele>94</ele>
        <time>2021-01-31T11:06:11Z</time>
      </trkpt>
      <trkpt lat="47.85767" lon="-2.77334">
        <ele>94</ele>
        <time>2021-01-31T11:06:14Z</time>
      </trkpt>
      <trkpt lat="47.85765" lon="-2.77336">
        <ele>94</ele>
        <time>2021-01-31T11:06:16Z</time>
      </trkpt>
      <trkpt lat="47.85762" lon="-2.77338">
        <ele>93</ele>
        <time>2021-01-31T11:06:19Z</time>
      </trkpt>
      <trkpt lat="47.8576" lon="-2.77341">
        <ele>93</ele>
        <time>2021-01-31T11:06:21Z</time>
      </trkpt>
      <trkpt lat="47.85757" lon="-2.77345">
        <ele>93</ele>
        <time>2021-01-31T11:06:22Z</time>
      </trkpt>
      <trkpt lat="47.85755" lon="-2.77348">
        <ele>92</ele>
        <time>2021-01-31T11:06:24Z</time>
      </trkpt>
      <trkpt lat="47.8575" lon="-2.77353">
        <ele>92</ele>
        <time>2021-01-31T11:06:27Z</time>
      </trkpt>
      <trkpt lat="47.85748" lon="-2.77354">
        <ele>92</ele>
        <time>2021-01-31T11:06:28Z</time>
      </trkpt>
      <trkpt lat="47.85746" lon="-2.77355">
        <ele>92</ele>
        <time>2021-01-31T11:06:29Z</time>
      </trkpt>
      <trkpt lat="47.85743" lon="-2.77356">
        <ele>92</ele>
        <time>2021-01-31T11:06:31Z</time>
      </trkpt>
      <trkpt lat="47.8574" lon="-2.77358">
        <ele>91</ele>
        <time>2021-01-31T11:06:33Z</time>
      </trkpt>
      <trkpt lat="47.85737" lon="-2.7736">
        <ele>91</ele>
        <time>2021-01-31T11:06:34Z</time>
      </trkpt>
      <trkpt lat="47.85735" lon="-2.77361">
        <ele>91</ele>
        <time>2021-01-31T11:06:35Z</time>
      </trkpt>
      <trkpt lat="47.85733" lon="-2.77362">
        <ele>91</ele>
        <time>2021-01-31T11:06:37Z</time>
      </trkpt>
      <trkpt lat="47.8573" lon="-2.77365">
        <ele>91</ele>
        <time>2021-01-31T11:06:39Z</time>
      </trkpt>
      <trkpt lat="47.85728" lon="-2.77368">
        <ele>91</ele>
        <time>2021-01-31T11:06:40Z</time>
      </trkpt>
      <trkpt lat="47.85725" lon="-2.77369">
        <ele>91</ele>
        <time>2021-01-31T11:06:42Z</time>
      </trkpt>
      <trkpt lat="47.85721" lon="-2.77371">
        <ele>91</ele>
        <time>2021-01-31T11:06:45Z</time>
      </trkpt>
      <trkpt lat="47.85718" lon="-2.77373">
        <ele>91</ele>
        <time>2021-01-31T11:06:47Z</time>
      </trkpt>
      <trkpt lat="47.85716" lon="-2.77374">
        <ele>92</ele>
        <time>2021-01-31T11:06:49Z</time>
      </trkpt>
      <trkpt lat="47.85714" lon="-2.77376">
        <ele>92</ele>
        <time>2021-01-31T11:06:52Z</time>
      </trkpt>
      <trkpt lat="47.85713" lon="-2.77374">
        <ele>93</ele>
        <time>2021-01-31T11:07:08Z</time>
      </trkpt>
      <trkpt lat="47.85711" lon="-2.77374">
        <ele>93</ele>
        <time>2021-01-31T11:07:09Z</time>
      </trkpt>
      <trkpt lat="47.85709" lon="-2.77372">
        <ele>93</ele>
        <time>2021-01-31T11:07:12Z</time>
      </trkpt>
      <trkpt lat="47.85707" lon="-2.77371">
        <ele>93</ele>
        <time>2021-01-31T11:07:14Z</time>
      </trkpt>
      <trkpt lat="47.85704" lon="-2.77369">
        <ele>93</ele>
        <time>2021-01-31T11:07:17Z</time>
      </trkpt>
      <trkpt lat="47.85702" lon="-2.77367">
        <ele>93</ele>
        <time>2021-01-31T11:07:19Z</time>
      </trkpt>
      <trkpt lat="47.85699" lon="-2.77366">
        <ele>94</ele>
        <time>2021-01-31T11:07:22Z</time>
      </trkpt>
      <trkpt lat="47.85696" lon="-2.77365">
        <ele>94</ele>
        <time>2021-01-31T11:07:24Z</time>
      </trkpt>
      <trkpt lat="47.85694" lon="-2.77364">
        <ele>94</ele>
        <time>2021-01-31T11:07:25Z</time>
      </trkpt>
      <trkpt lat="47.8569" lon="-2.77363">
        <ele>94</ele>
        <time>2021-01-31T11:07:26Z</time>
      </trkpt>
      <trkpt lat="47.85689" lon="-2.77362">
        <ele>94</ele>
        <time>2021-01-31T11:07:27Z</time>
      </trkpt>
      <trkpt lat="47.85684" lon="-2.77361">
        <ele>94</ele>
        <time>2021-01-31T11:07:29Z</time>
      </trkpt>
      <trkpt lat="47.85682" lon="-2.77361">
        <ele>94</ele>
        <time>2021-01-31T11:07:31Z</time>
      </trkpt>
      <trkpt lat="47.85678" lon="-2.7736">
        <ele>94</ele>
        <time>2021-01-31T11:07:32Z</time>
      </trkpt>
      <trkpt lat="47.85676" lon="-2.77359">
        <ele>94</ele>
        <time>2021-01-31T11:07:34Z</time>
      </trkpt>
      <trkpt lat="47.85672" lon="-2.77359">
        <ele>94</ele>
        <time>2021-01-31T11:07:35Z</time>
      </trkpt>
      <trkpt lat="47.85669" lon="-2.7736">
        <ele>94</ele>
        <time>2021-01-31T11:07:38Z</time>
      </trkpt>
      <trkpt lat="47.85667" lon="-2.77361">
        <ele>96</ele>
        <time>2021-01-31T11:07:40Z</time>
      </trkpt>
      <trkpt lat="47.85665" lon="-2.77363">
        <ele>96</ele>
        <time>2021-01-31T11:07:41Z</time>
      </trkpt>
      <trkpt lat="47.85662" lon="-2.77366">
        <ele>96</ele>
        <time>2021-01-31T11:07:44Z</time>
      </trkpt>
      <trkpt lat="47.85661" lon="-2.7737">
        <ele>97</ele>
        <time>2021-01-31T11:07:45Z</time>
      </trkpt>
      <trkpt lat="47.85659" lon="-2.77373">
        <ele>97</ele>
        <time>2021-01-31T11:07:48Z</time>
      </trkpt>
      <trkpt lat="47.85657" lon="-2.77377">
        <ele>97</ele>
        <time>2021-01-31T11:07:50Z</time>
      </trkpt>
      <trkpt lat="47.85655" lon="-2.77381">
        <ele>97</ele>
        <time>2021-01-31T11:07:52Z</time>
      </trkpt>
      <trkpt lat="47.85653" lon="-2.77385">
        <ele>97</ele>
        <time>2021-01-31T11:07:53Z</time>
      </trkpt>
      <trkpt lat="47.85651" lon="-2.77389">
        <ele>96</ele>
        <time>2021-01-31T11:07:55Z</time>
      </trkpt>
      <trkpt lat="47.85649" lon="-2.77392">
        <ele>97</ele>
        <time>2021-01-31T11:07:58Z</time>
      </trkpt>
      <trkpt lat="47.85647" lon="-2.77396">
        <ele>97</ele>
        <time>2021-01-31T11:08:00Z</time>
      </trkpt>
      <trkpt lat="47.85645" lon="-2.774">
        <ele>97</ele>
        <time>2021-01-31T11:08:01Z</time>
      </trkpt>
      <trkpt lat="47.85643" lon="-2.77404">
        <ele>97</ele>
        <time>2021-01-31T11:08:03Z</time>
      </trkpt>
      <trkpt lat="47.85641" lon="-2.77407">
        <ele>97</ele>
        <time>2021-01-31T11:08:05Z</time>
      </trkpt>
      <trkpt lat="47.8564" lon="-2.77411">
        <ele>98</ele>
        <time>2021-01-31T11:08:07Z</time>
      </trkpt>
      <trkpt lat="47.85638" lon="-2.77415">
        <ele>98</ele>
        <time>2021-01-31T11:08:10Z</time>
      </trkpt>
      <trkpt lat="47.85637" lon="-2.77419">
        <ele>98</ele>
        <time>2021-01-31T11:08:12Z</time>
      </trkpt>
      <trkpt lat="47.85635" lon="-2.77423">
        <ele>99</ele>
        <time>2021-01-31T11:08:13Z</time>
      </trkpt>
      <trkpt lat="47.85633" lon="-2.77427">
        <ele>99</ele>
        <time>2021-01-31T11:08:15Z</time>
      </trkpt>
      <trkpt lat="47.85631" lon="-2.77431">
        <ele>99</ele>
        <time>2021-01-31T11:08:18Z</time>
      </trkpt>
      <trkpt lat="47.8563" lon="-2.77435">
        <ele>100</ele>
        <time>2021-01-31T11:08:19Z</time>
      </trkpt>
      <trkpt lat="47.85628" lon="-2.77439">
        <ele>99</ele>
        <time>2021-01-31T11:08:22Z</time>
      </trkpt>
      <trkpt lat="47.85626" lon="-2.77442">
        <ele>99</ele>
        <time>2021-01-31T11:08:24Z</time>
      </trkpt>
      <trkpt lat="47.85625" lon="-2.77446">
        <ele>99</ele>
        <time>2021-01-31T11:08:25Z</time>
      </trkpt>
      <trkpt lat="47.85623" lon="-2.7745">
        <ele>99</ele>
        <time>2021-01-31T11:08:27Z</time>
      </trkpt>
      <trkpt lat="47.85621" lon="-2.77455">
        <ele>100</ele>
        <time>2021-01-31T11:08:29Z</time>
      </trkpt>
      <trkpt lat="47.8562" lon="-2.77459">
        <ele>100</ele>
        <time>2021-01-31T11:08:32Z</time>
      </trkpt>
      <trkpt lat="47.85618" lon="-2.77463">
        <ele>101</ele>
        <time>2021-01-31T11:08:34Z</time>
      </trkpt>
      <trkpt lat="47.85616" lon="-2.77467">
        <ele>101</ele>
        <time>2021-01-31T11:08:35Z</time>
      </trkpt>
      <trkpt lat="47.85615" lon="-2.7747">
        <ele>101</ele>
        <time>2021-01-31T11:08:38Z</time>
      </trkpt>
      <trkpt lat="47.85613" lon="-2.77474">
        <ele>100</ele>
        <time>2021-01-31T11:08:40Z</time>
      </trkpt>
      <trkpt lat="47.85611" lon="-2.77479">
        <ele>100</ele>
        <time>2021-01-31T11:08:41Z</time>
      </trkpt>
      <trkpt lat="47.85609" lon="-2.77483">
        <ele>100</ele>
        <time>2021-01-31T11:08:43Z</time>
      </trkpt>
      <trkpt lat="47.85608" lon="-2.77487">
        <ele>101</ele>
        <time>2021-01-31T11:08:46Z</time>
      </trkpt>
      <trkpt lat="47.85606" lon="-2.77491">
        <ele>101</ele>
        <time>2021-01-31T11:08:47Z</time>
      </trkpt>
      <trkpt lat="47.85604" lon="-2.77495">
        <ele>102</ele>
        <time>2021-01-31T11:08:50Z</time>
      </trkpt>
      <trkpt lat="47.85602" lon="-2.77499">
        <ele>102</ele>
        <time>2021-01-31T11:08:51Z</time>
      </trkpt>
      <trkpt lat="47.85601" lon="-2.77503">
        <ele>103</ele>
        <time>2021-01-31T11:08:54Z</time>
      </trkpt>
      <trkpt lat="47.85599" lon="-2.77507">
        <ele>103</ele>
        <time>2021-01-31T11:08:56Z</time>
      </trkpt>
      <trkpt lat="47.85597" lon="-2.77511">
        <ele>103</ele>
        <time>2021-01-31T11:08:58Z</time>
      </trkpt>
      <trkpt lat="47.85595" lon="-2.77515">
        <ele>104</ele>
        <time>2021-01-31T11:08:59Z</time>
      </trkpt>
      <trkpt lat="47.85594" lon="-2.77519">
        <ele>104</ele>
        <time>2021-01-31T11:09:01Z</time>
      </trkpt>
      <trkpt lat="47.85592" lon="-2.77523">
        <ele>104</ele>
        <time>2021-01-31T11:09:04Z</time>
      </trkpt>
      <trkpt lat="47.8559" lon="-2.77527">
        <ele>104</ele>
        <time>2021-01-31T11:09:05Z</time>
      </trkpt>
      <trkpt lat="47.85589" lon="-2.77531">
        <ele>105</ele>
        <time>2021-01-31T11:09:07Z</time>
      </trkpt>
      <trkpt lat="47.85587" lon="-2.77535">
        <ele>105</ele>
        <time>2021-01-31T11:09:10Z</time>
      </trkpt>
      <trkpt lat="47.85585" lon="-2.77539">
        <ele>105</ele>
        <time>2021-01-31T11:09:11Z</time>
      </trkpt>
      <trkpt lat="47.85584" lon="-2.77543">
        <ele>105</ele>
        <time>2021-01-31T11:09:13Z</time>
      </trkpt>
      <trkpt lat="47.85582" lon="-2.77548">
        <ele>105</ele>
        <time>2021-01-31T11:09:16Z</time>
      </trkpt>
      <trkpt lat="47.85581" lon="-2.77552">
        <ele>105</ele>
        <time>2021-01-31T11:09:17Z</time>
      </trkpt>
      <trkpt lat="47.85579" lon="-2.77556">
        <ele>106</ele>
        <time>2021-01-31T11:09:19Z</time>
      </trkpt>
      <trkpt lat="47.85578" lon="-2.7756">
        <ele>106</ele>
        <time>2021-01-31T11:09:21Z</time>
      </trkpt>
      <trkpt lat="47.85577" lon="-2.77564">
        <ele>107</ele>
        <time>2021-01-31T11:09:24Z</time>
      </trkpt>
      <trkpt lat="47.85576" lon="-2.77568">
        <ele>107</ele>
        <time>2021-01-31T11:09:25Z</time>
      </trkpt>
      <trkpt lat="47.85574" lon="-2.77573">
        <ele>107</ele>
        <time>2021-01-31T11:09:27Z</time>
      </trkpt>
      <trkpt lat="47.85573" lon="-2.77577">
        <ele>106</ele>
        <time>2021-01-31T11:09:30Z</time>
      </trkpt>
      <trkpt lat="47.85572" lon="-2.77582">
        <ele>107</ele>
        <time>2021-01-31T11:09:32Z</time>
      </trkpt>
      <trkpt lat="47.85571" lon="-2.77586">
        <ele>107</ele>
        <time>2021-01-31T11:09:33Z</time>
      </trkpt>
      <trkpt lat="47.8557" lon="-2.77591">
        <ele>107</ele>
        <time>2021-01-31T11:09:35Z</time>
      </trkpt>
      <trkpt lat="47.85569" lon="-2.77595">
        <ele>107</ele>
        <time>2021-01-31T11:09:38Z</time>
      </trkpt>
      <trkpt lat="47.85568" lon="-2.776">
        <ele>107</ele>
        <time>2021-01-31T11:09:39Z</time>
      </trkpt>
      <trkpt lat="47.85567" lon="-2.77604">
        <ele>108</ele>
        <time>2021-01-31T11:09:42Z</time>
      </trkpt>
      <trkpt lat="47.85566" lon="-2.77609">
        <ele>108</ele>
        <time>2021-01-31T11:09:43Z</time>
      </trkpt>
      <trkpt lat="47.85565" lon="-2.77613">
        <ele>108</ele>
        <time>2021-01-31T11:09:45Z</time>
      </trkpt>
      <trkpt lat="47.85564" lon="-2.77618">
        <ele>108</ele>
        <time>2021-01-31T11:09:47Z</time>
      </trkpt>
      <trkpt lat="47.85563" lon="-2.77623">
        <ele>108</ele>
        <time>2021-01-31T11:09:50Z</time>
      </trkpt>
      <trkpt lat="47.85563" lon="-2.77628">
        <ele>107</ele>
        <time>2021-01-31T11:09:51Z</time>
      </trkpt>
      <trkpt lat="47.85562" lon="-2.77633">
        <ele>107</ele>
        <time>2021-01-31T11:09:53Z</time>
      </trkpt>
      <trkpt lat="47.85562" lon="-2.77637">
        <ele>107</ele>
        <time>2021-01-31T11:09:56Z</time>
      </trkpt>
      <trkpt lat="47.85561" lon="-2.77642">
        <ele>107</ele>
        <time>2021-01-31T11:09:57Z</time>
      </trkpt>
      <trkpt lat="47.85561" lon="-2.77647">
        <ele>107</ele>
        <time>2021-01-31T11:09:59Z</time>
      </trkpt>
      <trkpt lat="47.8556" lon="-2.77652">
        <ele>107</ele>
        <time>2021-01-31T11:10:02Z</time>
      </trkpt>
      <trkpt lat="47.8556" lon="-2.77656">
        <ele>107</ele>
        <time>2021-01-31T11:10:03Z</time>
      </trkpt>
      <trkpt lat="47.85559" lon="-2.77661">
        <ele>108</ele>
        <time>2021-01-31T11:10:05Z</time>
      </trkpt>
      <trkpt lat="47.85559" lon="-2.77665">
        <ele>108</ele>
        <time>2021-01-31T11:10:08Z</time>
      </trkpt>
      <trkpt lat="47.85558" lon="-2.77669">
        <ele>108</ele>
        <time>2021-01-31T11:10:10Z</time>
      </trkpt>
      <trkpt lat="47.85558" lon="-2.77674">
        <ele>108</ele>
        <time>2021-01-31T11:10:11Z</time>
      </trkpt>
      <trkpt lat="47.85557" lon="-2.77679">
        <ele>108</ele>
        <time>2021-01-31T11:10:14Z</time>
      </trkpt>
      <trkpt lat="47.85557" lon="-2.77684">
        <ele>108</ele>
        <time>2021-01-31T11:10:15Z</time>
      </trkpt>
      <trkpt lat="47.85557" lon="-2.77689">
        <ele>108</ele>
        <time>2021-01-31T11:10:18Z</time>
      </trkpt>
      <trkpt lat="47.85556" lon="-2.77693">
        <ele>108</ele>
        <time>2021-01-31T11:10:19Z</time>
      </trkpt>
      <trkpt lat="47.85556" lon="-2.77698">
        <ele>108</ele>
        <time>2021-01-31T11:10:21Z</time>
      </trkpt>
      <trkpt lat="47.85555" lon="-2.77703">
        <ele>108</ele>
        <time>2021-01-31T11:10:24Z</time>
      </trkpt>
      <trkpt lat="47.85555" lon="-2.77708">
        <ele>108</ele>
        <time>2021-01-31T11:10:25Z</time>
      </trkpt>
      <trkpt lat="47.85554" lon="-2.77712">
        <ele>108</ele>
        <time>2021-01-31T11:10:28Z</time>
      </trkpt>
      <trkpt lat="47.85554" lon="-2.77717">
        <ele>108</ele>
        <time>2021-01-31T11:10:30Z</time>
      </trkpt>
      <trkpt lat="47.85553" lon="-2.77721">
        <ele>108</ele>
        <time>2021-01-31T11:10:31Z</time>
      </trkpt>
      <trkpt lat="47.85553" lon="-2.77726">
        <ele>108</ele>
        <time>2021-01-31T11:10:34Z</time>
      </trkpt>
      <trkpt lat="47.85553" lon="-2.7773">
        <ele>108</ele>
        <time>2021-01-31T11:10:35Z</time>
      </trkpt>
      <trkpt lat="47.85555" lon="-2.77734">
        <ele>108</ele>
        <time>2021-01-31T11:10:37Z</time>
      </trkpt>
      <trkpt lat="47.85557" lon="-2.77735">
        <ele>108</ele>
        <time>2021-01-31T11:10:40Z</time>
      </trkpt>
      <trkpt lat="47.85559" lon="-2.77736">
        <ele>108</ele>
        <time>2021-01-31T11:10:56Z</time>
      </trkpt>
      <trkpt lat="47.85562" lon="-2.77737">
        <ele>107</ele>
        <time>2021-01-31T11:10:57Z</time>
      </trkpt>
      <trkpt lat="47.85564" lon="-2.77737">
        <ele>107</ele>
        <time>2021-01-31T11:10:59Z</time>
      </trkpt>
      <trkpt lat="47.85567" lon="-2.77736">
        <ele>107</ele>
        <time>2021-01-31T11:11:02Z</time>
      </trkpt>
      <trkpt lat="47.85569" lon="-2.77736">
        <ele>107</ele>
        <time>2021-01-31T11:11:03Z</time>
      </trkpt>
      <trkpt lat="47.85572" lon="-2.77737">
        <ele>107</ele>
        <time>2021-01-31T11:11:05Z</time>
      </trkpt>
      <trkpt lat="47.85575" lon="-2.77737">
        <ele>107</ele>
        <time>2021-01-31T11:11:08Z</time>
      </trkpt>
      <trkpt lat="47.85578" lon="-2.77737">
        <ele>107</ele>
        <time>2021-01-31T11:11:10Z</time>
      </trkpt>
      <trkpt lat="47.85581" lon="-2.77737">
        <ele>107</ele>
        <time>2021-01-31T11:11:11Z</time>
      </trkpt>
      <trkpt lat="47.85584" lon="-2.77737">
        <ele>106</ele>
        <time>2021-01-31T11:11:13Z</time>
      </trkpt>
      <trkpt lat="47.85586" lon="-2.77737">
        <ele>106</ele>
        <time>2021-01-31T11:11:15Z</time>
      </trkpt>
      <trkpt lat="47.85589" lon="-2.77737">
        <ele>106</ele>
        <time>2021-01-31T11:11:17Z</time>
      </trkpt>
      <trkpt lat="47.85592" lon="-2.77737">
        <ele>106</ele>
        <time>2021-01-31T11:11:19Z</time>
      </trkpt>
      <trkpt lat="47.85595" lon="-2.77737">
        <ele>106</ele>
        <time>2021-01-31T11:11:21Z</time>
      </trkpt>
      <trkpt lat="47.85598" lon="-2.77737">
        <ele>106</ele>
        <time>2021-01-31T11:11:24Z</time>
      </trkpt>
      <trkpt lat="47.85601" lon="-2.77738">
        <ele>106</ele>
        <time>2021-01-31T11:11:25Z</time>
      </trkpt>
      <trkpt lat="47.85605" lon="-2.77737">
        <ele>106</ele>
        <time>2021-01-31T11:11:27Z</time>
      </trkpt>
      <trkpt lat="47.85607" lon="-2.77738">
        <ele>106</ele>
        <time>2021-01-31T11:11:30Z</time>
      </trkpt>
      <trkpt lat="47.8561" lon="-2.77738">
        <ele>106</ele>
        <time>2021-01-31T11:11:31Z</time>
      </trkpt>
      <trkpt lat="47.85613" lon="-2.77737">
        <ele>105</ele>
        <time>2021-01-31T11:11:33Z</time>
      </trkpt>
      <trkpt lat="47.85616" lon="-2.77738">
        <ele>105</ele>
        <time>2021-01-31T11:11:36Z</time>
      </trkpt>
      <trkpt lat="47.85619" lon="-2.77738">
        <ele>104</ele>
        <time>2021-01-31T11:11:38Z</time>
      </trkpt>
      <trkpt lat="47.85622" lon="-2.77738">
        <ele>104</ele>
        <time>2021-01-31T11:11:39Z</time>
      </trkpt>
      <trkpt lat="47.85625" lon="-2.77739">
        <ele>104</ele>
        <time>2021-01-31T11:11:42Z</time>
      </trkpt>
      <trkpt lat="47.85628" lon="-2.77739">
        <ele>104</ele>
        <time>2021-01-31T11:11:43Z</time>
      </trkpt>
      <trkpt lat="47.85631" lon="-2.7774">
        <ele>104</ele>
        <time>2021-01-31T11:11:45Z</time>
      </trkpt>
      <trkpt lat="47.85634" lon="-2.7774">
        <ele>103</ele>
        <time>2021-01-31T11:11:48Z</time>
      </trkpt>
      <trkpt lat="47.85637" lon="-2.7774">
        <ele>103</ele>
        <time>2021-01-31T11:11:50Z</time>
      </trkpt>
      <trkpt lat="47.8564" lon="-2.77741">
        <ele>103</ele>
        <time>2021-01-31T11:11:52Z</time>
      </trkpt>
      <trkpt lat="47.85644" lon="-2.77741">
        <ele>103</ele>
        <time>2021-01-31T11:11:54Z</time>
      </trkpt>
      <trkpt lat="47.85647" lon="-2.77742">
        <ele>103</ele>
        <time>2021-01-31T11:11:55Z</time>
      </trkpt>
      <trkpt lat="47.8565" lon="-2.77743">
        <ele>103</ele>
        <time>2021-01-31T11:11:57Z</time>
      </trkpt>
      <trkpt lat="47.85653" lon="-2.77743">
        <ele>103</ele>
        <time>2021-01-31T11:12:00Z</time>
      </trkpt>
      <trkpt lat="47.85656" lon="-2.77744">
        <ele>103</ele>
        <time>2021-01-31T11:12:01Z</time>
      </trkpt>
      <trkpt lat="47.85659" lon="-2.77746">
        <ele>103</ele>
        <time>2021-01-31T11:12:04Z</time>
      </trkpt>
      <trkpt lat="47.85663" lon="-2.77747">
        <ele>103</ele>
        <time>2021-01-31T11:12:06Z</time>
      </trkpt>
      <trkpt lat="47.85665" lon="-2.77748">
        <ele>102</ele>
        <time>2021-01-31T11:12:07Z</time>
      </trkpt>
      <trkpt lat="47.85668" lon="-2.77749">
        <ele>102</ele>
        <time>2021-01-31T11:12:10Z</time>
      </trkpt>
      <trkpt lat="47.85671" lon="-2.7775">
        <ele>102</ele>
        <time>2021-01-31T11:12:11Z</time>
      </trkpt>
      <trkpt lat="47.85674" lon="-2.77752">
        <ele>102</ele>
        <time>2021-01-31T11:12:14Z</time>
      </trkpt>
      <trkpt lat="47.85677" lon="-2.77753">
        <ele>102</ele>
        <time>2021-01-31T11:12:15Z</time>
      </trkpt>
      <trkpt lat="47.85681" lon="-2.77754">
        <ele>102</ele>
        <time>2021-01-31T11:12:17Z</time>
      </trkpt>
      <trkpt lat="47.85684" lon="-2.77755">
        <ele>103</ele>
        <time>2021-01-31T11:12:20Z</time>
      </trkpt>
      <trkpt lat="47.85687" lon="-2.77756">
        <ele>103</ele>
        <time>2021-01-31T11:12:21Z</time>
      </trkpt>
      <trkpt lat="47.8569" lon="-2.77757">
        <ele>103</ele>
        <time>2021-01-31T11:12:24Z</time>
      </trkpt>
      <trkpt lat="47.85693" lon="-2.77758">
        <ele>103</ele>
        <time>2021-01-31T11:12:25Z</time>
      </trkpt>
      <trkpt lat="47.85696" lon="-2.77759">
        <ele>103</ele>
        <time>2021-01-31T11:12:27Z</time>
      </trkpt>
      <trkpt lat="47.85699" lon="-2.77761">
        <ele>102</ele>
        <time>2021-01-31T11:12:29Z</time>
      </trkpt>
      <trkpt lat="47.85702" lon="-2.77762">
        <ele>103</ele>
        <time>2021-01-31T11:12:32Z</time>
      </trkpt>
      <trkpt lat="47.85704" lon="-2.77763">
        <ele>103</ele>
        <time>2021-01-31T11:12:33Z</time>
      </trkpt>
      <trkpt lat="47.85707" lon="-2.77764">
        <ele>103</ele>
        <time>2021-01-31T11:12:36Z</time>
      </trkpt>
      <trkpt lat="47.8571" lon="-2.77765">
        <ele>103</ele>
        <time>2021-01-31T11:12:38Z</time>
      </trkpt>
      <trkpt lat="47.85713" lon="-2.77766">
        <ele>104</ele>
        <time>2021-01-31T11:12:39Z</time>
      </trkpt>
      <trkpt lat="47.85716" lon="-2.77767">
        <ele>104</ele>
        <time>2021-01-31T11:12:42Z</time>
      </trkpt>
      <trkpt lat="47.85718" lon="-2.77769">
        <ele>104</ele>
        <time>2021-01-31T11:12:43Z</time>
      </trkpt>
      <trkpt lat="47.85721" lon="-2.7777">
        <ele>104</ele>
        <time>2021-01-31T11:12:46Z</time>
      </trkpt>
      <trkpt lat="47.85724" lon="-2.77771">
        <ele>104</ele>
        <time>2021-01-31T11:12:47Z</time>
      </trkpt>
      <trkpt lat="47.85727" lon="-2.77772">
        <ele>104</ele>
        <time>2021-01-31T11:12:50Z</time>
      </trkpt>
      <trkpt lat="47.8573" lon="-2.77774">
        <ele>104</ele>
        <time>2021-01-31T11:12:52Z</time>
      </trkpt>
      <trkpt lat="47.85733" lon="-2.77775">
        <ele>105</ele>
        <time>2021-01-31T11:12:54Z</time>
      </trkpt>
      <trkpt lat="47.85736" lon="-2.77776">
        <ele>105</ele>
        <time>2021-01-31T11:12:55Z</time>
      </trkpt>
      <trkpt lat="47.85739" lon="-2.77776">
        <ele>105</ele>
        <time>2021-01-31T11:12:57Z</time>
      </trkpt>
      <trkpt lat="47.85742" lon="-2.77776">
        <ele>105</ele>
        <time>2021-01-31T11:12:59Z</time>
      </trkpt>
      <trkpt lat="47.85745" lon="-2.77776">
        <ele>105</ele>
        <time>2021-01-31T11:13:01Z</time>
      </trkpt>
      <trkpt lat="47.85748" lon="-2.77776">
        <ele>105</ele>
        <time>2021-01-31T11:13:03Z</time>
      </trkpt>
      <trkpt lat="47.85751" lon="-2.77777">
        <ele>105</ele>
        <time>2021-01-31T11:13:06Z</time>
      </trkpt>
      <trkpt lat="47.85754" lon="-2.77778">
        <ele>106</ele>
        <time>2021-01-31T11:13:09Z</time>
      </trkpt>
      <trkpt lat="47.85757" lon="-2.7778">
        <ele>106</ele>
        <time>2021-01-31T11:13:11Z</time>
      </trkpt>
      <trkpt lat="47.8576" lon="-2.77782">
        <ele>106</ele>
        <time>2021-01-31T11:13:12Z</time>
      </trkpt>
      <trkpt lat="47.85763" lon="-2.77784">
        <ele>106</ele>
        <time>2021-01-31T11:13:14Z</time>
      </trkpt>
      <trkpt lat="47.85765" lon="-2.77786">
        <ele>107</ele>
        <time>2021-01-31T11:13:17Z</time>
      </trkpt>
      <trkpt lat="47.85767" lon="-2.77787">
        <ele>107</ele>
        <time>2021-01-31T11:13:18Z</time>
      </trkpt>
      <trkpt lat="47.85769" lon="-2.7779">
        <ele>108</ele>
        <time>2021-01-31T11:13:20Z</time>
      </trkpt>
      <trkpt lat="47.8577" lon="-2.77793">
        <ele>108</ele>
        <time>2021-01-31T11:13:23Z</time>
      </trkpt>
      <trkpt lat="47.8577" lon="-2.77796">
        <ele>108</ele>
        <time>2021-01-31T11:13:24Z</time>
      </trkpt>
      <trkpt lat="47.8577" lon="-2.778">
        <ele>109</ele>
        <time>2021-01-31T11:13:26Z</time>
      </trkpt>
      <trkpt lat="47.8577" lon="-2.77804">
        <ele>109</ele>
        <time>2021-01-31T11:13:28Z</time>
      </trkpt>
      <trkpt lat="47.85769" lon="-2.77807">
        <ele>110</ele>
        <time>2021-01-31T11:13:30Z</time>
      </trkpt>
      <trkpt lat="47.85768" lon="-2.77811">
        <ele>110</ele>
        <time>2021-01-31T11:13:32Z</time>
      </trkpt>
      <trkpt lat="47.85767" lon="-2.77814">
        <ele>111</ele>
        <time>2021-01-31T11:13:34Z</time>
      </trkpt>
      <trkpt lat="47.85765" lon="-2.77817">
        <ele>112</ele>
        <time>2021-01-31T11:13:36Z</time>
      </trkpt>
      <trkpt lat="47.85764" lon="-2.77821">
        <ele>112</ele>
        <time>2021-01-31T11:13:38Z</time>
      </trkpt>
      <trkpt lat="47.85762" lon="-2.77824">
        <ele>112</ele>
        <time>2021-01-31T11:13:40Z</time>
      </trkpt>
      <trkpt lat="47.8576" lon="-2.77827">
        <ele>112</ele>
        <time>2021-01-31T11:13:43Z</time>
      </trkpt>
      <trkpt lat="47.85759" lon="-2.7783">
        <ele>112</ele>
        <time>2021-01-31T11:13:45Z</time>
      </trkpt>
      <trkpt lat="47.85757" lon="-2.77833">
        <ele>113</ele>
        <time>2021-01-31T11:13:46Z</time>
      </trkpt>
      <trkpt lat="47.85755" lon="-2.77836">
        <ele>114</ele>
        <time>2021-01-31T11:13:49Z</time>
      </trkpt>
      <trkpt lat="47.85754" lon="-2.77839">
        <ele>114</ele>
        <time>2021-01-31T11:13:50Z</time>
      </trkpt>
      <trkpt lat="47.85753" lon="-2.77842">
        <ele>115</ele>
        <time>2021-01-31T11:13:52Z</time>
      </trkpt>
      <trkpt lat="47.85751" lon="-2.77844">
        <ele>115</ele>
        <time>2021-01-31T11:13:54Z</time>
      </trkpt>
      <trkpt lat="47.85749" lon="-2.77847">
        <ele>115</ele>
        <time>2021-01-31T11:13:57Z</time>
      </trkpt>
      <trkpt lat="47.85746" lon="-2.77849">
        <ele>115</ele>
        <time>2021-01-31T11:13:58Z</time>
      </trkpt>
      <trkpt lat="47.85743" lon="-2.7785">
        <ele>115</ele>
        <time>2021-01-31T11:14:01Z</time>
      </trkpt>
      <trkpt lat="47.85741" lon="-2.7785">
        <ele>115</ele>
        <time>2021-01-31T11:14:02Z</time>
      </trkpt>
      <trkpt lat="47.85738" lon="-2.7785">
        <ele>115</ele>
        <time>2021-01-31T11:14:04Z</time>
      </trkpt>
      <trkpt lat="47.85734" lon="-2.77851">
        <ele>115</ele>
        <time>2021-01-31T11:14:06Z</time>
      </trkpt>
      <trkpt lat="47.85731" lon="-2.77853">
        <ele>117</ele>
        <time>2021-01-31T11:14:09Z</time>
      </trkpt>
      <trkpt lat="47.85728" lon="-2.77854">
        <ele>117</ele>
        <time>2021-01-31T11:14:11Z</time>
      </trkpt>
      <trkpt lat="47.85726" lon="-2.77854">
        <ele>117</ele>
        <time>2021-01-31T11:14:12Z</time>
      </trkpt>
      <trkpt lat="47.85723" lon="-2.77855">
        <ele>117</ele>
        <time>2021-01-31T11:14:14Z</time>
      </trkpt>
      <trkpt lat="47.8572" lon="-2.77856">
        <ele>118</ele>
        <time>2021-01-31T11:14:17Z</time>
      </trkpt>
      <trkpt lat="47.85717" lon="-2.77856">
        <ele>118</ele>
        <time>2021-01-31T11:14:19Z</time>
      </trkpt>
      <trkpt lat="47.85714" lon="-2.77857">
        <ele>118</ele>
        <time>2021-01-31T11:14:20Z</time>
      </trkpt>
      <trkpt lat="47.85712" lon="-2.77858">
        <ele>118</ele>
        <time>2021-01-31T11:14:23Z</time>
      </trkpt>
      <trkpt lat="47.8571" lon="-2.7786">
        <ele>118</ele>
        <time>2021-01-31T11:14:25Z</time>
      </trkpt>
      <trkpt lat="47.85707" lon="-2.77861">
        <ele>118</ele>
        <time>2021-01-31T11:14:27Z</time>
      </trkpt>
      <trkpt lat="47.85704" lon="-2.77862">
        <ele>119</ele>
        <time>2021-01-31T11:14:28Z</time>
      </trkpt>
      <trkpt lat="47.85701" lon="-2.77863">
        <ele>119</ele>
        <time>2021-01-31T11:14:31Z</time>
      </trkpt>
      <trkpt lat="47.85698" lon="-2.77864">
        <ele>119</ele>
        <time>2021-01-31T11:14:32Z</time>
      </trkpt>
      <trkpt lat="47.85695" lon="-2.77865">
        <ele>119</ele>
        <time>2021-01-31T11:14:35Z</time>
      </trkpt>
      <trkpt lat="47.85692" lon="-2.77866">
        <ele>119</ele>
        <time>2021-01-31T11:14:37Z</time>
      </trkpt>
      <trkpt lat="47.85689" lon="-2.77867">
        <ele>119</ele>
        <time>2021-01-31T11:14:39Z</time>
      </trkpt>
      <trkpt lat="47.85686" lon="-2.77868">
        <ele>119</ele>
        <time>2021-01-31T11:14:41Z</time>
      </trkpt>
      <trkpt lat="47.85683" lon="-2.7787">
        <ele>119</ele>
        <time>2021-01-31T11:14:42Z</time>
      </trkpt>
      <trkpt lat="47.85681" lon="-2.77873">
        <ele>119</ele>
        <time>2021-01-31T11:14:45Z</time>
      </trkpt>
      <trkpt lat="47.85678" lon="-2.77875">
        <ele>123</ele>
        <time>2021-01-31T11:14:47Z</time>
      </trkpt>
      <trkpt lat="47.85676" lon="-2.77877">
        <ele>123</ele>
        <time>2021-01-31T11:14:48Z</time>
      </trkpt>
      <trkpt lat="47.85675" lon="-2.77879">
        <ele>123</ele>
        <time>2021-01-31T11:14:51Z</time>
      </trkpt>
      <trkpt lat="47.85673" lon="-2.77881">
        <ele>124</ele>
        <time>2021-01-31T11:15:11Z</time>
      </trkpt>
      <trkpt lat="47.85671" lon="-2.77883">
        <ele>124</ele>
        <time>2021-01-31T11:15:12Z</time>
      </trkpt>
      <trkpt lat="47.85668" lon="-2.77885">
        <ele>125</ele>
        <time>2021-01-31T11:15:15Z</time>
      </trkpt>
      <trkpt lat="47.85666" lon="-2.77887">
        <ele>125</ele>
        <time>2021-01-31T11:15:16Z</time>
      </trkpt>
      <trkpt lat="47.85663" lon="-2.7789">
        <ele>125</ele>
        <time>2021-01-31T11:15:18Z</time>
      </trkpt>
      <trkpt lat="47.85661" lon="-2.77891">
        <ele>125</ele>
        <time>2021-01-31T11:15:20Z</time>
      </trkpt>
      <trkpt lat="47.85658" lon="-2.77894">
        <ele>126</ele>
        <time>2021-01-31T11:15:23Z</time>
      </trkpt>
      <trkpt lat="47.85655" lon="-2.77895">
        <ele>126</ele>
        <time>2021-01-31T11:15:25Z</time>
      </trkpt>
      <trkpt lat="47.85652" lon="-2.77897">
        <ele>126</ele>
        <time>2021-01-31T11:15:26Z</time>
      </trkpt>
      <trkpt lat="47.8565" lon="-2.77899">
        <ele>127</ele>
        <time>2021-01-31T11:15:29Z</time>
      </trkpt>
      <trkpt lat="47.85648" lon="-2.77901">
        <ele>128</ele>
        <time>2021-01-31T11:15:31Z</time>
      </trkpt>
      <trkpt lat="47.85645" lon="-2.77903">
        <ele>128</ele>
        <time>2021-01-31T11:15:33Z</time>
      </trkpt>
      <trkpt lat="47.85642" lon="-2.77905">
        <ele>128</ele>
        <time>2021-01-31T11:15:34Z</time>
      </trkpt>
      <trkpt lat="47.85639" lon="-2.77907">
        <ele>128</ele>
        <time>2021-01-31T11:15:36Z</time>
      </trkpt>
      <trkpt lat="47.85636" lon="-2.77909">
        <ele>129</ele>
        <time>2021-01-31T11:15:39Z</time>
      </trkpt>
      <trkpt lat="47.85633" lon="-2.77912">
        <ele>129</ele>
        <time>2021-01-31T11:15:40Z</time>
      </trkpt>
      <trkpt lat="47.85628" lon="-2.77915">
        <ele>129</ele>
        <time>2021-01-31T11:15:43Z</time>
      </trkpt>
      <trkpt lat="47.85625" lon="-2.77918">
        <ele>129</ele>
        <time>2021-01-31T11:15:45Z</time>
      </trkpt>
      <trkpt lat="47.85623" lon="-2.77921">
        <ele>129</ele>
        <time>2021-01-31T11:15:47Z</time>
      </trkpt>
      <trkpt lat="47.8562" lon="-2.77924">
        <ele>130</ele>
        <time>2021-01-31T11:15:49Z</time>
      </trkpt>
      <trkpt lat="47.85618" lon="-2.77927">
        <ele>130</ele>
        <time>2021-01-31T11:15:52Z</time>
      </trkpt>
      <trkpt lat="47.85615" lon="-2.7793">
        <ele>130</ele>
        <time>2021-01-31T11:15:53Z</time>
      </trkpt>
      <trkpt lat="47.85613" lon="-2.77933">
        <ele>130</ele>
        <time>2021-01-31T11:15:56Z</time>
      </trkpt>
      <trkpt lat="47.85611" lon="-2.77936">
        <ele>130</ele>
        <time>2021-01-31T11:15:57Z</time>
      </trkpt>
      <trkpt lat="47.85609" lon="-2.77938">
        <ele>131</ele>
        <time>2021-01-31T11:16:00Z</time>
      </trkpt>
      <trkpt lat="47.85606" lon="-2.77941">
        <ele>132</ele>
        <time>2021-01-31T11:16:02Z</time>
      </trkpt>
      <trkpt lat="47.85604" lon="-2.77943">
        <ele>132</ele>
        <time>2021-01-31T11:16:03Z</time>
      </trkpt>
      <trkpt lat="47.85602" lon="-2.77945">
        <ele>132</ele>
        <time>2021-01-31T11:16:06Z</time>
      </trkpt>
      <trkpt lat="47.85599" lon="-2.77948">
        <ele>132</ele>
        <time>2021-01-31T11:16:08Z</time>
      </trkpt>
      <trkpt lat="47.85596" lon="-2.7795">
        <ele>132</ele>
        <time>2021-01-31T11:16:10Z</time>
      </trkpt>
      <trkpt lat="47.85594" lon="-2.77953">
        <ele>132</ele>
        <time>2021-01-31T11:16:12Z</time>
      </trkpt>
      <trkpt lat="47.85593" lon="-2.77955">
        <ele>133</ele>
        <time>2021-01-31T11:16:15Z</time>
      </trkpt>
      <trkpt lat="47.85593" lon="-2.77958">
        <ele>133</ele>
        <time>2021-01-31T11:16:16Z</time>
      </trkpt>
      <trkpt lat="47.8559" lon="-2.77957">
        <ele>133</ele>
        <time>2021-01-31T11:16:36Z</time>
      </trkpt>
      <trkpt lat="47.85588" lon="-2.7796">
        <ele>133</ele>
        <time>2021-01-31T11:16:51Z</time>
      </trkpt>
      <trkpt lat="47.85586" lon="-2.77962">
        <ele>133</ele>
        <time>2021-01-31T11:16:52Z</time>
      </trkpt>
      <trkpt lat="47.85583" lon="-2.77965">
        <ele>134</ele>
        <time>2021-01-31T11:16:55Z</time>
      </trkpt>
      <trkpt lat="47.85581" lon="-2.77968">
        <ele>134</ele>
        <time>2021-01-31T11:16:57Z</time>
      </trkpt>
      <trkpt lat="47.85579" lon="-2.77971">
        <ele>134</ele>
        <time>2021-01-31T11:16:58Z</time>
      </trkpt>
      <trkpt lat="47.85577" lon="-2.77974">
        <ele>134</ele>
        <time>2021-01-31T11:17:00Z</time>
      </trkpt>
      <trkpt lat="47.85574" lon="-2.77977">
        <ele>134</ele>
        <time>2021-01-31T11:17:03Z</time>
      </trkpt>
      <trkpt lat="47.85572" lon="-2.7798">
        <ele>134</ele>
        <time>2021-01-31T11:17:04Z</time>
      </trkpt>
      <trkpt lat="47.85569" lon="-2.77983">
        <ele>134</ele>
        <time>2021-01-31T11:17:07Z</time>
      </trkpt>
      <trkpt lat="47.85566" lon="-2.77987">
        <ele>134</ele>
        <time>2021-01-31T11:17:09Z</time>
      </trkpt>
      <trkpt lat="47.85564" lon="-2.7799">
        <ele>134</ele>
        <time>2021-01-31T11:17:10Z</time>
      </trkpt>
      <trkpt lat="47.85562" lon="-2.77994">
        <ele>134</ele>
        <time>2021-01-31T11:17:13Z</time>
      </trkpt>
      <trkpt lat="47.8556" lon="-2.77998">
        <ele>135</ele>
        <time>2021-01-31T11:17:15Z</time>
      </trkpt>
      <trkpt lat="47.85558" lon="-2.78002">
        <ele>135</ele>
        <time>2021-01-31T11:17:16Z</time>
      </trkpt>
      <trkpt lat="47.85556" lon="-2.78006">
        <ele>135</ele>
        <time>2021-01-31T11:17:19Z</time>
      </trkpt>
      <trkpt lat="47.85554" lon="-2.78009">
        <ele>135</ele>
        <time>2021-01-31T11:17:20Z</time>
      </trkpt>
      <trkpt lat="47.85552" lon="-2.78013">
        <ele>135</ele>
        <time>2021-01-31T11:17:22Z</time>
      </trkpt>
      <trkpt lat="47.85551" lon="-2.78017">
        <ele>135</ele>
        <time>2021-01-31T11:17:25Z</time>
      </trkpt>
      <trkpt lat="47.85549" lon="-2.7802">
        <ele>135</ele>
        <time>2021-01-31T11:17:27Z</time>
      </trkpt>
      <trkpt lat="47.85548" lon="-2.78023">
        <ele>135</ele>
        <time>2021-01-31T11:17:28Z</time>
      </trkpt>
      <trkpt lat="47.85546" lon="-2.78025">
        <ele>134</ele>
        <time>2021-01-31T11:17:33Z</time>
      </trkpt>
      <trkpt lat="47.85545" lon="-2.78027">
        <ele>135</ele>
        <time>2021-01-31T11:17:44Z</time>
      </trkpt>
      <trkpt lat="47.85545" lon="-2.78031">
        <ele>135</ele>
        <time>2021-01-31T11:18:09Z</time>
      </trkpt>
      <trkpt lat="47.85546" lon="-2.78034">
        <ele>135</ele>
        <time>2021-01-31T11:18:10Z</time>
      </trkpt>
      <trkpt lat="47.85548" lon="-2.78038">
        <ele>136</ele>
        <time>2021-01-31T11:18:13Z</time>
      </trkpt>
      <trkpt lat="47.85549" lon="-2.78041">
        <ele>136</ele>
        <time>2021-01-31T11:18:15Z</time>
      </trkpt>
      <trkpt lat="47.85549" lon="-2.78046">
        <ele>136</ele>
        <time>2021-01-31T11:18:16Z</time>
      </trkpt>
      <trkpt lat="47.8555" lon="-2.7805">
        <ele>136</ele>
        <time>2021-01-31T11:18:18Z</time>
      </trkpt>
      <trkpt lat="47.8555" lon="-2.78055">
        <ele>136</ele>
        <time>2021-01-31T11:18:21Z</time>
      </trkpt>
      <trkpt lat="47.85549" lon="-2.78058">
        <ele>136</ele>
        <time>2021-01-31T11:18:23Z</time>
      </trkpt>
      <trkpt lat="47.8555" lon="-2.78063">
        <ele>137</ele>
        <time>2021-01-31T11:18:25Z</time>
      </trkpt>
      <trkpt lat="47.8555" lon="-2.78067">
        <ele>137</ele>
        <time>2021-01-31T11:18:27Z</time>
      </trkpt>
      <trkpt lat="47.8555" lon="-2.78072">
        <ele>137</ele>
        <time>2021-01-31T11:18:28Z</time>
      </trkpt>
      <trkpt lat="47.8555" lon="-2.78077">
        <ele>137</ele>
        <time>2021-01-31T11:18:30Z</time>
      </trkpt>
      <trkpt lat="47.8555" lon="-2.78082">
        <ele>138</ele>
        <time>2021-01-31T11:18:33Z</time>
      </trkpt>
      <trkpt lat="47.8555" lon="-2.78086">
        <ele>138</ele>
        <time>2021-01-31T11:18:34Z</time>
      </trkpt>
      <trkpt lat="47.8555" lon="-2.78091">
        <ele>138</ele>
        <time>2021-01-31T11:18:37Z</time>
      </trkpt>
      <trkpt lat="47.8555" lon="-2.78096">
        <ele>138</ele>
        <time>2021-01-31T11:18:39Z</time>
      </trkpt>
      <trkpt lat="47.85549" lon="-2.781">
        <ele>138</ele>
        <time>2021-01-31T11:18:41Z</time>
      </trkpt>
      <trkpt lat="47.85549" lon="-2.78104">
        <ele>138</ele>
        <time>2021-01-31T11:18:42Z</time>
      </trkpt>
      <trkpt lat="47.85549" lon="-2.78107">
        <ele>139</ele>
        <time>2021-01-31T11:18:44Z</time>
      </trkpt>
      <trkpt lat="47.85548" lon="-2.7811">
        <ele>139</ele>
        <time>2021-01-31T11:18:47Z</time>
      </trkpt>
      <trkpt lat="47.85547" lon="-2.78114">
        <ele>140</ele>
        <time>2021-01-31T11:18:48Z</time>
      </trkpt>
      <trkpt lat="47.85546" lon="-2.78116">
        <ele>140</ele>
        <time>2021-01-31T11:18:51Z</time>
      </trkpt>
      <trkpt lat="47.85546" lon="-2.7812">
        <ele>140</ele>
        <time>2021-01-31T11:18:52Z</time>
      </trkpt>
      <trkpt lat="47.85547" lon="-2.78125">
        <ele>140</ele>
        <time>2021-01-31T11:18:54Z</time>
      </trkpt>
      <trkpt lat="47.85547" lon="-2.78129">
        <ele>140</ele>
        <time>2021-01-31T11:18:56Z</time>
      </trkpt>
      <trkpt lat="47.85547" lon="-2.78132">
        <ele>140</ele>
        <time>2021-01-31T11:18:59Z</time>
      </trkpt>
      <trkpt lat="47.85548" lon="-2.78135">
        <ele>140</ele>
        <time>2021-01-31T11:19:01Z</time>
      </trkpt>
      <trkpt lat="47.85548" lon="-2.78138">
        <ele>141</ele>
        <time>2021-01-31T11:19:04Z</time>
      </trkpt>
      <trkpt lat="47.85549" lon="-2.78141">
        <ele>141</ele>
        <time>2021-01-31T11:19:07Z</time>
      </trkpt>
      <trkpt lat="47.8555" lon="-2.78145">
        <ele>141</ele>
        <time>2021-01-31T11:19:08Z</time>
      </trkpt>
      <trkpt lat="47.85551" lon="-2.78149">
        <ele>141</ele>
        <time>2021-01-31T11:19:11Z</time>
      </trkpt>
      <trkpt lat="47.85552" lon="-2.78153">
        <ele>141</ele>
        <time>2021-01-31T11:19:12Z</time>
      </trkpt>
      <trkpt lat="47.85552" lon="-2.78155">
        <ele>141</ele>
        <time>2021-01-31T11:19:13Z</time>
      </trkpt>
      <trkpt lat="47.85554" lon="-2.7816">
        <ele>141</ele>
        <time>2021-01-31T11:19:15Z</time>
      </trkpt>
      <trkpt lat="47.85554" lon="-2.78163">
        <ele>141</ele>
        <time>2021-01-31T11:19:17Z</time>
      </trkpt>
      <trkpt lat="47.85555" lon="-2.78165">
        <ele>141</ele>
        <time>2021-01-31T11:19:18Z</time>
      </trkpt>
      <trkpt lat="47.85556" lon="-2.7817">
        <ele>142</ele>
        <time>2021-01-31T11:19:19Z</time>
      </trkpt>
      <trkpt lat="47.85557" lon="-2.78174">
        <ele>142</ele>
        <time>2021-01-31T11:19:21Z</time>
      </trkpt>
      <trkpt lat="47.85558" lon="-2.78178">
        <ele>142</ele>
        <time>2021-01-31T11:19:24Z</time>
      </trkpt>
      <trkpt lat="47.85558" lon="-2.7818">
        <ele>142</ele>
        <time>2021-01-31T11:19:25Z</time>
      </trkpt>
      <trkpt lat="47.85559" lon="-2.78183">
        <ele>143</ele>
        <time>2021-01-31T11:19:27Z</time>
      </trkpt>
      <trkpt lat="47.8556" lon="-2.78186">
        <ele>143</ele>
        <time>2021-01-31T11:19:30Z</time>
      </trkpt>
      <trkpt lat="47.85561" lon="-2.7819">
        <ele>144</ele>
        <time>2021-01-31T11:19:32Z</time>
      </trkpt>
      <trkpt lat="47.85561" lon="-2.78193">
        <ele>145</ele>
        <time>2021-01-31T11:19:34Z</time>
      </trkpt>
      <trkpt lat="47.85561" lon="-2.78196">
        <ele>145</ele>
        <time>2021-01-31T11:19:35Z</time>
      </trkpt>
      <trkpt lat="47.85562" lon="-2.782">
        <ele>146</ele>
        <time>2021-01-31T11:19:37Z</time>
      </trkpt>
      <trkpt lat="47.85563" lon="-2.78203">
        <ele>146</ele>
        <time>2021-01-31T11:19:40Z</time>
      </trkpt>
      <trkpt lat="47.85563" lon="-2.78207">
        <ele>146</ele>
        <time>2021-01-31T11:19:42Z</time>
      </trkpt>
      <trkpt lat="47.85564" lon="-2.7821">
        <ele>146</ele>
        <time>2021-01-31T11:19:44Z</time>
      </trkpt>
      <trkpt lat="47.85565" lon="-2.78214">
        <ele>146</ele>
        <time>2021-01-31T11:19:45Z</time>
      </trkpt>
      <trkpt lat="47.85565" lon="-2.78218">
        <ele>147</ele>
        <time>2021-01-31T11:19:48Z</time>
      </trkpt>
      <trkpt lat="47.85565" lon="-2.78221">
        <ele>147</ele>
        <time>2021-01-31T11:19:49Z</time>
      </trkpt>
      <trkpt lat="47.85566" lon="-2.78225">
        <ele>148</ele>
        <time>2021-01-31T11:19:51Z</time>
      </trkpt>
      <trkpt lat="47.85567" lon="-2.78229">
        <ele>148</ele>
        <time>2021-01-31T11:19:54Z</time>
      </trkpt>
      <trkpt lat="47.85568" lon="-2.78233">
        <ele>149</ele>
        <time>2021-01-31T11:19:55Z</time>
      </trkpt>
      <trkpt lat="47.85569" lon="-2.78237">
        <ele>149</ele>
        <time>2021-01-31T11:19:58Z</time>
      </trkpt>
      <trkpt lat="47.8557" lon="-2.78241">
        <ele>150</ele>
        <time>2021-01-31T11:19:59Z</time>
      </trkpt>
      <trkpt lat="47.8557" lon="-2.78245">
        <ele>150</ele>
        <time>2021-01-31T11:20:02Z</time>
      </trkpt>
      <trkpt lat="47.85571" lon="-2.78248">
        <ele>151</ele>
        <time>2021-01-31T11:20:03Z</time>
      </trkpt>
      <trkpt lat="47.85571" lon="-2.78252">
        <ele>152</ele>
        <time>2021-01-31T11:20:05Z</time>
      </trkpt>
      <trkpt lat="47.85572" lon="-2.78256">
        <ele>152</ele>
        <time>2021-01-31T11:20:07Z</time>
      </trkpt>
      <trkpt lat="47.85573" lon="-2.7826">
        <ele>152</ele>
        <time>2021-01-31T11:20:10Z</time>
      </trkpt>
      <trkpt lat="47.85574" lon="-2.78263">
        <ele>153</ele>
        <time>2021-01-31T11:20:12Z</time>
      </trkpt>
      <trkpt lat="47.85576" lon="-2.78269">
        <ele>153</ele>
        <time>2021-01-31T11:20:13Z</time>
      </trkpt>
      <trkpt lat="47.85578" lon="-2.78273">
        <ele>154</ele>
        <time>2021-01-31T11:20:16Z</time>
      </trkpt>
      <trkpt lat="47.85579" lon="-2.78277">
        <ele>155</ele>
        <time>2021-01-31T11:20:17Z</time>
      </trkpt>
      <trkpt lat="47.85582" lon="-2.7828">
        <ele>155</ele>
        <time>2021-01-31T11:20:19Z</time>
      </trkpt>
      <trkpt lat="47.85584" lon="-2.78285">
        <ele>155</ele>
        <time>2021-01-31T11:20:22Z</time>
      </trkpt>
      <trkpt lat="47.85585" lon="-2.78288">
        <ele>156</ele>
        <time>2021-01-31T11:20:23Z</time>
      </trkpt>
      <trkpt lat="47.85586" lon="-2.78291">
        <ele>157</ele>
        <time>2021-01-31T11:20:25Z</time>
      </trkpt>
      <trkpt lat="47.85587" lon="-2.78295">
        <ele>157</ele>
        <time>2021-01-31T11:20:28Z</time>
      </trkpt>
      <trkpt lat="47.85589" lon="-2.78299">
        <ele>157</ele>
        <time>2021-01-31T11:20:30Z</time>
      </trkpt>
      <trkpt lat="47.85591" lon="-2.78302">
        <ele>157</ele>
        <time>2021-01-31T11:20:31Z</time>
      </trkpt>
      <trkpt lat="47.85591" lon="-2.78305">
        <ele>158</ele>
        <time>2021-01-31T11:20:34Z</time>
      </trkpt>
      <trkpt lat="47.85592" lon="-2.78309">
        <ele>159</ele>
        <time>2021-01-31T11:20:36Z</time>
      </trkpt>
      <trkpt lat="47.85594" lon="-2.78313">
        <ele>159</ele>
        <time>2021-01-31T11:20:37Z</time>
      </trkpt>
      <trkpt lat="47.85595" lon="-2.78316">
        <ele>160</ele>
        <time>2021-01-31T11:20:40Z</time>
      </trkpt>
      <trkpt lat="47.85596" lon="-2.78319">
        <ele>160</ele>
        <time>2021-01-31T11:20:41Z</time>
      </trkpt>
      <trkpt lat="47.85599" lon="-2.78323">
        <ele>161</ele>
        <time>2021-01-31T11:20:43Z</time>
      </trkpt>
      <trkpt lat="47.85601" lon="-2.78326">
        <ele>161</ele>
        <time>2021-01-31T11:20:45Z</time>
      </trkpt>
      <trkpt lat="47.85602" lon="-2.78329">
        <ele>162</ele>
        <time>2021-01-31T11:20:48Z</time>
      </trkpt>
      <trkpt lat="47.85603" lon="-2.78333">
        <ele>162</ele>
        <time>2021-01-31T11:20:49Z</time>
      </trkpt>
      <trkpt lat="47.85605" lon="-2.78336">
        <ele>164</ele>
        <time>2021-01-31T11:20:52Z</time>
      </trkpt>
      <trkpt lat="47.85606" lon="-2.78339">
        <ele>164</ele>
        <time>2021-01-31T11:20:53Z</time>
      </trkpt>
      <trkpt lat="47.85607" lon="-2.78342">
        <ele>164</ele>
        <time>2021-01-31T11:20:55Z</time>
      </trkpt>
      <trkpt lat="47.85608" lon="-2.78345">
        <ele>165</ele>
        <time>2021-01-31T11:20:58Z</time>
      </trkpt>
      <trkpt lat="47.8561" lon="-2.78348">
        <ele>165</ele>
        <time>2021-01-31T11:20:59Z</time>
      </trkpt>
      <trkpt lat="47.85611" lon="-2.78352">
        <ele>166</ele>
        <time>2021-01-31T11:21:01Z</time>
      </trkpt>
      <trkpt lat="47.85612" lon="-2.78356">
        <ele>167</ele>
        <time>2021-01-31T11:21:03Z</time>
      </trkpt>
      <trkpt lat="47.85614" lon="-2.78359">
        <ele>167</ele>
        <time>2021-01-31T11:21:05Z</time>
      </trkpt>
      <trkpt lat="47.85615" lon="-2.78363">
        <ele>167</ele>
        <time>2021-01-31T11:21:08Z</time>
      </trkpt>
      <trkpt lat="47.85616" lon="-2.78367">
        <ele>167</ele>
        <time>2021-01-31T11:21:09Z</time>
      </trkpt>
      <trkpt lat="47.85617" lon="-2.78371">
        <ele>167</ele>
        <time>2021-01-31T11:21:12Z</time>
      </trkpt>
      <trkpt lat="47.85619" lon="-2.78375">
        <ele>168</ele>
        <time>2021-01-31T11:21:14Z</time>
      </trkpt>
      <trkpt lat="47.8562" lon="-2.78379">
        <ele>168</ele>
        <time>2021-01-31T11:21:15Z</time>
      </trkpt>
      <trkpt lat="47.85622" lon="-2.78381">
        <ele>170</ele>
        <time>2021-01-31T11:21:18Z</time>
      </trkpt>
      <trkpt lat="47.85625" lon="-2.78384">
        <ele>170</ele>
        <time>2021-01-31T11:21:19Z</time>
      </trkpt>
      <trkpt lat="47.85627" lon="-2.78386">
        <ele>171</ele>
        <time>2021-01-31T11:21:21Z</time>
      </trkpt>
      <trkpt lat="47.85629" lon="-2.78387">
        <ele>171</ele>
        <time>2021-01-31T11:21:24Z</time>
      </trkpt>
      <trkpt lat="47.85631" lon="-2.78388">
        <ele>172</ele>
        <time>2021-01-31T11:21:26Z</time>
      </trkpt>
      <trkpt lat="47.85634" lon="-2.78388">
        <ele>172</ele>
        <time>2021-01-31T11:21:27Z</time>
      </trkpt>
      <trkpt lat="47.85637" lon="-2.78388">
        <ele>172</ele>
        <time>2021-01-31T11:21:30Z</time>
      </trkpt>
      <trkpt lat="47.85639" lon="-2.78387">
        <ele>172</ele>
        <time>2021-01-31T11:21:32Z</time>
      </trkpt>
      <trkpt lat="47.85642" lon="-2.78386">
        <ele>172</ele>
        <time>2021-01-31T11:21:33Z</time>
      </trkpt>
      <trkpt lat="47.85644" lon="-2.78384">
        <ele>173</ele>
        <time>2021-01-31T11:21:36Z</time>
      </trkpt>
      <trkpt lat="47.85647" lon="-2.78381">
        <ele>174</ele>
        <time>2021-01-31T11:21:38Z</time>
      </trkpt>
      <trkpt lat="47.8565" lon="-2.78379">
        <ele>174</ele>
        <time>2021-01-31T11:21:39Z</time>
      </trkpt>
      <trkpt lat="47.85653" lon="-2.78379">
        <ele>174</ele>
        <time>2021-01-31T11:21:41Z</time>
      </trkpt>
      <trkpt lat="47.85656" lon="-2.7838">
        <ele>174</ele>
        <time>2021-01-31T11:21:44Z</time>
      </trkpt>
      <trkpt lat="47.85658" lon="-2.78382">
        <ele>175</ele>
        <time>2021-01-31T11:21:46Z</time>
      </trkpt>
      <trkpt lat="47.85661" lon="-2.78386">
        <ele>175</ele>
        <time>2021-01-31T11:21:47Z</time>
      </trkpt>
      <trkpt lat="47.85665" lon="-2.78391">
        <ele>175</ele>
        <time>2021-01-31T11:21:50Z</time>
      </trkpt>
      <trkpt lat="47.85667" lon="-2.78392">
        <ele>175</ele>
        <time>2021-01-31T11:21:51Z</time>
      </trkpt>
      <trkpt lat="47.85669" lon="-2.78393">
        <ele>176</ele>
        <time>2021-01-31T11:21:53Z</time>
      </trkpt>
      <trkpt lat="47.85672" lon="-2.78396">
        <ele>176</ele>
        <time>2021-01-31T11:21:55Z</time>
      </trkpt>
      <trkpt lat="47.85674" lon="-2.78397">
        <ele>176</ele>
        <time>2021-01-31T11:21:56Z</time>
      </trkpt>
      <trkpt lat="47.85677" lon="-2.78399">
        <ele>176</ele>
        <time>2021-01-31T11:21:58Z</time>
      </trkpt>
      <trkpt lat="47.8568" lon="-2.78402">
        <ele>176</ele>
        <time>2021-01-31T11:21:59Z</time>
      </trkpt>
      <trkpt lat="47.85683" lon="-2.78403">
        <ele>177</ele>
        <time>2021-01-31T11:22:02Z</time>
      </trkpt>
      <trkpt lat="47.85687" lon="-2.78404">
        <ele>177</ele>
        <time>2021-01-31T11:22:03Z</time>
      </trkpt>
      <trkpt lat="47.8569" lon="-2.78405">
        <ele>178</ele>
        <time>2021-01-31T11:22:05Z</time>
      </trkpt>
      <trkpt lat="47.85692" lon="-2.78407">
        <ele>178</ele>
        <time>2021-01-31T11:22:08Z</time>
      </trkpt>
      <trkpt lat="47.85694" lon="-2.7841">
        <ele>178</ele>
        <time>2021-01-31T11:22:09Z</time>
      </trkpt>
      <trkpt lat="47.85695" lon="-2.78412">
        <ele>179</ele>
        <time>2021-01-31T11:22:12Z</time>
      </trkpt>
      <trkpt lat="47.85697" lon="-2.78415">
        <ele>179</ele>
        <time>2021-01-31T11:22:15Z</time>
      </trkpt>
      <trkpt lat="47.85698" lon="-2.78411">
        <ele>179</ele>
        <time>2021-01-31T11:22:17Z</time>
      </trkpt>
      <trkpt lat="47.85699" lon="-2.78408">
        <ele>180</ele>
        <time>2021-01-31T11:22:18Z</time>
      </trkpt>
      <trkpt lat="47.85701" lon="-2.78404">
        <ele>180</ele>
        <time>2021-01-31T11:22:21Z</time>
      </trkpt>
      <trkpt lat="47.85702" lon="-2.78399">
        <ele>180</ele>
        <time>2021-01-31T11:22:23Z</time>
      </trkpt>
      <trkpt lat="47.85703" lon="-2.78395">
        <ele>180</ele>
        <time>2021-01-31T11:22:24Z</time>
      </trkpt>
      <trkpt lat="47.85705" lon="-2.78392">
        <ele>179</ele>
        <time>2021-01-31T11:22:28Z</time>
      </trkpt>
      <trkpt lat="47.85706" lon="-2.78389">
        <ele>179</ele>
        <time>2021-01-31T11:22:32Z</time>
      </trkpt>
      <trkpt lat="47.85708" lon="-2.78385">
        <ele>179</ele>
        <time>2021-01-31T11:22:33Z</time>
      </trkpt>
      <trkpt lat="47.8571" lon="-2.7838">
        <ele>179</ele>
        <time>2021-01-31T11:22:35Z</time>
      </trkpt>
      <trkpt lat="47.85711" lon="-2.78376">
        <ele>179</ele>
        <time>2021-01-31T11:22:37Z</time>
      </trkpt>
      <trkpt lat="47.85712" lon="-2.78374">
        <ele>179</ele>
        <time>2021-01-31T11:22:38Z</time>
      </trkpt>
      <trkpt lat="47.85714" lon="-2.78369">
        <ele>179</ele>
        <time>2021-01-31T11:22:40Z</time>
      </trkpt>
      <trkpt lat="47.85716" lon="-2.78365">
        <ele>178</ele>
        <time>2021-01-31T11:22:43Z</time>
      </trkpt>
      <trkpt lat="47.85719" lon="-2.78362">
        <ele>178</ele>
        <time>2021-01-31T11:22:45Z</time>
      </trkpt>
      <trkpt lat="47.8572" lon="-2.78358">
        <ele>178</ele>
        <time>2021-01-31T11:22:46Z</time>
      </trkpt>
      <trkpt lat="47.85722" lon="-2.78355">
        <ele>178</ele>
        <time>2021-01-31T11:22:49Z</time>
      </trkpt>
      <trkpt lat="47.85724" lon="-2.78351">
        <ele>179</ele>
        <time>2021-01-31T11:22:51Z</time>
      </trkpt>
      <trkpt lat="47.85725" lon="-2.78349">
        <ele>179</ele>
        <time>2021-01-31T11:22:52Z</time>
      </trkpt>
      <trkpt lat="47.85727" lon="-2.78344">
        <ele>179</ele>
        <time>2021-01-31T11:22:54Z</time>
      </trkpt>
      <trkpt lat="47.8573" lon="-2.78338">
        <ele>179</ele>
        <time>2021-01-31T11:22:56Z</time>
      </trkpt>
      <trkpt lat="47.85731" lon="-2.78333">
        <ele>179</ele>
        <time>2021-01-31T11:22:59Z</time>
      </trkpt>
      <trkpt lat="47.85733" lon="-2.78329">
        <ele>179</ele>
        <time>2021-01-31T11:23:00Z</time>
      </trkpt>
      <trkpt lat="47.85735" lon="-2.78325">
        <ele>179</ele>
        <time>2021-01-31T11:23:03Z</time>
      </trkpt>
      <trkpt lat="47.85736" lon="-2.7832">
        <ele>179</ele>
        <time>2021-01-31T11:23:04Z</time>
      </trkpt>
      <trkpt lat="47.85738" lon="-2.78316">
        <ele>179</ele>
        <time>2021-01-31T11:23:06Z</time>
      </trkpt>
      <trkpt lat="47.85739" lon="-2.78311">
        <ele>180</ele>
        <time>2021-01-31T11:23:08Z</time>
      </trkpt>
      <trkpt lat="47.85741" lon="-2.78307">
        <ele>179</ele>
        <time>2021-01-31T11:23:11Z</time>
      </trkpt>
      <trkpt lat="47.85743" lon="-2.78303">
        <ele>179</ele>
        <time>2021-01-31T11:23:12Z</time>
      </trkpt>
      <trkpt lat="47.85744" lon="-2.78299">
        <ele>180</ele>
        <time>2021-01-31T11:23:15Z</time>
      </trkpt>
      <trkpt lat="47.85745" lon="-2.78295">
        <ele>180</ele>
        <time>2021-01-31T11:23:16Z</time>
      </trkpt>
      <trkpt lat="47.85747" lon="-2.78291">
        <ele>179</ele>
        <time>2021-01-31T11:23:19Z</time>
      </trkpt>
      <trkpt lat="47.85749" lon="-2.78287">
        <ele>179</ele>
        <time>2021-01-31T11:23:20Z</time>
      </trkpt>
      <trkpt lat="47.8575" lon="-2.78284">
        <ele>179</ele>
        <time>2021-01-31T11:23:22Z</time>
      </trkpt>
      <trkpt lat="47.85752" lon="-2.7828">
        <ele>180</ele>
        <time>2021-01-31T11:23:25Z</time>
      </trkpt>
      <trkpt lat="47.85753" lon="-2.78276">
        <ele>181</ele>
        <time>2021-01-31T11:23:27Z</time>
      </trkpt>
      <trkpt lat="47.85754" lon="-2.78273">
        <ele>181</ele>
        <time>2021-01-31T11:23:28Z</time>
      </trkpt>
      <trkpt lat="47.85756" lon="-2.78269">
        <ele>181</ele>
        <time>2021-01-31T11:23:31Z</time>
      </trkpt>
      <trkpt lat="47.85757" lon="-2.78268">
        <ele>181</ele>
        <time>2021-01-31T11:23:33Z</time>
      </trkpt>
      <trkpt lat="47.85757" lon="-2.78265">
        <ele>179</ele>
        <time>2021-01-31T11:24:36Z</time>
      </trkpt>
      <trkpt lat="47.85755" lon="-2.78266">
        <ele>179</ele>
        <time>2021-01-31T11:24:44Z</time>
      </trkpt>
      <trkpt lat="47.85756" lon="-2.78263">
        <ele>179</ele>
        <time>2021-01-31T11:24:46Z</time>
      </trkpt>
      <trkpt lat="47.85757" lon="-2.7826">
        <ele>179</ele>
        <time>2021-01-31T11:24:49Z</time>
      </trkpt>
      <trkpt lat="47.85758" lon="-2.78258">
        <ele>179</ele>
        <time>2021-01-31T11:24:51Z</time>
      </trkpt>
      <trkpt lat="47.8576" lon="-2.78256">
        <ele>179</ele>
        <time>2021-01-31T11:25:44Z</time>
      </trkpt>
      <trkpt lat="47.85761" lon="-2.78253">
        <ele>179</ele>
        <time>2021-01-31T11:25:46Z</time>
      </trkpt>
      <trkpt lat="47.85762" lon="-2.7825">
        <ele>179</ele>
        <time>2021-01-31T11:25:47Z</time>
      </trkpt>
      <trkpt lat="47.85762" lon="-2.78246">
        <ele>179</ele>
        <time>2021-01-31T11:25:50Z</time>
      </trkpt>
      <trkpt lat="47.8576" lon="-2.78242">
        <ele>179</ele>
        <time>2021-01-31T11:25:52Z</time>
      </trkpt>
      <trkpt lat="47.85758" lon="-2.78239">
        <ele>179</ele>
        <time>2021-01-31T11:25:54Z</time>
      </trkpt>
      <trkpt lat="47.85756" lon="-2.78238">
        <ele>179</ele>
        <time>2021-01-31T11:25:56Z</time>
      </trkpt>
      <trkpt lat="47.85753" lon="-2.78239">
        <ele>179</ele>
        <time>2021-01-31T11:25:57Z</time>
      </trkpt>
      <trkpt lat="47.8575" lon="-2.7824">
        <ele>178</ele>
        <time>2021-01-31T11:26:00Z</time>
      </trkpt>
      <trkpt lat="47.85747" lon="-2.78242">
        <ele>179</ele>
        <time>2021-01-31T11:26:02Z</time>
      </trkpt>
      <trkpt lat="47.85746" lon="-2.78244">
        <ele>179</ele>
        <time>2021-01-31T11:26:03Z</time>
      </trkpt>
      <trkpt lat="47.85747" lon="-2.78242">
        <ele>179</ele>
        <time>2021-01-31T11:26:16Z</time>
      </trkpt>
      <trkpt lat="47.85748" lon="-2.7824">
        <ele>178</ele>
        <time>2021-01-31T11:26:19Z</time>
      </trkpt>
      <trkpt lat="47.85746" lon="-2.7824">
        <ele>178</ele>
        <time>2021-01-31T11:26:36Z</time>
      </trkpt>
      <trkpt lat="47.85748" lon="-2.78241">
        <ele>178</ele>
        <time>2021-01-31T11:26:44Z</time>
      </trkpt>
      <trkpt lat="47.8575" lon="-2.78244">
        <ele>178</ele>
        <time>2021-01-31T11:26:45Z</time>
      </trkpt>
      <trkpt lat="47.85751" lon="-2.78247">
        <ele>178</ele>
        <time>2021-01-31T11:26:48Z</time>
      </trkpt>
      <trkpt lat="47.85751" lon="-2.7825">
        <ele>178</ele>
        <time>2021-01-31T11:26:49Z</time>
      </trkpt>
      <trkpt lat="47.85753" lon="-2.78249">
        <ele>178</ele>
        <time>2021-01-31T11:27:26Z</time>
      </trkpt>
      <trkpt lat="47.85753" lon="-2.78252">
        <ele>180</ele>
        <time>2021-01-31T11:28:22Z</time>
      </trkpt>
      <trkpt lat="47.85752" lon="-2.78257">
        <ele>180</ele>
        <time>2021-01-31T11:28:23Z</time>
      </trkpt>
      <trkpt lat="47.85751" lon="-2.78262">
        <ele>180</ele>
        <time>2021-01-31T11:28:25Z</time>
      </trkpt>
      <trkpt lat="47.8575" lon="-2.78264">
        <ele>180</ele>
        <time>2021-01-31T11:28:26Z</time>
      </trkpt>
      <trkpt lat="47.85749" lon="-2.78269">
        <ele>180</ele>
        <time>2021-01-31T11:28:28Z</time>
      </trkpt>
      <trkpt lat="47.85748" lon="-2.78273">
        <ele>178</ele>
        <time>2021-01-31T11:28:31Z</time>
      </trkpt>
      <trkpt lat="47.85746" lon="-2.78277">
        <ele>178</ele>
        <time>2021-01-31T11:28:33Z</time>
      </trkpt>
      <trkpt lat="47.85745" lon="-2.78281">
        <ele>178</ele>
        <time>2021-01-31T11:28:34Z</time>
      </trkpt>
      <trkpt lat="47.85744" lon="-2.78285">
        <ele>178</ele>
        <time>2021-01-31T11:28:37Z</time>
      </trkpt>
      <trkpt lat="47.85743" lon="-2.78289">
        <ele>178</ele>
        <time>2021-01-31T11:28:38Z</time>
      </trkpt>
      <trkpt lat="47.85741" lon="-2.78293">
        <ele>178</ele>
        <time>2021-01-31T11:28:40Z</time>
      </trkpt>
      <trkpt lat="47.85738" lon="-2.78297">
        <ele>178</ele>
        <time>2021-01-31T11:28:42Z</time>
      </trkpt>
      <trkpt lat="47.85734" lon="-2.78304">
        <ele>179</ele>
        <time>2021-01-31T11:28:45Z</time>
      </trkpt>
      <trkpt lat="47.85733" lon="-2.78308">
        <ele>179</ele>
        <time>2021-01-31T11:28:46Z</time>
      </trkpt>
      <trkpt lat="47.85732" lon="-2.78311">
        <ele>178</ele>
        <time>2021-01-31T11:28:48Z</time>
      </trkpt>
      <trkpt lat="47.8573" lon="-2.78315">
        <ele>178</ele>
        <time>2021-01-31T11:28:49Z</time>
      </trkpt>
      <trkpt lat="47.85729" lon="-2.78318">
        <ele>179</ele>
        <time>2021-01-31T11:28:50Z</time>
      </trkpt>
      <trkpt lat="47.85726" lon="-2.78326">
        <ele>179</ele>
        <time>2021-01-31T11:28:51Z</time>
      </trkpt>
      <trkpt lat="47.85725" lon="-2.78329">
        <ele>179</ele>
        <time>2021-01-31T11:28:52Z</time>
      </trkpt>
      <trkpt lat="47.85721" lon="-2.78336">
        <ele>178</ele>
        <time>2021-01-31T11:28:54Z</time>
      </trkpt>
      <trkpt lat="47.85718" lon="-2.7834">
        <ele>178</ele>
        <time>2021-01-31T11:28:56Z</time>
      </trkpt>
      <trkpt lat="47.85714" lon="-2.78348">
        <ele>178</ele>
        <time>2021-01-31T11:28:57Z</time>
      </trkpt>
      <trkpt lat="47.85712" lon="-2.78352">
        <ele>178</ele>
        <time>2021-01-31T11:28:58Z</time>
      </trkpt>
      <trkpt lat="47.85711" lon="-2.78356">
        <ele>178</ele>
        <time>2021-01-31T11:28:59Z</time>
      </trkpt>
      <trkpt lat="47.85709" lon="-2.7836">
        <ele>177</ele>
        <time>2021-01-31T11:29:01Z</time>
      </trkpt>
      <trkpt lat="47.85705" lon="-2.78367">
        <ele>177</ele>
        <time>2021-01-31T11:29:02Z</time>
      </trkpt>
      <trkpt lat="47.85703" lon="-2.78371">
        <ele>177</ele>
        <time>2021-01-31T11:29:04Z</time>
      </trkpt>
      <trkpt lat="47.857" lon="-2.7838">
        <ele>177</ele>
        <time>2021-01-31T11:29:05Z</time>
      </trkpt>
      <trkpt lat="47.85699" lon="-2.78385">
        <ele>177</ele>
        <time>2021-01-31T11:29:06Z</time>
      </trkpt>
      <trkpt lat="47.85697" lon="-2.7839">
        <ele>177</ele>
        <time>2021-01-31T11:29:07Z</time>
      </trkpt>
      <trkpt lat="47.85695" lon="-2.78398">
        <ele>178</ele>
        <time>2021-01-31T11:29:09Z</time>
      </trkpt>
      <trkpt lat="47.85693" lon="-2.78401">
        <ele>177</ele>
        <time>2021-01-31T11:29:11Z</time>
      </trkpt>
      <trkpt lat="47.85693" lon="-2.78404">
        <ele>178</ele>
        <time>2021-01-31T11:29:12Z</time>
      </trkpt>
      <trkpt lat="47.85694" lon="-2.78411">
        <ele>177</ele>
        <time>2021-01-31T11:29:22Z</time>
      </trkpt>
      <trkpt lat="47.85696" lon="-2.78413">
        <ele>177</ele>
        <time>2021-01-31T11:29:25Z</time>
      </trkpt>
      <trkpt lat="47.85698" lon="-2.78414">
        <ele>177</ele>
        <time>2021-01-31T11:29:27Z</time>
      </trkpt>
      <trkpt lat="47.85701" lon="-2.78416">
        <ele>177</ele>
        <time>2021-01-31T11:29:29Z</time>
      </trkpt>
      <trkpt lat="47.85703" lon="-2.7842">
        <ele>178</ele>
        <time>2021-01-31T11:29:31Z</time>
      </trkpt>
      <trkpt lat="47.85703" lon="-2.78424">
        <ele>178</ele>
        <time>2021-01-31T11:29:33Z</time>
      </trkpt>
      <trkpt lat="47.85705" lon="-2.78426">
        <ele>179</ele>
        <time>2021-01-31T11:29:35Z</time>
      </trkpt>
      <trkpt lat="47.85706" lon="-2.7843">
        <ele>179</ele>
        <time>2021-01-31T11:29:38Z</time>
      </trkpt>
      <trkpt lat="47.85709" lon="-2.78432">
        <ele>179</ele>
        <time>2021-01-31T11:29:39Z</time>
      </trkpt>
      <trkpt lat="47.85711" lon="-2.78433">
        <ele>179</ele>
        <time>2021-01-31T11:29:41Z</time>
      </trkpt>
      <trkpt lat="47.85715" lon="-2.78433">
        <ele>179</ele>
        <time>2021-01-31T11:29:42Z</time>
      </trkpt>
      <trkpt lat="47.85718" lon="-2.78431">
        <ele>180</ele>
        <time>2021-01-31T11:29:45Z</time>
      </trkpt>
      <trkpt lat="47.85721" lon="-2.78432">
        <ele>180</ele>
        <time>2021-01-31T11:29:46Z</time>
      </trkpt>
      <trkpt lat="47.85723" lon="-2.78432">
        <ele>180</ele>
        <time>2021-01-31T11:29:48Z</time>
      </trkpt>
      <trkpt lat="47.85726" lon="-2.78435">
        <ele>180</ele>
        <time>2021-01-31T11:29:50Z</time>
      </trkpt>
      <trkpt lat="47.85729" lon="-2.78438">
        <ele>180</ele>
        <time>2021-01-31T11:29:51Z</time>
      </trkpt>
      <trkpt lat="47.8573" lon="-2.78439">
        <ele>180</ele>
        <time>2021-01-31T11:29:52Z</time>
      </trkpt>
      <trkpt lat="47.85732" lon="-2.78442">
        <ele>180</ele>
        <time>2021-01-31T11:29:54Z</time>
      </trkpt>
      <trkpt lat="47.85733" lon="-2.78446">
        <ele>180</ele>
        <time>2021-01-31T11:29:56Z</time>
      </trkpt>
      <trkpt lat="47.85734" lon="-2.7845">
        <ele>180</ele>
        <time>2021-01-31T11:29:58Z</time>
      </trkpt>
      <trkpt lat="47.85734" lon="-2.78454">
        <ele>180</ele>
        <time>2021-01-31T11:30:02Z</time>
      </trkpt>
      <trkpt lat="47.85733" lon="-2.78456">
        <ele>180</ele>
        <time>2021-01-31T11:30:04Z</time>
      </trkpt>
      <trkpt lat="47.85733" lon="-2.78459">
        <ele>180</ele>
        <time>2021-01-31T11:30:06Z</time>
      </trkpt>
      <trkpt lat="47.85731" lon="-2.78461">
        <ele>180</ele>
        <time>2021-01-31T11:30:09Z</time>
      </trkpt>
      <trkpt lat="47.85729" lon="-2.78463">
        <ele>180</ele>
        <time>2021-01-31T11:30:10Z</time>
      </trkpt>
      <trkpt lat="47.85726" lon="-2.78464">
        <ele>180</ele>
        <time>2021-01-31T11:30:13Z</time>
      </trkpt>
      <trkpt lat="47.85723" lon="-2.78466">
        <ele>180</ele>
        <time>2021-01-31T11:30:14Z</time>
      </trkpt>
      <trkpt lat="47.8572" lon="-2.78467">
        <ele>180</ele>
        <time>2021-01-31T11:30:16Z</time>
      </trkpt>
      <trkpt lat="47.85717" lon="-2.78468">
        <ele>180</ele>
        <time>2021-01-31T11:30:18Z</time>
      </trkpt>
      <trkpt lat="47.85715" lon="-2.78469">
        <ele>180</ele>
        <time>2021-01-31T11:30:20Z</time>
      </trkpt>
      <trkpt lat="47.85713" lon="-2.78473">
        <ele>180</ele>
        <time>2021-01-31T11:30:22Z</time>
      </trkpt>
      <trkpt lat="47.85711" lon="-2.78477">
        <ele>180</ele>
        <time>2021-01-31T11:30:24Z</time>
      </trkpt>
      <trkpt lat="47.85711" lon="-2.78482">
        <ele>179</ele>
        <time>2021-01-31T11:30:25Z</time>
      </trkpt>
      <trkpt lat="47.85712" lon="-2.78486">
        <ele>179</ele>
        <time>2021-01-31T11:30:27Z</time>
      </trkpt>
      <trkpt lat="47.85714" lon="-2.78488">
        <ele>179</ele>
        <time>2021-01-31T11:30:30Z</time>
      </trkpt>
      <trkpt lat="47.85717" lon="-2.78491">
        <ele>180</ele>
        <time>2021-01-31T11:30:32Z</time>
      </trkpt>
      <trkpt lat="47.85719" lon="-2.78494">
        <ele>180</ele>
        <time>2021-01-31T11:30:33Z</time>
      </trkpt>
      <trkpt lat="47.8572" lon="-2.78496">
        <ele>180</ele>
        <time>2021-01-31T11:30:35Z</time>
      </trkpt>
      <trkpt lat="47.85722" lon="-2.78502">
        <ele>180</ele>
        <time>2021-01-31T11:30:36Z</time>
      </trkpt>
      <trkpt lat="47.85723" lon="-2.78504">
        <ele>180</ele>
        <time>2021-01-31T11:30:38Z</time>
      </trkpt>
      <trkpt lat="47.85725" lon="-2.78507">
        <ele>180</ele>
        <time>2021-01-31T11:30:39Z</time>
      </trkpt>
      <trkpt lat="47.85727" lon="-2.7851">
        <ele>180</ele>
        <time>2021-01-31T11:30:42Z</time>
      </trkpt>
      <trkpt lat="47.85727" lon="-2.78513">
        <ele>180</ele>
        <time>2021-01-31T11:30:43Z</time>
      </trkpt>
      <trkpt lat="47.85729" lon="-2.78516">
        <ele>180</ele>
        <time>2021-01-31T11:30:45Z</time>
      </trkpt>
      <trkpt lat="47.85732" lon="-2.78517">
        <ele>180</ele>
        <time>2021-01-31T11:30:47Z</time>
      </trkpt>
      <trkpt lat="47.85734" lon="-2.78517">
        <ele>181</ele>
        <time>2021-01-31T11:30:49Z</time>
      </trkpt>
      <trkpt lat="47.85736" lon="-2.78517">
        <ele>181</ele>
        <time>2021-01-31T11:30:50Z</time>
      </trkpt>
      <trkpt lat="47.85739" lon="-2.78514">
        <ele>181</ele>
        <time>2021-01-31T11:30:52Z</time>
      </trkpt>
      <trkpt lat="47.85741" lon="-2.78512">
        <ele>181</ele>
        <time>2021-01-31T11:30:55Z</time>
      </trkpt>
      <trkpt lat="47.85744" lon="-2.78508">
        <ele>181</ele>
        <time>2021-01-31T11:30:57Z</time>
      </trkpt>
      <trkpt lat="47.85747" lon="-2.78506">
        <ele>181</ele>
        <time>2021-01-31T11:30:58Z</time>
      </trkpt>
      <trkpt lat="47.85749" lon="-2.78505">
        <ele>181</ele>
        <time>2021-01-31T11:31:00Z</time>
      </trkpt>
      <trkpt lat="47.8575" lon="-2.78503">
        <ele>181</ele>
        <time>2021-01-31T11:31:03Z</time>
      </trkpt>
      <trkpt lat="47.85754" lon="-2.785">
        <ele>181</ele>
        <time>2021-01-31T11:31:04Z</time>
      </trkpt>
      <trkpt lat="47.85756" lon="-2.785">
        <ele>182</ele>
        <time>2021-01-31T11:31:06Z</time>
      </trkpt>
      <trkpt lat="47.85758" lon="-2.78499">
        <ele>182</ele>
        <time>2021-01-31T11:31:07Z</time>
      </trkpt>
      <trkpt lat="47.85762" lon="-2.78498">
        <ele>182</ele>
        <time>2021-01-31T11:31:08Z</time>
      </trkpt>
      <trkpt lat="47.85765" lon="-2.78495">
        <ele>182</ele>
        <time>2021-01-31T11:31:10Z</time>
      </trkpt>
      <trkpt lat="47.85766" lon="-2.78493">
        <ele>182</ele>
        <time>2021-01-31T11:31:11Z</time>
      </trkpt>
      <trkpt lat="47.85768" lon="-2.78491">
        <ele>182</ele>
        <time>2021-01-31T11:31:14Z</time>
      </trkpt>
      <trkpt lat="47.85771" lon="-2.78489">
        <ele>182</ele>
        <time>2021-01-31T11:31:16Z</time>
      </trkpt>
      <trkpt lat="47.85772" lon="-2.78484">
        <ele>182</ele>
        <time>2021-01-31T11:31:17Z</time>
      </trkpt>
      <trkpt lat="47.85774" lon="-2.78481">
        <ele>182</ele>
        <time>2021-01-31T11:31:19Z</time>
      </trkpt>
      <trkpt lat="47.85775" lon="-2.7848">
        <ele>182</ele>
        <time>2021-01-31T11:31:20Z</time>
      </trkpt>
      <trkpt lat="47.85777" lon="-2.78479">
        <ele>182</ele>
        <time>2021-01-31T11:31:22Z</time>
      </trkpt>
      <trkpt lat="47.85779" lon="-2.78481">
        <ele>182</ele>
        <time>2021-01-31T11:31:24Z</time>
      </trkpt>
      <trkpt lat="47.8578" lon="-2.78483">
        <ele>183</ele>
        <time>2021-01-31T11:31:25Z</time>
      </trkpt>
      <trkpt lat="47.85782" lon="-2.78486">
        <ele>183</ele>
        <time>2021-01-31T11:31:27Z</time>
      </trkpt>
      <trkpt lat="47.85784" lon="-2.78488">
        <ele>183</ele>
        <time>2021-01-31T11:31:28Z</time>
      </trkpt>
      <trkpt lat="47.85786" lon="-2.78491">
        <ele>183</ele>
        <time>2021-01-31T11:31:31Z</time>
      </trkpt>
      <trkpt lat="47.85788" lon="-2.78494">
        <ele>184</ele>
        <time>2021-01-31T11:31:33Z</time>
      </trkpt>
      <trkpt lat="47.8579" lon="-2.78497">
        <ele>184</ele>
        <time>2021-01-31T11:31:35Z</time>
      </trkpt>
      <trkpt lat="47.85788" lon="-2.78499">
        <ele>184</ele>
        <time>2021-01-31T11:31:39Z</time>
      </trkpt>
      <trkpt lat="47.85786" lon="-2.78501">
        <ele>184</ele>
        <time>2021-01-31T11:31:41Z</time>
      </trkpt>
      <trkpt lat="47.85784" lon="-2.78503">
        <ele>184</ele>
        <time>2021-01-31T11:31:44Z</time>
      </trkpt>
      <trkpt lat="47.85784" lon="-2.78507">
        <ele>184</ele>
        <time>2021-01-31T11:31:45Z</time>
      </trkpt>
      <trkpt lat="47.85783" lon="-2.7851">
        <ele>184</ele>
        <time>2021-01-31T11:31:48Z</time>
      </trkpt>
      <trkpt lat="47.85782" lon="-2.78517">
        <ele>184</ele>
        <time>2021-01-31T11:31:50Z</time>
      </trkpt>
      <trkpt lat="47.85783" lon="-2.78519">
        <ele>183</ele>
        <time>2021-01-31T11:31:51Z</time>
      </trkpt>
      <trkpt lat="47.85784" lon="-2.78524">
        <ele>183</ele>
        <time>2021-01-31T11:31:53Z</time>
      </trkpt>
      <trkpt lat="47.85784" lon="-2.78527">
        <ele>184</ele>
        <time>2021-01-31T11:31:56Z</time>
      </trkpt>
      <trkpt lat="47.85782" lon="-2.78528">
        <ele>184</ele>
        <time>2021-01-31T11:31:59Z</time>
      </trkpt>
      <trkpt lat="47.8578" lon="-2.78531">
        <ele>184</ele>
        <time>2021-01-31T11:32:01Z</time>
      </trkpt>
      <trkpt lat="47.85778" lon="-2.78532">
        <ele>184</ele>
        <time>2021-01-31T11:32:03Z</time>
      </trkpt>
      <trkpt lat="47.85776" lon="-2.78534">
        <ele>184</ele>
        <time>2021-01-31T11:32:05Z</time>
      </trkpt>
      <trkpt lat="47.85774" lon="-2.78536">
        <ele>184</ele>
        <time>2021-01-31T11:32:07Z</time>
      </trkpt>
      <trkpt lat="47.85772" lon="-2.78536">
        <ele>184</ele>
        <time>2021-01-31T11:32:08Z</time>
      </trkpt>
      <trkpt lat="47.85771" lon="-2.78534">
        <ele>183</ele>
        <time>2021-01-31T11:32:12Z</time>
      </trkpt>
      <trkpt lat="47.8577" lon="-2.78531">
        <ele>183</ele>
        <time>2021-01-31T11:32:14Z</time>
      </trkpt>
      <trkpt lat="47.85769" lon="-2.78528">
        <ele>182</ele>
        <time>2021-01-31T11:32:16Z</time>
      </trkpt>
      <trkpt lat="47.85766" lon="-2.78528">
        <ele>182</ele>
        <time>2021-01-31T11:32:18Z</time>
      </trkpt>
      <trkpt lat="47.85763" lon="-2.78531">
        <ele>182</ele>
        <time>2021-01-31T11:32:20Z</time>
      </trkpt>
      <trkpt lat="47.85761" lon="-2.78533">
        <ele>182</ele>
        <time>2021-01-31T11:32:21Z</time>
      </trkpt>
      <trkpt lat="47.85759" lon="-2.78534">
        <ele>182</ele>
        <time>2021-01-31T11:32:24Z</time>
      </trkpt>
      <trkpt lat="47.85756" lon="-2.78535">
        <ele>182</ele>
        <time>2021-01-31T11:32:26Z</time>
      </trkpt>
      <trkpt lat="47.85754" lon="-2.78535">
        <ele>182</ele>
        <time>2021-01-31T11:32:28Z</time>
      </trkpt>
      <trkpt lat="47.85751" lon="-2.78537">
        <ele>182</ele>
        <time>2021-01-31T11:32:29Z</time>
      </trkpt>
      <trkpt lat="47.85748" lon="-2.78538">
        <ele>182</ele>
        <time>2021-01-31T11:32:30Z</time>
      </trkpt>
      <trkpt lat="47.85746" lon="-2.7854">
        <ele>182</ele>
        <time>2021-01-31T11:32:31Z</time>
      </trkpt>
      <trkpt lat="47.85744" lon="-2.78541">
        <ele>182</ele>
        <time>2021-01-31T11:32:34Z</time>
      </trkpt>
      <trkpt lat="47.85743" lon="-2.78543">
        <ele>182</ele>
        <time>2021-01-31T11:32:37Z</time>
      </trkpt>
      <trkpt lat="47.85742" lon="-2.78546">
        <ele>182</ele>
        <time>2021-01-31T11:32:39Z</time>
      </trkpt>
      <trkpt lat="47.85741" lon="-2.7855">
        <ele>182</ele>
        <time>2021-01-31T11:32:40Z</time>
      </trkpt>
      <trkpt lat="47.85741" lon="-2.78555">
        <ele>182</ele>
        <time>2021-01-31T11:32:43Z</time>
      </trkpt>
      <trkpt lat="47.8574" lon="-2.78557">
        <ele>181</ele>
        <time>2021-01-31T11:32:45Z</time>
      </trkpt>
      <trkpt lat="47.85738" lon="-2.7856">
        <ele>181</ele>
        <time>2021-01-31T11:32:48Z</time>
      </trkpt>
      <trkpt lat="47.85734" lon="-2.78563">
        <ele>181</ele>
        <time>2021-01-31T11:32:49Z</time>
      </trkpt>
      <trkpt lat="47.85732" lon="-2.78566">
        <ele>180</ele>
        <time>2021-01-31T11:32:51Z</time>
      </trkpt>
      <trkpt lat="47.8573" lon="-2.7857">
        <ele>180</ele>
        <time>2021-01-31T11:32:53Z</time>
      </trkpt>
      <trkpt lat="47.85728" lon="-2.78577">
        <ele>180</ele>
        <time>2021-01-31T11:32:54Z</time>
      </trkpt>
      <trkpt lat="47.85727" lon="-2.78581">
        <ele>180</ele>
        <time>2021-01-31T11:32:56Z</time>
      </trkpt>
      <trkpt lat="47.85725" lon="-2.78589">
        <ele>180</ele>
        <time>2021-01-31T11:32:57Z</time>
      </trkpt>
      <trkpt lat="47.85725" lon="-2.78593">
        <ele>180</ele>
        <time>2021-01-31T11:32:59Z</time>
      </trkpt>
      <trkpt lat="47.85723" lon="-2.78599">
        <ele>180</ele>
        <time>2021-01-31T11:33:00Z</time>
      </trkpt>
      <trkpt lat="47.85723" lon="-2.78603">
        <ele>180</ele>
        <time>2021-01-31T11:33:03Z</time>
      </trkpt>
      <trkpt lat="47.85723" lon="-2.78608">
        <ele>180</ele>
        <time>2021-01-31T11:33:04Z</time>
      </trkpt>
      <trkpt lat="47.85722" lon="-2.7861">
        <ele>180</ele>
        <time>2021-01-31T11:33:05Z</time>
      </trkpt>
      <trkpt lat="47.85721" lon="-2.78613">
        <ele>180</ele>
        <time>2021-01-31T11:33:07Z</time>
      </trkpt>
      <trkpt lat="47.8572" lon="-2.78621">
        <ele>180</ele>
        <time>2021-01-31T11:33:08Z</time>
      </trkpt>
      <trkpt lat="47.85719" lon="-2.78624">
        <ele>180</ele>
        <time>2021-01-31T11:33:09Z</time>
      </trkpt>
      <trkpt lat="47.85718" lon="-2.78628">
        <ele>180</ele>
        <time>2021-01-31T11:33:14Z</time>
      </trkpt>
      <trkpt lat="47.85719" lon="-2.78636">
        <ele>180</ele>
        <time>2021-01-31T11:33:15Z</time>
      </trkpt>
      <trkpt lat="47.85719" lon="-2.7864">
        <ele>180</ele>
        <time>2021-01-31T11:33:17Z</time>
      </trkpt>
      <trkpt lat="47.85719" lon="-2.78643">
        <ele>179</ele>
        <time>2021-01-31T11:33:18Z</time>
      </trkpt>
      <trkpt lat="47.85719" lon="-2.78646">
        <ele>179</ele>
        <time>2021-01-31T11:33:19Z</time>
      </trkpt>
      <trkpt lat="47.85719" lon="-2.78649">
        <ele>179</ele>
        <time>2021-01-31T11:33:20Z</time>
      </trkpt>
      <trkpt lat="47.8572" lon="-2.78652">
        <ele>179</ele>
        <time>2021-01-31T11:33:21Z</time>
      </trkpt>
      <trkpt lat="47.85719" lon="-2.78654">
        <ele>179</ele>
        <time>2021-01-31T11:33:22Z</time>
      </trkpt>
      <trkpt lat="47.85718" lon="-2.78658">
        <ele>179</ele>
        <time>2021-01-31T11:33:23Z</time>
      </trkpt>
      <trkpt lat="47.85716" lon="-2.78656">
        <ele>179</ele>
        <time>2021-01-31T11:33:28Z</time>
      </trkpt>
      <trkpt lat="47.85714" lon="-2.78656">
        <ele>179</ele>
        <time>2021-01-31T11:33:30Z</time>
      </trkpt>
      <trkpt lat="47.85711" lon="-2.78656">
        <ele>179</ele>
        <time>2021-01-31T11:33:32Z</time>
      </trkpt>
      <trkpt lat="47.85708" lon="-2.78658">
        <ele>179</ele>
        <time>2021-01-31T11:33:34Z</time>
      </trkpt>
      <trkpt lat="47.85706" lon="-2.78658">
        <ele>179</ele>
        <time>2021-01-31T11:33:36Z</time>
      </trkpt>
      <trkpt lat="47.85704" lon="-2.78658">
        <ele>179</ele>
        <time>2021-01-31T11:33:37Z</time>
      </trkpt>
      <trkpt lat="47.85701" lon="-2.78659">
        <ele>179</ele>
        <time>2021-01-31T11:33:39Z</time>
      </trkpt>
      <trkpt lat="47.85699" lon="-2.78661">
        <ele>178</ele>
        <time>2021-01-31T11:33:40Z</time>
      </trkpt>
      <trkpt lat="47.85698" lon="-2.78663">
        <ele>178</ele>
        <time>2021-01-31T11:33:41Z</time>
      </trkpt>
      <trkpt lat="47.85695" lon="-2.78664">
        <ele>178</ele>
        <time>2021-01-31T11:33:42Z</time>
      </trkpt>
      <trkpt lat="47.85692" lon="-2.78665">
        <ele>177</ele>
        <time>2021-01-31T11:33:44Z</time>
      </trkpt>
      <trkpt lat="47.8569" lon="-2.78665">
        <ele>177</ele>
        <time>2021-01-31T11:33:46Z</time>
      </trkpt>
      <trkpt lat="47.85688" lon="-2.78665">
        <ele>177</ele>
        <time>2021-01-31T11:33:48Z</time>
      </trkpt>
      <trkpt lat="47.85686" lon="-2.78665">
        <ele>176</ele>
        <time>2021-01-31T11:33:50Z</time>
      </trkpt>
      <trkpt lat="47.85684" lon="-2.78668">
        <ele>177</ele>
        <time>2021-01-31T11:33:52Z</time>
      </trkpt>
      <trkpt lat="47.85683" lon="-2.78672">
        <ele>177</ele>
        <time>2021-01-31T11:33:54Z</time>
      </trkpt>
      <trkpt lat="47.85682" lon="-2.78674">
        <ele>176</ele>
        <time>2021-01-31T11:33:57Z</time>
      </trkpt>
      <trkpt lat="47.85681" lon="-2.78676">
        <ele>176</ele>
        <time>2021-01-31T11:34:02Z</time>
      </trkpt>
    </trkseg>
  </trk>
</gpx>